<?xml version='1.0' encoding='UTF-8'?><gpx version="1.1" creator="JPX - https://github.com/jenetics/jpx" xmlns="http://www.topografix.com/GPX/1/1"><trk><trkseg><trkpt lat="42.54362083604838" lon="12.038563806000624"><ele>530.0</ele><time>2026-04-04T12:18:59.438Z</time></trkpt><trkpt lat="42.543580014592436" lon="12.038493916306788"><ele>530.0</ele><time>2026-04-04T12:19:01.438Z</time></trkpt><trkpt lat="42.54356363952926" lon="12.03840120565819"><ele>530.0</ele><time>2026-04-04T12:19:02.438Z</time></trkpt><trkpt lat="42.54350078695281" lon="12.03834350438892"><ele>530.0</ele><time>2026-04-04T12:19:05.438Z</time></trkpt><trkpt lat="42.54340516068426" lon="12.038229004670173"><ele>530.0</ele><time>2026-04-04T12:19:08.388Z</time></trkpt><trkpt lat="42.543350381642895" lon="12.038175280788476"><ele>530.0</ele><time>2026-04-04T12:19:11.313Z</time></trkpt><trkpt lat="42.543297008486206" lon="12.038102989358263"><ele>530.6666666666666</ele><time>2026-04-04T12:19:15.113Z</time></trkpt><trkpt lat="42.54325762139753" lon="12.038030717515733"><ele>531.3333333333333</ele><time>2026-04-04T12:19:17.999Z</time></trkpt><trkpt lat="42.5432334999155" lon="12.03792084983437"><ele>532.0</ele><time>2026-04-04T12:19:20.999Z</time></trkpt><trkpt lat="42.543231560653204" lon="12.037822706921625"><ele>532.6666666666666</ele><time>2026-04-04T12:19:23.999Z</time></trkpt><trkpt lat="42.543173891238524" lon="12.037727365561803"><ele>533.3333333333334</ele><time>2026-04-04T12:19:26.999Z</time></trkpt><trkpt lat="42.54313641059554" lon="12.037646488457902"><ele>534.0</ele><time>2026-04-04T12:19:29Z</time></trkpt><trkpt lat="42.54309550217877" lon="12.03755676507977"><ele>534.0</ele><time>2026-04-04T12:19:32Z</time></trkpt><trkpt lat="42.5430588889139" lon="12.037462767870904"><ele>534.0</ele><time>2026-04-04T12:19:35Z</time></trkpt><trkpt lat="42.543027611084405" lon="12.03736794574982"><ele>534.0</ele><time>2026-04-04T12:19:38Z</time></trkpt><trkpt lat="42.54298533045458" lon="12.037265852100719"><ele>534.0</ele><time>2026-04-04T12:19:43Z</time></trkpt><trkpt lat="42.5429560335152" lon="12.037177491081586"><ele>534.0</ele><time>2026-04-04T12:19:49Z</time></trkpt><trkpt lat="42.5429108581922" lon="12.037098398667297"><ele>534.0</ele><time>2026-04-04T12:19:54Z</time></trkpt><trkpt lat="42.542877606166115" lon="12.03701295218456"><ele>534.0</ele><time>2026-04-04T12:19:57.999Z</time></trkpt><trkpt lat="42.54282850012109" lon="12.036938376256805"><ele>534.0</ele><time>2026-04-04T12:20:00.999Z</time></trkpt><trkpt lat="42.54276253108335" lon="12.036841841379465"><ele>534.0</ele><time>2026-04-04T12:20:04.999Z</time></trkpt><trkpt lat="42.54273250138878" lon="12.03674113965648"><ele>534.0</ele><time>2026-04-04T12:20:08.999Z</time></trkpt><trkpt lat="42.54267679497829" lon="12.036685633146927"><ele>534.0</ele><time>2026-04-04T12:20:11.999Z</time></trkpt><trkpt lat="42.542628012386835" lon="12.036600006198023"><ele>534.0</ele><time>2026-04-04T12:20:14.999Z</time></trkpt><trkpt lat="42.54258006523192" lon="12.036536254739273"><ele>534.5</ele><time>2026-04-04T12:20:17.999Z</time></trkpt><trkpt lat="42.54252996566598" lon="12.03644750277812"><ele>535.0</ele><time>2026-04-04T12:20:19.999Z</time></trkpt><trkpt lat="42.542515134671724" lon="12.036352694875575"><ele>535.5</ele><time>2026-04-04T12:20:22.999Z</time></trkpt><trkpt lat="42.542569458481815" lon="12.036263468353116"><ele>536.0</ele><time>2026-04-04T12:20:25.999Z</time></trkpt><trkpt lat="42.54261815031986" lon="12.036164348931123"><ele>536.5</ele><time>2026-04-04T12:20:29.999Z</time></trkpt><trkpt lat="42.54267935802498" lon="12.036133632750758"><ele>537.0</ele><time>2026-04-04T12:20:32.999Z</time></trkpt><trkpt lat="42.54272503169985" lon="12.03607168485863"><ele>537.0</ele><time>2026-04-04T12:20:38.999Z</time></trkpt><trkpt lat="42.54279346378444" lon="12.036029011014271"><ele>537.0</ele><time>2026-04-04T12:20:43.999Z</time></trkpt><trkpt lat="42.542862343909285" lon="12.035972952718502"><ele>537.0</ele><time>2026-04-04T12:20:47.999Z</time></trkpt><trkpt lat="42.54292521328306" lon="12.03591415400256"><ele>537.0</ele><time>2026-04-04T12:20:51.999Z</time></trkpt><trkpt lat="42.54299514226022" lon="12.035866169358348"><ele>537.0</ele><time>2026-04-04T12:20:54.999Z</time></trkpt><trkpt lat="42.54306008177599" lon="12.035800796214417"><ele>537.0</ele><time>2026-04-04T12:20:57.999Z</time></trkpt><trkpt lat="42.543122761485506" lon="12.035736422709746"><ele>538.1666666666666</ele><time>2026-04-04T12:21:00.999Z</time></trkpt><trkpt lat="42.543183013659196" lon="12.035664483297374"><ele>539.3333333333334</ele><time>2026-04-04T12:21:03.999Z</time></trkpt><trkpt lat="42.54325800443235" lon="12.035634099711492"><ele>540.5</ele><time>2026-04-04T12:21:06.998Z</time></trkpt><trkpt lat="42.543337631465086" lon="12.035626019861716"><ele>541.6666666666667</ele><time>2026-04-04T12:21:09.998Z</time></trkpt><trkpt lat="42.54342682519292" lon="12.035621366844993"><ele>542.8333333333334</ele><time>2026-04-04T12:21:12.998Z</time></trkpt><trkpt lat="42.543509163096466" lon="12.035594843784198"><ele>544.0</ele><time>2026-04-04T12:21:15.998Z</time></trkpt><trkpt lat="42.543593179999846" lon="12.035585149371563"><ele>544.0</ele><time>2026-04-04T12:21:18.998Z</time></trkpt><trkpt lat="42.54368203807396" lon="12.035544310571472"><ele>544.0</ele><time>2026-04-04T12:21:21.998Z</time></trkpt><trkpt lat="42.54376905753671" lon="12.035525003487594"><ele>544.0</ele><time>2026-04-04T12:21:24.998Z</time></trkpt><trkpt lat="42.54385847680711" lon="12.035493062106093"><ele>544.0</ele><time>2026-04-04T12:21:27.998Z</time></trkpt><trkpt lat="42.54392680041329" lon="12.035475112520697"><ele>544.0</ele><time>2026-04-04T12:21:29.998Z</time></trkpt><trkpt lat="42.54399189020778" lon="12.035452394089644"><ele>544.0</ele><time>2026-04-04T12:21:31.998Z</time></trkpt><trkpt lat="42.54405370807877" lon="12.035422232381698"><ele>543.6666666666667</ele><time>2026-04-04T12:21:33.998Z</time></trkpt><trkpt lat="42.54412200938181" lon="12.035409686787437"><ele>543.3333333333334</ele><time>2026-04-04T12:21:35.998Z</time></trkpt><trkpt lat="42.54418580897205" lon="12.035381260345332"><ele>543.0</ele><time>2026-04-04T12:21:37.998Z</time></trkpt><trkpt lat="42.5442727209195" lon="12.035343106503856"><ele>542.6666666666666</ele><time>2026-04-04T12:21:40.998Z</time></trkpt><trkpt lat="42.5443367620792" lon="12.035332632822396"><ele>542.3333333333333</ele><time>2026-04-04T12:21:42.998Z</time></trkpt><trkpt lat="42.54441656683351" lon="12.035310186547328"><ele>542.0</ele><time>2026-04-04T12:21:45.998Z</time></trkpt><trkpt lat="42.544504450222284" lon="12.035270612646999"><ele>542.8333333333333</ele><time>2026-04-04T12:21:48.998Z</time></trkpt><trkpt lat="42.54458795618649" lon="12.03522990483042"><ele>543.6666666666666</ele><time>2026-04-04T12:21:51.998Z</time></trkpt><trkpt lat="42.54466692661715" lon="12.035207456186686"><ele>544.5</ele><time>2026-04-04T12:21:54.998Z</time></trkpt><trkpt lat="42.54474907259286" lon="12.035181951755286"><ele>545.3333333333334</ele><time>2026-04-04T12:21:57.998Z</time></trkpt><trkpt lat="42.54482136731848" lon="12.035186977757306"><ele>546.1666666666667</ele><time>2026-04-04T12:22:00.998Z</time></trkpt><trkpt lat="42.544893286334165" lon="12.035139402395677"><ele>547.0</ele><time>2026-04-04T12:22:04.998Z</time></trkpt><trkpt lat="42.54495757432533" lon="12.035118253840993"><ele>547.0</ele><time>2026-04-04T12:22:09.997Z</time></trkpt><trkpt lat="42.545036057460415" lon="12.03509589997671"><ele>547.0</ele><time>2026-04-04T12:22:13.997Z</time></trkpt><trkpt lat="42.54509811814936" lon="12.03507110127226"><ele>547.0</ele><time>2026-04-04T12:22:17.997Z</time></trkpt><trkpt lat="42.545166923613614" lon="12.035039232003303"><ele>547.0</ele><time>2026-04-04T12:22:22.997Z</time></trkpt><trkpt lat="42.545236454323984" lon="12.035011493204248"><ele>547.0</ele><time>2026-04-04T12:22:27.997Z</time></trkpt><trkpt lat="42.54530329139398" lon="12.034981214757845"><ele>547.0</ele><time>2026-04-04T12:22:32.997Z</time></trkpt><trkpt lat="42.545367140730484" lon="12.03495023504762"><ele>547.0</ele><time>2026-04-04T12:22:37.997Z</time></trkpt><trkpt lat="42.545436236848296" lon="12.034907682205196"><ele>548.5714285714286</ele><time>2026-04-04T12:22:42.997Z</time></trkpt><trkpt lat="42.545496086346155" lon="12.034877628805464"><ele>550.1428571428571</ele><time>2026-04-04T12:22:46.997Z</time></trkpt><trkpt lat="42.54556138050685" lon="12.03485079613516"><ele>551.7142857142857</ele><time>2026-04-04T12:22:50.997Z</time></trkpt><trkpt lat="42.54563197945731" lon="12.034824001579958"><ele>553.2857142857142</ele><time>2026-04-04T12:22:55.997Z</time></trkpt><trkpt lat="42.54568481477007" lon="12.03477407748061"><ele>554.8571428571429</ele><time>2026-04-04T12:22:59.997Z</time></trkpt><trkpt lat="42.54574745996334" lon="12.034752774020482"><ele>556.4285714285713</ele><time>2026-04-04T12:23:03.997Z</time></trkpt><trkpt lat="42.5458203578326" lon="12.03471917662254"><ele>558.0</ele><time>2026-04-04T12:23:07.997Z</time></trkpt><trkpt lat="42.545883439872746" lon="12.034702719652271"><ele>557.9999999999999</ele><time>2026-04-04T12:23:11.996Z</time></trkpt><trkpt lat="42.545958841007305" lon="12.034673688672228"><ele>558.0</ele><time>2026-04-04T12:23:15.996Z</time></trkpt><trkpt lat="42.54603207455773" lon="12.034641870906384"><ele>558.0</ele><time>2026-04-04T12:23:19.996Z</time></trkpt><trkpt lat="42.5460949197212" lon="12.034625550889436"><ele>558.0</ele><time>2026-04-04T12:23:22.996Z</time></trkpt><trkpt lat="42.54615886263523" lon="12.034604547759361"><ele>558.0</ele><time>2026-04-04T12:23:25.996Z</time></trkpt><trkpt lat="42.5462277718614" lon="12.034595328296193"><ele>557.9999999999999</ele><time>2026-04-04T12:23:28.996Z</time></trkpt><trkpt lat="42.54628987998264" lon="12.03455595148"><ele>558.0</ele><time>2026-04-04T12:23:31.996Z</time></trkpt><trkpt lat="42.546357988758764" lon="12.034539028961394"><ele>557.3333333333334</ele><time>2026-04-04T12:23:34.996Z</time></trkpt><trkpt lat="42.546435945278624" lon="12.034509634371755"><ele>556.6666666666666</ele><time>2026-04-04T12:23:37.996Z</time></trkpt><trkpt lat="42.54650881222749" lon="12.034477708685872"><ele>556.0</ele><time>2026-04-04T12:23:40.996Z</time></trkpt><trkpt lat="42.546582383542805" lon="12.034448322670348"><ele>555.3333333333333</ele><time>2026-04-04T12:23:43.996Z</time></trkpt><trkpt lat="42.54665041451409" lon="12.034403912211816"><ele>554.6666666666666</ele><time>2026-04-04T12:23:46.996Z</time></trkpt><trkpt lat="42.54671875726019" lon="12.034358959292192"><ele>554.0</ele><time>2026-04-04T12:23:49.996Z</time></trkpt><trkpt lat="42.54678789950411" lon="12.034320938458274"><ele>554.0</ele><time>2026-04-04T12:23:52.996Z</time></trkpt><trkpt lat="42.546857928977275" lon="12.034281171821195"><ele>554.0</ele><time>2026-04-04T12:23:55.996Z</time></trkpt><trkpt lat="42.5469335079559" lon="12.034237898988364"><ele>554.0</ele><time>2026-04-04T12:23:58.996Z</time></trkpt><trkpt lat="42.54699894393093" lon="12.034181913350668"><ele>554.0</ele><time>2026-04-04T12:24:01.996Z</time></trkpt><trkpt lat="42.54706646418395" lon="12.034128304592764"><ele>554.0</ele><time>2026-04-04T12:24:04.996Z</time></trkpt><trkpt lat="42.547139413707" lon="12.034086582725694"><ele>554.0</ele><time>2026-04-04T12:24:07.996Z</time></trkpt><trkpt lat="42.547206372230725" lon="12.03403421345981"><ele>554.5</ele><time>2026-04-04T12:24:10.996Z</time></trkpt><trkpt lat="42.54727616644744" lon="12.03397903280825"><ele>555.0</ele><time>2026-04-04T12:24:13.995Z</time></trkpt><trkpt lat="42.5473441123316" lon="12.033924520722028"><ele>555.5</ele><time>2026-04-04T12:24:16.995Z</time></trkpt><trkpt lat="42.54740882558719" lon="12.033877752796984"><ele>556.0</ele><time>2026-04-04T12:24:19.995Z</time></trkpt><trkpt lat="42.54746993583708" lon="12.03382487587549"><ele>556.5</ele><time>2026-04-04T12:24:22.995Z</time></trkpt><trkpt lat="42.54753685667742" lon="12.033776055410225"><ele>557.0</ele><time>2026-04-04T12:24:25.995Z</time></trkpt><trkpt lat="42.547597836763" lon="12.033719391845674"><ele>557.0</ele><time>2026-04-04T12:24:28.995Z</time></trkpt><trkpt lat="42.54766171075707" lon="12.033662937853745"><ele>557.0</ele><time>2026-04-04T12:24:31.995Z</time></trkpt><trkpt lat="42.54772417171629" lon="12.033600303609456"><ele>557.0</ele><time>2026-04-04T12:24:34.995Z</time></trkpt><trkpt lat="42.54778237686121" lon="12.033539061718686"><ele>557.0</ele><time>2026-04-04T12:24:37.995Z</time></trkpt><trkpt lat="42.547853844210316" lon="12.033472645279067"><ele>557.0</ele><time>2026-04-04T12:24:40.995Z</time></trkpt><trkpt lat="42.54790433930317" lon="12.033421407267143"><ele>557.0</ele><time>2026-04-04T12:24:42.995Z</time></trkpt><trkpt lat="42.54796754085832" lon="12.033366025788442"><ele>556.8000000000001</ele><time>2026-04-04T12:24:44.995Z</time></trkpt><trkpt lat="42.548025634652994" lon="12.03329341004154"><ele>556.6</ele><time>2026-04-04T12:24:46.995Z</time></trkpt><trkpt lat="42.54809076532271" lon="12.033201055938923"><ele>556.4000000000001</ele><time>2026-04-04T12:24:48.995Z</time></trkpt><trkpt lat="42.54816581088491" lon="12.033097186635889"><ele>556.2</ele><time>2026-04-04T12:24:50.995Z</time></trkpt><trkpt lat="42.548249545102436" lon="12.032968897304286"><ele>556.0</ele><time>2026-04-04T12:24:52.995Z</time></trkpt><trkpt lat="42.54829136773674" lon="12.03289380685654"><ele>556.0</ele><time>2026-04-04T12:24:53.995Z</time></trkpt><trkpt lat="42.54834634334153" lon="12.032798220631387"><ele>556.0</ele><time>2026-04-04T12:24:54.995Z</time></trkpt><trkpt lat="42.5483965578642" lon="12.032721141521629"><ele>556.0</ele><time>2026-04-04T12:24:55.995Z</time></trkpt><trkpt lat="42.5484530297806" lon="12.032640154666977"><ele>556.0</ele><time>2026-04-04T12:24:56.995Z</time></trkpt><trkpt lat="42.548508058940335" lon="12.032538024474816"><ele>556.0</ele><time>2026-04-04T12:24:57.995Z</time></trkpt><trkpt lat="42.54855546606859" lon="12.032441151962935"><ele>556.0</ele><time>2026-04-04T12:24:58.995Z</time></trkpt><trkpt lat="42.54861193545397" lon="12.032333261590333"><ele>555.6</ele><time>2026-04-04T12:24:59.995Z</time></trkpt><trkpt lat="42.54866207421534" lon="12.032229907082133"><ele>555.2</ele><time>2026-04-04T12:25:00.995Z</time></trkpt><trkpt lat="42.54871698675785" lon="12.032123838871714"><ele>554.8</ele><time>2026-04-04T12:25:01.995Z</time></trkpt><trkpt lat="42.548765983865295" lon="12.032005268110002"><ele>554.4</ele><time>2026-04-04T12:25:02.995Z</time></trkpt><trkpt lat="42.548807760901575" lon="12.031882931527786"><ele>554.0</ele><time>2026-04-04T12:25:03.995Z</time></trkpt><trkpt lat="42.54885649080069" lon="12.031753095943397"><ele>550.6</ele><time>2026-04-04T12:25:04.995Z</time></trkpt><trkpt lat="42.54889388033141" lon="12.031622779801767"><ele>547.2</ele><time>2026-04-04T12:25:05.995Z</time></trkpt><trkpt lat="42.54893702245123" lon="12.031494215476949"><ele>543.8000000000001</ele><time>2026-04-04T12:25:06.995Z</time></trkpt><trkpt lat="42.54897200665351" lon="12.03136375046911"><ele>540.4</ele><time>2026-04-04T12:25:07.995Z</time></trkpt><trkpt lat="42.54900002731866" lon="12.031229323393998"><ele>537.0</ele><time>2026-04-04T12:25:08.995Z</time></trkpt><trkpt lat="42.54901945432958" lon="12.031080441214089"><ele>537.0</ele><time>2026-04-04T12:25:09.995Z</time></trkpt><trkpt lat="42.54901598097674" lon="12.03093127948236"><ele>537.0</ele><time>2026-04-04T12:25:10.995Z</time></trkpt><trkpt lat="42.549001884754695" lon="12.030796074732498"><ele>537.0</ele><time>2026-04-04T12:25:11.995Z</time></trkpt><trkpt lat="42.54898486073311" lon="12.030660315484115"><ele>537.0</ele><time>2026-04-04T12:25:12.995Z</time></trkpt><trkpt lat="42.548972352081634" lon="12.030523645138329"><ele>537.0</ele><time>2026-04-04T12:25:13.995Z</time></trkpt><trkpt lat="42.54895731499945" lon="12.030385426527006"><ele>536.3333333333334</ele><time>2026-04-04T12:25:14.994Z</time></trkpt><trkpt lat="42.54894743541393" lon="12.030258434222931"><ele>535.6666666666666</ele><time>2026-04-04T12:25:15.994Z</time></trkpt><trkpt lat="42.54894845860734" lon="12.030126702748525"><ele>535.0</ele><time>2026-04-04T12:25:16.994Z</time></trkpt><trkpt lat="42.54894068203833" lon="12.030015394884241"><ele>534.3333333333333</ele><time>2026-04-04T12:25:17.994Z</time></trkpt><trkpt lat="42.548941540179065" lon="12.029918010744096"><ele>533.6666666666666</ele><time>2026-04-04T12:25:18.994Z</time></trkpt><trkpt lat="42.54895564025725" lon="12.029829544444418"><ele>533.0</ele><time>2026-04-04T12:25:19.994Z</time></trkpt><trkpt lat="42.549006164885064" lon="12.02974878994594"><ele>532.7142857142857</ele><time>2026-04-04T12:25:20.994Z</time></trkpt><trkpt lat="42.549060275109404" lon="12.029690019718354"><ele>532.4285714285713</ele><time>2026-04-04T12:25:21.994Z</time></trkpt><trkpt lat="42.54912546648401" lon="12.029635899357102"><ele>532.1428571428571</ele><time>2026-04-04T12:25:22.994Z</time></trkpt><trkpt lat="42.54918528261257" lon="12.029585934851537"><ele>531.8571428571429</ele><time>2026-04-04T12:25:23.994Z</time></trkpt><trkpt lat="42.54924611147985" lon="12.029531299093849"><ele>531.5714285714287</ele><time>2026-04-04T12:25:24.994Z</time></trkpt><trkpt lat="42.54931182413099" lon="12.029477416213046"><ele>531.2857142857143</ele><time>2026-04-04T12:25:25.994Z</time></trkpt><trkpt lat="42.54936883592607" lon="12.029426668372047"><ele>531.0</ele><time>2026-04-04T12:25:26.994Z</time></trkpt><trkpt lat="42.54942939326574" lon="12.029367406109122"><ele>531.0</ele><time>2026-04-04T12:25:27.994Z</time></trkpt><trkpt lat="42.54949031727888" lon="12.029310222609226"><ele>531.0</ele><time>2026-04-04T12:25:28.994Z</time></trkpt><trkpt lat="42.54955543316012" lon="12.029254868556933"><ele>531.0</ele><time>2026-04-04T12:25:29.994Z</time></trkpt><trkpt lat="42.54961496380291" lon="12.029207562396245"><ele>531.0</ele><time>2026-04-04T12:25:30.994Z</time></trkpt><trkpt lat="42.54967716355291" lon="12.029158190769623"><ele>531.0</ele><time>2026-04-04T12:25:31.994Z</time></trkpt><trkpt lat="42.54974091975002" lon="12.029112276913981"><ele>531.0</ele><time>2026-04-04T12:25:32.994Z</time></trkpt><trkpt lat="42.54980245407386" lon="12.029065097348314"><ele>531.0</ele><time>2026-04-04T12:25:33.994Z</time></trkpt><trkpt lat="42.54986578868823" lon="12.029019844406655"><ele>531.0</ele><time>2026-04-04T12:25:34.994Z</time></trkpt><trkpt lat="42.549925013114105" lon="12.028978713183985"><ele>531.0</ele><time>2026-04-04T12:25:35.994Z</time></trkpt><trkpt lat="42.54999055871758" lon="12.02892747113084"><ele>531.0</ele><time>2026-04-04T12:25:36.994Z</time></trkpt><trkpt lat="42.55005450286581" lon="12.028880223828075"><ele>531.0</ele><time>2026-04-04T12:25:37.994Z</time></trkpt><trkpt lat="42.55011967924313" lon="12.02883432625873"><ele>531.0</ele><time>2026-04-04T12:25:38.994Z</time></trkpt><trkpt lat="42.55017917517443" lon="12.028789631841734"><ele>531.0</ele><time>2026-04-04T12:25:39.994Z</time></trkpt><trkpt lat="42.550239281303654" lon="12.02874068524012"><ele>531.0</ele><time>2026-04-04T12:25:40.994Z</time></trkpt><trkpt lat="42.5502993645706" lon="12.02869184232017"><ele>531.0</ele><time>2026-04-04T12:25:41.994Z</time></trkpt><trkpt lat="42.55035783138188" lon="12.028643809748573"><ele>531.0</ele><time>2026-04-04T12:25:42.994Z</time></trkpt><trkpt lat="42.550418326805065" lon="12.028600464881217"><ele>531.0</ele><time>2026-04-04T12:25:43.994Z</time></trkpt><trkpt lat="42.55047470501014" lon="12.02855953639197"><ele>531.0</ele><time>2026-04-04T12:25:44.994Z</time></trkpt><trkpt lat="42.550577177876015" lon="12.028485797371319"><ele>531.0</ele><time>2026-04-04T12:25:46.994Z</time></trkpt><trkpt lat="42.55065946047199" lon="12.028387516396256"><ele>531.0</ele><time>2026-04-04T12:25:48.994Z</time></trkpt><trkpt lat="42.55072021644673" lon="12.028289839398086"><ele>531.6</ele><time>2026-04-04T12:25:50.994Z</time></trkpt><trkpt lat="42.55075360828031" lon="12.028164528592272"><ele>532.2</ele><time>2026-04-04T12:25:52.994Z</time></trkpt><trkpt lat="42.5507537741614" lon="12.028046030401281"><ele>532.8</ele><time>2026-04-04T12:25:54.994Z</time></trkpt><trkpt lat="42.5507264916123" lon="12.027917482495324"><ele>533.4</ele><time>2026-04-04T12:25:56.994Z</time></trkpt><trkpt lat="42.55068477262696" lon="12.027805993089775"><ele>534.0</ele><time>2026-04-04T12:25:58.994Z</time></trkpt><trkpt lat="42.5506289749675" lon="12.02769460884952"><ele>534.0</ele><time>2026-04-04T12:26:00.994Z</time></trkpt><trkpt lat="42.55057936581134" lon="12.02757805939356"><ele>534.0</ele><time>2026-04-04T12:26:02.994Z</time></trkpt><trkpt lat="42.55052122054597" lon="12.02746323034481"><ele>534.0</ele><time>2026-04-04T12:26:04.994Z</time></trkpt><trkpt lat="42.5504683855599" lon="12.027345602730533"><ele>534.0</ele><time>2026-04-04T12:26:06.994Z</time></trkpt><trkpt lat="42.55042672897996" lon="12.027219489965724"><ele>534.0</ele><time>2026-04-04T12:26:08.994Z</time></trkpt><trkpt lat="42.55039028721233" lon="12.02709510302338"><ele>534.0</ele><time>2026-04-04T12:26:10.994Z</time></trkpt><trkpt lat="42.55036960246737" lon="12.026947449118104"><ele>534.0</ele><time>2026-04-04T12:26:12.994Z</time></trkpt><trkpt lat="42.55036602312418" lon="12.026808509794245"><ele>534.0</ele><time>2026-04-04T12:26:14.994Z</time></trkpt><trkpt lat="42.55036838566087" lon="12.026668699693122"><ele>534.0</ele><time>2026-04-04T12:26:16.993Z</time></trkpt><trkpt lat="42.55036973866045" lon="12.026536087681475"><ele>534.0</ele><time>2026-04-04T12:26:18.993Z</time></trkpt><trkpt lat="42.550377560466316" lon="12.026408082304066"><ele>534.0</ele><time>2026-04-04T12:26:20.993Z</time></trkpt><trkpt lat="42.55038083175404" lon="12.02628306184373"><ele>534.0</ele><time>2026-04-04T12:26:22.993Z</time></trkpt><trkpt lat="42.55038573349607" lon="12.026155842402664"><ele>534.0</ele><time>2026-04-04T12:26:24.993Z</time></trkpt><trkpt lat="42.55039334973517" lon="12.026032742062682"><ele>534.0</ele><time>2026-04-04T12:26:26.993Z</time></trkpt><trkpt lat="42.55039846882477" lon="12.025906224836195"><ele>534.0</ele><time>2026-04-04T12:26:28.993Z</time></trkpt><trkpt lat="42.55040222323932" lon="12.025782061053086"><ele>534.0</ele><time>2026-04-04T12:26:30.993Z</time></trkpt><trkpt lat="42.55041716928139" lon="12.025650100836861"><ele>534.0</ele><time>2026-04-04T12:26:32.993Z</time></trkpt><trkpt lat="42.55042186687375" lon="12.0255173770813"><ele>534.0</ele><time>2026-04-04T12:26:34.993Z</time></trkpt><trkpt lat="42.5504337085038" lon="12.02538428428183"><ele>534.0</ele><time>2026-04-04T12:26:36.993Z</time></trkpt><trkpt lat="42.55045126897514" lon="12.025247839098293"><ele>534.0</ele><time>2026-04-04T12:26:38.993Z</time></trkpt><trkpt lat="42.55049224831955" lon="12.02511966903762"><ele>534.0</ele><time>2026-04-04T12:26:40.993Z</time></trkpt><trkpt lat="42.55056498059796" lon="12.025015573670283"><ele>534.0</ele><time>2026-04-04T12:26:42.993Z</time></trkpt><trkpt lat="42.55064520908232" lon="12.024940903491306"><ele>534.0</ele><time>2026-04-04T12:26:44.993Z</time></trkpt><trkpt lat="42.55072161089376" lon="12.02486748795154"><ele>534.0</ele><time>2026-04-04T12:26:46.993Z</time></trkpt><trkpt lat="42.55079983724863" lon="12.024807505712872"><ele>534.0</ele><time>2026-04-04T12:26:48.993Z</time></trkpt><trkpt lat="42.550876041829035" lon="12.024741951962406"><ele>533.6</ele><time>2026-04-04T12:26:50.993Z</time></trkpt><trkpt lat="42.55095085058422" lon="12.0246761556631"><ele>533.2</ele><time>2026-04-04T12:26:52.993Z</time></trkpt><trkpt lat="42.55102659999335" lon="12.024610222847713"><ele>532.8000000000001</ele><time>2026-04-04T12:26:54.993Z</time></trkpt><trkpt lat="42.55109870338114" lon="12.024530778594368"><ele>532.4</ele><time>2026-04-04T12:26:56.993Z</time></trkpt><trkpt lat="42.5511751918017" lon="12.024459432552565"><ele>532.0</ele><time>2026-04-04T12:26:58.993Z</time></trkpt><trkpt lat="42.551244743238996" lon="12.024381855669425"><ele>532.0</ele><time>2026-04-04T12:27:00.993Z</time></trkpt><trkpt lat="42.551316541038595" lon="12.02428525619044"><ele>532.0</ele><time>2026-04-04T12:27:02.993Z</time></trkpt><trkpt lat="42.551380243186934" lon="12.024184324006319"><ele>532.0</ele><time>2026-04-04T12:27:04.993Z</time></trkpt><trkpt lat="42.55143954512756" lon="12.024073470665686"><ele>532.0</ele><time>2026-04-04T12:27:06.993Z</time></trkpt><trkpt lat="42.551499917710935" lon="12.023958891651773"><ele>532.0</ele><time>2026-04-04T12:27:08.993Z</time></trkpt><trkpt lat="42.551559691798474" lon="12.023847441257168"><ele>531.6</ele><time>2026-04-04T12:27:10.993Z</time></trkpt><trkpt lat="42.551622401638404" lon="12.023729064317658"><ele>531.2</ele><time>2026-04-04T12:27:12.993Z</time></trkpt><trkpt lat="42.55168021932644" lon="12.0236168720512"><ele>530.8</ele><time>2026-04-04T12:27:14.993Z</time></trkpt><trkpt lat="42.55173962100454" lon="12.02351152817915"><ele>530.4</ele><time>2026-04-04T12:27:16.993Z</time></trkpt><trkpt lat="42.5517924408576" lon="12.023410412995315"><ele>530.0</ele><time>2026-04-04T12:27:18.993Z</time></trkpt><trkpt lat="42.55184081104467" lon="12.023305703201306"><ele>529.5</ele><time>2026-04-04T12:27:20.992Z</time></trkpt><trkpt lat="42.551891760821164" lon="12.023209447139507"><ele>529.0</ele><time>2026-04-04T12:27:22.992Z</time></trkpt><trkpt lat="42.55194284569545" lon="12.023108446603386"><ele>528.5</ele><time>2026-04-04T12:27:24.992Z</time></trkpt><trkpt lat="42.55199406360765" lon="12.02301006534128"><ele>528.0</ele><time>2026-04-04T12:27:26.992Z</time></trkpt><trkpt lat="42.552043342921934" lon="12.022912892668963"><ele>527.5</ele><time>2026-04-04T12:27:28.992Z</time></trkpt><trkpt lat="42.55208749895032" lon="12.022808978366415"><ele>527.0</ele><time>2026-04-04T12:27:30.992Z</time></trkpt><trkpt lat="42.55212995935696" lon="12.022701055001104"><ele>529.8000000000001</ele><time>2026-04-04T12:27:32.992Z</time></trkpt><trkpt lat="42.55216037399111" lon="12.02258030849072"><ele>532.6</ele><time>2026-04-04T12:27:34.992Z</time></trkpt><trkpt lat="42.55218747275554" lon="12.0224628329523"><ele>535.4000000000001</ele><time>2026-04-04T12:27:36.992Z</time></trkpt><trkpt lat="42.552202679887564" lon="12.022337883044878"><ele>538.2</ele><time>2026-04-04T12:27:38.992Z</time></trkpt><trkpt lat="42.5522092008595" lon="12.02221440379548"><ele>541.0</ele><time>2026-04-04T12:27:40.992Z</time></trkpt><trkpt lat="42.55221168758976" lon="12.022077158912934"><ele>541.0</ele><time>2026-04-04T12:27:42.992Z</time></trkpt><trkpt lat="42.552207094886406" lon="12.021944963305696"><ele>541.0</ele><time>2026-04-04T12:27:44.992Z</time></trkpt><trkpt lat="42.552202773451945" lon="12.021815560962882"><ele>541.0</ele><time>2026-04-04T12:27:46.992Z</time></trkpt><trkpt lat="42.552203004387955" lon="12.021694900853143"><ele>541.0</ele><time>2026-04-04T12:27:48.992Z</time></trkpt><trkpt lat="42.55219920265849" lon="12.021568746072058"><ele>541.0</ele><time>2026-04-04T12:27:50.992Z</time></trkpt><trkpt lat="42.552196065120334" lon="12.02144708427918"><ele>542.0</ele><time>2026-04-04T12:27:52.992Z</time></trkpt><trkpt lat="42.552196968509634" lon="12.021323947022601"><ele>543.0</ele><time>2026-04-04T12:27:54.992Z</time></trkpt><trkpt lat="42.55219110232469" lon="12.021208286769129"><ele>544.0</ele><time>2026-04-04T12:27:56.992Z</time></trkpt><trkpt lat="42.55217672041006" lon="12.021081601991863"><ele>545.0</ele><time>2026-04-04T12:27:58.992Z</time></trkpt><trkpt lat="42.55216212855072" lon="12.020964200904183"><ele>546.0</ele><time>2026-04-04T12:28:00.992Z</time></trkpt><trkpt lat="42.55213835618485" lon="12.02084397376294"><ele>545.6</ele><time>2026-04-04T12:28:02.992Z</time></trkpt><trkpt lat="42.55210044925634" lon="12.020725667576224"><ele>545.2</ele><time>2026-04-04T12:28:04.992Z</time></trkpt><trkpt lat="42.55206872932223" lon="12.020603158729461"><ele>544.8</ele><time>2026-04-04T12:28:06.992Z</time></trkpt><trkpt lat="42.55203325010683" lon="12.020483039373275"><ele>544.4</ele><time>2026-04-04T12:28:08.992Z</time></trkpt><trkpt lat="42.552004657251246" lon="12.020360391965538"><ele>544.0</ele><time>2026-04-04T12:28:10.992Z</time></trkpt><trkpt lat="42.55197397911996" lon="12.020233671962377"><ele>538.2</ele><time>2026-04-04T12:28:12.992Z</time></trkpt><trkpt lat="42.551950815805405" lon="12.02010167323161"><ele>532.4</ele><time>2026-04-04T12:28:14.992Z</time></trkpt><trkpt lat="42.55194163538402" lon="12.019970677745349"><ele>526.6</ele><time>2026-04-04T12:28:16.992Z</time></trkpt><trkpt lat="42.55194010060654" lon="12.01983095316675"><ele>520.8</ele><time>2026-04-04T12:28:18.992Z</time></trkpt><trkpt lat="42.55196267031001" lon="12.019703344982986"><ele>515.0</ele><time>2026-04-04T12:28:20.992Z</time></trkpt><trkpt lat="42.55202077862724" lon="12.019585393060716"><ele>518.4</ele><time>2026-04-04T12:28:22.991Z</time></trkpt><trkpt lat="42.55209878291817" lon="12.019502351722547"><ele>521.8</ele><time>2026-04-04T12:28:24.991Z</time></trkpt><trkpt lat="42.552178654532064" lon="12.019432280447756"><ele>525.2</ele><time>2026-04-04T12:28:26.991Z</time></trkpt><trkpt lat="42.552267469030205" lon="12.019380982173422"><ele>528.6</ele><time>2026-04-04T12:28:28.991Z</time></trkpt><trkpt lat="42.55234706691981" lon="12.01931509161163"><ele>532.0</ele><time>2026-04-04T12:28:30.991Z</time></trkpt><trkpt lat="42.55242404120179" lon="12.01924805989227"><ele>532.0</ele><time>2026-04-04T12:28:32.991Z</time></trkpt><trkpt lat="42.55249470600912" lon="12.019166934410142"><ele>532.0</ele><time>2026-04-04T12:28:34.991Z</time></trkpt><trkpt lat="42.55255491981555" lon="12.019077125248062"><ele>532.0</ele><time>2026-04-04T12:28:36.991Z</time></trkpt><trkpt lat="42.55260421868083" lon="12.01897209411833"><ele>532.0</ele><time>2026-04-04T12:28:38.991Z</time></trkpt><trkpt lat="42.55264284663606" lon="12.01885686971263"><ele>532.0</ele><time>2026-04-04T12:28:40.991Z</time></trkpt><trkpt lat="42.55267269472544" lon="12.018754886505114"><ele>532.0</ele><time>2026-04-04T12:28:42.991Z</time></trkpt><trkpt lat="42.55268648365311" lon="12.018638858429286"><ele>530.6</ele><time>2026-04-04T12:28:44.991Z</time></trkpt><trkpt lat="42.55268721048373" lon="12.018528383776065"><ele>529.2</ele><time>2026-04-04T12:28:46.991Z</time></trkpt><trkpt lat="42.55268596198967" lon="12.018406779619367"><ele>527.8</ele><time>2026-04-04T12:28:48.991Z</time></trkpt><trkpt lat="42.55267938194184" lon="12.018287922322017"><ele>526.4</ele><time>2026-04-04T12:28:50.991Z</time></trkpt><trkpt lat="42.55266125537012" lon="12.018163227377814"><ele>525.0</ele><time>2026-04-04T12:28:52.991Z</time></trkpt><trkpt lat="42.55263207042985" lon="12.018027943455406"><ele>525.0</ele><time>2026-04-04T12:28:54.991Z</time></trkpt><trkpt lat="42.5525987969651" lon="12.017904856021824"><ele>525.0</ele><time>2026-04-04T12:28:56.991Z</time></trkpt><trkpt lat="42.55256671133962" lon="12.017775202624597"><ele>525.0</ele><time>2026-04-04T12:28:58.991Z</time></trkpt><trkpt lat="42.552550966319934" lon="12.017691982368275"><ele>525.0</ele><time>2026-04-04T12:28:59.991Z</time></trkpt><trkpt lat="42.55252062084496" lon="12.017548514694504"><ele>525.0</ele><time>2026-04-04T12:29:01.991Z</time></trkpt><trkpt lat="42.55248264716116" lon="12.017403726609787"><ele>525.0</ele><time>2026-04-04T12:29:03.991Z</time></trkpt><trkpt lat="42.55245694885121" lon="12.017266169911782"><ele>525.0</ele><time>2026-04-04T12:29:05.991Z</time></trkpt><trkpt lat="42.552427666933056" lon="12.017117317258283"><ele>525.0</ele><time>2026-04-04T12:29:07.991Z</time></trkpt><trkpt lat="42.55241446128065" lon="12.01696740915857"><ele>525.0</ele><time>2026-04-04T12:29:09.991Z</time></trkpt><trkpt lat="42.55244504699492" lon="12.016814750383187"><ele>525.0</ele><time>2026-04-04T12:29:11.991Z</time></trkpt><trkpt lat="42.552478261829485" lon="12.016737192947085"><ele>522.8</ele><time>2026-04-04T12:29:12.991Z</time></trkpt><trkpt lat="42.5525363572973" lon="12.016611129878264"><ele>520.6</ele><time>2026-04-04T12:29:14.991Z</time></trkpt><trkpt lat="42.55258052179492" lon="12.016549376024122"><ele>518.4</ele><time>2026-04-04T12:29:15.991Z</time></trkpt><trkpt lat="42.552647367678546" lon="12.016428036330435"><ele>516.2</ele><time>2026-04-04T12:29:17.991Z</time></trkpt><trkpt lat="42.55271009870563" lon="12.016302855268542"><ele>514.0</ele><time>2026-04-04T12:29:19.991Z</time></trkpt><trkpt lat="42.55276062071747" lon="12.016158188907067"><ele>514.0</ele><time>2026-04-04T12:29:21.991Z</time></trkpt><trkpt lat="42.552796536265745" lon="12.015998965799119"><ele>514.0</ele><time>2026-04-04T12:29:23.991Z</time></trkpt><trkpt lat="42.5528364365213" lon="12.0158307576781"><ele>514.0</ele><time>2026-04-04T12:29:25.99Z</time></trkpt><trkpt lat="42.552875278462736" lon="12.015665526024778"><ele>514.0</ele><time>2026-04-04T12:29:27.99Z</time></trkpt><trkpt lat="42.55289815685025" lon="12.015506909972384"><ele>519.2</ele><time>2026-04-04T12:29:29.99Z</time></trkpt><trkpt lat="42.55293657193061" lon="12.015347319085329"><ele>524.4</ele><time>2026-04-04T12:29:31.99Z</time></trkpt><trkpt lat="42.552958377082255" lon="12.015266888391942"><ele>529.6</ele><time>2026-04-04T12:29:32.99Z</time></trkpt><trkpt lat="42.55299690691101" lon="12.01510567207321"><ele>534.8</ele><time>2026-04-04T12:29:34.99Z</time></trkpt><trkpt lat="42.55303148513344" lon="12.014949174411974"><ele>540.0</ele><time>2026-04-04T12:29:36.99Z</time></trkpt><trkpt lat="42.55305673404195" lon="12.014790112357568"><ele>540.2</ele><time>2026-04-04T12:29:38.99Z</time></trkpt><trkpt lat="42.553062206823164" lon="12.014637042345692"><ele>540.4</ele><time>2026-04-04T12:29:40.99Z</time></trkpt><trkpt lat="42.55304558259576" lon="12.014494256120756"><ele>540.6</ele><time>2026-04-04T12:29:42.99Z</time></trkpt><trkpt lat="42.55301583851778" lon="12.014349727126522"><ele>540.8</ele><time>2026-04-04T12:29:44.99Z</time></trkpt><trkpt lat="42.552974985753096" lon="12.014202563435125"><ele>541.0</ele><time>2026-04-04T12:29:46.99Z</time></trkpt><trkpt lat="42.552932602956496" lon="12.01405780554678"><ele>539.5</ele><time>2026-04-04T12:29:48.99Z</time></trkpt><trkpt lat="42.5528854951765" lon="12.013908417266682"><ele>538.0</ele><time>2026-04-04T12:29:50.99Z</time></trkpt><trkpt lat="42.55285901745248" lon="12.013752268491288"><ele>536.5</ele><time>2026-04-04T12:29:52.99Z</time></trkpt><trkpt lat="42.552835995933876" lon="12.01358738882308"><ele>535.0</ele><time>2026-04-04T12:29:54.99Z</time></trkpt><trkpt lat="42.55281850468732" lon="12.013429119442595"><ele>533.0</ele><time>2026-04-04T12:29:56.99Z</time></trkpt><trkpt lat="42.5528531919878" lon="12.013265685604694"><ele>531.0</ele><time>2026-04-04T12:29:58.99Z</time></trkpt><trkpt lat="42.552896073497024" lon="12.013124033720697"><ele>529.0</ele><time>2026-04-04T12:30:00.99Z</time></trkpt><trkpt lat="42.55296091084845" lon="12.012989349449022"><ele>527.0</ele><time>2026-04-04T12:30:02.99Z</time></trkpt><trkpt lat="42.55301010710142" lon="12.012860974918063"><ele>527.0</ele><time>2026-04-04T12:30:04.99Z</time></trkpt><trkpt lat="42.553065090762495" lon="12.01271949968997"><ele>527.0</ele><time>2026-04-04T12:30:06.99Z</time></trkpt><trkpt lat="42.553123244335715" lon="12.012578563969099"><ele>527.0</ele><time>2026-04-04T12:30:08.99Z</time></trkpt><trkpt lat="42.55317640573872" lon="12.012428703134859"><ele>527.0</ele><time>2026-04-04T12:30:10.989Z</time></trkpt><trkpt lat="42.55320102065513" lon="12.012349434394254"><ele>527.0</ele><time>2026-04-04T12:30:11.989Z</time></trkpt><trkpt lat="42.55323771309504" lon="12.012184122825815"><ele>526.2</ele><time>2026-04-04T12:30:13.989Z</time></trkpt><trkpt lat="42.55326182406908" lon="12.012102179726055"><ele>525.4000000000001</ele><time>2026-04-04T12:30:14.989Z</time></trkpt><trkpt lat="42.55329263067116" lon="12.011952753321111"><ele>524.5999999999999</ele><time>2026-04-04T12:30:16.989Z</time></trkpt><trkpt lat="42.55332815943133" lon="12.01178854912577"><ele>523.8</ele><time>2026-04-04T12:30:18.989Z</time></trkpt><trkpt lat="42.55335635817462" lon="12.01162691049707"><ele>523.0</ele><time>2026-04-04T12:30:20.989Z</time></trkpt><trkpt lat="42.553394776789986" lon="12.011475493690444"><ele>521.75</ele><time>2026-04-04T12:30:22.989Z</time></trkpt><trkpt lat="42.55342198813812" lon="12.01131956612594"><ele>520.5</ele><time>2026-04-04T12:30:24.989Z</time></trkpt><trkpt lat="42.55346564787294" lon="12.011167093987517"><ele>519.25</ele><time>2026-04-04T12:30:26.988Z</time></trkpt><trkpt lat="42.55352503549325" lon="12.01102996220073"><ele>518.0</ele><time>2026-04-04T12:30:28.988Z</time></trkpt><trkpt lat="42.553609020325005" lon="12.010914808499097"><ele>518.1999999999999</ele><time>2026-04-04T12:30:30.988Z</time></trkpt><trkpt lat="42.55368253030069" lon="12.010806197053407"><ele>518.4</ele><time>2026-04-04T12:30:32.988Z</time></trkpt><trkpt lat="42.553762078184214" lon="12.010694519712985"><ele>518.5999999999999</ele><time>2026-04-04T12:30:34.988Z</time></trkpt><trkpt lat="42.55384028959937" lon="12.010574730737469"><ele>518.8</ele><time>2026-04-04T12:30:36.988Z</time></trkpt><trkpt lat="42.55388878495875" lon="12.01051402539905"><ele>519.0</ele><time>2026-04-04T12:30:37.988Z</time></trkpt><trkpt lat="42.553967913846385" lon="12.010400848622519"><ele>519.0</ele><time>2026-04-04T12:30:39.988Z</time></trkpt><trkpt lat="42.55403184327865" lon="12.010263994077507"><ele>519.0</ele><time>2026-04-04T12:30:41.988Z</time></trkpt><trkpt lat="42.55407827526112" lon="12.010117094826859"><ele>519.0</ele><time>2026-04-04T12:30:43.988Z</time></trkpt><trkpt lat="42.554109120702606" lon="12.00996342047379"><ele>519.0</ele><time>2026-04-04T12:30:45.988Z</time></trkpt><trkpt lat="42.55412118849839" lon="12.009873780586847"><ele>519.0</ele><time>2026-04-04T12:30:46.988Z</time></trkpt><trkpt lat="42.55414816936301" lon="12.009706767598315"><ele>518.5714285714286</ele><time>2026-04-04T12:30:48.988Z</time></trkpt><trkpt lat="42.554163648745025" lon="12.00961853592005"><ele>518.1428571428571</ele><time>2026-04-04T12:30:49.988Z</time></trkpt><trkpt lat="42.55418921755093" lon="12.00952212952704"><ele>517.7142857142857</ele><time>2026-04-04T12:30:50.988Z</time></trkpt><trkpt lat="42.55420997942505" lon="12.009431175160373"><ele>517.2857142857142</ele><time>2026-04-04T12:30:51.988Z</time></trkpt><trkpt lat="42.55423798477356" lon="12.009329283794305"><ele>516.8571428571429</ele><time>2026-04-04T12:30:52.988Z</time></trkpt><trkpt lat="42.55425426853956" lon="12.009227884229935"><ele>516.4285714285713</ele><time>2026-04-04T12:30:53.988Z</time></trkpt><trkpt lat="42.554260720755536" lon="12.009123948154397"><ele>516.0</ele><time>2026-04-04T12:30:54.988Z</time></trkpt><trkpt lat="42.554278888958144" lon="12.00901573959809"><ele>516.0</ele><time>2026-04-04T12:30:55.988Z</time></trkpt><trkpt lat="42.55428696252008" lon="12.00890543605944"><ele>516.0</ele><time>2026-04-04T12:30:56.988Z</time></trkpt><trkpt lat="42.55429048117493" lon="12.008802014245859"><ele>516.0</ele><time>2026-04-04T12:30:57.988Z</time></trkpt><trkpt lat="42.55428977040789" lon="12.00869684178759"><ele>516.0</ele><time>2026-04-04T12:30:58.988Z</time></trkpt><trkpt lat="42.554284225250065" lon="12.008588195823554"><ele>516.0</ele><time>2026-04-04T12:30:59.988Z</time></trkpt><trkpt lat="42.55428326478207" lon="12.008480107331405"><ele>516.0</ele><time>2026-04-04T12:31:00.988Z</time></trkpt><trkpt lat="42.55427570874924" lon="12.008377600682973"><ele>515.6666666666666</ele><time>2026-04-04T12:31:01.988Z</time></trkpt><trkpt lat="42.5542706669686" lon="12.008269999230075"><ele>515.3333333333334</ele><time>2026-04-04T12:31:02.988Z</time></trkpt><trkpt lat="42.55427108216031" lon="12.008151254906846"><ele>515.0</ele><time>2026-04-04T12:31:03.988Z</time></trkpt><trkpt lat="42.554273668874195" lon="12.008039659262518"><ele>514.6666666666667</ele><time>2026-04-04T12:31:04.988Z</time></trkpt><trkpt lat="42.55428176275208" lon="12.007934646341033"><ele>514.3333333333334</ele><time>2026-04-04T12:31:05.988Z</time></trkpt><trkpt lat="42.554278511747135" lon="12.007818674558342"><ele>514.0</ele><time>2026-04-04T12:31:06.988Z</time></trkpt><trkpt lat="42.55427239565794" lon="12.007714781053716"><ele>514.0</ele><time>2026-04-04T12:31:07.988Z</time></trkpt><trkpt lat="42.554258718636476" lon="12.007605921134102"><ele>514.0</ele><time>2026-04-04T12:31:08.988Z</time></trkpt><trkpt lat="42.55424400411214" lon="12.007495326961346"><ele>514.0</ele><time>2026-04-04T12:31:09.988Z</time></trkpt><trkpt lat="42.554220591664524" lon="12.007383959528482"><ele>514.0</ele><time>2026-04-04T12:31:10.988Z</time></trkpt><trkpt lat="42.55419055755132" lon="12.007277887559157"><ele>514.0</ele><time>2026-04-04T12:31:11.988Z</time></trkpt><trkpt lat="42.554158663195764" lon="12.007176501826734"><ele>514.0</ele><time>2026-04-04T12:31:12.988Z</time></trkpt><trkpt lat="42.55412175075375" lon="12.007079322333261"><ele>514.6666666666667</ele><time>2026-04-04T12:31:13.988Z</time></trkpt><trkpt lat="42.55408346169337" lon="12.006982412878783"><ele>515.3333333333334</ele><time>2026-04-04T12:31:14.988Z</time></trkpt><trkpt lat="42.554042564431484" lon="12.006883950902152"><ele>516.0</ele><time>2026-04-04T12:31:15.988Z</time></trkpt><trkpt lat="42.55401068533563" lon="12.006780376067825"><ele>516.6666666666666</ele><time>2026-04-04T12:31:16.988Z</time></trkpt><trkpt lat="42.55396735690102" lon="12.00668272161753"><ele>517.3333333333333</ele><time>2026-04-04T12:31:17.988Z</time></trkpt><trkpt lat="42.553924438215965" lon="12.00657900372323"><ele>518.0</ele><time>2026-04-04T12:31:18.988Z</time></trkpt><trkpt lat="42.55388531151172" lon="12.006471994306333"><ele>518.1666666666666</ele><time>2026-04-04T12:31:19.988Z</time></trkpt><trkpt lat="42.5538463496947" lon="12.006367092499493"><ele>518.3333333333333</ele><time>2026-04-04T12:31:20.988Z</time></trkpt><trkpt lat="42.553808623901936" lon="12.006258945017203"><ele>518.5</ele><time>2026-04-04T12:31:21.988Z</time></trkpt><trkpt lat="42.55376770751631" lon="12.00615612976239"><ele>518.6666666666666</ele><time>2026-04-04T12:31:22.988Z</time></trkpt><trkpt lat="42.55372024381829" lon="12.006050701760064"><ele>518.8333333333334</ele><time>2026-04-04T12:31:23.988Z</time></trkpt><trkpt lat="42.553679453435656" lon="12.005949113439591"><ele>519.0</ele><time>2026-04-04T12:31:24.988Z</time></trkpt><trkpt lat="42.55363726108657" lon="12.005847308116737"><ele>515.5</ele><time>2026-04-04T12:31:25.988Z</time></trkpt><trkpt lat="42.553604507865934" lon="12.005745758851592"><ele>512.0</ele><time>2026-04-04T12:31:26.988Z</time></trkpt><trkpt lat="42.55357602294852" lon="12.00564106147014"><ele>508.5</ele><time>2026-04-04T12:31:27.988Z</time></trkpt><trkpt lat="42.55356440954262" lon="12.005520409951387"><ele>505.0</ele><time>2026-04-04T12:31:28.988Z</time></trkpt><trkpt lat="42.553580358098536" lon="12.005412410349274"><ele>501.5</ele><time>2026-04-04T12:31:29.987Z</time></trkpt><trkpt lat="42.553617223984055" lon="12.005313842506204"><ele>498.0</ele><time>2026-04-04T12:31:30.987Z</time></trkpt><trkpt lat="42.55367318914952" lon="12.005240144517423"><ele>499.0</ele><time>2026-04-04T12:31:31.987Z</time></trkpt><trkpt lat="42.55374978564476" lon="12.005194902387052"><ele>499.99999999999994</ele><time>2026-04-04T12:31:32.987Z</time></trkpt><trkpt lat="42.5538168184237" lon="12.00515542705281"><ele>501.0</ele><time>2026-04-04T12:31:33.987Z</time></trkpt><trkpt lat="42.5538970687568" lon="12.005170409101973"><ele>502.0</ele><time>2026-04-04T12:31:34.987Z</time></trkpt><trkpt lat="42.55396176007978" lon="12.005199245167404"><ele>502.99999999999994</ele><time>2026-04-04T12:31:35.987Z</time></trkpt><trkpt lat="42.554028960924036" lon="12.005242060842493"><ele>504.0</ele><time>2026-04-04T12:31:36.987Z</time></trkpt><trkpt lat="42.5540829211629" lon="12.00529207694182"><ele>505.0</ele><time>2026-04-04T12:31:37.987Z</time></trkpt><trkpt lat="42.5541446178672" lon="12.00532811067807"><ele>505.00000000000006</ele><time>2026-04-04T12:31:38.987Z</time></trkpt><trkpt lat="42.55425763645305" lon="12.005406312631129"><ele>505.0</ele><time>2026-04-04T12:31:40.987Z</time></trkpt><trkpt lat="42.55431316716348" lon="12.005448996502734"><ele>505.0</ele><time>2026-04-04T12:31:41.987Z</time></trkpt><trkpt lat="42.554371634588655" lon="12.005490128769178"><ele>505.0</ele><time>2026-04-04T12:31:42.987Z</time></trkpt><trkpt lat="42.55443022433311" lon="12.005534068472778"><ele>505.00000000000006</ele><time>2026-04-04T12:31:43.987Z</time></trkpt><trkpt lat="42.554494584457196" lon="12.005569720308943"><ele>505.0</ele><time>2026-04-04T12:31:44.987Z</time></trkpt><trkpt lat="42.55455867002144" lon="12.005598441793751"><ele>502.33333333333337</ele><time>2026-04-04T12:31:45.987Z</time></trkpt><trkpt lat="42.55462294023809" lon="12.005638081589407"><ele>499.6666666666667</ele><time>2026-04-04T12:31:46.987Z</time></trkpt><trkpt lat="42.55468964113917" lon="12.005671284580623"><ele>497.0</ele><time>2026-04-04T12:31:47.987Z</time></trkpt><trkpt lat="42.554761949233374" lon="12.00569555633096"><ele>494.33333333333337</ele><time>2026-04-04T12:31:48.987Z</time></trkpt><trkpt lat="42.55483705481253" lon="12.005716140079624"><ele>491.6666666666667</ele><time>2026-04-04T12:31:49.987Z</time></trkpt><trkpt lat="42.55491321522469" lon="12.005735008994884"><ele>489.0</ele><time>2026-04-04T12:31:50.987Z</time></trkpt><trkpt lat="42.55499691227038" lon="12.005750237516366"><ele>489.0</ele><time>2026-04-04T12:31:51.987Z</time></trkpt><trkpt lat="42.555078957310734" lon="12.00575403211846"><ele>489.0</ele><time>2026-04-04T12:31:52.987Z</time></trkpt><trkpt lat="42.5551633624782" lon="12.005746410916919"><ele>489.0</ele><time>2026-04-04T12:31:53.987Z</time></trkpt><trkpt lat="42.555252800460984" lon="12.00573139303765"><ele>489.0</ele><time>2026-04-04T12:31:54.987Z</time></trkpt><trkpt lat="42.55533688681523" lon="12.005724030970368"><ele>489.0</ele><time>2026-04-04T12:31:55.987Z</time></trkpt><trkpt lat="42.5554207007139" lon="12.005698420387997"><ele>489.0</ele><time>2026-04-04T12:31:56.987Z</time></trkpt><trkpt lat="42.55550455781129" lon="12.005666837834907"><ele>488.8333333333333</ele><time>2026-04-04T12:31:57.987Z</time></trkpt><trkpt lat="42.5555851608101" lon="12.005634859133856"><ele>488.66666666666663</ele><time>2026-04-04T12:31:58.987Z</time></trkpt><trkpt lat="42.555672999140576" lon="12.005599166854884"><ele>488.5</ele><time>2026-04-04T12:31:59.987Z</time></trkpt><trkpt lat="42.55575053651667" lon="12.005554226971539"><ele>488.3333333333333</ele><time>2026-04-04T12:32:00.987Z</time></trkpt><trkpt lat="42.555830784007554" lon="12.005501566255026"><ele>488.16666666666663</ele><time>2026-04-04T12:32:01.987Z</time></trkpt><trkpt lat="42.5559079608347" lon="12.00543026765234"><ele>488.0</ele><time>2026-04-04T12:32:02.987Z</time></trkpt><trkpt lat="42.5559848776869" lon="12.005368243523783"><ele>487.99999999999994</ele><time>2026-04-04T12:32:03.987Z</time></trkpt><trkpt lat="42.55606166603158" lon="12.005307272094841"><ele>488.0</ele><time>2026-04-04T12:32:04.987Z</time></trkpt><trkpt lat="42.556140061178255" lon="12.00525582567532"><ele>488.0</ele><time>2026-04-04T12:32:05.987Z</time></trkpt><trkpt lat="42.556219739709015" lon="12.005200253381554"><ele>488.0</ele><time>2026-04-04T12:32:06.987Z</time></trkpt><trkpt lat="42.55629108128686" lon="12.005135145791918"><ele>487.99999999999994</ele><time>2026-04-04T12:32:07.987Z</time></trkpt><trkpt lat="42.556365268269744" lon="12.005070744753759"><ele>488.0</ele><time>2026-04-04T12:32:08.987Z</time></trkpt><trkpt lat="42.55644327775752" lon="12.00501179778659"><ele>487.16666666666663</ele><time>2026-04-04T12:32:09.987Z</time></trkpt><trkpt lat="42.55652108484884" lon="12.004958329543527"><ele>486.3333333333333</ele><time>2026-04-04T12:32:10.987Z</time></trkpt><trkpt lat="42.55659272536584" lon="12.004899901058609"><ele>485.5</ele><time>2026-04-04T12:32:11.987Z</time></trkpt><trkpt lat="42.55666984101251" lon="12.00485190411439"><ele>484.66666666666663</ele><time>2026-04-04T12:32:12.987Z</time></trkpt><trkpt lat="42.55674909298847" lon="12.004803877269989"><ele>483.8333333333333</ele><time>2026-04-04T12:32:13.987Z</time></trkpt><trkpt lat="42.556831182546276" lon="12.004771114224956"><ele>483.0</ele><time>2026-04-04T12:32:14.987Z</time></trkpt><trkpt lat="42.556918814216424" lon="12.004767995802943"><ele>483.0</ele><time>2026-04-04T12:32:15.987Z</time></trkpt><trkpt lat="42.55700508153255" lon="12.00477511536023"><ele>483.0</ele><time>2026-04-04T12:32:16.987Z</time></trkpt><trkpt lat="42.557088451534376" lon="12.004795369255598"><ele>483.0</ele><time>2026-04-04T12:32:17.987Z</time></trkpt><trkpt lat="42.557173554528774" lon="12.004804829311489"><ele>483.0</ele><time>2026-04-04T12:32:18.987Z</time></trkpt><trkpt lat="42.55725249787605" lon="12.00482045143541"><ele>483.0</ele><time>2026-04-04T12:32:19.987Z</time></trkpt><trkpt lat="42.55733418328953" lon="12.004844458832933"><ele>483.0</ele><time>2026-04-04T12:32:20.987Z</time></trkpt><trkpt lat="42.55742039259606" lon="12.004871597976168"><ele>482.8333333333333</ele><time>2026-04-04T12:32:21.987Z</time></trkpt><trkpt lat="42.55750308353378" lon="12.004898515198667"><ele>482.66666666666663</ele><time>2026-04-04T12:32:22.987Z</time></trkpt><trkpt lat="42.557582139701765" lon="12.004938722888586"><ele>482.5</ele><time>2026-04-04T12:32:23.987Z</time></trkpt><trkpt lat="42.557660940807985" lon="12.004975846657153"><ele>482.3333333333333</ele><time>2026-04-04T12:32:24.987Z</time></trkpt><trkpt lat="42.55773892731009" lon="12.005027266746405"><ele>482.16666666666663</ele><time>2026-04-04T12:32:25.987Z</time></trkpt><trkpt lat="42.55781615279607" lon="12.005077670917204"><ele>482.0</ele><time>2026-04-04T12:32:26.987Z</time></trkpt><trkpt lat="42.55788524764519" lon="12.005124855384992"><ele>481.99999999999994</ele><time>2026-04-04T12:32:27.987Z</time></trkpt><trkpt lat="42.55795808215843" lon="12.005178395703338"><ele>482.0</ele><time>2026-04-04T12:32:28.987Z</time></trkpt><trkpt lat="42.55802628471549" lon="12.005235435458399"><ele>482.0</ele><time>2026-04-04T12:32:29.987Z</time></trkpt><trkpt lat="42.55809584658143" lon="12.005293753784219"><ele>482.0</ele><time>2026-04-04T12:32:30.987Z</time></trkpt><trkpt lat="42.55816256275308" lon="12.005353435121245"><ele>481.99999999999994</ele><time>2026-04-04T12:32:31.986Z</time></trkpt><trkpt lat="42.55823396294331" lon="12.005402947495027"><ele>482.0</ele><time>2026-04-04T12:32:32.986Z</time></trkpt><trkpt lat="42.55830243387892" lon="12.005463658128225"><ele>481.99999999999994</ele><time>2026-04-04T12:32:33.986Z</time></trkpt><trkpt lat="42.558369715655395" lon="12.005531624481575"><ele>482.0</ele><time>2026-04-04T12:32:34.986Z</time></trkpt><trkpt lat="42.55843308283162" lon="12.005603145288708"><ele>482.0</ele><time>2026-04-04T12:32:35.986Z</time></trkpt><trkpt lat="42.558501106318474" lon="12.005680537859524"><ele>482.0</ele><time>2026-04-04T12:32:36.986Z</time></trkpt><trkpt lat="42.55856326854076" lon="12.0057707653738"><ele>481.99999999999994</ele><time>2026-04-04T12:32:37.986Z</time></trkpt><trkpt lat="42.558614935837554" lon="12.005865424219875"><ele>482.0</ele><time>2026-04-04T12:32:38.986Z</time></trkpt><trkpt lat="42.55866567105844" lon="12.005964738709997"><ele>481.3333333333333</ele><time>2026-04-04T12:32:39.986Z</time></trkpt><trkpt lat="42.55870622463656" lon="12.006073367584055"><ele>480.66666666666663</ele><time>2026-04-04T12:32:40.986Z</time></trkpt><trkpt lat="42.55874771532398" lon="12.00618428055806"><ele>480.0</ele><time>2026-04-04T12:32:41.986Z</time></trkpt><trkpt lat="42.5587794136998" lon="12.006290489201682"><ele>479.33333333333337</ele><time>2026-04-04T12:32:42.986Z</time></trkpt><trkpt lat="42.55881702858311" lon="12.00638988063025"><ele>478.6666666666667</ele><time>2026-04-04T12:32:43.986Z</time></trkpt><trkpt lat="42.55887003666634" lon="12.006490442251815"><ele>478.0</ele><time>2026-04-04T12:32:44.986Z</time></trkpt><trkpt lat="42.55893079998687" lon="12.006575089109415"><ele>478.00000000000006</ele><time>2026-04-04T12:32:45.986Z</time></trkpt><trkpt lat="42.55899547586827" lon="12.006638491805125"><ele>478.0</ele><time>2026-04-04T12:32:46.986Z</time></trkpt><trkpt lat="42.559077085662544" lon="12.006692641558201"><ele>478.0</ele><time>2026-04-04T12:32:47.986Z</time></trkpt><trkpt lat="42.55915877748489" lon="12.006719434572757"><ele>478.0</ele><time>2026-04-04T12:32:48.986Z</time></trkpt><trkpt lat="42.559236191409305" lon="12.006735492568238"><ele>478.00000000000006</ele><time>2026-04-04T12:32:49.986Z</time></trkpt><trkpt lat="42.55933359841815" lon="12.006714852905146"><ele>478.0</ele><time>2026-04-04T12:32:50.986Z</time></trkpt><trkpt lat="42.55941725079584" lon="12.006672206534164"><ele>478.00000000000006</ele><time>2026-04-04T12:32:51.986Z</time></trkpt><trkpt lat="42.559498504122104" lon="12.006626236482445"><ele>478.0</ele><time>2026-04-04T12:32:52.986Z</time></trkpt><trkpt lat="42.559567653173616" lon="12.006552392082908"><ele>478.0</ele><time>2026-04-04T12:32:53.986Z</time></trkpt><trkpt lat="42.55963781086675" lon="12.006478189055755"><ele>478.0</ele><time>2026-04-04T12:32:54.986Z</time></trkpt><trkpt lat="42.559709263914236" lon="12.006405608627803"><ele>478.00000000000006</ele><time>2026-04-04T12:32:55.986Z</time></trkpt><trkpt lat="42.55978038677226" lon="12.006332894423931"><ele>478.0</ele><time>2026-04-04T12:32:56.986Z</time></trkpt><trkpt lat="42.559852086628155" lon="12.00625531462199"><ele>477.00000000000006</ele><time>2026-04-04T12:32:57.986Z</time></trkpt><trkpt lat="42.55992984346751" lon="12.00619638869276"><ele>476.0</ele><time>2026-04-04T12:32:58.986Z</time></trkpt><trkpt lat="42.56001276157732" lon="12.00615755973616"><ele>475.0</ele><time>2026-04-04T12:32:59.986Z</time></trkpt><trkpt lat="42.56009964715798" lon="12.00613134847786"><ele>474.0</ele><time>2026-04-04T12:33:00.986Z</time></trkpt><trkpt lat="42.56018995745304" lon="12.006128752816087"><ele>473.00000000000006</ele><time>2026-04-04T12:33:01.986Z</time></trkpt><trkpt lat="42.56027916966734" lon="12.006133620388816"><ele>472.0</ele><time>2026-04-04T12:33:02.986Z</time></trkpt><trkpt lat="42.56036436410695" lon="12.006151956976614"><ele>471.6666666666667</ele><time>2026-04-04T12:33:03.986Z</time></trkpt><trkpt lat="42.560450002561915" lon="12.006171548209336"><ele>471.33333333333337</ele><time>2026-04-04T12:33:04.986Z</time></trkpt><trkpt lat="42.560533356047046" lon="12.006193328391241"><ele>471.0</ele><time>2026-04-04T12:33:05.986Z</time></trkpt><trkpt lat="42.56061694338968" lon="12.006211706596458"><ele>470.66666666666663</ele><time>2026-04-04T12:33:06.986Z</time></trkpt><trkpt lat="42.56070129249305" lon="12.006232371508233"><ele>470.3333333333333</ele><time>2026-04-04T12:33:07.986Z</time></trkpt><trkpt lat="42.56078186734855" lon="12.006252691023073"><ele>470.0</ele><time>2026-04-04T12:33:08.986Z</time></trkpt><trkpt lat="42.56085993394264" lon="12.006278913625083"><ele>469.99999999999994</ele><time>2026-04-04T12:33:09.986Z</time></trkpt><trkpt lat="42.56094458276742" lon="12.006296930007144"><ele>470.0</ele><time>2026-04-04T12:33:10.986Z</time></trkpt><trkpt lat="42.56102687324302" lon="12.00631368756805"><ele>470.0</ele><time>2026-04-04T12:33:11.986Z</time></trkpt><trkpt lat="42.56110585952401" lon="12.00632256972759"><ele>470.0</ele><time>2026-04-04T12:33:12.986Z</time></trkpt><trkpt lat="42.56119210329457" lon="12.006345105462115"><ele>469.99999999999994</ele><time>2026-04-04T12:33:13.986Z</time></trkpt><trkpt lat="42.561270661564926" lon="12.006363560465708"><ele>470.0</ele><time>2026-04-04T12:33:14.986Z</time></trkpt><trkpt lat="42.56135377657019" lon="12.006382050692805"><ele>469.16666666666663</ele><time>2026-04-04T12:33:15.986Z</time></trkpt><trkpt lat="42.56143581204798" lon="12.006402497388267"><ele>468.3333333333333</ele><time>2026-04-04T12:33:16.986Z</time></trkpt><trkpt lat="42.56151271568119" lon="12.00642492039833"><ele>467.5</ele><time>2026-04-04T12:33:17.986Z</time></trkpt><trkpt lat="42.56159229558792" lon="12.006443627025854"><ele>466.66666666666663</ele><time>2026-04-04T12:33:18.986Z</time></trkpt><trkpt lat="42.56166760760227" lon="12.006462978872651"><ele>465.8333333333333</ele><time>2026-04-04T12:33:19.986Z</time></trkpt><trkpt lat="42.5617557351848" lon="12.006486307504577"><ele>465.0</ele><time>2026-04-04T12:33:20.986Z</time></trkpt><trkpt lat="42.561832607995534" lon="12.006507608686142"><ele>465.0</ele><time>2026-04-04T12:33:21.986Z</time></trkpt><trkpt lat="42.561917212732595" lon="12.006521240535347"><ele>465.0</ele><time>2026-04-04T12:33:22.986Z</time></trkpt><trkpt lat="42.56200445425301" lon="12.006549501708088"><ele>465.0</ele><time>2026-04-04T12:33:23.986Z</time></trkpt><trkpt lat="42.562093869836424" lon="12.00656538299585"><ele>465.0</ele><time>2026-04-04T12:33:24.986Z</time></trkpt><trkpt lat="42.56218028670107" lon="12.006587407421721"><ele>465.0</ele><time>2026-04-04T12:33:25.986Z</time></trkpt><trkpt lat="42.562267837391516" lon="12.006612445422528"><ele>465.0</ele><time>2026-04-04T12:33:26.986Z</time></trkpt><trkpt lat="42.56235786348203" lon="12.006637380589094"><ele>465.1666666666667</ele><time>2026-04-04T12:33:27.986Z</time></trkpt><trkpt lat="42.56244576936969" lon="12.006663311389635"><ele>465.33333333333337</ele><time>2026-04-04T12:33:28.986Z</time></trkpt><trkpt lat="42.562533300710754" lon="12.006680871305827"><ele>465.5</ele><time>2026-04-04T12:33:29.986Z</time></trkpt><trkpt lat="42.56261311063235" lon="12.00669963236531"><ele>465.6666666666667</ele><time>2026-04-04T12:33:30.986Z</time></trkpt><trkpt lat="42.5627081984395" lon="12.006721668797098"><ele>465.83333333333337</ele><time>2026-04-04T12:33:31.986Z</time></trkpt><trkpt lat="42.56279266236765" lon="12.006747712300355"><ele>466.0</ele><time>2026-04-04T12:33:32.986Z</time></trkpt><trkpt lat="42.56288514304084" lon="12.006768396698277"><ele>465.6666666666667</ele><time>2026-04-04T12:33:33.986Z</time></trkpt><trkpt lat="42.56297035684742" lon="12.006786844109572"><ele>465.33333333333337</ele><time>2026-04-04T12:33:34.985Z</time></trkpt><trkpt lat="42.56305864416313" lon="12.006806301802284"><ele>465.0</ele><time>2026-04-04T12:33:35.985Z</time></trkpt><trkpt lat="42.56314406336742" lon="12.006826915334985"><ele>464.66666666666663</ele><time>2026-04-04T12:33:36.985Z</time></trkpt><trkpt lat="42.56323223760747" lon="12.00684714303305"><ele>464.3333333333333</ele><time>2026-04-04T12:33:37.985Z</time></trkpt><trkpt lat="42.563327889086985" lon="12.006866484000309"><ele>464.0</ele><time>2026-04-04T12:33:38.985Z</time></trkpt><trkpt lat="42.56341169478819" lon="12.006885892554717"><ele>463.99999999999994</ele><time>2026-04-04T12:33:39.985Z</time></trkpt><trkpt lat="42.56349530201484" lon="12.006909270872972"><ele>464.0</ele><time>2026-04-04T12:33:40.985Z</time></trkpt><trkpt lat="42.56358344726942" lon="12.006928167142554"><ele>464.0</ele><time>2026-04-04T12:33:41.985Z</time></trkpt><trkpt lat="42.5636717221379" lon="12.006942891937507"><ele>464.0</ele><time>2026-04-04T12:33:42.985Z</time></trkpt><trkpt lat="42.563762197339976" lon="12.006976108474086"><ele>463.99999999999994</ele><time>2026-04-04T12:33:43.985Z</time></trkpt><trkpt lat="42.56384970994693" lon="12.007005999914119"><ele>464.0</ele><time>2026-04-04T12:33:44.985Z</time></trkpt><trkpt lat="42.56394133382998" lon="12.007018055831136"><ele>462.79999999999995</ele><time>2026-04-04T12:33:45.985Z</time></trkpt><trkpt lat="42.56403072714717" lon="12.007036743619595"><ele>461.59999999999997</ele><time>2026-04-04T12:33:46.985Z</time></trkpt><trkpt lat="42.564124482415274" lon="12.007066019064792"><ele>460.4</ele><time>2026-04-04T12:33:47.985Z</time></trkpt><trkpt lat="42.56421298601842" lon="12.007082978627032"><ele>459.2</ele><time>2026-04-04T12:33:48.985Z</time></trkpt><trkpt lat="42.5643043574878" lon="12.007105910250493"><ele>458.0</ele><time>2026-04-04T12:33:49.985Z</time></trkpt><trkpt lat="42.56439429782503" lon="12.007122789747678"><ele>458.0</ele><time>2026-04-04T12:33:50.985Z</time></trkpt><trkpt lat="42.564483592688234" lon="12.007148274194352"><ele>457.99999999999994</ele><time>2026-04-04T12:33:51.985Z</time></trkpt><trkpt lat="42.56456587892933" lon="12.007169179274397"><ele>457.99999999999994</ele><time>2026-04-04T12:33:52.985Z</time></trkpt><trkpt lat="42.56465590618356" lon="12.00718865535162"><ele>458.0</ele><time>2026-04-04T12:33:53.985Z</time></trkpt><trkpt lat="42.56475418346283" lon="12.007217893287507"><ele>458.0</ele><time>2026-04-04T12:33:54.985Z</time></trkpt><trkpt lat="42.56483976636851" lon="12.007237933196782"><ele>458.0</ele><time>2026-04-04T12:33:55.985Z</time></trkpt><trkpt lat="42.56493175780948" lon="12.007269267510164"><ele>457.99999999999994</ele><time>2026-04-04T12:33:56.985Z</time></trkpt><trkpt lat="42.56502040031918" lon="12.00729224327867"><ele>457.99999999999994</ele><time>2026-04-04T12:33:57.985Z</time></trkpt><trkpt lat="42.56511404679821" lon="12.007310132685515"><ele>458.0</ele><time>2026-04-04T12:33:58.985Z</time></trkpt><trkpt lat="42.565203812457334" lon="12.007326888608812"><ele>458.0</ele><time>2026-04-04T12:33:59.985Z</time></trkpt><trkpt lat="42.5652937485636" lon="12.007350328173898"><ele>458.0</ele><time>2026-04-04T12:34:00.985Z</time></trkpt><trkpt lat="42.565384727517355" lon="12.00738094316758"><ele>457.99999999999994</ele><time>2026-04-04T12:34:01.985Z</time></trkpt><trkpt lat="42.565467406334406" lon="12.007407983849566"><ele>457.99999999999994</ele><time>2026-04-04T12:34:02.985Z</time></trkpt><trkpt lat="42.565558364370695" lon="12.00743423037594"><ele>458.0</ele><time>2026-04-04T12:34:03.985Z</time></trkpt><trkpt lat="42.56565415097573" lon="12.007471817247023"><ele>458.0</ele><time>2026-04-04T12:34:04.985Z</time></trkpt><trkpt lat="42.56573235403824" lon="12.007516988933007"><ele>456.2</ele><time>2026-04-04T12:34:05.985Z</time></trkpt><trkpt lat="42.56582121950247" lon="12.007584067765428"><ele>454.4</ele><time>2026-04-04T12:34:06.985Z</time></trkpt><trkpt lat="42.56589363810784" lon="12.00764859882574"><ele>452.59999999999997</ele><time>2026-04-04T12:34:07.985Z</time></trkpt><trkpt lat="42.565967846978666" lon="12.007732453119033"><ele>450.79999999999995</ele><time>2026-04-04T12:34:08.985Z</time></trkpt><trkpt lat="42.56602907269062" lon="12.00782643239656"><ele>449.0</ele><time>2026-04-04T12:34:09.985Z</time></trkpt><trkpt lat="42.56608797473247" lon="12.007919288420927"><ele>449.0</ele><time>2026-04-04T12:34:10.985Z</time></trkpt><trkpt lat="42.56615201423016" lon="12.008014301367917"><ele>449.0</ele><time>2026-04-04T12:34:11.985Z</time></trkpt><trkpt lat="42.56620990413227" lon="12.008108731163093"><ele>449.0</ele><time>2026-04-04T12:34:12.985Z</time></trkpt><trkpt lat="42.566268825234545" lon="12.008199722334425"><ele>449.0</ele><time>2026-04-04T12:34:13.985Z</time></trkpt><trkpt lat="42.56632784846431" lon="12.008302786102181"><ele>449.0</ele><time>2026-04-04T12:34:14.985Z</time></trkpt><trkpt lat="42.566381592591064" lon="12.0083981826776"><ele>447.6</ele><time>2026-04-04T12:34:15.985Z</time></trkpt><trkpt lat="42.56644134495197" lon="12.008494115531525"><ele>446.2</ele><time>2026-04-04T12:34:16.985Z</time></trkpt><trkpt lat="42.56649827637141" lon="12.008588142699306"><ele>444.80000000000007</ele><time>2026-04-04T12:34:17.985Z</time></trkpt><trkpt lat="42.566558086340436" lon="12.0086827518981"><ele>443.40000000000003</ele><time>2026-04-04T12:34:18.985Z</time></trkpt><trkpt lat="42.56661873842802" lon="12.008780374956322"><ele>442.0</ele><time>2026-04-04T12:34:19.985Z</time></trkpt><trkpt lat="42.566679345516455" lon="12.008872278096712"><ele>442.00000000000006</ele><time>2026-04-04T12:34:20.985Z</time></trkpt><trkpt lat="42.56673763224555" lon="12.008966855190947"><ele>442.0</ele><time>2026-04-04T12:34:21.985Z</time></trkpt><trkpt lat="42.566798990458594" lon="12.009054541659056"><ele>442.0</ele><time>2026-04-04T12:34:22.985Z</time></trkpt><trkpt lat="42.566857032159064" lon="12.009135369555684"><ele>442.0</ele><time>2026-04-04T12:34:23.985Z</time></trkpt><trkpt lat="42.566916545267844" lon="12.009213053122478"><ele>442.00000000000006</ele><time>2026-04-04T12:34:24.985Z</time></trkpt><trkpt lat="42.566982057221814" lon="12.009286832153046"><ele>442.0</ele><time>2026-04-04T12:34:25.985Z</time></trkpt><trkpt lat="42.567054669982" lon="12.009350372622627"><ele>441.1666666666667</ele><time>2026-04-04T12:34:26.985Z</time></trkpt><trkpt lat="42.567124426922184" lon="12.00939724692153"><ele>440.33333333333337</ele><time>2026-04-04T12:34:27.985Z</time></trkpt><trkpt lat="42.56720049648829" lon="12.00943980466397"><ele>439.5</ele><time>2026-04-04T12:34:28.985Z</time></trkpt><trkpt lat="42.56728031763708" lon="12.009477124959758"><ele>438.66666666666663</ele><time>2026-04-04T12:34:29.985Z</time></trkpt><trkpt lat="42.56735905533877" lon="12.009502119385486"><ele>437.8333333333333</ele><time>2026-04-04T12:34:30.985Z</time></trkpt><trkpt lat="42.56743469355203" lon="12.009518447119095"><ele>437.0</ele><time>2026-04-04T12:34:31.985Z</time></trkpt><trkpt lat="42.5675145262172" lon="12.009532802386438"><ele>436.99999999999994</ele><time>2026-04-04T12:34:32.985Z</time></trkpt><trkpt lat="42.56759300561752" lon="12.009537074085154"><ele>437.0</ele><time>2026-04-04T12:34:33.985Z</time></trkpt><trkpt lat="42.56767407688254" lon="12.009530956941889"><ele>437.0</ele><time>2026-04-04T12:34:34.985Z</time></trkpt><trkpt lat="42.5677629739665" lon="12.009520388641304"><ele>437.0</ele><time>2026-04-04T12:34:35.985Z</time></trkpt><trkpt lat="42.56784922021565" lon="12.009504506389108"><ele>436.99999999999994</ele><time>2026-04-04T12:34:36.984Z</time></trkpt><trkpt lat="42.5679349043766" lon="12.009490361158049"><ele>437.0</ele><time>2026-04-04T12:34:37.984Z</time></trkpt><trkpt lat="42.568018653966654" lon="12.009477017889084"><ele>436.49999999999994</ele><time>2026-04-04T12:34:38.984Z</time></trkpt><trkpt lat="42.568109999740436" lon="12.009465896018524"><ele>436.0</ele><time>2026-04-04T12:34:39.984Z</time></trkpt><trkpt lat="42.568194596369054" lon="12.009446161017276"><ele>435.5</ele><time>2026-04-04T12:34:40.984Z</time></trkpt><trkpt lat="42.568280348704874" lon="12.009429133311604"><ele>435.0</ele><time>2026-04-04T12:34:41.984Z</time></trkpt><trkpt lat="42.56836782877655" lon="12.009420375198532"><ele>434.49999999999994</ele><time>2026-04-04T12:34:42.984Z</time></trkpt><trkpt lat="42.56845668163266" lon="12.009415891685428"><ele>434.0</ele><time>2026-04-04T12:34:43.984Z</time></trkpt><trkpt lat="42.56854671946146" lon="12.009409770793583"><ele>433.99999999999994</ele><time>2026-04-04T12:34:44.984Z</time></trkpt><trkpt lat="42.568633873695916" lon="12.009396997690926"><ele>434.0</ele><time>2026-04-04T12:34:45.984Z</time></trkpt><trkpt lat="42.568718181109276" lon="12.00938208263707"><ele>434.0</ele><time>2026-04-04T12:34:46.984Z</time></trkpt><trkpt lat="42.56880828007775" lon="12.009366674717361"><ele>434.0</ele><time>2026-04-04T12:34:47.984Z</time></trkpt><trkpt lat="42.56889682653638" lon="12.009357151984139"><ele>433.99999999999994</ele><time>2026-04-04T12:34:48.984Z</time></trkpt><trkpt lat="42.56897513902604" lon="12.009346026849288"><ele>434.0</ele><time>2026-04-04T12:34:49.984Z</time></trkpt><trkpt lat="42.569054160467594" lon="12.009334678430042"><ele>432.16666666666663</ele><time>2026-04-04T12:34:50.984Z</time></trkpt><trkpt lat="42.56913161070451" lon="12.009318717078024"><ele>430.3333333333333</ele><time>2026-04-04T12:34:51.984Z</time></trkpt><trkpt lat="42.56920786416556" lon="12.00931194673524"><ele>428.5</ele><time>2026-04-04T12:34:52.984Z</time></trkpt><trkpt lat="42.56928705155774" lon="12.00930923195526"><ele>426.66666666666663</ele><time>2026-04-04T12:34:53.984Z</time></trkpt><trkpt lat="42.56936515484671" lon="12.009306887892247"><ele>424.8333333333333</ele><time>2026-04-04T12:34:54.984Z</time></trkpt><trkpt lat="42.56944349919601" lon="12.009301538547197"><ele>423.0</ele><time>2026-04-04T12:34:55.984Z</time></trkpt><trkpt lat="42.569519315926236" lon="12.009292370706802"><ele>422.85714285714283</ele><time>2026-04-04T12:34:56.984Z</time></trkpt><trkpt lat="42.569594749811465" lon="12.009282176223783"><ele>422.7142857142857</ele><time>2026-04-04T12:34:57.984Z</time></trkpt><trkpt lat="42.56966772171702" lon="12.00928203844951"><ele>422.57142857142856</ele><time>2026-04-04T12:34:58.984Z</time></trkpt><trkpt lat="42.56973840043255" lon="12.009273518934515"><ele>422.42857142857144</ele><time>2026-04-04T12:34:59.984Z</time></trkpt><trkpt lat="42.56981325669961" lon="12.0092610424095"><ele>422.28571428571433</ele><time>2026-04-04T12:35:00.984Z</time></trkpt><trkpt lat="42.569885286372525" lon="12.00924657842196"><ele>422.14285714285717</ele><time>2026-04-04T12:35:01.984Z</time></trkpt><trkpt lat="42.56995975282775" lon="12.00924336107447"><ele>422.0</ele><time>2026-04-04T12:35:02.984Z</time></trkpt><trkpt lat="42.57002644527818" lon="12.009236295950656"><ele>422.0</ele><time>2026-04-04T12:35:03.984Z</time></trkpt><trkpt lat="42.570094401519945" lon="12.009230901541676"><ele>422.0</ele><time>2026-04-04T12:35:04.984Z</time></trkpt><trkpt lat="42.57016256811438" lon="12.009227875627744"><ele>422.0</ele><time>2026-04-04T12:35:05.984Z</time></trkpt><trkpt lat="42.57023042938578" lon="12.009222884837575"><ele>422.0</ele><time>2026-04-04T12:35:06.984Z</time></trkpt><trkpt lat="42.57035662323968" lon="12.009234710457754"><ele>422.0</ele><time>2026-04-04T12:35:08.984Z</time></trkpt><trkpt lat="42.57047683115668" lon="12.00925384600713"><ele>422.20000000000005</ele><time>2026-04-04T12:35:10.984Z</time></trkpt><trkpt lat="42.57058318713706" lon="12.009281468529675"><ele>422.4</ele><time>2026-04-04T12:35:12.984Z</time></trkpt><trkpt lat="42.57069849264768" lon="12.009310510907818"><ele>422.6</ele><time>2026-04-04T12:35:14.984Z</time></trkpt><trkpt lat="42.57079467110104" lon="12.009329830026031"><ele>422.79999999999995</ele><time>2026-04-04T12:35:16.984Z</time></trkpt><trkpt lat="42.57088725542203" lon="12.009337370631744"><ele>423.0</ele><time>2026-04-04T12:35:18.984Z</time></trkpt><trkpt lat="42.570979097505635" lon="12.009345205390112"><ele>423.0</ele><time>2026-04-04T12:35:20.984Z</time></trkpt><trkpt lat="42.571048102992286" lon="12.009316520769342"><ele>423.0</ele><time>2026-04-04T12:35:22.984Z</time></trkpt><trkpt lat="42.57108818372777" lon="12.009230670394864"><ele>423.0</ele><time>2026-04-04T12:35:25.984Z</time></trkpt><trkpt lat="42.57111125547079" lon="12.009131956709444"><ele>423.0</ele><time>2026-04-04T12:35:28.984Z</time></trkpt><trkpt lat="42.57115950634814" lon="12.009053158522832"><ele>423.0</ele><time>2026-04-04T12:35:31.984Z</time></trkpt><trkpt lat="42.571190616152485" lon="12.008972580047875"><ele>423.0</ele><time>2026-04-04T12:35:33.984Z</time></trkpt><trkpt lat="42.571229496233684" lon="12.008886918545436"><ele>423.0</ele><time>2026-04-04T12:35:35.984Z</time></trkpt><trkpt lat="42.57126745790367" lon="12.008808979270896"><ele>423.1666666666667</ele><time>2026-04-04T12:35:37.984Z</time></trkpt><trkpt lat="42.571306884335286" lon="12.008713512052365"><ele>423.33333333333337</ele><time>2026-04-04T12:35:39.983Z</time></trkpt><trkpt lat="42.571346900630786" lon="12.0086039114182"><ele>423.5</ele><time>2026-04-04T12:35:41.983Z</time></trkpt><trkpt lat="42.57139868338208" lon="12.008500229112919"><ele>423.6666666666667</ele><time>2026-04-04T12:35:43.983Z</time></trkpt><trkpt lat="42.571420679460324" lon="12.0083915878354"><ele>423.83333333333337</ele><time>2026-04-04T12:35:45.983Z</time></trkpt><trkpt lat="42.57145514459816" lon="12.008292008644435"><ele>424.0</ele><time>2026-04-04T12:35:47.983Z</time></trkpt><trkpt lat="42.57148480763184" lon="12.00818776661985"><ele>424.14285714285717</ele><time>2026-04-04T12:35:49.983Z</time></trkpt><trkpt lat="42.57151676102916" lon="12.008113377851378"><ele>424.2857142857143</ele><time>2026-04-04T12:35:51.983Z</time></trkpt><trkpt lat="42.571549640482274" lon="12.008012222237607"><ele>424.42857142857144</ele><time>2026-04-04T12:35:53.983Z</time></trkpt><trkpt lat="42.571580072853806" lon="12.00792719377239"><ele>424.57142857142856</ele><time>2026-04-04T12:35:55.983Z</time></trkpt><trkpt lat="42.57161874226882" lon="12.007835746720627"><ele>424.71428571428567</ele><time>2026-04-04T12:35:57.983Z</time></trkpt><trkpt lat="42.5716425929367" lon="12.007743948711411"><ele>424.85714285714283</ele><time>2026-04-04T12:35:59.983Z</time></trkpt><trkpt lat="42.571669513803776" lon="12.007657609075052"><ele>425.0</ele><time>2026-04-04T12:36:01.983Z</time></trkpt><trkpt lat="42.571701223316715" lon="12.007573880576881"><ele>425.16666666666663</ele><time>2026-04-04T12:36:03.983Z</time></trkpt><trkpt lat="42.571737705295206" lon="12.007493266040257"><ele>425.3333333333333</ele><time>2026-04-04T12:36:05.983Z</time></trkpt><trkpt lat="42.5717688008379" lon="12.00738582149513"><ele>425.5</ele><time>2026-04-04T12:36:08.983Z</time></trkpt><trkpt lat="42.57180358119351" lon="12.007275717929737"><ele>425.66666666666663</ele><time>2026-04-04T12:36:11.983Z</time></trkpt><trkpt lat="42.57183870149472" lon="12.007179753645756"><ele>425.8333333333333</ele><time>2026-04-04T12:36:14.983Z</time></trkpt><trkpt lat="42.571876839656" lon="12.007063431661017"><ele>426.0</ele><time>2026-04-04T12:36:17.983Z</time></trkpt><trkpt lat="42.571906586138454" lon="12.006952941523588"><ele>425.99999999999994</ele><time>2026-04-04T12:36:20.983Z</time></trkpt><trkpt lat="42.57193889532276" lon="12.006854692091768"><ele>426.0</ele><time>2026-04-04T12:36:24.983Z</time></trkpt><trkpt lat="42.57196186256518" lon="12.006764833054829"><ele>426.0</ele><time>2026-04-04T12:36:29.983Z</time></trkpt><trkpt lat="42.57199721248029" lon="12.00668626238837"><ele>426.0</ele><time>2026-04-04T12:36:33.983Z</time></trkpt><trkpt lat="42.57205825837681" lon="12.006619544980872"><ele>426.0</ele><time>2026-04-04T12:36:37.983Z</time></trkpt><trkpt lat="42.57210323117088" lon="12.006546690020532"><ele>425.99999999999994</ele><time>2026-04-04T12:36:40.983Z</time></trkpt><trkpt lat="42.57215655489325" lon="12.006480076029817"><ele>426.0</ele><time>2026-04-04T12:36:42.982Z</time></trkpt><trkpt lat="42.572201243270364" lon="12.006408307658063"><ele>424.1666666666667</ele><time>2026-04-04T12:36:44.982Z</time></trkpt><trkpt lat="42.57224999485621" lon="12.006345673242935"><ele>422.33333333333337</ele><time>2026-04-04T12:36:46.982Z</time></trkpt><trkpt lat="42.57230670031623" lon="12.006285379705105"><ele>420.5</ele><time>2026-04-04T12:36:48.982Z</time></trkpt><trkpt lat="42.572364896139234" lon="12.00621386324155"><ele>418.6666666666667</ele><time>2026-04-04T12:36:50.982Z</time></trkpt><trkpt lat="42.57243038743907" lon="12.00612811756403"><ele>416.83333333333337</ele><time>2026-04-04T12:36:52.982Z</time></trkpt><trkpt lat="42.572495566997624" lon="12.006038441725329"><ele>415.0</ele><time>2026-04-04T12:36:54.982Z</time></trkpt><trkpt lat="42.57256416049596" lon="12.005941058956857"><ele>415.00000000000006</ele><time>2026-04-04T12:36:56.982Z</time></trkpt><trkpt lat="42.5726197105749" lon="12.005858668102357"><ele>415.0</ele><time>2026-04-04T12:36:58.982Z</time></trkpt><trkpt lat="42.57268351691635" lon="12.005780651760888"><ele>415.0</ele><time>2026-04-04T12:37:00.982Z</time></trkpt><trkpt lat="42.572726429385966" lon="12.005692257764487"><ele>415.0</ele><time>2026-04-04T12:37:02.982Z</time></trkpt><trkpt lat="42.572786306954264" lon="12.005615004002426"><ele>415.00000000000006</ele><time>2026-04-04T12:37:04.982Z</time></trkpt><trkpt lat="42.57284273991286" lon="12.005545066749185"><ele>415.0</ele><time>2026-04-04T12:37:06.982Z</time></trkpt><trkpt lat="42.572893662062384" lon="12.005485948492591"><ele>413.1666666666667</ele><time>2026-04-04T12:37:08.982Z</time></trkpt><trkpt lat="42.57295824485159" lon="12.005428335295198"><ele>411.33333333333337</ele><time>2026-04-04T12:37:10.982Z</time></trkpt><trkpt lat="42.57302787915473" lon="12.005367869294705"><ele>409.5</ele><time>2026-04-04T12:37:12.982Z</time></trkpt><trkpt lat="42.573100946274955" lon="12.005324054539802"><ele>407.66666666666663</ele><time>2026-04-04T12:37:14.982Z</time></trkpt><trkpt lat="42.5731515550088" lon="12.005269954952464"><ele>405.8333333333333</ele><time>2026-04-04T12:37:16.982Z</time></trkpt><trkpt lat="42.57322457524144" lon="12.005215959804117"><ele>404.0</ele><time>2026-04-04T12:37:18.982Z</time></trkpt><trkpt lat="42.573302729116925" lon="12.005159247386413"><ele>403.99999999999994</ele><time>2026-04-04T12:37:20.982Z</time></trkpt><trkpt lat="42.57338128916507" lon="12.005092663753343"><ele>404.0</ele><time>2026-04-04T12:37:23.982Z</time></trkpt><trkpt lat="42.57344705101547" lon="12.00502641328833"><ele>404.0</ele><time>2026-04-04T12:37:25.982Z</time></trkpt><trkpt lat="42.57351369479293" lon="12.004950640608874"><ele>404.0</ele><time>2026-04-04T12:37:27.982Z</time></trkpt><trkpt lat="42.573568932276594" lon="12.0048696039346"><ele>403.99999999999994</ele><time>2026-04-04T12:37:29.982Z</time></trkpt><trkpt lat="42.5736407721093" lon="12.00481041287112"><ele>404.0</ele><time>2026-04-04T12:37:31.982Z</time></trkpt><trkpt lat="42.57370455869785" lon="12.004736252090506"><ele>401.79999999999995</ele><time>2026-04-04T12:37:33.982Z</time></trkpt><trkpt lat="42.573787675449495" lon="12.004665402048818"><ele>399.59999999999997</ele><time>2026-04-04T12:37:35.982Z</time></trkpt><trkpt lat="42.573877520044356" lon="12.004597866933581"><ele>397.4</ele><time>2026-04-04T12:37:37.982Z</time></trkpt><trkpt lat="42.573962348544725" lon="12.004542343696215"><ele>395.2</ele><time>2026-04-04T12:37:39.982Z</time></trkpt><trkpt lat="42.57402552077957" lon="12.004510717574016"><ele>393.0</ele><time>2026-04-04T12:37:40.982Z</time></trkpt><trkpt lat="42.574125426414014" lon="12.004450476864003"><ele>393.0</ele><time>2026-04-04T12:37:42.982Z</time></trkpt><trkpt lat="42.574229947275576" lon="12.004378992044124"><ele>393.0</ele><time>2026-04-04T12:37:44.981Z</time></trkpt><trkpt lat="42.57430337234996" lon="12.004282969486603"><ele>393.0</ele><time>2026-04-04T12:37:46.981Z</time></trkpt><trkpt lat="42.57434903562679" lon="12.004183238020447"><ele>393.0</ele><time>2026-04-04T12:37:48.981Z</time></trkpt><trkpt lat="42.57439365762533" lon="12.004085067485457"><ele>393.0</ele><time>2026-04-04T12:37:50.981Z</time></trkpt><trkpt lat="42.57443213995399" lon="12.00401182601559"><ele>391.3333333333333</ele><time>2026-04-04T12:37:52.981Z</time></trkpt><trkpt lat="42.57449127296603" lon="12.003931875347018"><ele>389.6666666666667</ele><time>2026-04-04T12:37:55.981Z</time></trkpt><trkpt lat="42.574538911037045" lon="12.003875612850138"><ele>388.0</ele><time>2026-04-04T12:37:58.981Z</time></trkpt><trkpt lat="42.57458666126196" lon="12.003798556106776"><ele>386.33333333333337</ele><time>2026-04-04T12:38:01.981Z</time></trkpt><trkpt lat="42.57464412060619" lon="12.003739714099167"><ele>384.6666666666667</ele><time>2026-04-04T12:38:03.981Z</time></trkpt><trkpt lat="42.57470910363207" lon="12.003672043314278"><ele>383.0</ele><time>2026-04-04T12:38:05.981Z</time></trkpt><trkpt lat="42.57476614423125" lon="12.003601501252463"><ele>383.0</ele><time>2026-04-04T12:38:07.981Z</time></trkpt><trkpt lat="42.5748456162205" lon="12.00351078859636"><ele>383.0</ele><time>2026-04-04T12:38:09.981Z</time></trkpt><trkpt lat="42.574920905756684" lon="12.003432799507921"><ele>383.0</ele><time>2026-04-04T12:38:11.981Z</time></trkpt><trkpt lat="42.57501296001393" lon="12.003365955141684"><ele>383.0</ele><time>2026-04-04T12:38:13.981Z</time></trkpt><trkpt lat="42.5750980010262" lon="12.003309801236032"><ele>383.0</ele><time>2026-04-04T12:38:15.981Z</time></trkpt><trkpt lat="42.57518834344202" lon="12.003243492511137"><ele>381.2</ele><time>2026-04-04T12:38:17.981Z</time></trkpt><trkpt lat="42.575287143144514" lon="12.003189851282588"><ele>379.4</ele><time>2026-04-04T12:38:19.981Z</time></trkpt><trkpt lat="42.57536619011199" lon="12.003140831280389"><ele>377.59999999999997</ele><time>2026-04-04T12:38:21.981Z</time></trkpt><trkpt lat="42.575466035184455" lon="12.003095041916323"><ele>375.79999999999995</ele><time>2026-04-04T12:38:23.981Z</time></trkpt><trkpt lat="42.57556360019281" lon="12.003049866498873"><ele>374.0</ele><time>2026-04-04T12:38:25.981Z</time></trkpt><trkpt lat="42.57565994782907" lon="12.003008462678642"><ele>374.0</ele><time>2026-04-04T12:38:27.981Z</time></trkpt><trkpt lat="42.57573483559708" lon="12.003003044910752"><ele>374.0</ele><time>2026-04-04T12:38:29.981Z</time></trkpt><trkpt lat="42.57580943443257" lon="12.003027471583108"><ele>374.0</ele><time>2026-04-04T12:38:31.981Z</time></trkpt><trkpt lat="42.57589683512711" lon="12.003021850283085"><ele>374.0</ele><time>2026-04-04T12:38:33.981Z</time></trkpt><trkpt lat="42.57598850193741" lon="12.003071959251944"><ele>374.0</ele><time>2026-04-04T12:38:35.981Z</time></trkpt><trkpt lat="42.57608407299459" lon="12.003112161580248"><ele>374.0</ele><time>2026-04-04T12:38:37.981Z</time></trkpt><trkpt lat="42.57618353532914" lon="12.003147311573255"><ele>374.4</ele><time>2026-04-04T12:38:39.981Z</time></trkpt><trkpt lat="42.57629113091805" lon="12.003189771182278"><ele>374.79999999999995</ele><time>2026-04-04T12:38:41.981Z</time></trkpt><trkpt lat="42.57637769478358" lon="12.003218890858786"><ele>375.20000000000005</ele><time>2026-04-04T12:38:43.981Z</time></trkpt><trkpt lat="42.57646655901125" lon="12.003239040650177"><ele>375.6</ele><time>2026-04-04T12:38:45.981Z</time></trkpt><trkpt lat="42.57655356288431" lon="12.003255501119323"><ele>376.0</ele><time>2026-04-04T12:38:47.98Z</time></trkpt><trkpt lat="42.57664633274662" lon="12.003274425981884"><ele>376.0</ele><time>2026-04-04T12:38:49.98Z</time></trkpt><trkpt lat="42.576730197405105" lon="12.003286007503139"><ele>376.0</ele><time>2026-04-04T12:38:51.98Z</time></trkpt><trkpt lat="42.57682435180658" lon="12.003285786731835"><ele>376.0</ele><time>2026-04-04T12:38:53.98Z</time></trkpt><trkpt lat="42.576928753641454" lon="12.003287728072046"><ele>376.0</ele><time>2026-04-04T12:38:55.98Z</time></trkpt><trkpt lat="42.57702116656296" lon="12.00325457527925"><ele>376.0</ele><time>2026-04-04T12:38:57.98Z</time></trkpt><trkpt lat="42.577109072539024" lon="12.003229910410683"><ele>375.4</ele><time>2026-04-04T12:38:59.98Z</time></trkpt><trkpt lat="42.57718047368805" lon="12.003209923657668"><ele>374.8</ele><time>2026-04-04T12:39:01.98Z</time></trkpt><trkpt lat="42.577266079006776" lon="12.003167275818"><ele>374.2</ele><time>2026-04-04T12:39:03.98Z</time></trkpt><trkpt lat="42.5773681008427" lon="12.003128059592072"><ele>373.59999999999997</ele><time>2026-04-04T12:39:05.98Z</time></trkpt><trkpt lat="42.57746358891145" lon="12.003080513643614"><ele>373.0</ele><time>2026-04-04T12:39:07.98Z</time></trkpt><trkpt lat="42.57755637140758" lon="12.003035395500035"><ele>373.0</ele><time>2026-04-04T12:39:09.98Z</time></trkpt><trkpt lat="42.57765183492808" lon="12.003014648743298"><ele>373.0</ele><time>2026-04-04T12:39:11.98Z</time></trkpt><trkpt lat="42.57775137978255" lon="12.002998147675077"><ele>373.0</ele><time>2026-04-04T12:39:13.98Z</time></trkpt><trkpt lat="42.57787229759162" lon="12.003004481307526"><ele>373.0</ele><time>2026-04-04T12:39:15.98Z</time></trkpt><trkpt lat="42.577973659906974" lon="12.003001119841413"><ele>373.0</ele><time>2026-04-04T12:39:17.98Z</time></trkpt><trkpt lat="42.57808699293489" lon="12.002939583941073"><ele>371.66666666666663</ele><time>2026-04-04T12:39:19.98Z</time></trkpt><trkpt lat="42.57814313494635" lon="12.002898613831503"><ele>370.3333333333333</ele><time>2026-04-04T12:39:20.98Z</time></trkpt><trkpt lat="42.578201534952726" lon="12.002853091375348"><ele>369.0</ele><time>2026-04-04T12:39:22.004Z</time></trkpt><trkpt lat="42.5782562479663" lon="12.002793867301635"><ele>367.6666666666667</ele><time>2026-04-04T12:39:23.004Z</time></trkpt><trkpt lat="42.57833731729796" lon="12.002691195408318"><ele>366.33333333333337</ele><time>2026-04-04T12:39:25.004Z</time></trkpt><trkpt lat="42.5784445423382" lon="12.002587818414199"><ele>365.0</ele><time>2026-04-04T12:39:27.004Z</time></trkpt><trkpt lat="42.578506006559834" lon="12.00254076393988"><ele>365.33333333333337</ele><time>2026-04-04T12:39:28.004Z</time></trkpt><trkpt lat="42.5785713990165" lon="12.002490519762395"><ele>365.6666666666667</ele><time>2026-04-04T12:39:29.004Z</time></trkpt><trkpt lat="42.57863849411485" lon="12.002443637635174"><ele>366.0</ele><time>2026-04-04T12:39:30.004Z</time></trkpt><trkpt lat="42.57870442712001" lon="12.002403677775845"><ele>366.3333333333333</ele><time>2026-04-04T12:39:31.004Z</time></trkpt><trkpt lat="42.57880441363889" lon="12.002343354446127"><ele>366.66666666666663</ele><time>2026-04-04T12:39:33.004Z</time></trkpt><trkpt lat="42.57890688682101" lon="12.002290168136327"><ele>367.0</ele><time>2026-04-04T12:39:35.004Z</time></trkpt><trkpt lat="42.5789908930807" lon="12.0022378876467"><ele>365.20000000000005</ele><time>2026-04-04T12:39:37.004Z</time></trkpt><trkpt lat="42.579081322056204" lon="12.002183686742738"><ele>363.4</ele><time>2026-04-04T12:39:39.004Z</time></trkpt><trkpt lat="42.579180718884146" lon="12.002094614387241"><ele>361.6</ele><time>2026-04-04T12:39:41.004Z</time></trkpt><trkpt lat="42.579235863336685" lon="12.002012633844346"><ele>359.79999999999995</ele><time>2026-04-04T12:39:43.004Z</time></trkpt><trkpt lat="42.579239939402626" lon="12.00189355861989"><ele>358.0</ele><time>2026-04-04T12:39:45.004Z</time></trkpt><trkpt lat="42.57926362838814" lon="12.001730223681502"><ele>356.59999999999997</ele><time>2026-04-04T12:39:47.004Z</time></trkpt><trkpt lat="42.579295202400296" lon="12.00158978845566"><ele>355.2</ele><time>2026-04-04T12:39:49.004Z</time></trkpt><trkpt lat="42.57931799970516" lon="12.00147567648999"><ele>353.8</ele><time>2026-04-04T12:39:51.004Z</time></trkpt><trkpt lat="42.579346601737974" lon="12.001342927902783"><ele>352.4</ele><time>2026-04-04T12:39:53.004Z</time></trkpt><trkpt lat="42.57936676275719" lon="12.001214604215175"><ele>351.0</ele><time>2026-04-04T12:39:55.004Z</time></trkpt><trkpt lat="42.57935583652452" lon="12.001075346591245"><ele>351.0</ele><time>2026-04-04T12:39:57.004Z</time></trkpt><trkpt lat="42.57935794251729" lon="12.00096791988919"><ele>351.0</ele><time>2026-04-04T12:39:59.004Z</time></trkpt><trkpt lat="42.57935697856345" lon="12.000875577696057"><ele>351.0</ele><time>2026-04-04T12:40:01.004Z</time></trkpt><trkpt lat="42.579365077710676" lon="12.00078738491976"><ele>351.0</ele><time>2026-04-04T12:40:04.004Z</time></trkpt><trkpt lat="42.579351843612564" lon="12.000687253420832"><ele>351.0</ele><time>2026-04-04T12:40:06.004Z</time></trkpt><trkpt lat="42.57937169464776" lon="12.000577172479707"><ele>351.0</ele><time>2026-04-04T12:40:08.004Z</time></trkpt><trkpt lat="42.57938656479297" lon="12.000443462030226"><ele>349.20000000000005</ele><time>2026-04-04T12:40:10.006Z</time></trkpt><trkpt lat="42.579396765694334" lon="12.000274095461357"><ele>347.40000000000003</ele><time>2026-04-04T12:40:12.007Z</time></trkpt><trkpt lat="42.579395173954246" lon="12.00013479416153"><ele>345.6</ele><time>2026-04-04T12:40:14.007Z</time></trkpt><trkpt lat="42.57939989723371" lon="11.999978733584504"><ele>343.8</ele><time>2026-04-04T12:40:16.006Z</time></trkpt><trkpt lat="42.579403202054934" lon="11.99984613519428"><ele>342.0</ele><time>2026-04-04T12:40:18.006Z</time></trkpt><trkpt lat="42.57943332076032" lon="11.999693387713048"><ele>342.0</ele><time>2026-04-04T12:40:20.006Z</time></trkpt><trkpt lat="42.579459069945074" lon="11.999608422162565"><ele>342.0</ele><time>2026-04-04T12:40:21.007Z</time></trkpt><trkpt lat="42.57949693147024" lon="11.999464431388473"><ele>342.0</ele><time>2026-04-04T12:40:23.006Z</time></trkpt><trkpt lat="42.57951283202165" lon="11.999349560382674"><ele>342.0</ele><time>2026-04-04T12:40:25.006Z</time></trkpt><trkpt lat="42.57954241754663" lon="11.999235946524221"><ele>342.0</ele><time>2026-04-04T12:40:28.006Z</time></trkpt><trkpt lat="42.5795620294428" lon="11.999149659705681"><ele>342.0</ele><time>2026-04-04T12:40:30.006Z</time></trkpt><trkpt lat="42.57958376792285" lon="11.99902814453392"><ele>340.8333333333333</ele><time>2026-04-04T12:40:33.006Z</time></trkpt><trkpt lat="42.579556055460586" lon="11.998908120652029"><ele>339.6666666666667</ele><time>2026-04-04T12:40:36.006Z</time></trkpt><trkpt lat="42.57952998341601" lon="11.99878562867673"><ele>338.5</ele><time>2026-04-04T12:40:39.006Z</time></trkpt><trkpt lat="42.57947754534912" lon="11.998666489265618"><ele>337.33333333333337</ele><time>2026-04-04T12:40:42.006Z</time></trkpt><trkpt lat="42.57943109101192" lon="11.998571398252574"><ele>336.1666666666667</ele><time>2026-04-04T12:40:45.006Z</time></trkpt><trkpt lat="42.5793909759909" lon="11.998503572158567"><ele>335.0</ele><time>2026-04-04T12:40:47.006Z</time></trkpt><trkpt lat="42.579339654552804" lon="11.99842882944223"><ele>335.0</ele><time>2026-04-04T12:40:49.006Z</time></trkpt><trkpt lat="42.579288885073844" lon="11.998372947049129"><ele>335.0</ele><time>2026-04-04T12:40:51.006Z</time></trkpt><trkpt lat="42.579205448110166" lon="11.998341000306118"><ele>335.0</ele><time>2026-04-04T12:40:54.006Z</time></trkpt><trkpt lat="42.57912673232713" lon="11.998333601619906"><ele>335.0</ele><time>2026-04-04T12:40:56.006Z</time></trkpt><trkpt lat="42.579009449668995" lon="11.99831405107975"><ele>335.0</ele><time>2026-04-04T12:40:58.006Z</time></trkpt><trkpt lat="42.57890363646979" lon="11.998249783477387"><ele>333.0</ele><time>2026-04-04T12:41:00.006Z</time></trkpt><trkpt lat="42.578850318973515" lon="11.998178451931842"><ele>331.0</ele><time>2026-04-04T12:41:01.006Z</time></trkpt><trkpt lat="42.57879583757234" lon="11.998112402317695"><ele>329.0</ele><time>2026-04-04T12:41:02.006Z</time></trkpt><trkpt lat="42.57873609459661" lon="11.99805974898438"><ele>327.0</ele><time>2026-04-04T12:41:03.006Z</time></trkpt><trkpt lat="42.578678997761216" lon="11.998015520818925"><ele>325.0</ele><time>2026-04-04T12:41:04.006Z</time></trkpt><trkpt lat="42.57857787910026" lon="11.997948115162071"><ele>323.0</ele><time>2026-04-04T12:41:06.006Z</time></trkpt><trkpt lat="42.57852511157267" lon="11.997829926234166"><ele>322.4</ele><time>2026-04-04T12:41:08.006Z</time></trkpt><trkpt lat="42.5785211090524" lon="11.997740741598669"><ele>321.79999999999995</ele><time>2026-04-04T12:41:09.006Z</time></trkpt><trkpt lat="42.57852936910417" lon="11.99764833093426"><ele>321.2</ele><time>2026-04-04T12:41:10.006Z</time></trkpt><trkpt lat="42.57853631508235" lon="11.997496099882971"><ele>320.6</ele><time>2026-04-04T12:41:12.006Z</time></trkpt><trkpt lat="42.57853280641611" lon="11.9973596709765"><ele>320.0</ele><time>2026-04-04T12:41:14.006Z</time></trkpt><trkpt lat="42.578528495093636" lon="11.997208159473562"><ele>318.5</ele><time>2026-04-04T12:41:16.006Z</time></trkpt><trkpt lat="42.5785289388745" lon="11.997044943863093"><ele>317.0</ele><time>2026-04-04T12:41:18.005Z</time></trkpt><trkpt lat="42.57852309018824" lon="11.996904224487851"><ele>315.5</ele><time>2026-04-04T12:41:20.005Z</time></trkpt><trkpt lat="42.57852426582298" lon="11.996745566594738"><ele>314.0</ele><time>2026-04-04T12:41:22.005Z</time></trkpt><trkpt lat="42.578511623757834" lon="11.996595191202108"><ele>313.75</ele><time>2026-04-04T12:41:24.005Z</time></trkpt><trkpt lat="42.57850364335168" lon="11.99644015277628"><ele>313.5</ele><time>2026-04-04T12:41:26.005Z</time></trkpt><trkpt lat="42.57850282340766" lon="11.99628137890492"><ele>313.25</ele><time>2026-04-04T12:41:28.005Z</time></trkpt><trkpt lat="42.57849309945556" lon="11.996125310768255"><ele>313.0</ele><time>2026-04-04T12:41:30.005Z</time></trkpt><trkpt lat="42.578486665906354" lon="11.995967071162434"><ele>312.8</ele><time>2026-04-04T12:41:32.005Z</time></trkpt><trkpt lat="42.57848202971129" lon="11.995807675515852"><ele>312.6</ele><time>2026-04-04T12:41:34.005Z</time></trkpt><trkpt lat="42.57847864833801" lon="11.995658943739782"><ele>312.4</ele><time>2026-04-04T12:41:36.005Z</time></trkpt><trkpt lat="42.57847789525232" lon="11.995501243832463"><ele>312.2</ele><time>2026-04-04T12:41:38.005Z</time></trkpt><trkpt lat="42.57846444668128" lon="11.995362180121257"><ele>312.0</ele><time>2026-04-04T12:41:40.005Z</time></trkpt><trkpt lat="42.57846508279353" lon="11.995220480624138"><ele>312.0</ele><time>2026-04-04T12:41:42.005Z</time></trkpt><trkpt lat="42.57846204274254" lon="11.99508139448105"><ele>312.0</ele><time>2026-04-04T12:41:44.005Z</time></trkpt><trkpt lat="42.57846475344321" lon="11.994954234032011"><ele>312.0</ele><time>2026-04-04T12:41:46.005Z</time></trkpt><trkpt lat="42.578470937161995" lon="11.994829462392131"><ele>312.0</ele><time>2026-04-04T12:41:48.005Z</time></trkpt><trkpt lat="42.57845764736133" lon="11.994706510682734"><ele>312.0</ele><time>2026-04-04T12:41:50.005Z</time></trkpt><trkpt lat="42.578460082407176" lon="11.994566782368377"><ele>311.6</ele><time>2026-04-04T12:41:52.005Z</time></trkpt><trkpt lat="42.57846304628601" lon="11.994431144066226"><ele>311.2</ele><time>2026-04-04T12:41:54.005Z</time></trkpt><trkpt lat="42.578467136775735" lon="11.994301548478289"><ele>310.8</ele><time>2026-04-04T12:41:56.005Z</time></trkpt><trkpt lat="42.57846733541767" lon="11.994157263959712"><ele>310.4</ele><time>2026-04-04T12:41:58.005Z</time></trkpt><trkpt lat="42.578464162569034" lon="11.994047930979725"><ele>310.0</ele><time>2026-04-04T12:42:00.005Z</time></trkpt><trkpt lat="42.5784550970342" lon="11.993933891329316"><ele>309.66666666666663</ele><time>2026-04-04T12:42:02.005Z</time></trkpt><trkpt lat="42.5784589987752" lon="11.993822609229968"><ele>309.3333333333333</ele><time>2026-04-04T12:42:04.005Z</time></trkpt><trkpt lat="42.57845089823377" lon="11.993698386800657"><ele>309.0</ele><time>2026-04-04T12:42:06.005Z</time></trkpt><trkpt lat="42.5784519055095" lon="11.993580132007441"><ele>308.6666666666667</ele><time>2026-04-04T12:42:08.005Z</time></trkpt><trkpt lat="42.5784501068313" lon="11.993470583237013"><ele>308.33333333333337</ele><time>2026-04-04T12:42:10.005Z</time></trkpt><trkpt lat="42.57844754006145" lon="11.993355020208941"><ele>308.0</ele><time>2026-04-04T12:42:12.005Z</time></trkpt><trkpt lat="42.57844749647121" lon="11.993241541668766"><ele>307.83333333333337</ele><time>2026-04-04T12:42:14.005Z</time></trkpt><trkpt lat="42.57844732112256" lon="11.993130473328797"><ele>307.6666666666667</ele><time>2026-04-04T12:42:16.007Z</time></trkpt><trkpt lat="42.578449459081824" lon="11.993025559994265"><ele>307.5</ele><time>2026-04-04T12:42:18.008Z</time></trkpt><trkpt lat="42.578449592738295" lon="11.992916596842893"><ele>307.3333333333333</ele><time>2026-04-04T12:42:20.007Z</time></trkpt><trkpt lat="42.57844202666254" lon="11.9928113434018"><ele>307.16666666666663</ele><time>2026-04-04T12:42:22.008Z</time></trkpt><trkpt lat="42.57844150856478" lon="11.992703321744704"><ele>307.0</ele><time>2026-04-04T12:42:24.008Z</time></trkpt><trkpt lat="42.57843833723389" lon="11.992598093935097"><ele>306.8333333333333</ele><time>2026-04-04T12:42:26.007Z</time></trkpt><trkpt lat="42.57844011563912" lon="11.99248502164551"><ele>306.66666666666663</ele><time>2026-04-04T12:42:28.008Z</time></trkpt><trkpt lat="42.57843716768435" lon="11.992382484693579"><ele>306.5</ele><time>2026-04-04T12:42:30.008Z</time></trkpt><trkpt lat="42.57844275568797" lon="11.992282182373762"><ele>306.3333333333333</ele><time>2026-04-04T12:42:32.008Z</time></trkpt><trkpt lat="42.578436981868116" lon="11.992186640791136"><ele>306.1666666666667</ele><time>2026-04-04T12:42:34.008Z</time></trkpt><trkpt lat="42.57843251168877" lon="11.992083600045973"><ele>306.0</ele><time>2026-04-04T12:42:36.008Z</time></trkpt><trkpt lat="42.578427263204304" lon="11.991988006753065"><ele>306.0</ele><time>2026-04-04T12:42:38.008Z</time></trkpt><trkpt lat="42.578426827206115" lon="11.991900657334535"><ele>306.0</ele><time>2026-04-04T12:42:40.008Z</time></trkpt><trkpt lat="42.57842094848613" lon="11.991806465158794"><ele>306.0</ele><time>2026-04-04T12:42:43.008Z</time></trkpt><trkpt lat="42.57836748134918" lon="11.991753818169872"><ele>306.0</ele><time>2026-04-04T12:42:48.007Z</time></trkpt><trkpt lat="42.57829958126429" lon="11.991729829704132"><ele>306.0</ele><time>2026-04-04T12:42:52.007Z</time></trkpt><trkpt lat="42.578239712261905" lon="11.991757191727146"><ele>306.0</ele><time>2026-04-04T12:42:56.007Z</time></trkpt><trkpt lat="42.57816632977819" lon="11.991782744026596"><ele>306.0</ele><time>2026-04-04T12:43:02.007Z</time></trkpt><trkpt lat="42.578098941965" lon="11.991796163517531"><ele>306.0</ele><time>2026-04-04T12:43:07.007Z</time></trkpt><trkpt lat="42.57802317789764" lon="11.991828558621973"><ele>306.0</ele><time>2026-04-04T12:43:12.007Z</time></trkpt><trkpt lat="42.577963819716" lon="11.991896288299696"><ele>306.0</ele><time>2026-04-04T12:43:16.007Z</time></trkpt><trkpt lat="42.577897950854606" lon="11.991940824995487"><ele>306.0</ele><time>2026-04-04T12:43:19.007Z</time></trkpt><trkpt lat="42.57782877892144" lon="11.991983641764477"><ele>306.0</ele><time>2026-04-04T12:43:22.007Z</time></trkpt><trkpt lat="42.57775985178779" lon="11.992033982610124"><ele>306.0</ele><time>2026-04-04T12:43:25.007Z</time></trkpt><trkpt lat="42.57769459140058" lon="11.992092644417657"><ele>306.5</ele><time>2026-04-04T12:43:28.007Z</time></trkpt><trkpt lat="42.57763373016761" lon="11.992128991537955"><ele>307.0</ele><time>2026-04-04T12:43:30.007Z</time></trkpt><trkpt lat="42.57755461661434" lon="11.992163356616693"><ele>307.5</ele><time>2026-04-04T12:43:33.007Z</time></trkpt><trkpt lat="42.57748101095578" lon="11.992204855651256"><ele>308.0</ele><time>2026-04-04T12:43:36.007Z</time></trkpt><trkpt lat="42.57741202839634" lon="11.992268551931831"><ele>308.5</ele><time>2026-04-04T12:43:39.007Z</time></trkpt><trkpt lat="42.57734996936263" lon="11.992292583631086"><ele>309.0</ele><time>2026-04-04T12:43:41.007Z</time></trkpt><trkpt lat="42.57727223661308" lon="11.992352753301088"><ele>309.0</ele><time>2026-04-04T12:43:44.007Z</time></trkpt><trkpt lat="42.57719589995041" lon="11.992407656876885"><ele>309.0</ele><time>2026-04-04T12:43:46.006Z</time></trkpt><trkpt lat="42.57713753825712" lon="11.99245725926113"><ele>309.0</ele><time>2026-04-04T12:43:48.006Z</time></trkpt><trkpt lat="42.5770746842211" lon="11.992480045719425"><ele>309.0</ele><time>2026-04-04T12:43:50.006Z</time></trkpt><trkpt lat="42.57700764012669" lon="11.992495453413156"><ele>309.0</ele><time>2026-04-04T12:43:53.006Z</time></trkpt><trkpt lat="42.57693487784361" lon="11.992590238239183"><ele>309.0</ele><time>2026-04-04T12:43:56.006Z</time></trkpt><trkpt lat="42.57687613928567" lon="11.99263319171617"><ele>308.5714285714286</ele><time>2026-04-04T12:43:58.006Z</time></trkpt><trkpt lat="42.576814543311066" lon="11.99267922703554"><ele>308.14285714285717</ele><time>2026-04-04T12:44:00.006Z</time></trkpt><trkpt lat="42.57675900389992" lon="11.992731241501149"><ele>307.7142857142857</ele><time>2026-04-04T12:44:02.006Z</time></trkpt><trkpt lat="42.576698990163585" lon="11.992774980295293"><ele>307.28571428571433</ele><time>2026-04-04T12:44:04.006Z</time></trkpt><trkpt lat="42.576608251010825" lon="11.99282655082181"><ele>306.8571428571429</ele><time>2026-04-04T12:44:07.006Z</time></trkpt><trkpt lat="42.57654985472188" lon="11.99286737959883"><ele>306.42857142857144</ele><time>2026-04-04T12:44:09.006Z</time></trkpt><trkpt lat="42.57647806520391" lon="11.992884909383733"><ele>306.0</ele><time>2026-04-04T12:44:11.006Z</time></trkpt><trkpt lat="42.57639806804303" lon="11.992905048990707"><ele>306.0</ele><time>2026-04-04T12:44:13.006Z</time></trkpt><trkpt lat="42.57631612435887" lon="11.992945113126925"><ele>306.0</ele><time>2026-04-04T12:44:15.006Z</time></trkpt><trkpt lat="42.576251993279406" lon="11.992997638383446"><ele>306.0</ele><time>2026-04-04T12:44:18.006Z</time></trkpt><trkpt lat="42.57618740921249" lon="11.993052925045353"><ele>306.0</ele><time>2026-04-04T12:44:20.006Z</time></trkpt><trkpt lat="42.57612206943983" lon="11.993108203009937"><ele>306.0</ele><time>2026-04-04T12:44:24.008Z</time></trkpt><trkpt lat="42.576033659110266" lon="11.993161204854655"><ele>306.0</ele><time>2026-04-04T12:44:27.008Z</time></trkpt><trkpt lat="42.575969902233" lon="11.993207286411963"><ele>306.0</ele><time>2026-04-04T12:44:29.008Z</time></trkpt><trkpt lat="42.575910614822746" lon="11.993237418078127"><ele>306.0</ele><time>2026-04-04T12:44:31.008Z</time></trkpt><trkpt lat="42.57581647971385" lon="11.993276189966505"><ele>306.0</ele><time>2026-04-04T12:44:34.008Z</time></trkpt><trkpt lat="42.5757359205628" lon="11.993287711339544"><ele>306.0</ele><time>2026-04-04T12:44:36.008Z</time></trkpt><trkpt lat="42.57565754067092" lon="11.993331789564861"><ele>306.0</ele><time>2026-04-04T12:44:38.008Z</time></trkpt><trkpt lat="42.575590012376814" lon="11.993375055921854"><ele>306.0</ele><time>2026-04-04T12:44:40.008Z</time></trkpt><trkpt lat="42.575527479407256" lon="11.993408710942614"><ele>306.0</ele><time>2026-04-04T12:44:42.008Z</time></trkpt><trkpt lat="42.575440083580744" lon="11.993447820507194"><ele>306.0</ele><time>2026-04-04T12:44:45.008Z</time></trkpt><trkpt lat="42.57537227802289" lon="11.99347928296245"><ele>306.0</ele><time>2026-04-04T12:44:47.008Z</time></trkpt><trkpt lat="42.57530062355912" lon="11.993508147972628"><ele>306.0</ele><time>2026-04-04T12:44:49.008Z</time></trkpt><trkpt lat="42.575221062096354" lon="11.993542691784961"><ele>306.0</ele><time>2026-04-04T12:44:52.008Z</time></trkpt><trkpt lat="42.57515078897608" lon="11.993574098531086"><ele>306.0</ele><time>2026-04-04T12:44:55.008Z</time></trkpt><trkpt lat="42.57507527485685" lon="11.993594492866867"><ele>306.0</ele><time>2026-04-04T12:44:59.008Z</time></trkpt><trkpt lat="42.5749839983486" lon="11.993630404564028"><ele>306.0</ele><time>2026-04-04T12:45:02.008Z</time></trkpt><trkpt lat="42.57489903636679" lon="11.99366371608516"><ele>306.0</ele><time>2026-04-04T12:45:05.008Z</time></trkpt><trkpt lat="42.574827103284306" lon="11.993712126626487"><ele>306.0</ele><time>2026-04-04T12:45:08.008Z</time></trkpt><trkpt lat="42.57476881957461" lon="11.99376578442745"><ele>306.0</ele><time>2026-04-04T12:45:10.008Z</time></trkpt><trkpt lat="42.57471668230166" lon="11.993829858332063"><ele>306.0</ele><time>2026-04-04T12:45:12.008Z</time></trkpt><trkpt lat="42.57467007410221" lon="11.993903996555016"><ele>306.0</ele><time>2026-04-04T12:45:14.008Z</time></trkpt><trkpt lat="42.57461921403847" lon="11.993981994636261"><ele>306.0</ele><time>2026-04-04T12:45:16.007Z</time></trkpt><trkpt lat="42.57456923705795" lon="11.99403747436542"><ele>306.0</ele><time>2026-04-04T12:45:18.007Z</time></trkpt><trkpt lat="42.57450683198084" lon="11.994104371642386"><ele>306.0</ele><time>2026-04-04T12:45:21.007Z</time></trkpt><trkpt lat="42.57445274602898" lon="11.994149499620526"><ele>306.0</ele><time>2026-04-04T12:45:23.007Z</time></trkpt><trkpt lat="42.57439599957777" lon="11.994193320453125"><ele>306.0</ele><time>2026-04-04T12:45:25.007Z</time></trkpt><trkpt lat="42.57431788645952" lon="11.994268948288724"><ele>306.0</ele><time>2026-04-04T12:45:28.007Z</time></trkpt><trkpt lat="42.57424380908099" lon="11.994330046783412"><ele>306.0</ele><time>2026-04-04T12:45:31.007Z</time></trkpt><trkpt lat="42.574184435261316" lon="11.994380513743694"><ele>306.0</ele><time>2026-04-04T12:45:33.007Z</time></trkpt><trkpt lat="42.57413629289157" lon="11.994451815754308"><ele>306.0</ele><time>2026-04-04T12:45:35.007Z</time></trkpt><trkpt lat="42.57407260386695" lon="11.99454082306822"><ele>306.0</ele><time>2026-04-04T12:45:38.007Z</time></trkpt><trkpt lat="42.57402556485492" lon="11.994633104527471"><ele>306.0</ele><time>2026-04-04T12:45:41.007Z</time></trkpt><trkpt lat="42.57394559105942" lon="11.99468132059567"><ele>306.0</ele><time>2026-04-04T12:45:44.007Z</time></trkpt><trkpt lat="42.57388961637362" lon="11.994724192308697"><ele>306.0</ele><time>2026-04-04T12:45:46.007Z</time></trkpt><trkpt lat="42.573812963853655" lon="11.99479464028097"><ele>306.0</ele><time>2026-04-04T12:45:49.007Z</time></trkpt><trkpt lat="42.573755177129314" lon="11.994847644952914"><ele>306.0</ele><time>2026-04-04T12:45:51.007Z</time></trkpt><trkpt lat="42.57369044364148" lon="11.994888287625939"><ele>306.0</ele><time>2026-04-04T12:45:53.007Z</time></trkpt><trkpt lat="42.57362624430072" lon="11.99493923137789"><ele>306.0</ele><time>2026-04-04T12:45:55.007Z</time></trkpt><trkpt lat="42.57355602055361" lon="11.994983422737144"><ele>306.0</ele><time>2026-04-04T12:45:57.007Z</time></trkpt><trkpt lat="42.57348247138524" lon="11.995009103190691"><ele>306.5</ele><time>2026-04-04T12:45:59.007Z</time></trkpt><trkpt lat="42.57338846928083" lon="11.995043658401466"><ele>307.0</ele><time>2026-04-04T12:46:01.007Z</time></trkpt><trkpt lat="42.57331027978965" lon="11.995073196562663"><ele>307.5</ele><time>2026-04-04T12:46:03.007Z</time></trkpt><trkpt lat="42.573231210354315" lon="11.995116658186788"><ele>308.0</ele><time>2026-04-04T12:46:05.007Z</time></trkpt><trkpt lat="42.5731583873817" lon="11.995150483526018"><ele>308.5</ele><time>2026-04-04T12:46:07.007Z</time></trkpt><trkpt lat="42.573098255396346" lon="11.995201903512534"><ele>309.0</ele><time>2026-04-04T12:46:09.007Z</time></trkpt><trkpt lat="42.57302792557202" lon="11.995265297077024"><ele>309.00000000000006</ele><time>2026-04-04T12:46:12.007Z</time></trkpt><trkpt lat="42.57296711233058" lon="11.995299565229812"><ele>309.0</ele><time>2026-04-04T12:46:14.007Z</time></trkpt><trkpt lat="42.57289697464721" lon="11.995368810438542"><ele>309.0</ele><time>2026-04-04T12:46:17.006Z</time></trkpt><trkpt lat="42.57283714610619" lon="11.99539612965557"><ele>309.0</ele><time>2026-04-04T12:46:19.006Z</time></trkpt><trkpt lat="42.57274839080974" lon="11.995381914666579"><ele>309.0</ele><time>2026-04-04T12:46:22.006Z</time></trkpt><trkpt lat="42.57268218628455" lon="11.995383310355136"><ele>309.00000000000006</ele><time>2026-04-04T12:46:24.006Z</time></trkpt><trkpt lat="42.57261896219837" lon="11.995398567340882"><ele>309.0</ele><time>2026-04-04T12:46:26.006Z</time></trkpt><trkpt lat="42.57255082716199" lon="11.995396915147392"><ele>309.3333333333333</ele><time>2026-04-04T12:46:29.009Z</time></trkpt><trkpt lat="42.57248557823422" lon="11.995419617312034"><ele>309.6666666666667</ele><time>2026-04-04T12:46:32.009Z</time></trkpt><trkpt lat="42.57239700078099" lon="11.995438286819589"><ele>310.0</ele><time>2026-04-04T12:46:35.009Z</time></trkpt><trkpt lat="42.572308985120756" lon="11.995449751919713"><ele>310.33333333333337</ele><time>2026-04-04T12:46:38.009Z</time></trkpt><trkpt lat="42.5722186003492" lon="11.995455583325025"><ele>310.6666666666667</ele><time>2026-04-04T12:46:41.008Z</time></trkpt><trkpt lat="42.57212564719703" lon="11.995465319687495"><ele>311.0</ele><time>2026-04-04T12:46:44.008Z</time></trkpt><trkpt lat="42.57203534073706" lon="11.995470143120924"><ele>310.83333333333337</ele><time>2026-04-04T12:46:47.008Z</time></trkpt><trkpt lat="42.571951353684625" lon="11.995477458057964"><ele>310.6666666666667</ele><time>2026-04-04T12:46:50.008Z</time></trkpt><trkpt lat="42.57188130083767" lon="11.995468027476306"><ele>310.5</ele><time>2026-04-04T12:46:52.008Z</time></trkpt><trkpt lat="42.571813562068705" lon="11.995469836862078"><ele>310.3333333333333</ele><time>2026-04-04T12:46:54.008Z</time></trkpt><trkpt lat="42.57171718178463" lon="11.995466333359166"><ele>310.16666666666663</ele><time>2026-04-04T12:46:57.008Z</time></trkpt><trkpt lat="42.571650248191155" lon="11.995453303675147"><ele>310.0</ele><time>2026-04-04T12:46:59.008Z</time></trkpt><trkpt lat="42.571578455654866" lon="11.995437438967153"><ele>310.0</ele><time>2026-04-04T12:47:01.008Z</time></trkpt><trkpt lat="42.57150725393971" lon="11.995424186384229"><ele>310.0</ele><time>2026-04-04T12:47:03.008Z</time></trkpt><trkpt lat="42.57144163423968" lon="11.995409980791605"><ele>310.0</ele><time>2026-04-04T12:47:05.008Z</time></trkpt><trkpt lat="42.571368922005576" lon="11.995400771519916"><ele>310.0</ele><time>2026-04-04T12:47:07.008Z</time></trkpt><trkpt lat="42.57129985970667" lon="11.995388276671505"><ele>310.0</ele><time>2026-04-04T12:47:09.008Z</time></trkpt><trkpt lat="42.57123637690085" lon="11.995366185641945"><ele>310.0</ele><time>2026-04-04T12:47:11.008Z</time></trkpt><trkpt lat="42.57117406691949" lon="11.995334081053965"><ele>310.0</ele><time>2026-04-04T12:47:13.008Z</time></trkpt><trkpt lat="42.57110127458708" lon="11.995307354741993"><ele>310.0</ele><time>2026-04-04T12:47:16.008Z</time></trkpt><trkpt lat="42.571039518690604" lon="11.995272170773221"><ele>310.0</ele><time>2026-04-04T12:47:18.008Z</time></trkpt><trkpt lat="42.57097872639824" lon="11.99523399241984"><ele>310.0</ele><time>2026-04-04T12:47:20.008Z</time></trkpt><trkpt lat="42.57091721647184" lon="11.995208708322298"><ele>310.0</ele><time>2026-04-04T12:47:22.008Z</time></trkpt><trkpt lat="42.57085396285846" lon="11.995168639527067"><ele>310.0</ele><time>2026-04-04T12:47:24.008Z</time></trkpt><trkpt lat="42.57078342871307" lon="11.995135329471196"><ele>310.0</ele><time>2026-04-04T12:47:26.008Z</time></trkpt><trkpt lat="42.57071767994358" lon="11.995102874438347"><ele>310.0</ele><time>2026-04-04T12:47:28.008Z</time></trkpt><trkpt lat="42.570648403065775" lon="11.995066137627578"><ele>310.0</ele><time>2026-04-04T12:47:30.008Z</time></trkpt><trkpt lat="42.5705817625221" lon="11.995021253447613"><ele>310.0</ele><time>2026-04-04T12:47:32.008Z</time></trkpt><trkpt lat="42.57051805035076" lon="11.994975057649569"><ele>310.0</ele><time>2026-04-04T12:47:34.008Z</time></trkpt><trkpt lat="42.57045113097762" lon="11.994926088131376"><ele>310.0</ele><time>2026-04-04T12:47:36.008Z</time></trkpt><trkpt lat="42.570387366572795" lon="11.994870321039421"><ele>310.0</ele><time>2026-04-04T12:47:38.008Z</time></trkpt><trkpt lat="42.57032097750241" lon="11.994809586981932"><ele>310.0</ele><time>2026-04-04T12:47:40.008Z</time></trkpt><trkpt lat="42.57025809228163" lon="11.994753504348546"><ele>309.42857142857144</ele><time>2026-04-04T12:47:42.007Z</time></trkpt><trkpt lat="42.57019258958221" lon="11.994699501913152"><ele>308.85714285714283</ele><time>2026-04-04T12:47:44.007Z</time></trkpt><trkpt lat="42.570132231234496" lon="11.994650731850381"><ele>308.2857142857143</ele><time>2026-04-04T12:47:46.007Z</time></trkpt><trkpt lat="42.570069291210075" lon="11.994596607622348"><ele>307.7142857142857</ele><time>2026-04-04T12:47:48.007Z</time></trkpt><trkpt lat="42.570008681856585" lon="11.994535923085312"><ele>307.14285714285717</ele><time>2026-04-04T12:47:50.007Z</time></trkpt><trkpt lat="42.56994802320336" lon="11.994479266011508"><ele>306.57142857142856</ele><time>2026-04-04T12:47:52.007Z</time></trkpt><trkpt lat="42.56988431847875" lon="11.994417165931106"><ele>306.0</ele><time>2026-04-04T12:47:54.007Z</time></trkpt><trkpt lat="42.56982539157886" lon="11.994347837427384"><ele>306.0</ele><time>2026-04-04T12:47:56.007Z</time></trkpt><trkpt lat="42.569767845625876" lon="11.994270420087139"><ele>306.0</ele><time>2026-04-04T12:47:58.007Z</time></trkpt><trkpt lat="42.56971409644049" lon="11.994205979076526"><ele>306.0</ele><time>2026-04-04T12:48:00.007Z</time></trkpt><trkpt lat="42.56966097369697" lon="11.99413379150176"><ele>306.0</ele><time>2026-04-04T12:48:02.007Z</time></trkpt><trkpt lat="42.56961097222702" lon="11.99407132762914"><ele>306.0</ele><time>2026-04-04T12:48:04.007Z</time></trkpt><trkpt lat="42.56954812251061" lon="11.994016357976896"><ele>306.0</ele><time>2026-04-04T12:48:06.007Z</time></trkpt><trkpt lat="42.569490393409325" lon="11.99394388155781"><ele>306.0</ele><time>2026-04-04T12:48:08.007Z</time></trkpt><trkpt lat="42.56943326209334" lon="11.99386599133373"><ele>306.1666666666667</ele><time>2026-04-04T12:48:10.007Z</time></trkpt><trkpt lat="42.56936920316132" lon="11.993789957765827"><ele>306.3333333333333</ele><time>2026-04-04T12:48:12.007Z</time></trkpt><trkpt lat="42.569309298650104" lon="11.993700933013091"><ele>306.5</ele><time>2026-04-04T12:48:14.007Z</time></trkpt><trkpt lat="42.569237756086906" lon="11.99362702854528"><ele>306.66666666666663</ele><time>2026-04-04T12:48:16.007Z</time></trkpt><trkpt lat="42.569178111318244" lon="11.993541813708042"><ele>306.8333333333333</ele><time>2026-04-04T12:48:18.007Z</time></trkpt><trkpt lat="42.569130424014084" lon="11.993436556013865"><ele>307.0</ele><time>2026-04-04T12:48:20.007Z</time></trkpt><trkpt lat="42.56908810040082" lon="11.993329746242438"><ele>306.66666666666663</ele><time>2026-04-04T12:48:22.007Z</time></trkpt><trkpt lat="42.56904092636024" lon="11.993233092637947"><ele>306.3333333333333</ele><time>2026-04-04T12:48:24.007Z</time></trkpt><trkpt lat="42.56899179831939" lon="11.993156994467146"><ele>306.0</ele><time>2026-04-04T12:48:26.007Z</time></trkpt><trkpt lat="42.56892132234865" lon="11.993104256505886"><ele>305.6666666666667</ele><time>2026-04-04T12:48:28.007Z</time></trkpt><trkpt lat="42.56884369578906" lon="11.993053483329618"><ele>305.33333333333337</ele><time>2026-04-04T12:48:30.007Z</time></trkpt><trkpt lat="42.56876640921837" lon="11.993022804307689"><ele>305.0</ele><time>2026-04-04T12:48:32.007Z</time></trkpt><trkpt lat="42.5687022793491" lon="11.992998972587017"><ele>305.1666666666667</ele><time>2026-04-04T12:48:34.009Z</time></trkpt><trkpt lat="42.56863176157796" lon="11.992993892707352"><ele>305.33333333333337</ele><time>2026-04-04T12:48:36.009Z</time></trkpt><trkpt lat="42.568564017018" lon="11.992986039492907"><ele>305.5</ele><time>2026-04-04T12:48:38.009Z</time></trkpt><trkpt lat="42.56849054094385" lon="11.99297563948538"><ele>305.6666666666667</ele><time>2026-04-04T12:48:40.01Z</time></trkpt><trkpt lat="42.56839643271951" lon="11.992935686766007"><ele>305.8333333333333</ele><time>2026-04-04T12:48:43.009Z</time></trkpt><trkpt lat="42.56832540147744" lon="11.99291132099367"><ele>306.0</ele><time>2026-04-04T12:48:45.01Z</time></trkpt><trkpt lat="42.5682322310252" lon="11.992884407833508"><ele>306.0</ele><time>2026-04-04T12:48:48.009Z</time></trkpt><trkpt lat="42.5681568273298" lon="11.992863791591141"><ele>306.0</ele><time>2026-04-04T12:48:51.009Z</time></trkpt><trkpt lat="42.56808748606634" lon="11.99284806422409"><ele>306.0</ele><time>2026-04-04T12:48:53.009Z</time></trkpt><trkpt lat="42.56802388776765" lon="11.992834272912063"><ele>306.0</ele><time>2026-04-04T12:48:55.009Z</time></trkpt><trkpt lat="42.567962075138055" lon="11.992807829080792"><ele>306.0</ele><time>2026-04-04T12:48:57.009Z</time></trkpt><trkpt lat="42.567898605820105" lon="11.992825428762355"><ele>306.0</ele><time>2026-04-04T12:48:59.009Z</time></trkpt><trkpt lat="42.567833873678424" lon="11.99284237856038"><ele>306.0</ele><time>2026-04-04T12:49:01.009Z</time></trkpt><trkpt lat="42.56776951169633" lon="11.992852845924805"><ele>306.1666666666667</ele><time>2026-04-04T12:49:04.009Z</time></trkpt><trkpt lat="42.56770672807713" lon="11.992875972729856"><ele>306.3333333333333</ele><time>2026-04-04T12:49:07.009Z</time></trkpt><trkpt lat="42.567626299319016" lon="11.992884569843714"><ele>306.5</ele><time>2026-04-04T12:49:10.009Z</time></trkpt><trkpt lat="42.5675389533783" lon="11.992895115520556"><ele>306.66666666666663</ele><time>2026-04-04T12:49:13.009Z</time></trkpt><trkpt lat="42.567476912779796" lon="11.992918111916001"><ele>306.8333333333333</ele><time>2026-04-04T12:49:15.009Z</time></trkpt><trkpt lat="42.56739285091928" lon="11.992930473467679"><ele>307.0</ele><time>2026-04-04T12:49:18.009Z</time></trkpt><trkpt lat="42.567311433445774" lon="11.992937165897324"><ele>307.0</ele><time>2026-04-04T12:49:21.009Z</time></trkpt><trkpt lat="42.567235688667566" lon="11.992949331705663"><ele>307.0</ele><time>2026-04-04T12:49:24.009Z</time></trkpt><trkpt lat="42.56716972180669" lon="11.992940765974913"><ele>307.0</ele><time>2026-04-04T12:49:27.008Z</time></trkpt><trkpt lat="42.56709351574187" lon="11.992960812144545"><ele>307.0</ele><time>2026-04-04T12:49:30.008Z</time></trkpt><trkpt lat="42.56701300758371" lon="11.992965614016375"><ele>307.0</ele><time>2026-04-04T12:49:33.008Z</time></trkpt><trkpt lat="42.5669271595336" lon="11.992968484433648"><ele>307.0</ele><time>2026-04-04T12:49:36.008Z</time></trkpt><trkpt lat="42.56686008849334" lon="11.992974488808258"><ele>307.0</ele><time>2026-04-04T12:49:38.008Z</time></trkpt><trkpt lat="42.56678756227044" lon="11.992978075559394"><ele>307.0</ele><time>2026-04-04T12:49:40.008Z</time></trkpt><trkpt lat="42.5667013486859" lon="11.992982353399855"><ele>307.0</ele><time>2026-04-04T12:49:42.008Z</time></trkpt><trkpt lat="42.56662282398429" lon="11.992989358210357"><ele>307.0</ele><time>2026-04-04T12:49:44.008Z</time></trkpt><trkpt lat="42.56654716124211" lon="11.992994899823396"><ele>307.0</ele><time>2026-04-04T12:49:46.008Z</time></trkpt><trkpt lat="42.56646655258467" lon="11.993014622740159"><ele>307.0</ele><time>2026-04-04T12:49:48.008Z</time></trkpt><trkpt lat="42.56638141278743" lon="11.993014655629397"><ele>307.0</ele><time>2026-04-04T12:49:50.008Z</time></trkpt><trkpt lat="42.56630221220904" lon="11.993004954184121"><ele>307.0</ele><time>2026-04-04T12:49:52.008Z</time></trkpt><trkpt lat="42.566209692621804" lon="11.993009185095485"><ele>307.0</ele><time>2026-04-04T12:49:54.008Z</time></trkpt><trkpt lat="42.566134262683796" lon="11.992982683087577"><ele>307.0</ele><time>2026-04-04T12:49:56.008Z</time></trkpt><trkpt lat="42.56606535798102" lon="11.992972943433758"><ele>307.0</ele><time>2026-04-04T12:49:58.008Z</time></trkpt><trkpt lat="42.56597751494381" lon="11.993001105337754"><ele>307.0</ele><time>2026-04-04T12:50:01.008Z</time></trkpt><trkpt lat="42.56589789750515" lon="11.993020976965473"><ele>306.85714285714283</ele><time>2026-04-04T12:50:04.008Z</time></trkpt><trkpt lat="42.565828823213714" lon="11.99304421521192"><ele>306.7142857142857</ele><time>2026-04-04T12:50:06.008Z</time></trkpt><trkpt lat="42.56575424056081" lon="11.993058163033464"><ele>306.57142857142856</ele><time>2026-04-04T12:50:09.008Z</time></trkpt><trkpt lat="42.5656812469088" lon="11.993100040555726"><ele>306.42857142857144</ele><time>2026-04-04T12:50:12.008Z</time></trkpt><trkpt lat="42.56561613569078" lon="11.993116300210776"><ele>306.2857142857143</ele><time>2026-04-04T12:50:16.008Z</time></trkpt><trkpt lat="42.56555393595455" lon="11.993139758688072"><ele>306.1428571428571</ele><time>2026-04-04T12:50:19.008Z</time></trkpt><trkpt lat="42.56547029065537" lon="11.993138422119902"><ele>306.0</ele><time>2026-04-04T12:50:22.008Z</time></trkpt><trkpt lat="42.56539092128977" lon="11.993176584053709"><ele>305.8333333333333</ele><time>2026-04-04T12:50:25.008Z</time></trkpt><trkpt lat="42.56530118684125" lon="11.993182355921478"><ele>305.6666666666667</ele><time>2026-04-04T12:50:28.007Z</time></trkpt><trkpt lat="42.565220016188526" lon="11.99321512486914"><ele>305.5</ele><time>2026-04-04T12:50:31.007Z</time></trkpt><trkpt lat="42.565126817480206" lon="11.993252550442236"><ele>305.33333333333337</ele><time>2026-04-04T12:50:34.007Z</time></trkpt><trkpt lat="42.56506614547935" lon="11.993277360266173"><ele>305.1666666666667</ele><time>2026-04-04T12:50:36.007Z</time></trkpt><trkpt lat="42.56500257265205" lon="11.99330329790633"><ele>305.0</ele><time>2026-04-04T12:50:38.007Z</time></trkpt><trkpt lat="42.56492426753953" lon="11.993324059545355"><ele>305.0</ele><time>2026-04-04T12:50:41.009Z</time></trkpt><trkpt lat="42.56485517943231" lon="11.993350683706005"><ele>305.0</ele><time>2026-04-04T12:50:44.01Z</time></trkpt><trkpt lat="42.56477577540415" lon="11.993337624527156"><ele>305.0</ele><time>2026-04-04T12:50:47.009Z</time></trkpt><trkpt lat="42.56469325812752" lon="11.993368041672303"><ele>305.0</ele><time>2026-04-04T12:50:50.009Z</time></trkpt><trkpt lat="42.56461867794926" lon="11.993391897882034"><ele>305.0</ele><time>2026-04-04T12:50:52.009Z</time></trkpt><trkpt lat="42.564554753195814" lon="11.993422811988985"><ele>305.0</ele><time>2026-04-04T12:50:54.009Z</time></trkpt><trkpt lat="42.56446689094464" lon="11.993450254373961"><ele>305.14285714285717</ele><time>2026-04-04T12:50:57.009Z</time></trkpt><trkpt lat="42.56440709671596" lon="11.993482561474842"><ele>305.2857142857143</ele><time>2026-04-04T12:50:59.009Z</time></trkpt><trkpt lat="42.564323506315695" lon="11.993535107203368"><ele>305.42857142857144</ele><time>2026-04-04T12:51:02.009Z</time></trkpt><trkpt lat="42.564254123086414" lon="11.993582518466674"><ele>305.57142857142856</ele><time>2026-04-04T12:51:04.009Z</time></trkpt><trkpt lat="42.56418590971858" lon="11.993629178066678"><ele>305.7142857142857</ele><time>2026-04-04T12:51:06.009Z</time></trkpt><trkpt lat="42.5641182874968" lon="11.993666925061092"><ele>305.85714285714283</ele><time>2026-04-04T12:51:08.009Z</time></trkpt><trkpt lat="42.56405746786487" lon="11.993701224468735"><ele>306.0</ele><time>2026-04-04T12:51:10.009Z</time></trkpt><trkpt lat="42.5639949533161" lon="11.99371714623102"><ele>306.0</ele><time>2026-04-04T12:51:12.009Z</time></trkpt><trkpt lat="42.56392278781054" lon="11.993732152773422"><ele>306.0</ele><time>2026-04-04T12:51:14.009Z</time></trkpt><trkpt lat="42.56384067020191" lon="11.993776728165987"><ele>306.0</ele><time>2026-04-04T12:51:17.009Z</time></trkpt><trkpt lat="42.5637875729441" lon="11.993836769949953"><ele>306.0</ele><time>2026-04-04T12:51:19.009Z</time></trkpt><trkpt lat="42.56372138035748" lon="11.993898744161989"><ele>306.0</ele><time>2026-04-04T12:51:21.009Z</time></trkpt><trkpt lat="42.56365302567266" lon="11.99392924531691"><ele>306.0</ele><time>2026-04-04T12:51:23.009Z</time></trkpt><trkpt lat="42.56358468097856" lon="11.993970492133265"><ele>306.0</ele><time>2026-04-04T12:51:25.009Z</time></trkpt><trkpt lat="42.5635160661223" lon="11.993988693831513"><ele>306.0</ele><time>2026-04-04T12:51:27.009Z</time></trkpt><trkpt lat="42.56342852219203" lon="11.994031474122824"><ele>306.0</ele><time>2026-04-04T12:51:30.009Z</time></trkpt><trkpt lat="42.563352527141184" lon="11.994069008883033"><ele>306.0</ele><time>2026-04-04T12:51:32.009Z</time></trkpt><trkpt lat="42.563288038994905" lon="11.99410518730598"><ele>306.0</ele><time>2026-04-04T12:51:34.008Z</time></trkpt><trkpt lat="42.563224593940966" lon="11.994152102493139"><ele>306.0</ele><time>2026-04-04T12:51:36.008Z</time></trkpt><trkpt lat="42.56315436197736" lon="11.994197642369206"><ele>306.0</ele><time>2026-04-04T12:51:38.008Z</time></trkpt><trkpt lat="42.56308267156257" lon="11.994250508069607"><ele>306.0</ele><time>2026-04-04T12:51:40.008Z</time></trkpt><trkpt lat="42.563016231001605" lon="11.99430105833303"><ele>306.0</ele><time>2026-04-04T12:51:42.008Z</time></trkpt><trkpt lat="42.562953172772325" lon="11.9943505674987"><ele>306.0</ele><time>2026-04-04T12:51:44.008Z</time></trkpt><trkpt lat="42.56288579745713" lon="11.994396390569856"><ele>306.0</ele><time>2026-04-04T12:51:46.008Z</time></trkpt><trkpt lat="42.56281463829317" lon="11.994443091949062"><ele>306.0</ele><time>2026-04-04T12:51:48.008Z</time></trkpt><trkpt lat="42.56274632550925" lon="11.994496827143637"><ele>306.0</ele><time>2026-04-04T12:51:50.008Z</time></trkpt><trkpt lat="42.562670497268186" lon="11.994532089730743"><ele>306.0</ele><time>2026-04-04T12:51:52.008Z</time></trkpt><trkpt lat="42.56260212648674" lon="11.99460151756507"><ele>306.0</ele><time>2026-04-04T12:51:54.008Z</time></trkpt><trkpt lat="42.562527672880314" lon="11.994658194615466"><ele>306.0</ele><time>2026-04-04T12:51:56.008Z</time></trkpt><trkpt lat="42.562453942721916" lon="11.994719629744209"><ele>306.0</ele><time>2026-04-04T12:51:58.008Z</time></trkpt><trkpt lat="42.56239524520956" lon="11.994785148518485"><ele>306.0</ele><time>2026-04-04T12:52:00.008Z</time></trkpt><trkpt lat="42.56231532169005" lon="11.994843206404052"><ele>306.0</ele><time>2026-04-04T12:52:02.008Z</time></trkpt><trkpt lat="42.56225029660508" lon="11.994895925847162"><ele>306.0</ele><time>2026-04-04T12:52:04.008Z</time></trkpt><trkpt lat="42.562188838970634" lon="11.994939622841633"><ele>306.0</ele><time>2026-04-04T12:52:06.008Z</time></trkpt><trkpt lat="42.56211649614057" lon="11.994999657231945"><ele>306.0</ele><time>2026-04-04T12:52:08.008Z</time></trkpt><trkpt lat="42.56204272086726" lon="11.995023325137444"><ele>306.0</ele><time>2026-04-04T12:52:10.008Z</time></trkpt><trkpt lat="42.561976935211476" lon="11.995065878549566"><ele>306.0</ele><time>2026-04-04T12:52:12.008Z</time></trkpt><trkpt lat="42.56191204831423" lon="11.99508355669898"><ele>306.0</ele><time>2026-04-04T12:52:14.008Z</time></trkpt><trkpt lat="42.561829733108176" lon="11.995113195292314"><ele>306.1666666666667</ele><time>2026-04-04T12:52:17.008Z</time></trkpt><trkpt lat="42.56174014543198" lon="11.995119638190207"><ele>306.3333333333333</ele><time>2026-04-04T12:52:20.008Z</time></trkpt><trkpt lat="42.561667610281226" lon="11.995124525183234"><ele>306.5</ele><time>2026-04-04T12:52:22.008Z</time></trkpt><trkpt lat="42.56158931421992" lon="11.995134946059002"><ele>306.66666666666663</ele><time>2026-04-04T12:52:24.008Z</time></trkpt><trkpt lat="42.56151506351544" lon="11.995131830242487"><ele>306.8333333333333</ele><time>2026-04-04T12:52:26.008Z</time></trkpt><trkpt lat="42.56143367520484" lon="11.995151617621666"><ele>307.0</ele><time>2026-04-04T12:52:28.008Z</time></trkpt><trkpt lat="42.56135376316253" lon="11.995174911045787"><ele>306.99999999999994</ele><time>2026-04-04T12:52:31.008Z</time></trkpt><trkpt lat="42.56128977747404" lon="11.995206764721178"><ele>307.0</ele><time>2026-04-04T12:52:33.008Z</time></trkpt><trkpt lat="42.561221648352245" lon="11.995234800776144"><ele>307.0</ele><time>2026-04-04T12:52:35.007Z</time></trkpt><trkpt lat="42.56114985833358" lon="11.995230290160919"><ele>307.0</ele><time>2026-04-04T12:52:37.007Z</time></trkpt><trkpt lat="42.56105369725053" lon="11.995240152411139"><ele>307.0</ele><time>2026-04-04T12:52:40.007Z</time></trkpt><trkpt lat="42.560986680712155" lon="11.995232395522724"><ele>306.99999999999994</ele><time>2026-04-04T12:52:42.007Z</time></trkpt><trkpt lat="42.56091483893254" lon="11.995240210148895"><ele>307.0</ele><time>2026-04-04T12:52:44.007Z</time></trkpt><trkpt lat="42.56085153367762" lon="11.995254663820983"><ele>306.8333333333333</ele><time>2026-04-04T12:52:46.01Z</time></trkpt><trkpt lat="42.56078628280293" lon="11.995248850223568"><ele>306.66666666666663</ele><time>2026-04-04T12:52:48.01Z</time></trkpt><trkpt lat="42.56069377641911" lon="11.9952604933664"><ele>306.5</ele><time>2026-04-04T12:52:50.01Z</time></trkpt><trkpt lat="42.560609892092046" lon="11.995253225197674"><ele>306.3333333333333</ele><time>2026-04-04T12:52:52.01Z</time></trkpt><trkpt lat="42.56051771647858" lon="11.995255644968518"><ele>306.1666666666667</ele><time>2026-04-04T12:52:54.01Z</time></trkpt><trkpt lat="42.56042388108334" lon="11.995271959017101"><ele>306.0</ele><time>2026-04-04T12:52:56.01Z</time></trkpt><trkpt lat="42.56034148485212" lon="11.99530186912029"><ele>305.8333333333333</ele><time>2026-04-04T12:52:58.01Z</time></trkpt><trkpt lat="42.560259745546475" lon="11.99534342410836"><ele>305.6666666666667</ele><time>2026-04-04T12:53:00.01Z</time></trkpt><trkpt lat="42.56018685553159" lon="11.995390231766848"><ele>305.5</ele><time>2026-04-04T12:53:02.01Z</time></trkpt><trkpt lat="42.56010512731577" lon="11.995417457883223"><ele>305.33333333333337</ele><time>2026-04-04T12:53:04.009Z</time></trkpt><trkpt lat="42.560021498194196" lon="11.995444320741091"><ele>305.1666666666667</ele><time>2026-04-04T12:53:06.009Z</time></trkpt><trkpt lat="42.5599338453645" lon="11.995482748939244"><ele>305.0</ele><time>2026-04-04T12:53:08.009Z</time></trkpt><trkpt lat="42.5598523666377" lon="11.995509336707801"><ele>305.0</ele><time>2026-04-04T12:53:10.009Z</time></trkpt><trkpt lat="42.55977025187181" lon="11.995547991823534"><ele>305.0</ele><time>2026-04-04T12:53:12.009Z</time></trkpt><trkpt lat="42.559662549744836" lon="11.995564690910475"><ele>305.0</ele><time>2026-04-04T12:53:14.009Z</time></trkpt><trkpt lat="42.55957085193641" lon="11.995600372199588"><ele>305.0</ele><time>2026-04-04T12:53:16.009Z</time></trkpt><trkpt lat="42.55948238036161" lon="11.995621788683037"><ele>305.0</ele><time>2026-04-04T12:53:18.009Z</time></trkpt><trkpt lat="42.55938977771481" lon="11.995648913744175"><ele>305.2</ele><time>2026-04-04T12:53:20.009Z</time></trkpt><trkpt lat="42.55930031522937" lon="11.995676586044805"><ele>305.4</ele><time>2026-04-04T12:53:22.009Z</time></trkpt><trkpt lat="42.5592027428393" lon="11.995693207521143"><ele>305.6</ele><time>2026-04-04T12:53:24.009Z</time></trkpt><trkpt lat="42.55910690889848" lon="11.995687687250923"><ele>305.8</ele><time>2026-04-04T12:53:26.009Z</time></trkpt><trkpt lat="42.55901092669054" lon="11.995694650266488"><ele>306.0</ele><time>2026-04-04T12:53:28.009Z</time></trkpt><trkpt lat="42.55892587148593" lon="11.995689033236982"><ele>306.0</ele><time>2026-04-04T12:53:30.009Z</time></trkpt><trkpt lat="42.55882773573258" lon="11.99568293486489"><ele>306.0</ele><time>2026-04-04T12:53:32.009Z</time></trkpt><trkpt lat="42.55873164311386" lon="11.995673366436623"><ele>306.0</ele><time>2026-04-04T12:53:34.009Z</time></trkpt><trkpt lat="42.558635646427845" lon="11.995671725207343"><ele>306.0</ele><time>2026-04-04T12:53:36.009Z</time></trkpt><trkpt lat="42.558541901870036" lon="11.995666828402006"><ele>306.0</ele><time>2026-04-04T12:53:38.009Z</time></trkpt><trkpt lat="42.55844706203895" lon="11.995645742217448"><ele>306.1666666666667</ele><time>2026-04-04T12:53:40.009Z</time></trkpt><trkpt lat="42.558357685410286" lon="11.995642029863022"><ele>306.3333333333333</ele><time>2026-04-04T12:53:42.009Z</time></trkpt><trkpt lat="42.55827836348401" lon="11.995656819491"><ele>306.5</ele><time>2026-04-04T12:53:44.009Z</time></trkpt><trkpt lat="42.55817619061041" lon="11.995645983623428"><ele>306.66666666666663</ele><time>2026-04-04T12:53:46.009Z</time></trkpt><trkpt lat="42.55808420026257" lon="11.995632455735965"><ele>306.8333333333333</ele><time>2026-04-04T12:53:48.009Z</time></trkpt><trkpt lat="42.55800947040757" lon="11.99565650738775"><ele>307.0</ele><time>2026-04-04T12:53:50.009Z</time></trkpt><trkpt lat="42.55792798929741" lon="11.995652850894045"><ele>307.16666666666663</ele><time>2026-04-04T12:53:52.009Z</time></trkpt><trkpt lat="42.5578432821921" lon="11.995662315644651"><ele>307.3333333333333</ele><time>2026-04-04T12:53:58.008Z</time></trkpt><trkpt lat="42.5577540007435" lon="11.995648938542194"><ele>307.5</ele><time>2026-04-04T12:54:01.008Z</time></trkpt><trkpt lat="42.557689188376294" lon="11.995641722108775"><ele>307.6666666666667</ele><time>2026-04-04T12:54:03.008Z</time></trkpt><trkpt lat="42.557617090540845" lon="11.995625192600642"><ele>307.83333333333337</ele><time>2026-04-04T12:54:05.008Z</time></trkpt><trkpt lat="42.55755037140334" lon="11.995630427673822"><ele>308.0</ele><time>2026-04-04T12:54:07.008Z</time></trkpt><trkpt lat="42.55747745837996" lon="11.99563281027939"><ele>308.0</ele><time>2026-04-04T12:54:09.008Z</time></trkpt><trkpt lat="42.55739646084913" lon="11.995625750417299"><ele>308.0</ele><time>2026-04-04T12:54:11.008Z</time></trkpt><trkpt lat="42.55731209368538" lon="11.99562364305273"><ele>308.0</ele><time>2026-04-04T12:54:13.008Z</time></trkpt><trkpt lat="42.55721908007632" lon="11.995634966683928"><ele>308.0</ele><time>2026-04-04T12:54:15.008Z</time></trkpt><trkpt lat="42.5571247106072" lon="11.995642954397283"><ele>308.0</ele><time>2026-04-04T12:54:17.008Z</time></trkpt><trkpt lat="42.55703895397183" lon="11.995640121529991"><ele>308.0</ele><time>2026-04-04T12:54:19.008Z</time></trkpt><trkpt lat="42.55694493174658" lon="11.995641213598402"><ele>308.1666666666667</ele><time>2026-04-04T12:54:21.008Z</time></trkpt><trkpt lat="42.556863170625725" lon="11.995652186803518"><ele>308.33333333333337</ele><time>2026-04-04T12:54:23.008Z</time></trkpt><trkpt lat="42.55678238166943" lon="11.995656070209396"><ele>308.5</ele><time>2026-04-04T12:54:25.008Z</time></trkpt><trkpt lat="42.556690750470956" lon="11.995655862182934"><ele>308.6666666666667</ele><time>2026-04-04T12:54:27.008Z</time></trkpt><trkpt lat="42.55659697753466" lon="11.995642404221645"><ele>308.8333333333333</ele><time>2026-04-04T12:54:29.008Z</time></trkpt><trkpt lat="42.55650808257961" lon="11.995630920661663"><ele>309.0</ele><time>2026-04-04T12:54:31.008Z</time></trkpt><trkpt lat="42.556414556016925" lon="11.995593693337536"><ele>309.0</ele><time>2026-04-04T12:54:33.008Z</time></trkpt><trkpt lat="42.55632773564556" lon="11.995563806609784"><ele>309.0</ele><time>2026-04-04T12:54:35.008Z</time></trkpt><trkpt lat="42.556239864489754" lon="11.995534112692534"><ele>309.0</ele><time>2026-04-04T12:54:37.008Z</time></trkpt><trkpt lat="42.55615310966567" lon="11.99551780236503"><ele>309.0</ele><time>2026-04-04T12:54:39.008Z</time></trkpt><trkpt lat="42.5560560878297" lon="11.995502451879894"><ele>309.0</ele><time>2026-04-04T12:54:41.008Z</time></trkpt><trkpt lat="42.555969349461115" lon="11.99550208899802"><ele>308.8333333333333</ele><time>2026-04-04T12:54:43.008Z</time></trkpt><trkpt lat="42.55587031592723" lon="11.99550459231754"><ele>308.6666666666667</ele><time>2026-04-04T12:54:45.008Z</time></trkpt><trkpt lat="42.555788777017796" lon="11.995526663848981"><ele>308.5</ele><time>2026-04-04T12:54:47.008Z</time></trkpt><trkpt lat="42.55569771145854" lon="11.995542730401894"><ele>308.33333333333337</ele><time>2026-04-04T12:54:49.008Z</time></trkpt><trkpt lat="42.555609042036174" lon="11.995561755946316"><ele>308.1666666666667</ele><time>2026-04-04T12:54:51.009Z</time></trkpt><trkpt lat="42.5555301954506" lon="11.995566504796965"><ele>308.0</ele><time>2026-04-04T12:54:53.009Z</time></trkpt><trkpt lat="42.555437991196854" lon="11.99560050714487"><ele>307.6</ele><time>2026-04-04T12:54:55.009Z</time></trkpt><trkpt lat="42.555359282310626" lon="11.995643580202472"><ele>307.20000000000005</ele><time>2026-04-04T12:54:57.009Z</time></trkpt><trkpt lat="42.55526910336534" lon="11.995686468525633"><ele>306.8</ele><time>2026-04-04T12:54:59.009Z</time></trkpt><trkpt lat="42.555183210156514" lon="11.995735951441326"><ele>306.40000000000003</ele><time>2026-04-04T12:55:01.01Z</time></trkpt><trkpt lat="42.55508887275315" lon="11.995780153795613"><ele>306.0</ele><time>2026-04-04T12:55:03.009Z</time></trkpt><trkpt lat="42.55499618078286" lon="11.995822891680577"><ele>307.40000000000003</ele><time>2026-04-04T12:55:05.009Z</time></trkpt><trkpt lat="42.55490265006804" lon="11.995864600873388"><ele>308.8</ele><time>2026-04-04T12:55:07.009Z</time></trkpt><trkpt lat="42.554813772159925" lon="11.995902378144429"><ele>310.20000000000005</ele><time>2026-04-04T12:55:09.009Z</time></trkpt><trkpt lat="42.554721828733655" lon="11.995946783623388"><ele>311.6</ele><time>2026-04-04T12:55:11.009Z</time></trkpt><trkpt lat="42.554628369579866" lon="11.995971010740645"><ele>313.0</ele><time>2026-04-04T12:55:13.009Z</time></trkpt><trkpt lat="42.554539634963255" lon="11.996016659181306"><ele>312.8</ele><time>2026-04-04T12:55:15.009Z</time></trkpt><trkpt lat="42.554444585292245" lon="11.996046416397222"><ele>312.6</ele><time>2026-04-04T12:55:17.009Z</time></trkpt><trkpt lat="42.55436004325073" lon="11.996076051047199"><ele>312.4</ele><time>2026-04-04T12:55:19.009Z</time></trkpt><trkpt lat="42.55426773164254" lon="11.996105268070279"><ele>312.2</ele><time>2026-04-04T12:55:21.009Z</time></trkpt><trkpt lat="42.55417815755461" lon="11.996135269411187"><ele>312.0</ele><time>2026-04-04T12:55:23.009Z</time></trkpt><trkpt lat="42.55409411099866" lon="11.996150898020447"><ele>312.0</ele><time>2026-04-04T12:55:25.009Z</time></trkpt><trkpt lat="42.55401613776123" lon="11.996172328910815"><ele>312.0</ele><time>2026-04-04T12:55:27.009Z</time></trkpt><trkpt lat="42.553925214646924" lon="11.99619825605738"><ele>312.0</ele><time>2026-04-04T12:55:29.009Z</time></trkpt><trkpt lat="42.553833310645985" lon="11.996217961121365"><ele>312.0</ele><time>2026-04-04T12:55:31.009Z</time></trkpt><trkpt lat="42.55374227998825" lon="11.996241093569143"><ele>312.0</ele><time>2026-04-04T12:55:33.009Z</time></trkpt><trkpt lat="42.55365720995177" lon="11.996265077329793"><ele>312.0</ele><time>2026-04-04T12:55:35.009Z</time></trkpt><trkpt lat="42.55355986609949" lon="11.996287311274518"><ele>311.5</ele><time>2026-04-04T12:55:37.009Z</time></trkpt><trkpt lat="42.55348080034846" lon="11.996330982513244"><ele>311.0</ele><time>2026-04-04T12:55:39.009Z</time></trkpt><trkpt lat="42.553388456167966" lon="11.996355720769618"><ele>310.5</ele><time>2026-04-04T12:55:41.008Z</time></trkpt><trkpt lat="42.55331471321832" lon="11.996346009311605"><ele>310.0</ele><time>2026-04-04T12:55:43.008Z</time></trkpt><trkpt lat="42.55323286666856" lon="11.99636932165135"><ele>309.5</ele><time>2026-04-04T12:55:45.008Z</time></trkpt><trkpt lat="42.553145931442415" lon="11.99639788182156"><ele>309.0</ele><time>2026-04-04T12:55:47.008Z</time></trkpt><trkpt lat="42.55306091395458" lon="11.996405636430923"><ele>309.00000000000006</ele><time>2026-04-04T12:55:49.008Z</time></trkpt><trkpt lat="42.55298095941509" lon="11.99641947176341"><ele>309.0</ele><time>2026-04-04T12:55:51.008Z</time></trkpt><trkpt lat="42.55289832836015" lon="11.996430974703602"><ele>309.0</ele><time>2026-04-04T12:55:53.008Z</time></trkpt><trkpt lat="42.55282859937167" lon="11.996435365275932"><ele>309.0</ele><time>2026-04-04T12:55:55.008Z</time></trkpt><trkpt lat="42.55276102866942" lon="11.996436394379879"><ele>309.0</ele><time>2026-04-04T12:55:57.008Z</time></trkpt><trkpt lat="42.55268911552515" lon="11.996443341005511"><ele>309.00000000000006</ele><time>2026-04-04T12:55:59.008Z</time></trkpt><trkpt lat="42.55262432043572" lon="11.996477535291001"><ele>309.0</ele><time>2026-04-04T12:56:01.008Z</time></trkpt><trkpt lat="42.55255257298087" lon="11.996485647219943"><ele>309.28571428571433</ele><time>2026-04-04T12:56:03.008Z</time></trkpt><trkpt lat="42.55248330693409" lon="11.99650002591046"><ele>309.57142857142856</ele><time>2026-04-04T12:56:05.008Z</time></trkpt><trkpt lat="42.55240830772726" lon="11.996533598423666"><ele>309.8571428571429</ele><time>2026-04-04T12:56:07.008Z</time></trkpt><trkpt lat="42.55233733705199" lon="11.996565141245515"><ele>310.14285714285717</ele><time>2026-04-04T12:56:09.008Z</time></trkpt><trkpt lat="42.55227049147319" lon="11.996586949116994"><ele>310.42857142857144</ele><time>2026-04-04T12:56:11.008Z</time></trkpt><trkpt lat="42.55220182956595" lon="11.996604664185353"><ele>310.7142857142857</ele><time>2026-04-04T12:56:13.008Z</time></trkpt><trkpt lat="42.5521371574037" lon="11.996620250173297"><ele>311.0</ele><time>2026-04-04T12:56:15.008Z</time></trkpt><trkpt lat="42.55206059402742" lon="11.996618395166747"><ele>310.57142857142856</ele><time>2026-04-04T12:56:17.008Z</time></trkpt><trkpt lat="42.551987068066545" lon="11.996633947851173"><ele>310.14285714285717</ele><time>2026-04-04T12:56:19.008Z</time></trkpt><trkpt lat="42.55192152988115" lon="11.996646107070424"><ele>309.7142857142857</ele><time>2026-04-04T12:56:21.008Z</time></trkpt><trkpt lat="42.55184959764912" lon="11.996631212333105"><ele>309.2857142857143</ele><time>2026-04-04T12:56:23.008Z</time></trkpt><trkpt lat="42.55176132617787" lon="11.996626165952263"><ele>308.8571428571429</ele><time>2026-04-04T12:56:26.008Z</time></trkpt><trkpt lat="42.55169480679956" lon="11.99664636308617"><ele>308.42857142857144</ele><time>2026-04-04T12:56:28.008Z</time></trkpt><trkpt lat="42.551629818213016" lon="11.996646366338334"><ele>308.0</ele><time>2026-04-04T12:56:30.008Z</time></trkpt><trkpt lat="42.551552817411945" lon="11.99663840683365"><ele>308.0</ele><time>2026-04-04T12:56:32.008Z</time></trkpt><trkpt lat="42.55148229945059" lon="11.996635616412819"><ele>308.0</ele><time>2026-04-04T12:56:34.008Z</time></trkpt><trkpt lat="42.55141125792046" lon="11.996644141385799"><ele>308.0</ele><time>2026-04-04T12:56:36.008Z</time></trkpt><trkpt lat="42.551334338736936" lon="11.996607752584325"><ele>308.0</ele><time>2026-04-04T12:56:39.008Z</time></trkpt><trkpt lat="42.551283846537515" lon="11.996540826242168"><ele>308.0</ele><time>2026-04-04T12:56:43.007Z</time></trkpt><trkpt lat="42.55132690262528" lon="11.99645027839733"><ele>308.0</ele><time>2026-04-04T12:56:48.007Z</time></trkpt><trkpt lat="42.551392764597566" lon="11.996434574571197"><ele>308.0</ele><time>2026-04-04T12:56:53.007Z</time></trkpt><trkpt lat="42.55142863170804" lon="11.996511867275247"><ele>308.0</ele><time>2026-04-04T12:56:59.01Z</time></trkpt><trkpt lat="42.55138752664195" lon="11.996588609629631"><ele>308.0</ele><time>2026-04-04T12:57:04.01Z</time></trkpt><trkpt lat="42.55132618508298" lon="11.99661426404097"><ele>308.0</ele><time>2026-04-04T12:57:08.01Z</time></trkpt><trkpt lat="42.55126282193897" lon="11.996633564855848"><ele>308.0</ele><time>2026-04-04T12:57:11.009Z</time></trkpt><trkpt lat="42.55119777681436" lon="11.996666412337472"><ele>308.0</ele><time>2026-04-04T12:57:13.009Z</time></trkpt><trkpt lat="42.55112947929647" lon="11.996633269829323"><ele>308.0</ele><time>2026-04-04T12:57:15.009Z</time></trkpt><trkpt lat="42.551045166066174" lon="11.996644714946411"><ele>308.0</ele><time>2026-04-04T12:57:17.009Z</time></trkpt><trkpt lat="42.55095787866591" lon="11.996633479344327"><ele>307.6</ele><time>2026-04-04T12:57:19.009Z</time></trkpt><trkpt lat="42.550874646655174" lon="11.996632323298824"><ele>307.20000000000005</ele><time>2026-04-04T12:57:21.009Z</time></trkpt><trkpt lat="42.5507773249419" lon="11.996644015293096"><ele>306.8</ele><time>2026-04-04T12:57:23.009Z</time></trkpt><trkpt lat="42.55067415768579" lon="11.996629431940354"><ele>306.40000000000003</ele><time>2026-04-04T12:57:25.009Z</time></trkpt><trkpt lat="42.55058249825923" lon="11.996630375807404"><ele>306.0</ele><time>2026-04-04T12:57:27.009Z</time></trkpt><trkpt lat="42.55048362021665" lon="11.99662594385866"><ele>306.0</ele><time>2026-04-04T12:57:29.009Z</time></trkpt><trkpt lat="42.55038291928663" lon="11.99662979359512"><ele>306.0</ele><time>2026-04-04T12:57:31.009Z</time></trkpt><trkpt lat="42.55028212952482" lon="11.996631253880967"><ele>306.0</ele><time>2026-04-04T12:57:33.009Z</time></trkpt><trkpt lat="42.5501781203769" lon="11.99662717017426"><ele>306.0</ele><time>2026-04-04T12:57:35.009Z</time></trkpt><trkpt lat="42.55008605020665" lon="11.996622008589041"><ele>306.0</ele><time>2026-04-04T12:57:37.009Z</time></trkpt><trkpt lat="42.55001277889821" lon="11.996627633769311"><ele>306.1666666666667</ele><time>2026-04-04T12:57:39.009Z</time></trkpt><trkpt lat="42.54992651693104" lon="11.996635898213173"><ele>306.3333333333333</ele><time>2026-04-04T12:57:41.009Z</time></trkpt><trkpt lat="42.5498451291149" lon="11.996625592404516"><ele>306.5</ele><time>2026-04-04T12:57:43.009Z</time></trkpt><trkpt lat="42.54975295238655" lon="11.996668096386852"><ele>306.66666666666663</ele><time>2026-04-04T12:57:46.009Z</time></trkpt><trkpt lat="42.54968866009245" lon="11.996656738085486"><ele>306.8333333333333</ele><time>2026-04-04T12:57:48.009Z</time></trkpt><trkpt lat="42.549614220380526" lon="11.996680485917107"><ele>307.0</ele><time>2026-04-04T12:57:50.009Z</time></trkpt><trkpt lat="42.549542273131216" lon="11.996691362135227"><ele>307.4</ele><time>2026-04-04T12:57:52.009Z</time></trkpt><trkpt lat="42.54945871124763" lon="11.996683377948314"><ele>307.79999999999995</ele><time>2026-04-04T12:57:54.009Z</time></trkpt><trkpt lat="42.54937282719843" lon="11.996720929470573"><ele>308.2</ele><time>2026-04-04T12:57:56.009Z</time></trkpt><trkpt lat="42.549278128742195" lon="11.996724376467423"><ele>308.59999999999997</ele><time>2026-04-04T12:57:58.009Z</time></trkpt><trkpt lat="42.54917994853974" lon="11.996731131051682"><ele>309.0</ele><time>2026-04-04T12:58:00.009Z</time></trkpt><trkpt lat="42.549082918306034" lon="11.996735652321194"><ele>309.0</ele><time>2026-04-04T12:58:02.009Z</time></trkpt><trkpt lat="42.5489826724017" lon="11.996730614877087"><ele>309.0</ele><time>2026-04-04T12:58:04.009Z</time></trkpt><trkpt lat="42.54889245496069" lon="11.996754311914001"><ele>309.0</ele><time>2026-04-04T12:58:06.009Z</time></trkpt><trkpt lat="42.5487945239468" lon="11.996774846799223"><ele>309.0</ele><time>2026-04-04T12:58:08.008Z</time></trkpt><trkpt lat="42.54869826203988" lon="11.996787470713182"><ele>309.0</ele><time>2026-04-04T12:58:10.008Z</time></trkpt><trkpt lat="42.548603587899926" lon="11.996815808076231"><ele>308.8</ele><time>2026-04-04T12:58:12.008Z</time></trkpt><trkpt lat="42.54851446635433" lon="11.996835977713584"><ele>308.59999999999997</ele><time>2026-04-04T12:58:14.008Z</time></trkpt><trkpt lat="42.54842854818725" lon="11.996850619493468"><ele>308.4</ele><time>2026-04-04T12:58:16.008Z</time></trkpt><trkpt lat="42.548333652816375" lon="11.996870724165351"><ele>308.2</ele><time>2026-04-04T12:58:18.008Z</time></trkpt><trkpt lat="42.54824080551449" lon="11.996890711227591"><ele>308.0</ele><time>2026-04-04T12:58:20.008Z</time></trkpt><trkpt lat="42.54813998218181" lon="11.99688945212959"><ele>308.0</ele><time>2026-04-04T12:58:22.008Z</time></trkpt><trkpt lat="42.54804072494402" lon="11.99686957793273"><ele>308.0</ele><time>2026-04-04T12:58:24.008Z</time></trkpt><trkpt lat="42.54794557075327" lon="11.996871611904897"><ele>308.0</ele><time>2026-04-04T12:58:26.008Z</time></trkpt><trkpt lat="42.54785191253675" lon="11.996854120269578"><ele>308.0</ele><time>2026-04-04T12:58:28.008Z</time></trkpt><trkpt lat="42.54775967833451" lon="11.996836469219437"><ele>308.0</ele><time>2026-04-04T12:58:30.008Z</time></trkpt><trkpt lat="42.547671051763494" lon="11.996830999259487"><ele>308.6</ele><time>2026-04-04T12:58:32.008Z</time></trkpt><trkpt lat="42.54758490376042" lon="11.996836051145483"><ele>309.20000000000005</ele><time>2026-04-04T12:58:34.008Z</time></trkpt><trkpt lat="42.547497031196905" lon="11.996843412055684"><ele>309.8</ele><time>2026-04-04T12:58:36.008Z</time></trkpt><trkpt lat="42.54741271749882" lon="11.996807248632159"><ele>310.40000000000003</ele><time>2026-04-04T12:58:38.008Z</time></trkpt><trkpt lat="42.54732803261585" lon="11.996756501950525"><ele>311.0</ele><time>2026-04-04T12:58:40.008Z</time></trkpt><trkpt lat="42.54723483006938" lon="11.996734468965105"><ele>311.0</ele><time>2026-04-04T12:58:42.008Z</time></trkpt><trkpt lat="42.547146303216614" lon="11.996701637166288"><ele>311.0</ele><time>2026-04-04T12:58:44.008Z</time></trkpt><trkpt lat="42.54704824885818" lon="11.996676564975331"><ele>311.0</ele><time>2026-04-04T12:58:46.008Z</time></trkpt><trkpt lat="42.546956773854845" lon="11.9966241061961"><ele>311.0</ele><time>2026-04-04T12:58:48.008Z</time></trkpt><trkpt lat="42.54686919804489" lon="11.996561714505766"><ele>311.0</ele><time>2026-04-04T12:58:50.008Z</time></trkpt><trkpt lat="42.546774200580906" lon="11.996507813429432"><ele>310.40000000000003</ele><time>2026-04-04T12:58:52.008Z</time></trkpt><trkpt lat="42.54668446683244" lon="11.996449782530386"><ele>309.8</ele><time>2026-04-04T12:58:54.008Z</time></trkpt><trkpt lat="42.546592062269205" lon="11.996397135752234"><ele>309.20000000000005</ele><time>2026-04-04T12:58:56.008Z</time></trkpt><trkpt lat="42.54650069160694" lon="11.996336445920393"><ele>308.6</ele><time>2026-04-04T12:58:58.008Z</time></trkpt><trkpt lat="42.5464109860605" lon="11.996269637313013"><ele>308.0</ele><time>2026-04-04T12:59:00.008Z</time></trkpt><trkpt lat="42.54632444201902" lon="11.99621395405868"><ele>308.0</ele><time>2026-04-04T12:59:02.007Z</time></trkpt><trkpt lat="42.54623816105746" lon="11.996135166954256"><ele>308.0</ele><time>2026-04-04T12:59:04.01Z</time></trkpt><trkpt lat="42.546151791743924" lon="11.996065229060251"><ele>308.0</ele><time>2026-04-04T12:59:06.01Z</time></trkpt><trkpt lat="42.54607135320972" lon="11.99598707017947"><ele>308.0</ele><time>2026-04-04T12:59:08.01Z</time></trkpt><trkpt lat="42.54599413765788" lon="11.995917790888383"><ele>308.0</ele><time>2026-04-04T12:59:10.01Z</time></trkpt><trkpt lat="42.54592055990004" lon="11.995824012851559"><ele>307.4</ele><time>2026-04-04T12:59:12.01Z</time></trkpt><trkpt lat="42.545845457840755" lon="11.995737494962356"><ele>306.8</ele><time>2026-04-04T12:59:14.01Z</time></trkpt><trkpt lat="42.54576060556236" lon="11.995663217086038"><ele>306.2</ele><time>2026-04-04T12:59:16.01Z</time></trkpt><trkpt lat="42.54567527377292" lon="11.995586829472243"><ele>305.6</ele><time>2026-04-04T12:59:18.01Z</time></trkpt><trkpt lat="42.54559853090608" lon="11.995505364399625"><ele>305.0</ele><time>2026-04-04T12:59:20.01Z</time></trkpt><trkpt lat="42.5455264783657" lon="11.995436969086684"><ele>305.0</ele><time>2026-04-04T12:59:22.01Z</time></trkpt><trkpt lat="42.54543838924274" lon="11.995370228839514"><ele>305.0</ele><time>2026-04-04T12:59:24.01Z</time></trkpt><trkpt lat="42.54537527864161" lon="11.99529856955151"><ele>305.0</ele><time>2026-04-04T12:59:26.01Z</time></trkpt><trkpt lat="42.545291090973045" lon="11.995227835208292"><ele>305.0</ele><time>2026-04-04T12:59:28.01Z</time></trkpt><trkpt lat="42.54521900168642" lon="11.995142156658346"><ele>305.0</ele><time>2026-04-04T12:59:30.01Z</time></trkpt><trkpt lat="42.54514474967254" lon="11.99506011126069"><ele>305.1666666666667</ele><time>2026-04-04T12:59:32.01Z</time></trkpt><trkpt lat="42.5450729163669" lon="11.994987808699072"><ele>305.33333333333337</ele><time>2026-04-04T12:59:34.01Z</time></trkpt><trkpt lat="42.54501320929104" lon="11.99492038934971"><ele>305.5</ele><time>2026-04-04T12:59:36.009Z</time></trkpt><trkpt lat="42.544961240333656" lon="11.994854018392157"><ele>305.6666666666667</ele><time>2026-04-04T12:59:38.009Z</time></trkpt><trkpt lat="42.544901672893474" lon="11.99479126009592"><ele>305.8333333333333</ele><time>2026-04-04T12:59:40.009Z</time></trkpt><trkpt lat="42.54484893609917" lon="11.994718483300833"><ele>306.0</ele><time>2026-04-04T12:59:42.009Z</time></trkpt><trkpt lat="42.54479777561201" lon="11.994634549772943"><ele>306.0</ele><time>2026-04-04T12:59:44.009Z</time></trkpt><trkpt lat="42.54474989160067" lon="11.994539430718948"><ele>306.0</ele><time>2026-04-04T12:59:46.009Z</time></trkpt><trkpt lat="42.54469809004492" lon="11.99444893450178"><ele>306.0</ele><time>2026-04-04T12:59:48.009Z</time></trkpt><trkpt lat="42.54464361183067" lon="11.994367705853277"><ele>306.0</ele><time>2026-04-04T12:59:50.009Z</time></trkpt><trkpt lat="42.54460090663837" lon="11.994287268707618"><ele>306.0</ele><time>2026-04-04T12:59:52.009Z</time></trkpt><trkpt lat="42.54455609785948" lon="11.994206130816412"><ele>306.0</ele><time>2026-04-04T12:59:54.009Z</time></trkpt><trkpt lat="42.54451717907253" lon="11.9941307987004"><ele>306.85714285714283</ele><time>2026-04-04T12:59:56.009Z</time></trkpt><trkpt lat="42.544486970895825" lon="11.994053703322006"><ele>307.7142857142857</ele><time>2026-04-04T12:59:58.009Z</time></trkpt><trkpt lat="42.544432666064125" lon="11.993999704667084"><ele>308.57142857142856</ele><time>2026-04-04T13:00:00.009Z</time></trkpt><trkpt lat="42.54438397515132" lon="11.993895730616277"><ele>309.42857142857144</ele><time>2026-04-04T13:00:03.009Z</time></trkpt><trkpt lat="42.54433472280469" lon="11.993836747177436"><ele>310.2857142857143</ele><time>2026-04-04T13:00:05.009Z</time></trkpt><trkpt lat="42.54427951249023" lon="11.99376735532945"><ele>311.14285714285717</ele><time>2026-04-04T13:00:07.009Z</time></trkpt><trkpt lat="42.54424225023118" lon="11.993694176564071"><ele>312.0</ele><time>2026-04-04T13:00:09.009Z</time></trkpt><trkpt lat="42.544194817672484" lon="11.993578103150396"><ele>312.0</ele><time>2026-04-04T13:00:12.009Z</time></trkpt><trkpt lat="42.54414613162486" lon="11.993479418160145"><ele>312.0</ele><time>2026-04-04T13:00:14.009Z</time></trkpt><trkpt lat="42.54410176214732" lon="11.993408015468349"><ele>312.0</ele><time>2026-04-04T13:00:16.009Z</time></trkpt><trkpt lat="42.544050576921116" lon="11.99333062189669"><ele>312.0</ele><time>2026-04-04T13:00:18.009Z</time></trkpt><trkpt lat="42.54400260725375" lon="11.993241507522008"><ele>312.0</ele><time>2026-04-04T13:00:20.009Z</time></trkpt><trkpt lat="42.543955543225586" lon="11.993160395259578"><ele>312.0</ele><time>2026-04-04T13:00:22.009Z</time></trkpt><trkpt lat="42.543908084062195" lon="11.993092375893593"><ele>311.3333333333333</ele><time>2026-04-04T13:00:24.009Z</time></trkpt><trkpt lat="42.54387248710138" lon="11.992997274543852"><ele>310.6666666666667</ele><time>2026-04-04T13:00:26.009Z</time></trkpt><trkpt lat="42.54383102670355" lon="11.992901589002605"><ele>310.0</ele><time>2026-04-04T13:00:28.009Z</time></trkpt><trkpt lat="42.54379078768441" lon="11.992818716956352"><ele>309.33333333333337</ele><time>2026-04-04T13:00:30.009Z</time></trkpt><trkpt lat="42.54375164810698" lon="11.992741196505465"><ele>308.6666666666667</ele><time>2026-04-04T13:00:32.009Z</time></trkpt><trkpt lat="42.54369459845506" lon="11.992668179822667"><ele>308.0</ele><time>2026-04-04T13:00:34.009Z</time></trkpt><trkpt lat="42.543643138425665" lon="11.992580255359911"><ele>308.0</ele><time>2026-04-04T13:00:36.008Z</time></trkpt><trkpt lat="42.54357299290938" lon="11.992517043380506"><ele>308.0</ele><time>2026-04-04T13:00:38.008Z</time></trkpt><trkpt lat="42.54351399878049" lon="11.992434756096939"><ele>308.0</ele><time>2026-04-04T13:00:40.008Z</time></trkpt><trkpt lat="42.5434528337466" lon="11.992366440854452"><ele>308.0</ele><time>2026-04-04T13:00:42.008Z</time></trkpt><trkpt lat="42.543385150252156" lon="11.992300382651688"><ele>308.0</ele><time>2026-04-04T13:00:44.008Z</time></trkpt><trkpt lat="42.5433325859974" lon="11.992224493793284"><ele>308.0</ele><time>2026-04-04T13:00:46.008Z</time></trkpt><trkpt lat="42.54327586423142" lon="11.992172216875032"><ele>307.83333333333337</ele><time>2026-04-04T13:00:48.008Z</time></trkpt><trkpt lat="42.543216743219006" lon="11.992124581282072"><ele>307.6666666666667</ele><time>2026-04-04T13:00:50.008Z</time></trkpt><trkpt lat="42.5431592180273" lon="11.992079486146668"><ele>307.5</ele><time>2026-04-04T13:00:52.008Z</time></trkpt><trkpt lat="42.543090079702075" lon="11.992032859796158"><ele>307.3333333333333</ele><time>2026-04-04T13:00:54.008Z</time></trkpt><trkpt lat="42.54301795039704" lon="11.991976555215594"><ele>307.16666666666663</ele><time>2026-04-04T13:00:56.008Z</time></trkpt><trkpt lat="42.5429373030091" lon="11.991927101531923"><ele>307.0</ele><time>2026-04-04T13:00:58.008Z</time></trkpt><trkpt lat="42.54285922865721" lon="11.991878132008278"><ele>307.0</ele><time>2026-04-04T13:01:00.008Z</time></trkpt><trkpt lat="42.542779848485175" lon="11.991842791938243"><ele>307.0</ele><time>2026-04-04T13:01:02.008Z</time></trkpt><trkpt lat="42.54270079813307" lon="11.991795307312936"><ele>307.0</ele><time>2026-04-04T13:01:04.008Z</time></trkpt><trkpt lat="42.54262340703136" lon="11.991743504294492"><ele>307.0</ele><time>2026-04-04T13:01:06.008Z</time></trkpt><trkpt lat="42.54254327825654" lon="11.991713037149628"><ele>307.0</ele><time>2026-04-04T13:01:08.008Z</time></trkpt><trkpt lat="42.54246635722676" lon="11.991681792717962"><ele>307.0</ele><time>2026-04-04T13:01:10.01Z</time></trkpt><trkpt lat="42.54238298121577" lon="11.991632463273781"><ele>307.0</ele><time>2026-04-04T13:01:12.01Z</time></trkpt><trkpt lat="42.5423040999792" lon="11.991578082877332"><ele>307.0</ele><time>2026-04-04T13:01:14.011Z</time></trkpt><trkpt lat="42.54221188575426" lon="11.991531541767545"><ele>307.0</ele><time>2026-04-04T13:01:16.011Z</time></trkpt><trkpt lat="42.54211937597772" lon="11.991482108015937"><ele>307.0</ele><time>2026-04-04T13:01:18.011Z</time></trkpt><trkpt lat="42.54202393360106" lon="11.991457951013475"><ele>307.0</ele><time>2026-04-04T13:01:20.011Z</time></trkpt><trkpt lat="42.54194030254588" lon="11.991391050349579"><ele>307.0</ele><time>2026-04-04T13:01:22.01Z</time></trkpt><trkpt lat="42.54185072663927" lon="11.991315017983387"><ele>307.0</ele><time>2026-04-04T13:01:24.01Z</time></trkpt><trkpt lat="42.54176562656904" lon="11.991260581707644"><ele>307.0</ele><time>2026-04-04T13:01:26.01Z</time></trkpt><trkpt lat="42.54166642509481" lon="11.991195082156816"><ele>307.0</ele><time>2026-04-04T13:01:28.01Z</time></trkpt><trkpt lat="42.54158128263222" lon="11.991124511074736"><ele>307.0</ele><time>2026-04-04T13:01:30.01Z</time></trkpt><trkpt lat="42.5415029581107" lon="11.991053314179272"><ele>307.0</ele><time>2026-04-04T13:01:32.01Z</time></trkpt><trkpt lat="42.54142092407792" lon="11.990975788652984"><ele>307.0</ele><time>2026-04-04T13:01:34.01Z</time></trkpt><trkpt lat="42.54134314408504" lon="11.990906538504662"><ele>307.0</ele><time>2026-04-04T13:01:36.01Z</time></trkpt><trkpt lat="42.54125750946538" lon="11.990845941861062"><ele>307.0</ele><time>2026-04-04T13:01:38.01Z</time></trkpt><trkpt lat="42.541175302632745" lon="11.9907777931518"><ele>307.0</ele><time>2026-04-04T13:01:40.01Z</time></trkpt><trkpt lat="42.54109318872004" lon="11.990708130201456"><ele>307.2</ele><time>2026-04-04T13:01:42.01Z</time></trkpt><trkpt lat="42.54100580607578" lon="11.990643127247317"><ele>307.4</ele><time>2026-04-04T13:01:44.01Z</time></trkpt><trkpt lat="42.54092594564235" lon="11.990573506259024"><ele>307.6</ele><time>2026-04-04T13:01:46.01Z</time></trkpt><trkpt lat="42.54083524731678" lon="11.990504526174123"><ele>307.8</ele><time>2026-04-04T13:01:48.01Z</time></trkpt><trkpt lat="42.54075917367067" lon="11.990421524772964"><ele>308.0</ele><time>2026-04-04T13:01:50.01Z</time></trkpt><trkpt lat="42.54068547265541" lon="11.990341953564274"><ele>308.0</ele><time>2026-04-04T13:01:52.01Z</time></trkpt><trkpt lat="42.54061508049397" lon="11.99024995037331"><ele>308.0</ele><time>2026-04-04T13:01:54.01Z</time></trkpt><trkpt lat="42.54055529481813" lon="11.990149000673725"><ele>308.0</ele><time>2026-04-04T13:01:56.01Z</time></trkpt><trkpt lat="42.54049008061352" lon="11.990052645961399"><ele>308.0</ele><time>2026-04-04T13:01:58.01Z</time></trkpt><trkpt lat="42.54042661189416" lon="11.989955250234786"><ele>308.0</ele><time>2026-04-04T13:02:00.01Z</time></trkpt><trkpt lat="42.540356460847995" lon="11.989846818572229"><ele>308.4</ele><time>2026-04-04T13:02:02.01Z</time></trkpt><trkpt lat="42.54028772177107" lon="11.989741716255521"><ele>308.8</ele><time>2026-04-04T13:02:04.01Z</time></trkpt><trkpt lat="42.54021878494003" lon="11.989624780318122"><ele>309.2</ele><time>2026-04-04T13:02:06.009Z</time></trkpt><trkpt lat="42.54014887276334" lon="11.989512745274352"><ele>309.6</ele><time>2026-04-04T13:02:08.009Z</time></trkpt><trkpt lat="42.54007574001193" lon="11.989387654170734"><ele>310.0</ele><time>2026-04-04T13:02:10.009Z</time></trkpt><trkpt lat="42.539995860189194" lon="11.989285445112927"><ele>309.25</ele><time>2026-04-04T13:02:12.009Z</time></trkpt><trkpt lat="42.539925418840724" lon="11.989156694650886"><ele>308.5</ele><time>2026-04-04T13:02:14.009Z</time></trkpt><trkpt lat="42.539845928435284" lon="11.98903485998892"><ele>307.75</ele><time>2026-04-04T13:02:16.009Z</time></trkpt><trkpt lat="42.53976234633718" lon="11.988916280729569"><ele>307.0</ele><time>2026-04-04T13:02:18.009Z</time></trkpt><trkpt lat="42.539684153044085" lon="11.988802249153423"><ele>307.0</ele><time>2026-04-04T13:02:20.009Z</time></trkpt><trkpt lat="42.53961589475997" lon="11.988670829095303"><ele>307.0</ele><time>2026-04-04T13:02:22.009Z</time></trkpt><trkpt lat="42.53957446023117" lon="11.988605760754675"><ele>307.0</ele><time>2026-04-04T13:02:23.009Z</time></trkpt><trkpt lat="42.53949885278042" lon="11.988490275063336"><ele>307.0</ele><time>2026-04-04T13:02:25.009Z</time></trkpt><trkpt lat="42.5394189852167" lon="11.988380878120573"><ele>307.0</ele><time>2026-04-04T13:02:27.009Z</time></trkpt><trkpt lat="42.53935491865291" lon="11.98826185060357"><ele>307.0</ele><time>2026-04-04T13:02:29.009Z</time></trkpt><trkpt lat="42.53928154264764" lon="11.988147055948279"><ele>307.0</ele><time>2026-04-04T13:02:31.009Z</time></trkpt><trkpt lat="42.53921101310329" lon="11.988027081531644"><ele>307.0</ele><time>2026-04-04T13:02:33.009Z</time></trkpt><trkpt lat="42.53913976021665" lon="11.987921838323826"><ele>307.0</ele><time>2026-04-04T13:02:35.009Z</time></trkpt><trkpt lat="42.539071381499554" lon="11.987815880882202"><ele>307.0</ele><time>2026-04-04T13:02:37.009Z</time></trkpt><trkpt lat="42.53899823777453" lon="11.987709559713174"><ele>307.0</ele><time>2026-04-04T13:02:39.009Z</time></trkpt><trkpt lat="42.53892752315914" lon="11.987600287380507"><ele>307.0</ele><time>2026-04-04T13:02:41.009Z</time></trkpt><trkpt lat="42.53885329358019" lon="11.98748186544265"><ele>307.0</ele><time>2026-04-04T13:02:43.009Z</time></trkpt><trkpt lat="42.53878766412957" lon="11.98736274367952"><ele>307.0</ele><time>2026-04-04T13:02:45.009Z</time></trkpt><trkpt lat="42.53871236752185" lon="11.987248173937733"><ele>307.0</ele><time>2026-04-04T13:02:47.009Z</time></trkpt><trkpt lat="42.538641649286866" lon="11.98713049772217"><ele>306.75</ele><time>2026-04-04T13:02:49.009Z</time></trkpt><trkpt lat="42.538571520356214" lon="11.987013996373632"><ele>306.5</ele><time>2026-04-04T13:02:51.009Z</time></trkpt><trkpt lat="42.538496515110516" lon="11.986900052910768"><ele>306.25</ele><time>2026-04-04T13:02:53.009Z</time></trkpt><trkpt lat="42.53842547980005" lon="11.986783823721714"><ele>306.0</ele><time>2026-04-04T13:02:55.009Z</time></trkpt><trkpt lat="42.53835140546494" lon="11.986662947777724"><ele>305.8</ele><time>2026-04-04T13:02:57.009Z</time></trkpt><trkpt lat="42.53827832002304" lon="11.986548460357644"><ele>305.6</ele><time>2026-04-04T13:02:59.009Z</time></trkpt><trkpt lat="42.53820755544186" lon="11.986439889675562"><ele>305.4</ele><time>2026-04-04T13:03:01.009Z</time></trkpt><trkpt lat="42.53813559952267" lon="11.986323727504768"><ele>305.2</ele><time>2026-04-04T13:03:03.009Z</time></trkpt><trkpt lat="42.53806485781693" lon="11.986202044980422"><ele>305.0</ele><time>2026-04-04T13:03:05.008Z</time></trkpt><trkpt lat="42.53800633733842" lon="11.986100234257298"><ele>305.0</ele><time>2026-04-04T13:03:07.008Z</time></trkpt><trkpt lat="42.53793184239235" lon="11.985993669806982"><ele>305.0</ele><time>2026-04-04T13:03:09.008Z</time></trkpt><trkpt lat="42.53785919018239" lon="11.9858882760288"><ele>305.0</ele><time>2026-04-04T13:03:11.008Z</time></trkpt><trkpt lat="42.53779186640167" lon="11.985765746342473"><ele>305.0</ele><time>2026-04-04T13:03:13.008Z</time></trkpt><trkpt lat="42.53773793402255" lon="11.98564112110163"><ele>305.0</ele><time>2026-04-04T13:03:15.011Z</time></trkpt><trkpt lat="42.53769350583882" lon="11.985513842758655"><ele>305.4</ele><time>2026-04-04T13:03:17.011Z</time></trkpt><trkpt lat="42.53765584278009" lon="11.985386125344215"><ele>305.8</ele><time>2026-04-04T13:03:19.011Z</time></trkpt><trkpt lat="42.5376172730769" lon="11.985259687050517"><ele>306.2</ele><time>2026-04-04T13:03:21.011Z</time></trkpt><trkpt lat="42.53758164732803" lon="11.98512344262928"><ele>306.6</ele><time>2026-04-04T13:03:23.011Z</time></trkpt><trkpt lat="42.5375489372056" lon="11.98499257536437"><ele>307.0</ele><time>2026-04-04T13:03:25.011Z</time></trkpt><trkpt lat="42.537518456860475" lon="11.984868142087747"><ele>307.0</ele><time>2026-04-04T13:03:27.011Z</time></trkpt><trkpt lat="42.53747660364379" lon="11.984735771563585"><ele>307.0</ele><time>2026-04-04T13:03:29.011Z</time></trkpt><trkpt lat="42.5374448901795" lon="11.984591274876939"><ele>307.0</ele><time>2026-04-04T13:03:31.011Z</time></trkpt><trkpt lat="42.537388064431944" lon="11.984485897079278"><ele>307.0</ele><time>2026-04-04T13:03:33.011Z</time></trkpt><trkpt lat="42.537312073174014" lon="11.984398002528515"><ele>307.0</ele><time>2026-04-04T13:03:35.011Z</time></trkpt><trkpt lat="42.537231087539226" lon="11.984319575808126"><ele>307.0</ele><time>2026-04-04T13:03:37.011Z</time></trkpt><trkpt lat="42.5371355316301" lon="11.984270639519726"><ele>307.0</ele><time>2026-04-04T13:03:39.011Z</time></trkpt><trkpt lat="42.537040910456405" lon="11.984209229003962"><ele>307.0</ele><time>2026-04-04T13:03:41.011Z</time></trkpt><trkpt lat="42.53694826688298" lon="11.98413626191201"><ele>307.0</ele><time>2026-04-04T13:03:43.011Z</time></trkpt><trkpt lat="42.53686815797115" lon="11.984038401239477"><ele>307.0</ele><time>2026-04-04T13:03:45.011Z</time></trkpt><trkpt lat="42.536803547273344" lon="11.98391917319145"><ele>307.2</ele><time>2026-04-04T13:03:47.011Z</time></trkpt><trkpt lat="42.53677005523003" lon="11.983792950808317"><ele>307.4</ele><time>2026-04-04T13:03:49.011Z</time></trkpt><trkpt lat="42.536742475423445" lon="11.983664160730227"><ele>307.6</ele><time>2026-04-04T13:03:51.011Z</time></trkpt><trkpt lat="42.53671101909286" lon="11.983529208730728"><ele>307.8</ele><time>2026-04-04T13:03:53.011Z</time></trkpt><trkpt lat="42.536673410455904" lon="11.983399987288411"><ele>308.0</ele><time>2026-04-04T13:03:55.011Z</time></trkpt><trkpt lat="42.536649905808765" lon="11.983259259071113"><ele>308.0</ele><time>2026-04-04T13:03:57.011Z</time></trkpt><trkpt lat="42.53661781392056" lon="11.983125078684656"><ele>308.0</ele><time>2026-04-04T13:03:59.011Z</time></trkpt><trkpt lat="42.536586128476" lon="11.982988151511082"><ele>308.0</ele><time>2026-04-04T13:04:01.011Z</time></trkpt><trkpt lat="42.5365532109924" lon="11.982848171712874"><ele>308.0</ele><time>2026-04-04T13:04:03.011Z</time></trkpt><trkpt lat="42.536523305113874" lon="11.98271720530058"><ele>308.0</ele><time>2026-04-04T13:04:05.011Z</time></trkpt><trkpt lat="42.5364927185348" lon="11.982580651538195"><ele>307.4</ele><time>2026-04-04T13:04:07.011Z</time></trkpt><trkpt lat="42.53645727142356" lon="11.982457584993561"><ele>306.8</ele><time>2026-04-04T13:04:09.01Z</time></trkpt><trkpt lat="42.53642545112471" lon="11.982335505250651"><ele>306.2</ele><time>2026-04-04T13:04:11.01Z</time></trkpt><trkpt lat="42.53639540266655" lon="11.982215541231025"><ele>305.6</ele><time>2026-04-04T13:04:13.01Z</time></trkpt><trkpt lat="42.53636977457715" lon="11.982086862158717"><ele>305.0</ele><time>2026-04-04T13:04:15.01Z</time></trkpt><trkpt lat="42.53634652640194" lon="11.981961696413958"><ele>305.0</ele><time>2026-04-04T13:04:17.01Z</time></trkpt><trkpt lat="42.53632252487266" lon="11.981851786275609"><ele>305.0</ele><time>2026-04-04T13:04:19.01Z</time></trkpt><trkpt lat="42.53628459297996" lon="11.981723605406309"><ele>305.0</ele><time>2026-04-04T13:04:21.01Z</time></trkpt><trkpt lat="42.536258733468166" lon="11.981593220245953"><ele>305.0</ele><time>2026-04-04T13:04:23.01Z</time></trkpt><trkpt lat="42.53623350625146" lon="11.9814709437744"><ele>305.0</ele><time>2026-04-04T13:04:25.01Z</time></trkpt><trkpt lat="42.536201636748544" lon="11.981349364436635"><ele>305.8</ele><time>2026-04-04T13:04:27.01Z</time></trkpt><trkpt lat="42.53617257905362" lon="11.9812364493406"><ele>306.6</ele><time>2026-04-04T13:04:29.01Z</time></trkpt><trkpt lat="42.5361441531491" lon="11.98111331941672"><ele>307.4</ele><time>2026-04-04T13:04:31.01Z</time></trkpt><trkpt lat="42.53611476391361" lon="11.980992631932603"><ele>308.2</ele><time>2026-04-04T13:04:33.01Z</time></trkpt><trkpt lat="42.53608881282332" lon="11.980872965457422"><ele>309.0</ele><time>2026-04-04T13:04:35.01Z</time></trkpt><trkpt lat="42.53607046629808" lon="11.980757607503891"><ele>309.0</ele><time>2026-04-04T13:04:37.01Z</time></trkpt><trkpt lat="42.53605171642547" lon="11.980647170070121"><ele>309.0</ele><time>2026-04-04T13:04:39.01Z</time></trkpt><trkpt lat="42.53602037074868" lon="11.980528539496794"><ele>309.0</ele><time>2026-04-04T13:04:41.01Z</time></trkpt><trkpt lat="42.535994151186436" lon="11.980400972975932"><ele>309.0</ele><time>2026-04-04T13:04:43.01Z</time></trkpt><trkpt lat="42.5359749564162" lon="11.980276920240101"><ele>309.0</ele><time>2026-04-04T13:04:45.01Z</time></trkpt><trkpt lat="42.53594801225333" lon="11.980145132087861"><ele>308.8</ele><time>2026-04-04T13:04:47.01Z</time></trkpt><trkpt lat="42.535925866547686" lon="11.98000674723073"><ele>308.59999999999997</ele><time>2026-04-04T13:04:49.01Z</time></trkpt><trkpt lat="42.535902833617904" lon="11.979869352197698"><ele>308.4</ele><time>2026-04-04T13:04:51.01Z</time></trkpt><trkpt lat="42.535879725639255" lon="11.979732250726652"><ele>308.2</ele><time>2026-04-04T13:04:53.01Z</time></trkpt><trkpt lat="42.53585644546227" lon="11.979588117644067"><ele>308.0</ele><time>2026-04-04T13:04:55.01Z</time></trkpt><trkpt lat="42.53582355664361" lon="11.97945061382778"><ele>308.0</ele><time>2026-04-04T13:04:57.01Z</time></trkpt><trkpt lat="42.53580308221116" lon="11.97930305858663"><ele>308.0</ele><time>2026-04-04T13:04:59.01Z</time></trkpt><trkpt lat="42.53577662909315" lon="11.97916238161056"><ele>308.0</ele><time>2026-04-04T13:05:01.01Z</time></trkpt><trkpt lat="42.53574572296202" lon="11.979018977262982"><ele>308.0</ele><time>2026-04-04T13:05:03.01Z</time></trkpt><trkpt lat="42.535727068915314" lon="11.978875441137513"><ele>308.0</ele><time>2026-04-04T13:05:05.01Z</time></trkpt><trkpt lat="42.53570742369009" lon="11.978736584159488"><ele>307.6</ele><time>2026-04-04T13:05:07.01Z</time></trkpt><trkpt lat="42.53568236539943" lon="11.9785929872731"><ele>307.20000000000005</ele><time>2026-04-04T13:05:09.009Z</time></trkpt><trkpt lat="42.53564332726545" lon="11.978452995682023"><ele>306.8</ele><time>2026-04-04T13:05:11.009Z</time></trkpt><trkpt lat="42.53562537283394" lon="11.978307797591121"><ele>306.40000000000003</ele><time>2026-04-04T13:05:13.009Z</time></trkpt><trkpt lat="42.53561153915463" lon="11.978156921129433"><ele>306.0</ele><time>2026-04-04T13:05:15.009Z</time></trkpt><trkpt lat="42.53558807560632" lon="11.978011039723492"><ele>306.0</ele><time>2026-04-04T13:05:17.009Z</time></trkpt><trkpt lat="42.53556963631753" lon="11.977861143989983"><ele>306.0</ele><time>2026-04-04T13:05:19.009Z</time></trkpt><trkpt lat="42.53554710081582" lon="11.977724307203587"><ele>306.0</ele><time>2026-04-04T13:05:21.011Z</time></trkpt><trkpt lat="42.53552888549146" lon="11.977584072444156"><ele>306.0</ele><time>2026-04-04T13:05:23.011Z</time></trkpt><trkpt lat="42.53550956767402" lon="11.977447016161069"><ele>306.0</ele><time>2026-04-04T13:05:25.012Z</time></trkpt><trkpt lat="42.53549321574017" lon="11.977310365751471"><ele>306.0</ele><time>2026-04-04T13:05:27.011Z</time></trkpt><trkpt lat="42.53546869132321" lon="11.977164671246902"><ele>306.0</ele><time>2026-04-04T13:05:29.011Z</time></trkpt><trkpt lat="42.535445123752105" lon="11.977034159233082"><ele>306.0</ele><time>2026-04-04T13:05:31.011Z</time></trkpt><trkpt lat="42.535432270552214" lon="11.97689726453944"><ele>306.0</ele><time>2026-04-04T13:05:33.011Z</time></trkpt><trkpt lat="42.53541753991124" lon="11.976768919890327"><ele>306.0</ele><time>2026-04-04T13:05:35.012Z</time></trkpt><trkpt lat="42.53539320179451" lon="11.976633609418084"><ele>312.20000000000005</ele><time>2026-04-04T13:05:37.012Z</time></trkpt><trkpt lat="42.53538360051885" lon="11.976499324422418"><ele>318.40000000000003</ele><time>2026-04-04T13:05:39.012Z</time></trkpt><trkpt lat="42.53537555520505" lon="11.976365436902386"><ele>324.6</ele><time>2026-04-04T13:05:41.012Z</time></trkpt><trkpt lat="42.53535627626052" lon="11.97624370987674"><ele>330.8</ele><time>2026-04-04T13:05:43.012Z</time></trkpt><trkpt lat="42.53534270966331" lon="11.976111308154382"><ele>337.0</ele><time>2026-04-04T13:05:45.012Z</time></trkpt><trkpt lat="42.53532380326569" lon="11.975993587809915"><ele>337.0</ele><time>2026-04-04T13:05:47.011Z</time></trkpt><trkpt lat="42.53529876672303" lon="11.9758640463761"><ele>337.0</ele><time>2026-04-04T13:05:49.011Z</time></trkpt><trkpt lat="42.53529286717177" lon="11.975745497352182"><ele>337.0</ele><time>2026-04-04T13:05:51.011Z</time></trkpt><trkpt lat="42.53527106443291" lon="11.975616296200995"><ele>337.0</ele><time>2026-04-04T13:05:53.011Z</time></trkpt><trkpt lat="42.535251701697625" lon="11.975500340996367"><ele>337.0</ele><time>2026-04-04T13:05:55.011Z</time></trkpt><trkpt lat="42.5352321132797" lon="11.97537147922139"><ele>336.66666666666663</ele><time>2026-04-04T13:05:57.011Z</time></trkpt><trkpt lat="42.5352141891" lon="11.97525083424717"><ele>336.3333333333333</ele><time>2026-04-04T13:05:59.011Z</time></trkpt><trkpt lat="42.53520948984317" lon="11.975122084218704"><ele>336.0</ele><time>2026-04-04T13:06:01.011Z</time></trkpt><trkpt lat="42.53518930558103" lon="11.975006068109812"><ele>335.6666666666667</ele><time>2026-04-04T13:06:03.011Z</time></trkpt><trkpt lat="42.535174989527526" lon="11.974887102083475"><ele>335.33333333333337</ele><time>2026-04-04T13:06:05.011Z</time></trkpt><trkpt lat="42.53515822007796" lon="11.974777666354527"><ele>335.0</ele><time>2026-04-04T13:06:07.011Z</time></trkpt><trkpt lat="42.53514965025746" lon="11.974643614356873"><ele>333.6</ele><time>2026-04-04T13:06:09.011Z</time></trkpt><trkpt lat="42.53513577203486" lon="11.974522766561604"><ele>332.2</ele><time>2026-04-04T13:06:11.011Z</time></trkpt><trkpt lat="42.53512069585043" lon="11.97440260191854"><ele>330.79999999999995</ele><time>2026-04-04T13:06:13.011Z</time></trkpt><trkpt lat="42.53510619589361" lon="11.974279939154718"><ele>329.4</ele><time>2026-04-04T13:06:15.011Z</time></trkpt><trkpt lat="42.53508717703645" lon="11.974166324354783"><ele>328.0</ele><time>2026-04-04T13:06:17.011Z</time></trkpt><trkpt lat="42.53507417452078" lon="11.974041113353007"><ele>327.16666666666663</ele><time>2026-04-04T13:06:19.011Z</time></trkpt><trkpt lat="42.535061702101146" lon="11.973915354713126"><ele>326.3333333333333</ele><time>2026-04-04T13:06:21.011Z</time></trkpt><trkpt lat="42.5350440350092" lon="11.973797416391218"><ele>325.5</ele><time>2026-04-04T13:06:23.011Z</time></trkpt><trkpt lat="42.535028788897186" lon="11.973674233438501"><ele>324.6666666666667</ele><time>2026-04-04T13:06:25.011Z</time></trkpt><trkpt lat="42.535016806153024" lon="11.973562239338289"><ele>323.83333333333337</ele><time>2026-04-04T13:06:27.011Z</time></trkpt><trkpt lat="42.53500512635041" lon="11.973440027322946"><ele>323.0</ele><time>2026-04-04T13:06:29.011Z</time></trkpt><trkpt lat="42.53500092021079" lon="11.97332329171317"><ele>322.6666666666667</ele><time>2026-04-04T13:06:31.011Z</time></trkpt><trkpt lat="42.53498516842791" lon="11.973217187138083"><ele>322.33333333333337</ele><time>2026-04-04T13:06:33.011Z</time></trkpt><trkpt lat="42.534980612131655" lon="11.973107007272526"><ele>322.0</ele><time>2026-04-04T13:06:35.011Z</time></trkpt><trkpt lat="42.534959912069624" lon="11.97300939095844"><ele>321.6666666666667</ele><time>2026-04-04T13:06:37.011Z</time></trkpt><trkpt lat="42.53496440901345" lon="11.97289808962327"><ele>321.3333333333333</ele><time>2026-04-04T13:06:39.011Z</time></trkpt><trkpt lat="42.53495210211211" lon="11.97279357155154"><ele>321.0</ele><time>2026-04-04T13:06:41.011Z</time></trkpt><trkpt lat="42.53492416648756" lon="11.972690990826031"><ele>321.0</ele><time>2026-04-04T13:06:43.011Z</time></trkpt><trkpt lat="42.534917914131036" lon="11.97258236934183"><ele>321.0</ele><time>2026-04-04T13:06:45.011Z</time></trkpt><trkpt lat="42.53490215420624" lon="11.972483343512964"><ele>321.0</ele><time>2026-04-04T13:06:47.01Z</time></trkpt><trkpt lat="42.53488412983901" lon="11.972385808648589"><ele>321.0</ele><time>2026-04-04T13:06:49.01Z</time></trkpt><trkpt lat="42.53487438330361" lon="11.972278797299854"><ele>321.0</ele><time>2026-04-04T13:06:51.01Z</time></trkpt><trkpt lat="42.534855973290746" lon="11.97217510410618"><ele>321.0</ele><time>2026-04-04T13:06:53.01Z</time></trkpt><trkpt lat="42.53484979066325" lon="11.972066523521336"><ele>320.3333333333333</ele><time>2026-04-04T13:06:55.01Z</time></trkpt><trkpt lat="42.53483660759938" lon="11.971968868832718"><ele>319.6666666666667</ele><time>2026-04-04T13:06:57.01Z</time></trkpt><trkpt lat="42.53482044682856" lon="11.971857438440445"><ele>319.0</ele><time>2026-04-04T13:06:59.01Z</time></trkpt><trkpt lat="42.53481326279613" lon="11.97175719222536"><ele>318.33333333333337</ele><time>2026-04-04T13:07:01.01Z</time></trkpt><trkpt lat="42.53480411889612" lon="11.971655158973919"><ele>317.6666666666667</ele><time>2026-04-04T13:07:03.01Z</time></trkpt><trkpt lat="42.534786686021114" lon="11.971544549233993"><ele>317.0</ele><time>2026-04-04T13:07:05.01Z</time></trkpt><trkpt lat="42.53477401474595" lon="11.971441055880264"><ele>315.6</ele><time>2026-04-04T13:07:07.01Z</time></trkpt><trkpt lat="42.53474409785453" lon="11.971325366934245"><ele>314.2</ele><time>2026-04-04T13:07:09.01Z</time></trkpt><trkpt lat="42.53469712492789" lon="11.971226730094969"><ele>312.8</ele><time>2026-04-04T13:07:11.01Z</time></trkpt><trkpt lat="42.534636072711464" lon="11.971137590545196"><ele>311.4</ele><time>2026-04-04T13:07:13.01Z</time></trkpt><trkpt lat="42.534563003660985" lon="11.971054305697407"><ele>310.0</ele><time>2026-04-04T13:07:15.01Z</time></trkpt><trkpt lat="42.53450716046055" lon="11.97095400165658"><ele>312.8</ele><time>2026-04-04T13:07:17.01Z</time></trkpt><trkpt lat="42.53442958793289" lon="11.970857689493538"><ele>315.6</ele><time>2026-04-04T13:07:19.01Z</time></trkpt><trkpt lat="42.534351202601506" lon="11.970765527881213"><ele>318.4</ele><time>2026-04-04T13:07:21.01Z</time></trkpt><trkpt lat="42.53429402065261" lon="11.970660236766042"><ele>321.2</ele><time>2026-04-04T13:07:23.01Z</time></trkpt><trkpt lat="42.53431188828244" lon="11.970540296320426"><ele>324.0</ele><time>2026-04-04T13:07:25.01Z</time></trkpt><trkpt lat="42.534381375562006" lon="11.970479270996362"><ele>324.0</ele><time>2026-04-04T13:07:27.012Z</time></trkpt><trkpt lat="42.53445644364298" lon="11.970440336565526"><ele>324.0</ele><time>2026-04-04T13:07:29.012Z</time></trkpt><trkpt lat="42.53455684972239" lon="11.970366969601486"><ele>324.0</ele><time>2026-04-04T13:07:31.012Z</time></trkpt><trkpt lat="42.534611122775566" lon="11.970285283748746"><ele>324.0</ele><time>2026-04-04T13:07:33.011Z</time></trkpt><trkpt lat="42.534611731421464" lon="11.970153288832812"><ele>324.0</ele><time>2026-04-04T13:07:35.012Z</time></trkpt><trkpt lat="42.534600738557494" lon="11.970040340061479"><ele>321.3333333333333</ele><time>2026-04-04T13:07:37.012Z</time></trkpt><trkpt lat="42.53459789820502" lon="11.96994829446049"><ele>318.6666666666667</ele><time>2026-04-04T13:07:39.012Z</time></trkpt><trkpt lat="42.534596622521555" lon="11.969815856897402"><ele>316.0</ele><time>2026-04-04T13:07:41.012Z</time></trkpt><trkpt lat="42.5345952011754" lon="11.969709375317729"><ele>313.33333333333337</ele><time>2026-04-04T13:07:43.012Z</time></trkpt><trkpt lat="42.534603910132816" lon="11.969578011248027"><ele>310.6666666666667</ele><time>2026-04-04T13:07:45.012Z</time></trkpt><trkpt lat="42.534585917093324" lon="11.969459650952585"><ele>308.0</ele><time>2026-04-04T13:07:47.012Z</time></trkpt><trkpt lat="42.534565869902934" lon="11.969338068322669"><ele>308.0</ele><time>2026-04-04T13:07:49.012Z</time></trkpt><trkpt lat="42.53456466074565" lon="11.969211270445992"><ele>308.0</ele><time>2026-04-04T13:07:51.012Z</time></trkpt><trkpt lat="42.534561125649326" lon="11.96911196674149"><ele>308.0</ele><time>2026-04-04T13:07:53.012Z</time></trkpt><trkpt lat="42.53455716434262" lon="11.969011240054757"><ele>308.0</ele><time>2026-04-04T13:07:55.011Z</time></trkpt><trkpt lat="42.53455274338275" lon="11.96888850984054"><ele>308.0</ele><time>2026-04-04T13:07:57.011Z</time></trkpt><trkpt lat="42.53453770340903" lon="11.968779460823473"><ele>308.0</ele><time>2026-04-04T13:07:59.011Z</time></trkpt><trkpt lat="42.534529126511174" lon="11.968666244615221"><ele>308.0</ele><time>2026-04-04T13:08:01.011Z</time></trkpt><trkpt lat="42.53453030392022" lon="11.968561156652228"><ele>308.0</ele><time>2026-04-04T13:08:03.011Z</time></trkpt><trkpt lat="42.53451874467826" lon="11.968456194722403"><ele>308.0</ele><time>2026-04-04T13:08:05.011Z</time></trkpt><trkpt lat="42.534510905121664" lon="11.968346785195243"><ele>308.0</ele><time>2026-04-04T13:08:07.011Z</time></trkpt><trkpt lat="42.53450352518246" lon="11.968242495467146"><ele>308.0</ele><time>2026-04-04T13:08:09.011Z</time></trkpt><trkpt lat="42.53449854110691" lon="11.968140024597794"><ele>308.0</ele><time>2026-04-04T13:08:11.011Z</time></trkpt><trkpt lat="42.53448600143138" lon="11.968027186389602"><ele>307.7142857142857</ele><time>2026-04-04T13:08:13.011Z</time></trkpt><trkpt lat="42.53448329457679" lon="11.967927768990283"><ele>307.42857142857144</ele><time>2026-04-04T13:08:15.011Z</time></trkpt><trkpt lat="42.53447144494707" lon="11.967840659664478"><ele>307.1428571428571</ele><time>2026-04-04T13:08:17.011Z</time></trkpt><trkpt lat="42.5344708546804" lon="11.967727371405461"><ele>306.8571428571429</ele><time>2026-04-04T13:08:20.011Z</time></trkpt><trkpt lat="42.53446657262006" lon="11.96763545286095"><ele>306.57142857142856</ele><time>2026-04-04T13:08:22.011Z</time></trkpt><trkpt lat="42.53446399011509" lon="11.967542596007803"><ele>306.2857142857143</ele><time>2026-04-04T13:08:24.011Z</time></trkpt><trkpt lat="42.53445624396186" lon="11.967445146057662"><ele>306.0</ele><time>2026-04-04T13:08:26.011Z</time></trkpt><trkpt lat="42.534445195219455" lon="11.967345018657696"><ele>305.6666666666667</ele><time>2026-04-04T13:08:28.011Z</time></trkpt><trkpt lat="42.53443067716188" lon="11.967235686865894"><ele>305.3333333333333</ele><time>2026-04-04T13:08:30.011Z</time></trkpt><trkpt lat="42.53444375620682" lon="11.967120104907591"><ele>305.0</ele><time>2026-04-04T13:08:32.011Z</time></trkpt><trkpt lat="42.534428573012356" lon="11.966993830811749"><ele>304.66666666666663</ele><time>2026-04-04T13:08:35.011Z</time></trkpt><trkpt lat="42.53441839692277" lon="11.966874709398189"><ele>304.3333333333333</ele><time>2026-04-04T13:08:37.011Z</time></trkpt><trkpt lat="42.5344069528329" lon="11.966774217389926"><ele>304.0</ele><time>2026-04-04T13:08:39.011Z</time></trkpt><trkpt lat="42.53440115126724" lon="11.966671654328955"><ele>304.0</ele><time>2026-04-04T13:08:41.011Z</time></trkpt><trkpt lat="42.53440263945473" lon="11.966558920172261"><ele>304.0</ele><time>2026-04-04T13:08:43.011Z</time></trkpt><trkpt lat="42.53438748954005" lon="11.966454704548129"><ele>304.0</ele><time>2026-04-04T13:08:45.011Z</time></trkpt><trkpt lat="42.53437610371997" lon="11.966353672919452"><ele>304.0</ele><time>2026-04-04T13:08:47.011Z</time></trkpt><trkpt lat="42.534377277545055" lon="11.96622866444209"><ele>304.0</ele><time>2026-04-04T13:08:50.011Z</time></trkpt><trkpt lat="42.53437536666883" lon="11.966121413161721"><ele>304.0</ele><time>2026-04-04T13:08:53.011Z</time></trkpt><trkpt lat="42.53431004859128" lon="11.966106596958666"><ele>304.0</ele><time>2026-04-04T13:08:58.01Z</time></trkpt><trkpt lat="42.534275190813204" lon="11.966201296885005"><ele>304.0</ele><time>2026-04-04T13:09:01.01Z</time></trkpt><trkpt lat="42.53422881129479" lon="11.966269252171633"><ele>304.0</ele><time>2026-04-04T13:09:03.01Z</time></trkpt><trkpt lat="42.53417934026351" lon="11.966340493597285"><ele>304.0</ele><time>2026-04-04T13:09:06.01Z</time></trkpt><trkpt lat="42.53413958208447" lon="11.966426017196682"><ele>304.0</ele><time>2026-04-04T13:09:09.01Z</time></trkpt><trkpt lat="42.53409678350765" lon="11.966520483253653"><ele>304.0</ele><time>2026-04-04T13:09:13.01Z</time></trkpt><trkpt lat="42.53405841496368" lon="11.966614836035335"><ele>304.0</ele><time>2026-04-04T13:09:17.01Z</time></trkpt><trkpt lat="42.53402281680931" lon="11.966696283022092"><ele>304.0</ele><time>2026-04-04T13:09:21.01Z</time></trkpt><trkpt lat="42.53395615989259" lon="11.966774227057744"><ele>304.0</ele><time>2026-04-04T13:09:25.01Z</time></trkpt><trkpt lat="42.5339112499882" lon="11.966852453591201"><ele>304.0</ele><time>2026-04-04T13:09:29.01Z</time></trkpt><trkpt lat="42.53385241676665" lon="11.966931357485292"><ele>304.0</ele><time>2026-04-04T13:09:32.01Z</time></trkpt><trkpt lat="42.533791922790584" lon="11.966992735699225"><ele>304.0</ele><time>2026-04-04T13:09:36.012Z</time></trkpt><trkpt lat="42.53372651719365" lon="11.967013567405022"><ele>304.0</ele><time>2026-04-04T13:09:40.012Z</time></trkpt><trkpt lat="42.5336441854524" lon="11.96703004637301"><ele>304.0</ele><time>2026-04-04T13:12:08.013Z</time></trkpt><trkpt lat="42.53371993660394" lon="11.966982842567498"><ele>304.0</ele><time>2026-04-04T13:12:57.012Z</time></trkpt><trkpt lat="42.53380121814601" lon="11.966981639520702"><ele>304.0</ele><time>2026-04-04T13:13:01.012Z</time></trkpt><trkpt lat="42.53387500756183" lon="11.967001780873465"><ele>304.0</ele><time>2026-04-04T13:13:04.012Z</time></trkpt><trkpt lat="42.53394497723362" lon="11.967032278557854"><ele>304.0</ele><time>2026-04-04T13:13:07.012Z</time></trkpt><trkpt lat="42.53401487158222" lon="11.967016932429297"><ele>304.0</ele><time>2026-04-04T13:13:10.012Z</time></trkpt><trkpt lat="42.53408348859621" lon="11.966991698154228"><ele>304.0</ele><time>2026-04-04T13:13:13.012Z</time></trkpt><trkpt lat="42.53415315430372" lon="11.966983842275354"><ele>304.0</ele><time>2026-04-04T13:13:16.011Z</time></trkpt><trkpt lat="42.534218310269154" lon="11.96696452918283"><ele>304.0</ele><time>2026-04-04T13:13:19.011Z</time></trkpt><trkpt lat="42.53429287760707" lon="11.96693649228611"><ele>304.0</ele><time>2026-04-04T13:13:22.011Z</time></trkpt><trkpt lat="42.534313886652214" lon="11.966843754036262"><ele>304.0</ele><time>2026-04-04T13:13:25.007Z</time></trkpt><trkpt lat="42.53432151339696" lon="11.966738757392745"><ele>304.0</ele><time>2026-04-04T13:13:27.004Z</time></trkpt><trkpt lat="42.53436429227437" lon="11.966642833117614"><ele>304.0</ele><time>2026-04-04T13:13:30.001Z</time></trkpt><trkpt lat="42.534387233650314" lon="11.966524972915279"><ele>304.0</ele><time>2026-04-04T13:13:32.998Z</time></trkpt><trkpt lat="42.53438261869787" lon="11.966432378374078"><ele>304.0</ele><time>2026-04-04T13:13:34.997Z</time></trkpt><trkpt lat="42.534386244236416" lon="11.966343728951342"><ele>304.0</ele><time>2026-04-04T13:13:36.996Z</time></trkpt><trkpt lat="42.53438292809473" lon="11.966233693833141"><ele>304.0</ele><time>2026-04-04T13:13:39.994Z</time></trkpt><trkpt lat="42.53438039195345" lon="11.966133377837936"><ele>304.0</ele><time>2026-04-04T13:13:42.992Z</time></trkpt><trkpt lat="42.534381768707576" lon="11.96604633534234"><ele>304.0</ele><time>2026-04-04T13:13:44.994Z</time></trkpt><trkpt lat="42.534375721879755" lon="11.96596097945027"><ele>304.0</ele><time>2026-04-04T13:13:46.993Z</time></trkpt><trkpt lat="42.53438009309353" lon="11.96587574975219"><ele>304.0</ele><time>2026-04-04T13:13:48.993Z</time></trkpt><trkpt lat="42.53437447229928" lon="11.9657487306861"><ele>304.0</ele><time>2026-04-04T13:13:51.992Z</time></trkpt><trkpt lat="42.534373651959044" lon="11.96566329760335"><ele>304.0</ele><time>2026-04-04T13:13:53.991Z</time></trkpt><trkpt lat="42.53436980350649" lon="11.965562830154305"><ele>304.0</ele><time>2026-04-04T13:13:55.991Z</time></trkpt><trkpt lat="42.53436724081225" lon="11.965462926937702"><ele>304.0</ele><time>2026-04-04T13:13:57.991Z</time></trkpt><trkpt lat="42.534362309676396" lon="11.96536251918103"><ele>304.0</ele><time>2026-04-04T13:13:59.99Z</time></trkpt><trkpt lat="42.534366232618495" lon="11.96526464817629"><ele>304.1428571428571</ele><time>2026-04-04T13:14:01.99Z</time></trkpt><trkpt lat="42.53436719408177" lon="11.965147458456991"><ele>304.28571428571433</ele><time>2026-04-04T13:14:04.99Z</time></trkpt><trkpt lat="42.53436623935603" lon="11.965060691196085"><ele>304.42857142857144</ele><time>2026-04-04T13:14:06.989Z</time></trkpt><trkpt lat="42.53436829910572" lon="11.964973289753486"><ele>304.57142857142856</ele><time>2026-04-04T13:14:08.989Z</time></trkpt><trkpt lat="42.534374145371274" lon="11.964879043698582"><ele>304.71428571428567</ele><time>2026-04-04T13:14:10.989Z</time></trkpt><trkpt lat="42.53436564052678" lon="11.964785994921142"><ele>304.8571428571429</ele><time>2026-04-04T13:14:12.989Z</time></trkpt><trkpt lat="42.53436247514236" lon="11.964693875996504"><ele>305.0</ele><time>2026-04-04T13:14:14.989Z</time></trkpt><trkpt lat="42.5343565359874" lon="11.964598049430956"><ele>305.14285714285717</ele><time>2026-04-04T13:14:16.989Z</time></trkpt><trkpt lat="42.53435615758112" lon="11.964499760551483"><ele>305.2857142857143</ele><time>2026-04-04T13:14:18.988Z</time></trkpt><trkpt lat="42.53435964500623" lon="11.964406185495111"><ele>305.42857142857144</ele><time>2026-04-04T13:14:20.988Z</time></trkpt><trkpt lat="42.53435842214428" lon="11.964311527426458"><ele>305.57142857142856</ele><time>2026-04-04T13:14:22.988Z</time></trkpt><trkpt lat="42.53436238182421" lon="11.96421218261543"><ele>305.7142857142857</ele><time>2026-04-04T13:14:24.988Z</time></trkpt><trkpt lat="42.534360752089505" lon="11.96411948732375"><ele>305.85714285714283</ele><time>2026-04-04T13:14:26.988Z</time></trkpt><trkpt lat="42.53435912383486" lon="11.964017729902665"><ele>306.0</ele><time>2026-04-04T13:14:28.988Z</time></trkpt><trkpt lat="42.53435558870905" lon="11.963914426767852"><ele>306.0</ele><time>2026-04-04T13:14:30.988Z</time></trkpt><trkpt lat="42.534360637724426" lon="11.963806434902022"><ele>306.0</ele><time>2026-04-04T13:14:32.988Z</time></trkpt><trkpt lat="42.53436136329051" lon="11.963705359699105"><ele>306.0</ele><time>2026-04-04T13:14:34.988Z</time></trkpt><trkpt lat="42.534360750889526" lon="11.963592394532814"><ele>306.0</ele><time>2026-04-04T13:14:36.987Z</time></trkpt><trkpt lat="42.53436321019708" lon="11.963484186246061"><ele>306.0</ele><time>2026-04-04T13:14:38.987Z</time></trkpt><trkpt lat="42.534358879386374" lon="11.963387688404397"><ele>306.0</ele><time>2026-04-04T13:14:40.987Z</time></trkpt><trkpt lat="42.534360417617194" lon="11.963288556316776"><ele>306.0</ele><time>2026-04-04T13:14:42.987Z</time></trkpt><trkpt lat="42.53436623618472" lon="11.963182506486962"><ele>306.0</ele><time>2026-04-04T13:14:44.987Z</time></trkpt><trkpt lat="42.534365589587544" lon="11.96307677033105"><ele>306.0</ele><time>2026-04-04T13:14:46.987Z</time></trkpt><trkpt lat="42.534367476584585" lon="11.962960927868265"><ele>306.0</ele><time>2026-04-04T13:14:48.987Z</time></trkpt><trkpt lat="42.53436426500541" lon="11.962858744853762"><ele>306.0</ele><time>2026-04-04T13:14:50.987Z</time></trkpt><trkpt lat="42.53436995350133" lon="11.962745214190086"><ele>306.0</ele><time>2026-04-04T13:14:52.987Z</time></trkpt><trkpt lat="42.53437096590347" lon="11.962630868194214"><ele>306.0</ele><time>2026-04-04T13:14:54.987Z</time></trkpt><trkpt lat="42.534373316753005" lon="11.962516710629648"><ele>306.0</ele><time>2026-04-04T13:14:56.987Z</time></trkpt><trkpt lat="42.53437521648683" lon="11.962398938814234"><ele>306.0</ele><time>2026-04-04T13:14:58.987Z</time></trkpt><trkpt lat="42.53438293904287" lon="11.962280072537709"><ele>306.0</ele><time>2026-04-04T13:15:00.987Z</time></trkpt><trkpt lat="42.53437794462988" lon="11.96217805460382"><ele>306.0</ele><time>2026-04-04T13:15:02.987Z</time></trkpt><trkpt lat="42.53437673199429" lon="11.962062390052248"><ele>306.0</ele><time>2026-04-04T13:15:04.987Z</time></trkpt><trkpt lat="42.53438334361869" lon="11.961938799553703"><ele>306.0</ele><time>2026-04-04T13:15:06.987Z</time></trkpt><trkpt lat="42.534390920420364" lon="11.96182009410271"><ele>306.0</ele><time>2026-04-04T13:15:08.986Z</time></trkpt><trkpt lat="42.534388703888624" lon="11.961700269639515"><ele>306.0</ele><time>2026-04-04T13:15:10.986Z</time></trkpt><trkpt lat="42.53439522856288" lon="11.9615640804487"><ele>306.0</ele><time>2026-04-04T13:15:12.986Z</time></trkpt><trkpt lat="42.53439496685239" lon="11.96145382660177"><ele>306.0</ele><time>2026-04-04T13:15:14.986Z</time></trkpt><trkpt lat="42.53439911963786" lon="11.961341169962104"><ele>306.0</ele><time>2026-04-04T13:15:16.986Z</time></trkpt><trkpt lat="42.53440386161483" lon="11.961225738667737"><ele>306.0</ele><time>2026-04-04T13:15:18.986Z</time></trkpt><trkpt lat="42.53440628858694" lon="11.961110341184561"><ele>306.0</ele><time>2026-04-04T13:15:20.986Z</time></trkpt><trkpt lat="42.53440790384752" lon="11.960997471379944"><ele>306.0</ele><time>2026-04-04T13:15:22.986Z</time></trkpt><trkpt lat="42.53441198661331" lon="11.960886874950173"><ele>306.0</ele><time>2026-04-04T13:15:24.986Z</time></trkpt><trkpt lat="42.53441427746236" lon="11.960777079143147"><ele>306.0</ele><time>2026-04-04T13:15:26.986Z</time></trkpt><trkpt lat="42.53441572180492" lon="11.960677781688162"><ele>306.0</ele><time>2026-04-04T13:15:28.986Z</time></trkpt><trkpt lat="42.534419215715914" lon="11.960570262402603"><ele>306.0</ele><time>2026-04-04T13:15:30.986Z</time></trkpt><trkpt lat="42.53442323044926" lon="11.960468439590084"><ele>306.0</ele><time>2026-04-04T13:15:32.986Z</time></trkpt><trkpt lat="42.53442381792392" lon="11.960365424363971"><ele>306.0</ele><time>2026-04-04T13:15:34.986Z</time></trkpt><trkpt lat="42.53442218054818" lon="11.960275345571244"><ele>306.0</ele><time>2026-04-04T13:15:36.986Z</time></trkpt><trkpt lat="42.53443287066931" lon="11.960189508647403"><ele>306.0</ele><time>2026-04-04T13:15:38.986Z</time></trkpt><trkpt lat="42.53443617249405" lon="11.960071715275074"><ele>306.0</ele><time>2026-04-04T13:15:41.986Z</time></trkpt><trkpt lat="42.53443740465335" lon="11.95998492160407"><ele>306.0</ele><time>2026-04-04T13:15:43.986Z</time></trkpt><trkpt lat="42.53443767109137" lon="11.959888907526986"><ele>306.0</ele><time>2026-04-04T13:15:45.986Z</time></trkpt><trkpt lat="42.53444460487175" lon="11.959787156735437"><ele>306.0</ele><time>2026-04-04T13:15:47.985Z</time></trkpt><trkpt lat="42.53444806551056" lon="11.95965697063568"><ele>306.0</ele><time>2026-04-04T13:15:49.985Z</time></trkpt><trkpt lat="42.534456829619224" lon="11.959562906667852"><ele>306.0</ele><time>2026-04-04T13:15:51.987Z</time></trkpt><trkpt lat="42.534461469577444" lon="11.959458258822163"><ele>306.0</ele><time>2026-04-04T13:15:53.987Z</time></trkpt><trkpt lat="42.534463287237315" lon="11.959358233029162"><ele>306.0</ele><time>2026-04-04T13:15:55.988Z</time></trkpt><trkpt lat="42.53446077728237" lon="11.959249671041519"><ele>306.1666666666667</ele><time>2026-04-04T13:15:57.986Z</time></trkpt><trkpt lat="42.5344696140669" lon="11.959145059094075"><ele>306.3333333333333</ele><time>2026-04-04T13:15:59.987Z</time></trkpt><trkpt lat="42.53446668087126" lon="11.95904250591751"><ele>306.5</ele><time>2026-04-04T13:16:01.986Z</time></trkpt><trkpt lat="42.5344694191988" lon="11.95893530914662"><ele>306.66666666666663</ele><time>2026-04-04T13:16:03.987Z</time></trkpt><trkpt lat="42.5344745946991" lon="11.958830192169117"><ele>306.8333333333333</ele><time>2026-04-04T13:16:05.987Z</time></trkpt><trkpt lat="42.534476453118344" lon="11.958726713832332"><ele>307.0</ele><time>2026-04-04T13:16:07.987Z</time></trkpt><trkpt lat="42.53448335337566" lon="11.958628691133685"><ele>307.0</ele><time>2026-04-04T13:16:09.987Z</time></trkpt><trkpt lat="42.53448139403029" lon="11.958512566838852"><ele>307.0</ele><time>2026-04-04T13:16:11.987Z</time></trkpt><trkpt lat="42.534484975160055" lon="11.958402206988199"><ele>307.0</ele><time>2026-04-04T13:16:13.987Z</time></trkpt><trkpt lat="42.534487841202264" lon="11.958286339488309"><ele>307.0</ele><time>2026-04-04T13:16:15.986Z</time></trkpt><trkpt lat="42.534494370845444" lon="11.958168937676263"><ele>307.0</ele><time>2026-04-04T13:16:17.986Z</time></trkpt><trkpt lat="42.53449773501428" lon="11.958056698762878"><ele>307.0</ele><time>2026-04-04T13:16:19.986Z</time></trkpt><trkpt lat="42.5345046233733" lon="11.957944719706791"><ele>307.5</ele><time>2026-04-04T13:16:21.986Z</time></trkpt><trkpt lat="42.53450776202298" lon="11.957830045003037"><ele>308.0</ele><time>2026-04-04T13:16:23.986Z</time></trkpt><trkpt lat="42.534517572151756" lon="11.957710975387542"><ele>308.5</ele><time>2026-04-04T13:16:25.986Z</time></trkpt><trkpt lat="42.534523077544144" lon="11.95759496532668"><ele>309.0</ele><time>2026-04-04T13:16:27.986Z</time></trkpt><trkpt lat="42.534531629206654" lon="11.957477866650395"><ele>309.5</ele><time>2026-04-04T13:16:29.986Z</time></trkpt><trkpt lat="42.53453597868111" lon="11.957366052714152"><ele>310.0</ele><time>2026-04-04T13:16:31.986Z</time></trkpt><trkpt lat="42.53453918424128" lon="11.957257356770345"><ele>310.66666666666663</ele><time>2026-04-04T13:16:33.986Z</time></trkpt><trkpt lat="42.534543005149246" lon="11.957155185637253"><ele>311.3333333333333</ele><time>2026-04-04T13:16:35.986Z</time></trkpt><trkpt lat="42.53454848713009" lon="11.95704176751753"><ele>312.0</ele><time>2026-04-04T13:16:37.986Z</time></trkpt><trkpt lat="42.53454784041065" lon="11.956935589570625"><ele>312.6666666666667</ele><time>2026-04-04T13:16:39.986Z</time></trkpt><trkpt lat="42.534550388502744" lon="11.956821924676795"><ele>313.33333333333337</ele><time>2026-04-04T13:16:41.986Z</time></trkpt><trkpt lat="42.53456156988416" lon="11.956709482012972"><ele>314.0</ele><time>2026-04-04T13:16:43.986Z</time></trkpt><trkpt lat="42.5345582673461" lon="11.956592733438073"><ele>312.33333333333337</ele><time>2026-04-04T13:16:45.986Z</time></trkpt><trkpt lat="42.53456275783948" lon="11.956469174431804"><ele>310.6666666666667</ele><time>2026-04-04T13:16:47.986Z</time></trkpt><trkpt lat="42.534569212977054" lon="11.956352664633425"><ele>309.0</ele><time>2026-04-04T13:16:49.986Z</time></trkpt><trkpt lat="42.534577293363725" lon="11.956248327929051"><ele>307.3333333333333</ele><time>2026-04-04T13:16:51.986Z</time></trkpt><trkpt lat="42.534589167559794" lon="11.956129848860044"><ele>305.66666666666663</ele><time>2026-04-04T13:16:53.986Z</time></trkpt><trkpt lat="42.53459922599322" lon="11.95601476541049"><ele>304.0</ele><time>2026-04-04T13:16:55.985Z</time></trkpt><trkpt lat="42.53459896756356" lon="11.955900588484623"><ele>304.0</ele><time>2026-04-04T13:16:57.985Z</time></trkpt><trkpt lat="42.534603469747466" lon="11.955786306631062"><ele>304.0</ele><time>2026-04-04T13:16:59.985Z</time></trkpt><trkpt lat="42.53460600505329" lon="11.955685023438468"><ele>304.0</ele><time>2026-04-04T13:17:01.985Z</time></trkpt><trkpt lat="42.53461966061579" lon="11.955574267655862"><ele>304.0</ele><time>2026-04-04T13:17:03.985Z</time></trkpt><trkpt lat="42.53463212335105" lon="11.955449785471172"><ele>304.0</ele><time>2026-04-04T13:17:05.985Z</time></trkpt><trkpt lat="42.53464717739036" lon="11.955330284558828"><ele>304.0</ele><time>2026-04-04T13:17:07.985Z</time></trkpt><trkpt lat="42.534652165440676" lon="11.955208454419004"><ele>304.0</ele><time>2026-04-04T13:17:09.985Z</time></trkpt><trkpt lat="42.53466239315741" lon="11.955095281490031"><ele>304.0</ele><time>2026-04-04T13:17:11.985Z</time></trkpt><trkpt lat="42.53467390702651" lon="11.954982681429453"><ele>304.0</ele><time>2026-04-04T13:17:13.985Z</time></trkpt><trkpt lat="42.53467615442988" lon="11.95487791628794"><ele>304.0</ele><time>2026-04-04T13:17:15.985Z</time></trkpt><trkpt lat="42.53468481615373" lon="11.954765043917767"><ele>304.0</ele><time>2026-04-04T13:17:17.985Z</time></trkpt><trkpt lat="42.53468749468229" lon="11.954650855275839"><ele>304.0</ele><time>2026-04-04T13:17:19.985Z</time></trkpt><trkpt lat="42.53468884010549" lon="11.954540917829542"><ele>304.16666666666663</ele><time>2026-04-04T13:17:21.985Z</time></trkpt><trkpt lat="42.53468949324987" lon="11.954410479641263"><ele>304.3333333333333</ele><time>2026-04-04T13:17:23.985Z</time></trkpt><trkpt lat="42.53469703424378" lon="11.954293040867359"><ele>304.5</ele><time>2026-04-04T13:17:25.985Z</time></trkpt><trkpt lat="42.53470244111077" lon="11.954176774504957"><ele>304.6666666666667</ele><time>2026-04-04T13:17:27.985Z</time></trkpt><trkpt lat="42.534706668915035" lon="11.954067802198681"><ele>304.83333333333337</ele><time>2026-04-04T13:17:29.985Z</time></trkpt><trkpt lat="42.53471575978953" lon="11.953952929894827"><ele>305.0</ele><time>2026-04-04T13:17:31.985Z</time></trkpt><trkpt lat="42.53474134548483" lon="11.953830536125574"><ele>305.0</ele><time>2026-04-04T13:17:33.984Z</time></trkpt><trkpt lat="42.53474716823441" lon="11.953707714652934"><ele>305.0</ele><time>2026-04-04T13:17:35.984Z</time></trkpt><trkpt lat="42.534745933382816" lon="11.953570525535923"><ele>305.0</ele><time>2026-04-04T13:17:37.984Z</time></trkpt><trkpt lat="42.53475859386123" lon="11.953450845013727"><ele>305.0</ele><time>2026-04-04T13:17:39.984Z</time></trkpt><trkpt lat="42.53476214285996" lon="11.953336400921295"><ele>305.0</ele><time>2026-04-04T13:17:41.984Z</time></trkpt><trkpt lat="42.53477343994294" lon="11.953212572151644"><ele>305.0</ele><time>2026-04-04T13:17:43.984Z</time></trkpt><trkpt lat="42.534777240223086" lon="11.95309223160798"><ele>305.0</ele><time>2026-04-04T13:17:45.984Z</time></trkpt><trkpt lat="42.53478339422115" lon="11.952967632969875"><ele>305.0</ele><time>2026-04-04T13:17:47.984Z</time></trkpt><trkpt lat="42.53479009150465" lon="11.952848075229296"><ele>305.0</ele><time>2026-04-04T13:17:49.984Z</time></trkpt><trkpt lat="42.53478869909443" lon="11.952724104229807"><ele>305.0</ele><time>2026-04-04T13:17:51.984Z</time></trkpt><trkpt lat="42.534792078397736" lon="11.952601001805876"><ele>305.0</ele><time>2026-04-04T13:17:53.984Z</time></trkpt><trkpt lat="42.53479481484566" lon="11.952481920314725"><ele>305.0</ele><time>2026-04-04T13:17:55.984Z</time></trkpt><trkpt lat="42.534794540509345" lon="11.952362594546422"><ele>305.0</ele><time>2026-04-04T13:17:57.986Z</time></trkpt><trkpt lat="42.534803658827585" lon="11.952248609643544"><ele>305.0</ele><time>2026-04-04T13:17:59.985Z</time></trkpt><trkpt lat="42.534813734063626" lon="11.952131056231062"><ele>305.0</ele><time>2026-04-04T13:18:01.986Z</time></trkpt><trkpt lat="42.53481518910838" lon="11.952017851301113"><ele>305.0</ele><time>2026-04-04T13:18:03.985Z</time></trkpt><trkpt lat="42.53482148645269" lon="11.951899955004643"><ele>305.0</ele><time>2026-04-04T13:18:05.986Z</time></trkpt><trkpt lat="42.534823271631886" lon="11.951785640355867"><ele>305.0</ele><time>2026-04-04T13:18:07.986Z</time></trkpt><trkpt lat="42.53482810905786" lon="11.951676993204442"><ele>305.0</ele><time>2026-04-04T13:18:09.986Z</time></trkpt><trkpt lat="42.53482654454258" lon="11.95155925788472"><ele>305.0</ele><time>2026-04-04T13:18:11.986Z</time></trkpt><trkpt lat="42.534818366046075" lon="11.951441414593589"><ele>305.0</ele><time>2026-04-04T13:18:13.986Z</time></trkpt><trkpt lat="42.534805003171904" lon="11.951327100107376"><ele>305.0</ele><time>2026-04-04T13:18:15.986Z</time></trkpt><trkpt lat="42.53481251300167" lon="11.95121313505737"><ele>305.1666666666667</ele><time>2026-04-04T13:18:17.986Z</time></trkpt><trkpt lat="42.5348172483965" lon="11.951101590716574"><ele>305.33333333333337</ele><time>2026-04-04T13:18:19.986Z</time></trkpt><trkpt lat="42.53480961439021" lon="11.950984244522218"><ele>305.5</ele><time>2026-04-04T13:18:21.986Z</time></trkpt><trkpt lat="42.53480899016354" lon="11.950870834256458"><ele>305.6666666666667</ele><time>2026-04-04T13:18:23.985Z</time></trkpt><trkpt lat="42.534804722447184" lon="11.95075635466372"><ele>305.8333333333333</ele><time>2026-04-04T13:18:25.985Z</time></trkpt><trkpt lat="42.53479947369573" lon="11.950647265892973"><ele>306.0</ele><time>2026-04-04T13:18:27.985Z</time></trkpt><trkpt lat="42.534795623235944" lon="11.950523538651847"><ele>306.0</ele><time>2026-04-04T13:18:29.985Z</time></trkpt><trkpt lat="42.53478945016196" lon="11.950406422852582"><ele>306.0</ele><time>2026-04-04T13:18:31.985Z</time></trkpt><trkpt lat="42.53478189370985" lon="11.950284421757132"><ele>306.0</ele><time>2026-04-04T13:18:33.985Z</time></trkpt><trkpt lat="42.53477835117658" lon="11.950170829403783"><ele>306.0</ele><time>2026-04-04T13:18:35.985Z</time></trkpt><trkpt lat="42.53477185916608" lon="11.950048520121966"><ele>306.0</ele><time>2026-04-04T13:18:37.985Z</time></trkpt><trkpt lat="42.534770231535305" lon="11.949942463323783"><ele>306.0</ele><time>2026-04-04T13:18:39.985Z</time></trkpt><trkpt lat="42.53478039996794" lon="11.949821380262778"><ele>306.0</ele><time>2026-04-04T13:18:41.985Z</time></trkpt><trkpt lat="42.53478391194162" lon="11.949707895108757"><ele>306.0</ele><time>2026-04-04T13:18:43.985Z</time></trkpt><trkpt lat="42.53478362038555" lon="11.949596745130368"><ele>306.0</ele><time>2026-04-04T13:18:45.985Z</time></trkpt><trkpt lat="42.534777544099605" lon="11.949482605417158"><ele>306.0</ele><time>2026-04-04T13:18:47.985Z</time></trkpt><trkpt lat="42.53476909637261" lon="11.94937328269516"><ele>306.0</ele><time>2026-04-04T13:18:49.985Z</time></trkpt><trkpt lat="42.53476107842014" lon="11.949260721652873"><ele>306.0</ele><time>2026-04-04T13:18:51.985Z</time></trkpt><trkpt lat="42.53475756709951" lon="11.949146613653843"><ele>306.0</ele><time>2026-04-04T13:18:53.985Z</time></trkpt><trkpt lat="42.53474896069654" lon="11.949039053769202"><ele>306.0</ele><time>2026-04-04T13:18:55.985Z</time></trkpt><trkpt lat="42.53475733465731" lon="11.94893410681626"><ele>306.0</ele><time>2026-04-04T13:18:57.985Z</time></trkpt><trkpt lat="42.534750580693576" lon="11.948826638257815"><ele>306.0</ele><time>2026-04-04T13:18:59.985Z</time></trkpt><trkpt lat="42.53474003318136" lon="11.948714619917768"><ele>306.0</ele><time>2026-04-04T13:19:01.984Z</time></trkpt><trkpt lat="42.534749843512905" lon="11.94860605371576"><ele>306.0</ele><time>2026-04-04T13:19:03.984Z</time></trkpt><trkpt lat="42.53474273908631" lon="11.948492575035846"><ele>306.0</ele><time>2026-04-04T13:19:05.984Z</time></trkpt><trkpt lat="42.53474051799244" lon="11.948379215492698"><ele>306.0</ele><time>2026-04-04T13:19:07.984Z</time></trkpt><trkpt lat="42.53473676946696" lon="11.948270728722013"><ele>306.0</ele><time>2026-04-04T13:19:09.984Z</time></trkpt><trkpt lat="42.534740793510565" lon="11.948151910980505"><ele>306.0</ele><time>2026-04-04T13:19:11.984Z</time></trkpt><trkpt lat="42.53473778668495" lon="11.948044565481236"><ele>306.0</ele><time>2026-04-04T13:19:13.984Z</time></trkpt><trkpt lat="42.53472200051422" lon="11.947936955321534"><ele>306.0</ele><time>2026-04-04T13:19:15.984Z</time></trkpt><trkpt lat="42.53472708265513" lon="11.947815033615402"><ele>306.0</ele><time>2026-04-04T13:19:17.984Z</time></trkpt><trkpt lat="42.53472425438044" lon="11.94771078400517"><ele>306.0</ele><time>2026-04-04T13:19:19.984Z</time></trkpt><trkpt lat="42.53470993829393" lon="11.947603321360786"><ele>306.0</ele><time>2026-04-04T13:19:21.984Z</time></trkpt><trkpt lat="42.534712045542186" lon="11.947494633884892"><ele>306.0</ele><time>2026-04-04T13:19:23.984Z</time></trkpt><trkpt lat="42.534713405696465" lon="11.947384070955593"><ele>306.0</ele><time>2026-04-04T13:19:25.984Z</time></trkpt><trkpt lat="42.53471134265937" lon="11.947275724330535"><ele>306.0</ele><time>2026-04-04T13:19:27.984Z</time></trkpt><trkpt lat="42.53470683391133" lon="11.947166047690253"><ele>306.0</ele><time>2026-04-04T13:19:29.984Z</time></trkpt><trkpt lat="42.53470431566798" lon="11.947053035593434"><ele>306.0</ele><time>2026-04-04T13:19:31.984Z</time></trkpt><trkpt lat="42.534703466431864" lon="11.946944475764557"><ele>306.0</ele><time>2026-04-04T13:19:33.984Z</time></trkpt><trkpt lat="42.53470638224825" lon="11.946831675607923"><ele>306.0</ele><time>2026-04-04T13:19:35.984Z</time></trkpt><trkpt lat="42.534691871723346" lon="11.946721479318766"><ele>306.0</ele><time>2026-04-04T13:19:37.984Z</time></trkpt><trkpt lat="42.53468547930095" lon="11.946598515445679"><ele>306.0</ele><time>2026-04-04T13:19:39.984Z</time></trkpt><trkpt lat="42.53468522926493" lon="11.946495929942156"><ele>306.0</ele><time>2026-04-04T13:19:41.983Z</time></trkpt><trkpt lat="42.53468431658084" lon="11.946385911134678"><ele>306.0</ele><time>2026-04-04T13:19:43.983Z</time></trkpt><trkpt lat="42.53469167925304" lon="11.94626407905874"><ele>306.0</ele><time>2026-04-04T13:19:45.983Z</time></trkpt><trkpt lat="42.5346858519759" lon="11.946165713107757"><ele>306.0</ele><time>2026-04-04T13:19:47.983Z</time></trkpt><trkpt lat="42.53467716918662" lon="11.94606466452566"><ele>306.0</ele><time>2026-04-04T13:19:49.983Z</time></trkpt><trkpt lat="42.53467370573982" lon="11.945960826247823"><ele>306.0</ele><time>2026-04-04T13:19:51.983Z</time></trkpt><trkpt lat="42.53468022238797" lon="11.945849450358441"><ele>306.0</ele><time>2026-04-04T13:19:53.983Z</time></trkpt><trkpt lat="42.534681157546636" lon="11.94573333623842"><ele>306.0</ele><time>2026-04-04T13:19:55.983Z</time></trkpt><trkpt lat="42.53468161547067" lon="11.945631553314973"><ele>306.0</ele><time>2026-04-04T13:19:57.983Z</time></trkpt><trkpt lat="42.534680210828384" lon="11.945528735022847"><ele>306.0</ele><time>2026-04-04T13:19:59.983Z</time></trkpt><trkpt lat="42.53467889756412" lon="11.945428574173038"><ele>306.0</ele><time>2026-04-04T13:20:01.983Z</time></trkpt><trkpt lat="42.53468153166159" lon="11.945318696818182"><ele>306.0</ele><time>2026-04-04T13:20:03.986Z</time></trkpt><trkpt lat="42.53468486911564" lon="11.945215281366895"><ele>306.0</ele><time>2026-04-04T13:20:05.985Z</time></trkpt><trkpt lat="42.534686838451826" lon="11.945107151097245"><ele>306.0</ele><time>2026-04-04T13:20:07.985Z</time></trkpt><trkpt lat="42.53467886827927" lon="11.944989782645978"><ele>306.0</ele><time>2026-04-04T13:20:09.986Z</time></trkpt><trkpt lat="42.53467894442398" lon="11.944879030952562"><ele>306.0</ele><time>2026-04-04T13:20:11.985Z</time></trkpt><trkpt lat="42.534684254359895" lon="11.944765942952948"><ele>306.0</ele><time>2026-04-04T13:20:13.985Z</time></trkpt><trkpt lat="42.53468017324738" lon="11.944654375316093"><ele>306.0</ele><time>2026-04-04T13:20:15.985Z</time></trkpt><trkpt lat="42.534674683377084" lon="11.944544813565159"><ele>306.0</ele><time>2026-04-04T13:20:17.985Z</time></trkpt><trkpt lat="42.53467300709497" lon="11.94444009153209"><ele>306.0</ele><time>2026-04-04T13:20:19.985Z</time></trkpt><trkpt lat="42.53467413279608" lon="11.944340566654795"><ele>306.0</ele><time>2026-04-04T13:20:21.985Z</time></trkpt><trkpt lat="42.53467221058675" lon="11.944231217351067"><ele>306.0</ele><time>2026-04-04T13:20:23.985Z</time></trkpt><trkpt lat="42.53467591500726" lon="11.944127887000139"><ele>306.0</ele><time>2026-04-04T13:20:25.985Z</time></trkpt><trkpt lat="42.5346760339605" lon="11.944014861899316"><ele>306.0</ele><time>2026-04-04T13:20:27.985Z</time></trkpt><trkpt lat="42.53467119679801" lon="11.943911759621118"><ele>306.0</ele><time>2026-04-04T13:20:29.985Z</time></trkpt><trkpt lat="42.53466182212811" lon="11.943814870587925"><ele>306.0</ele><time>2026-04-04T13:20:31.985Z</time></trkpt><trkpt lat="42.53465364744403" lon="11.94368043826811"><ele>306.0</ele><time>2026-04-04T13:20:34.985Z</time></trkpt><trkpt lat="42.53466289423511" lon="11.943580099421304"><ele>306.0</ele><time>2026-04-04T13:20:36.985Z</time></trkpt><trkpt lat="42.53465799242984" lon="11.943475006724185"><ele>306.0</ele><time>2026-04-04T13:20:38.985Z</time></trkpt><trkpt lat="42.53466051110824" lon="11.943371986586255"><ele>306.0</ele><time>2026-04-04T13:20:40.985Z</time></trkpt><trkpt lat="42.53466306140186" lon="11.943261074323804"><ele>306.0</ele><time>2026-04-04T13:20:42.984Z</time></trkpt><trkpt lat="42.53466166599067" lon="11.9431550875732"><ele>306.0</ele><time>2026-04-04T13:20:44.984Z</time></trkpt><trkpt lat="42.534662315426964" lon="11.943049747703009"><ele>306.0</ele><time>2026-04-04T13:20:46.984Z</time></trkpt><trkpt lat="42.534666018285115" lon="11.942942962768106"><ele>306.0</ele><time>2026-04-04T13:20:48.984Z</time></trkpt><trkpt lat="42.53466682747279" lon="11.942834857523433"><ele>306.0</ele><time>2026-04-04T13:20:50.984Z</time></trkpt><trkpt lat="42.534671823121286" lon="11.942725178501744"><ele>306.0</ele><time>2026-04-04T13:20:52.984Z</time></trkpt><trkpt lat="42.534678770127606" lon="11.942614291203162"><ele>306.0</ele><time>2026-04-04T13:20:54.984Z</time></trkpt><trkpt lat="42.534686739646375" lon="11.94249620143763"><ele>306.0</ele><time>2026-04-04T13:20:56.984Z</time></trkpt><trkpt lat="42.53468525085263" lon="11.942387704272035"><ele>306.0</ele><time>2026-04-04T13:20:58.984Z</time></trkpt><trkpt lat="42.53469659326604" lon="11.94228372238765"><ele>306.0</ele><time>2026-04-04T13:21:00.984Z</time></trkpt><trkpt lat="42.53469281735486" lon="11.942171341853598"><ele>306.0</ele><time>2026-04-04T13:21:02.984Z</time></trkpt><trkpt lat="42.53469725523777" lon="11.942052368569218"><ele>306.0</ele><time>2026-04-04T13:21:04.984Z</time></trkpt><trkpt lat="42.53468731378807" lon="11.941943790580773"><ele>306.0</ele><time>2026-04-04T13:21:06.984Z</time></trkpt><trkpt lat="42.53469977965732" lon="11.941828734194372"><ele>306.0</ele><time>2026-04-04T13:21:08.984Z</time></trkpt><trkpt lat="42.534695066152096" lon="11.941726445315423"><ele>306.0</ele><time>2026-04-04T13:21:10.984Z</time></trkpt><trkpt lat="42.534699085046896" lon="11.941623855057596"><ele>306.0</ele><time>2026-04-04T13:21:12.984Z</time></trkpt><trkpt lat="42.53470350342495" lon="11.941519670242547"><ele>306.0</ele><time>2026-04-04T13:21:14.984Z</time></trkpt><trkpt lat="42.5347023223051" lon="11.9414176040508"><ele>306.0</ele><time>2026-04-04T13:21:16.984Z</time></trkpt><trkpt lat="42.5347079741966" lon="11.941298473354017"><ele>306.1428571428571</ele><time>2026-04-04T13:21:18.984Z</time></trkpt><trkpt lat="42.534706630087456" lon="11.941209959577634"><ele>306.2857142857143</ele><time>2026-04-04T13:21:20.984Z</time></trkpt><trkpt lat="42.534710834597675" lon="11.941113658418736"><ele>306.42857142857144</ele><time>2026-04-04T13:21:22.983Z</time></trkpt><trkpt lat="42.53471706906544" lon="11.941016372779757"><ele>306.57142857142856</ele><time>2026-04-04T13:21:24.983Z</time></trkpt><trkpt lat="42.534720649921205" lon="11.940925912239107"><ele>306.7142857142857</ele><time>2026-04-04T13:21:26.983Z</time></trkpt><trkpt lat="42.534717294592454" lon="11.940823306122544"><ele>306.85714285714283</ele><time>2026-04-04T13:21:28.983Z</time></trkpt><trkpt lat="42.53471451104159" lon="11.940704846458335"><ele>307.0</ele><time>2026-04-04T13:21:31.983Z</time></trkpt><trkpt lat="42.53471093312156" lon="11.940590998872915"><ele>307.16666666666663</ele><time>2026-04-04T13:21:34.983Z</time></trkpt><trkpt lat="42.53469875553085" lon="11.940464768611859"><ele>307.3333333333333</ele><time>2026-04-04T13:21:37.983Z</time></trkpt><trkpt lat="42.53470479368646" lon="11.940339524913684"><ele>307.5</ele><time>2026-04-04T13:21:40.983Z</time></trkpt><trkpt lat="42.53473200298776" lon="11.940224159497838"><ele>307.6666666666667</ele><time>2026-04-04T13:21:43.983Z</time></trkpt><trkpt lat="42.53471540753888" lon="11.940139705467315"><ele>307.83333333333337</ele><time>2026-04-04T13:21:45.983Z</time></trkpt><trkpt lat="42.53471891736986" lon="11.940012711960263"><ele>308.0</ele><time>2026-04-04T13:21:48.983Z</time></trkpt><trkpt lat="42.53471296981136" lon="11.939920522622964"><ele>308.1666666666667</ele><time>2026-04-04T13:21:50.983Z</time></trkpt><trkpt lat="42.53472767819751" lon="11.939836353749138"><ele>308.33333333333337</ele><time>2026-04-04T13:21:52.983Z</time></trkpt><trkpt lat="42.53473394174319" lon="11.939748151004638"><ele>308.5</ele><time>2026-04-04T13:21:54.983Z</time></trkpt><trkpt lat="42.53473052990265" lon="11.939657968979038"><ele>308.6666666666667</ele><time>2026-04-04T13:21:56.983Z</time></trkpt><trkpt lat="42.534736238283045" lon="11.939529880001043"><ele>308.8333333333333</ele><time>2026-04-04T13:21:59.983Z</time></trkpt><trkpt lat="42.53475320138732" lon="11.939400665603314"><ele>309.0</ele><time>2026-04-04T13:22:02.982Z</time></trkpt><trkpt lat="42.53475788127184" lon="11.939297206923264"><ele>308.8571428571429</ele><time>2026-04-04T13:22:04.982Z</time></trkpt><trkpt lat="42.534771702972726" lon="11.939211336272619"><ele>308.7142857142857</ele><time>2026-04-04T13:22:06.982Z</time></trkpt><trkpt lat="42.5347747946152" lon="11.93908801854816"><ele>308.57142857142856</ele><time>2026-04-04T13:22:09.985Z</time></trkpt><trkpt lat="42.53478165457253" lon="11.939001292441034"><ele>308.42857142857144</ele><time>2026-04-04T13:22:11.984Z</time></trkpt><trkpt lat="42.5347862894096" lon="11.938903410147288"><ele>308.2857142857143</ele><time>2026-04-04T13:22:13.985Z</time></trkpt><trkpt lat="42.534803122222115" lon="11.938814268028237"><ele>308.14285714285717</ele><time>2026-04-04T13:22:15.985Z</time></trkpt><trkpt lat="42.534802031608" lon="11.938728285677923"><ele>308.0</ele><time>2026-04-04T13:22:17.985Z</time></trkpt><trkpt lat="42.53480970008762" lon="11.938628334679937"><ele>308.0</ele><time>2026-04-04T13:22:19.985Z</time></trkpt><trkpt lat="42.53480379694191" lon="11.938531327074411"><ele>308.0</ele><time>2026-04-04T13:22:21.985Z</time></trkpt><trkpt lat="42.534806705612596" lon="11.93844125187378"><ele>308.0</ele><time>2026-04-04T13:22:23.985Z</time></trkpt><trkpt lat="42.5348008201296" lon="11.93835605044441"><ele>308.0</ele><time>2026-04-04T13:22:25.985Z</time></trkpt><trkpt lat="42.53479791118501" lon="11.938250586227388"><ele>308.0</ele><time>2026-04-04T13:22:28.985Z</time></trkpt><trkpt lat="42.534786448771726" lon="11.938135919937794"><ele>308.0</ele><time>2026-04-04T13:22:32.985Z</time></trkpt><trkpt lat="42.534777230198316" lon="11.93804392418896"><ele>308.0</ele><time>2026-04-04T13:22:35.985Z</time></trkpt><trkpt lat="42.534778122297766" lon="11.937956292059022"><ele>308.57142857142856</ele><time>2026-04-04T13:22:38.985Z</time></trkpt><trkpt lat="42.534771029398186" lon="11.937858297877563"><ele>309.1428571428571</ele><time>2026-04-04T13:22:42.984Z</time></trkpt><trkpt lat="42.53477021006326" lon="11.937750530054444"><ele>309.7142857142857</ele><time>2026-04-04T13:22:46.984Z</time></trkpt><trkpt lat="42.53476278099751" lon="11.93764606691797"><ele>310.2857142857143</ele><time>2026-04-04T13:22:50.984Z</time></trkpt><trkpt lat="42.53475401043187" lon="11.937553487373371"><ele>310.85714285714283</ele><time>2026-04-04T13:22:54.984Z</time></trkpt><trkpt lat="42.53474685736159" lon="11.937458862061517"><ele>311.42857142857144</ele><time>2026-04-04T13:22:58.984Z</time></trkpt><trkpt lat="42.53475143952404" lon="11.937354989193159"><ele>312.0</ele><time>2026-04-04T13:23:03.984Z</time></trkpt><trkpt lat="42.5347356050977" lon="11.937262338730635"><ele>312.42857142857144</ele><time>2026-04-04T13:23:07.984Z</time></trkpt><trkpt lat="42.53469763507358" lon="11.937154045339623"><ele>312.85714285714283</ele><time>2026-04-04T13:23:12.984Z</time></trkpt><trkpt lat="42.53466524818519" lon="11.93707997676183"><ele>313.2857142857143</ele><time>2026-04-04T13:23:16.984Z</time></trkpt><trkpt lat="42.53466214840342" lon="11.936981618725744"><ele>313.7142857142857</ele><time>2026-04-04T13:23:19.984Z</time></trkpt><trkpt lat="42.53467031804706" lon="11.936894653670404"><ele>314.1428571428571</ele><time>2026-04-04T13:23:23.983Z</time></trkpt><trkpt lat="42.53465616564529" lon="11.936802761607318"><ele>314.57142857142856</ele><time>2026-04-04T13:23:27.983Z</time></trkpt><trkpt lat="42.53465288454954" lon="11.936703508769527"><ele>315.0</ele><time>2026-04-04T13:23:31.983Z</time></trkpt><trkpt lat="42.534639657870855" lon="11.93660756155187"><ele>315.0</ele><time>2026-04-04T13:23:34.983Z</time></trkpt><trkpt lat="42.53465491215473" lon="11.936481145686408"><ele>315.0</ele><time>2026-04-04T13:23:37.983Z</time></trkpt><trkpt lat="42.534671409550896" lon="11.936332977822511"><ele>315.0</ele><time>2026-04-04T13:23:39.983Z</time></trkpt><trkpt lat="42.53468764437871" lon="11.936180072180301"><ele>315.0</ele><time>2026-04-04T13:23:41.983Z</time></trkpt><trkpt lat="42.53470375504556" lon="11.936028857661062"><ele>315.0</ele><time>2026-04-04T13:23:43.983Z</time></trkpt><trkpt lat="42.5347064796904" lon="11.935939010517655"><ele>314.57142857142856</ele><time>2026-04-04T13:23:44.983Z</time></trkpt><trkpt lat="42.53469829990053" lon="11.935846578787233"><ele>314.1428571428571</ele><time>2026-04-04T13:23:45.983Z</time></trkpt><trkpt lat="42.53468657807994" lon="11.935759919327324"><ele>313.7142857142857</ele><time>2026-04-04T13:23:46.983Z</time></trkpt><trkpt lat="42.534673849029794" lon="11.935665483763879"><ele>313.2857142857143</ele><time>2026-04-04T13:23:47.983Z</time></trkpt><trkpt lat="42.53466312889717" lon="11.935563662670628"><ele>312.85714285714283</ele><time>2026-04-04T13:23:48.983Z</time></trkpt><trkpt lat="42.534658838740455" lon="11.935462268037394"><ele>312.42857142857144</ele><time>2026-04-04T13:23:49.983Z</time></trkpt><trkpt lat="42.53465201671244" lon="11.935360152448244"><ele>312.0</ele><time>2026-04-04T13:23:50.983Z</time></trkpt><trkpt lat="42.53464466406664" lon="11.935264866454327"><ele>312.0</ele><time>2026-04-04T13:23:51.983Z</time></trkpt><trkpt lat="42.53462738701674" lon="11.935155857079767"><ele>312.0</ele><time>2026-04-04T13:23:52.983Z</time></trkpt><trkpt lat="42.534601230968775" lon="11.93504926730198"><ele>312.0</ele><time>2026-04-04T13:23:53.983Z</time></trkpt><trkpt lat="42.534581421775535" lon="11.934935709949592"><ele>312.0</ele><time>2026-04-04T13:23:54.983Z</time></trkpt><trkpt lat="42.53455822041407" lon="11.934819601251984"><ele>312.0</ele><time>2026-04-04T13:23:55.983Z</time></trkpt><trkpt lat="42.53452831690645" lon="11.934706257132051"><ele>312.0</ele><time>2026-04-04T13:23:56.983Z</time></trkpt><trkpt lat="42.53449898812658" lon="11.934591255491403"><ele>311.6666666666667</ele><time>2026-04-04T13:23:57.983Z</time></trkpt><trkpt lat="42.5344696078866" lon="11.934485221040159"><ele>311.3333333333333</ele><time>2026-04-04T13:23:58.983Z</time></trkpt><trkpt lat="42.53443544362868" lon="11.93437209206717"><ele>311.0</ele><time>2026-04-04T13:23:59.983Z</time></trkpt><trkpt lat="42.53439869843521" lon="11.9342665976108"><ele>310.66666666666663</ele><time>2026-04-04T13:24:00.982Z</time></trkpt><trkpt lat="42.5343637708129" lon="11.934167835887216"><ele>310.3333333333333</ele><time>2026-04-04T13:24:01.982Z</time></trkpt><trkpt lat="42.534321352514354" lon="11.93406133496674"><ele>310.0</ele><time>2026-04-04T13:24:02.982Z</time></trkpt><trkpt lat="42.53427758192271" lon="11.933960346746264"><ele>310.0</ele><time>2026-04-04T13:24:03.982Z</time></trkpt><trkpt lat="42.534233702307" lon="11.93386002634379"><ele>310.0</ele><time>2026-04-04T13:24:04.982Z</time></trkpt><trkpt lat="42.534192306843174" lon="11.93376797917636"><ele>310.0</ele><time>2026-04-04T13:24:05.982Z</time></trkpt><trkpt lat="42.53414762270181" lon="11.933674972363312"><ele>310.0</ele><time>2026-04-04T13:24:06.982Z</time></trkpt><trkpt lat="42.534091947377654" lon="11.933596487447863"><ele>310.0</ele><time>2026-04-04T13:24:07.982Z</time></trkpt><trkpt lat="42.534025084319836" lon="11.933538072864149"><ele>310.0</ele><time>2026-04-04T13:24:08.982Z</time></trkpt><trkpt lat="42.53394441012272" lon="11.933488403708497"><ele>310.0</ele><time>2026-04-04T13:24:09.982Z</time></trkpt><trkpt lat="42.53387461391967" lon="11.933441493611795"><ele>310.0</ele><time>2026-04-04T13:24:10.982Z</time></trkpt><trkpt lat="42.53380772790951" lon="11.933395719691784"><ele>310.0</ele><time>2026-04-04T13:24:11.982Z</time></trkpt><trkpt lat="42.53374645461479" lon="11.933345111705039"><ele>310.0</ele><time>2026-04-04T13:24:12.982Z</time></trkpt><trkpt lat="42.53368705268021" lon="11.933299615593164"><ele>310.0</ele><time>2026-04-04T13:24:13.982Z</time></trkpt><trkpt lat="42.53363382599039" lon="11.93324440866241"><ele>310.0</ele><time>2026-04-04T13:24:14.984Z</time></trkpt><trkpt lat="42.533575910946695" lon="11.93318953362561"><ele>310.0</ele><time>2026-04-04T13:24:15.984Z</time></trkpt><trkpt lat="42.5335257017578" lon="11.933134998969589"><ele>309.8333333333333</ele><time>2026-04-04T13:24:16.984Z</time></trkpt><trkpt lat="42.533483832432246" lon="11.933062906397446"><ele>309.66666666666663</ele><time>2026-04-04T13:24:17.985Z</time></trkpt><trkpt lat="42.53346079717963" lon="11.93298218406485"><ele>309.5</ele><time>2026-04-04T13:24:18.985Z</time></trkpt><trkpt lat="42.533438172118345" lon="11.932898540889274"><ele>309.3333333333333</ele><time>2026-04-04T13:24:19.985Z</time></trkpt><trkpt lat="42.53339536473214" lon="11.932747226272175"><ele>309.1666666666667</ele><time>2026-04-04T13:24:21.984Z</time></trkpt><trkpt lat="42.533390580544726" lon="11.932659968210341"><ele>309.0</ele><time>2026-04-04T13:24:22.984Z</time></trkpt><trkpt lat="42.53338034632449" lon="11.932512887112908"><ele>309.0</ele><time>2026-04-04T13:24:24.984Z</time></trkpt><trkpt lat="42.533364160081994" lon="11.932382792697206"><ele>309.0</ele><time>2026-04-04T13:24:26.985Z</time></trkpt><trkpt lat="42.53336113984876" lon="11.932270602784584"><ele>309.0</ele><time>2026-04-04T13:24:28.984Z</time></trkpt><trkpt lat="42.533343877207585" lon="11.932156233315071"><ele>309.0</ele><time>2026-04-04T13:24:30.984Z</time></trkpt><trkpt lat="42.53335685071858" lon="11.932048302953666"><ele>309.0</ele><time>2026-04-04T13:24:32.984Z</time></trkpt><trkpt lat="42.53334773750324" lon="11.931957033650432"><ele>309.0</ele><time>2026-04-04T13:24:34.984Z</time></trkpt><trkpt lat="42.53332864974398" lon="11.931847352716254"><ele>309.0</ele><time>2026-04-04T13:24:36.984Z</time></trkpt><trkpt lat="42.533301872318276" lon="11.93175451431475"><ele>309.0</ele><time>2026-04-04T13:24:38.984Z</time></trkpt><trkpt lat="42.53327063255565" lon="11.931657552803154"><ele>309.0</ele><time>2026-04-04T13:24:40.984Z</time></trkpt><trkpt lat="42.53323238812372" lon="11.931580893600447"><ele>309.0</ele><time>2026-04-04T13:24:42.984Z</time></trkpt><trkpt lat="42.53317143619893" lon="11.931505183201152"><ele>309.0</ele><time>2026-04-04T13:24:44.984Z</time></trkpt><trkpt lat="42.533104001406905" lon="11.931439039355864"><ele>309.0</ele><time>2026-04-04T13:24:46.984Z</time></trkpt><trkpt lat="42.53305546362558" lon="11.931361169058382"><ele>309.0</ele><time>2026-04-04T13:24:48.984Z</time></trkpt><trkpt lat="42.5330127243059" lon="11.931285465198329"><ele>309.0</ele><time>2026-04-04T13:24:50.984Z</time></trkpt><trkpt lat="42.53295468448153" lon="11.931205009544499"><ele>309.0</ele><time>2026-04-04T13:24:53.984Z</time></trkpt><trkpt lat="42.53289427478893" lon="11.931113986702838"><ele>309.0</ele><time>2026-04-04T13:24:56.984Z</time></trkpt><trkpt lat="42.53282416587675" lon="11.93102757496276"><ele>309.0</ele><time>2026-04-04T13:24:59.983Z</time></trkpt><trkpt lat="42.53277087483916" lon="11.930941797606973"><ele>309.0</ele><time>2026-04-04T13:25:02.983Z</time></trkpt><trkpt lat="42.532745524662424" lon="11.930849880575673"><ele>309.1666666666667</ele><time>2026-04-04T13:25:06.983Z</time></trkpt><trkpt lat="42.53278692690727" lon="11.930733168398085"><ele>309.3333333333333</ele><time>2026-04-04T13:25:09.983Z</time></trkpt><trkpt lat="42.53284237231977" lon="11.930628236905541"><ele>309.5</ele><time>2026-04-04T13:25:12.983Z</time></trkpt><trkpt lat="42.53287895062052" lon="11.93055285463483"><ele>309.66666666666663</ele><time>2026-04-04T13:25:14.983Z</time></trkpt><trkpt lat="42.532912044473896" lon="11.930475332281313"><ele>309.8333333333333</ele><time>2026-04-04T13:25:16.983Z</time></trkpt><trkpt lat="42.53296003249967" lon="11.930373417601887"><ele>310.0</ele><time>2026-04-04T13:25:19.983Z</time></trkpt><trkpt lat="42.53302198242835" lon="11.930355166297153"><ele>309.5</ele><time>2026-04-04T13:25:21.983Z</time></trkpt><trkpt lat="42.53309342035032" lon="11.930446770052628"><ele>309.0</ele><time>2026-04-04T13:25:23.983Z</time></trkpt><trkpt lat="42.53315842507264" lon="11.93053078283991"><ele>308.5</ele><time>2026-04-04T13:25:25.983Z</time></trkpt><trkpt lat="42.53323128520272" lon="11.930597448998993"><ele>308.0</ele><time>2026-04-04T13:25:27.983Z</time></trkpt><trkpt lat="42.533295033491214" lon="11.93065932944666"><ele>307.5</ele><time>2026-04-04T13:25:29.983Z</time></trkpt><trkpt lat="42.53336169220641" lon="11.930728401324469"><ele>307.0</ele><time>2026-04-04T13:25:31.983Z</time></trkpt><trkpt lat="42.533428623439605" lon="11.930793208827788"><ele>306.99999999999994</ele><time>2026-04-04T13:25:33.983Z</time></trkpt><trkpt lat="42.5334931163786" lon="11.930841261029393"><ele>307.0</ele><time>2026-04-04T13:25:35.983Z</time></trkpt><trkpt lat="42.53354626914424" lon="11.930917961073735"><ele>307.0</ele><time>2026-04-04T13:25:37.982Z</time></trkpt><trkpt lat="42.53360285692286" lon="11.930977754582031"><ele>307.0</ele><time>2026-04-04T13:25:39.982Z</time></trkpt><trkpt lat="42.53366456385649" lon="11.93102093186846"><ele>307.0</ele><time>2026-04-04T13:25:41.982Z</time></trkpt><trkpt lat="42.53372301594246" lon="11.93106273231861"><ele>306.99999999999994</ele><time>2026-04-04T13:25:43.982Z</time></trkpt><trkpt lat="42.53380711056333" lon="11.931086702665786"><ele>307.0</ele><time>2026-04-04T13:25:46.982Z</time></trkpt><trkpt lat="42.5338906908003" lon="11.931108669811476"><ele>307.0</ele><time>2026-04-04T13:25:49.982Z</time></trkpt><trkpt lat="42.53396052981134" lon="11.931072424238485"><ele>307.0</ele><time>2026-04-04T13:25:52.982Z</time></trkpt><trkpt lat="42.53401287764802" lon="11.931008071370588"><ele>307.0</ele><time>2026-04-04T13:25:55.982Z</time></trkpt><trkpt lat="42.53408702092457" lon="11.930965763447883"><ele>307.0</ele><time>2026-04-04T13:25:59.982Z</time></trkpt><trkpt lat="42.534171286495784" lon="11.9309391945385"><ele>307.0</ele><time>2026-04-04T13:26:03.982Z</time></trkpt><trkpt lat="42.53424341032243" lon="11.930912007672868"><ele>307.0</ele><time>2026-04-04T13:26:07.982Z</time></trkpt><trkpt lat="42.53430731929815" lon="11.930909187316628"><ele>307.0</ele><time>2026-04-04T13:26:10.982Z</time></trkpt><trkpt lat="42.53438754246952" lon="11.930916091908388"><ele>307.0</ele><time>2026-04-04T13:26:14.981Z</time></trkpt><trkpt lat="42.534428244324914" lon="11.930815260110748"><ele>307.0</ele><time>2026-04-04T13:26:18.981Z</time></trkpt><trkpt lat="42.534460642255794" lon="11.930740370563667"><ele>307.0</ele><time>2026-04-04T13:26:22.984Z</time></trkpt><trkpt lat="42.53450481813455" lon="11.930643856399152"><ele>307.0</ele><time>2026-04-04T13:26:27.984Z</time></trkpt><trkpt lat="42.53456795913252" lon="11.930617945946208"><ele>307.0</ele><time>2026-04-04T13:26:30.984Z</time></trkpt><trkpt lat="42.53462584126557" lon="11.930559431805904"><ele>306.85714285714283</ele><time>2026-04-04T13:26:33.984Z</time></trkpt><trkpt lat="42.53464874080972" lon="11.930472838796133"><ele>306.7142857142857</ele><time>2026-04-04T13:26:36.984Z</time></trkpt><trkpt lat="42.534671642029764" lon="11.930386161972482"><ele>306.57142857142856</ele><time>2026-04-04T13:26:39.984Z</time></trkpt><trkpt lat="42.53468428203898" lon="11.930297037371501"><ele>306.42857142857144</ele><time>2026-04-04T13:26:42.984Z</time></trkpt><trkpt lat="42.53469671883448" lon="11.930193215108014"><ele>306.2857142857143</ele><time>2026-04-04T13:26:45.984Z</time></trkpt><trkpt lat="42.53471185903958" lon="11.930095711491903"><ele>306.1428571428571</ele><time>2026-04-04T13:26:48.984Z</time></trkpt><trkpt lat="42.53471619460292" lon="11.93000440331575"><ele>306.0</ele><time>2026-04-04T13:26:51.984Z</time></trkpt><trkpt lat="42.53472420982271" lon="11.929912558721092"><ele>305.8333333333333</ele><time>2026-04-04T13:26:55.984Z</time></trkpt><trkpt lat="42.53472972343416" lon="11.92979298409109"><ele>305.6666666666667</ele><time>2026-04-04T13:26:59.984Z</time></trkpt><trkpt lat="42.534734424506155" lon="11.929688228227256"><ele>305.5</ele><time>2026-04-04T13:27:02.984Z</time></trkpt><trkpt lat="42.53473923873846" lon="11.929577895050318"><ele>305.33333333333337</ele><time>2026-04-04T13:27:05.983Z</time></trkpt><trkpt lat="42.5347493872918" lon="11.929462200344211"><ele>305.1666666666667</ele><time>2026-04-04T13:27:08.983Z</time></trkpt><trkpt lat="42.53475868794302" lon="11.929373252602563"><ele>305.0</ele><time>2026-04-04T13:27:10.983Z</time></trkpt><trkpt lat="42.534759557790515" lon="11.92926009939427"><ele>305.1666666666667</ele><time>2026-04-04T13:27:13.983Z</time></trkpt><trkpt lat="42.534766019477544" lon="11.929143014408641"><ele>305.33333333333337</ele><time>2026-04-04T13:27:16.983Z</time></trkpt><trkpt lat="42.53477375188951" lon="11.92904182112785"><ele>305.5</ele><time>2026-04-04T13:27:19.983Z</time></trkpt><trkpt lat="42.53478493569474" lon="11.928929022985859"><ele>305.6666666666667</ele><time>2026-04-04T13:27:23.983Z</time></trkpt><trkpt lat="42.53479553357685" lon="11.928843909942128"><ele>305.8333333333333</ele><time>2026-04-04T13:27:26.983Z</time></trkpt><trkpt lat="42.5347966267124" lon="11.928732406190196"><ele>306.0</ele><time>2026-04-04T13:27:30.983Z</time></trkpt><trkpt lat="42.53480847324272" lon="11.928634232463386"><ele>306.0</ele><time>2026-04-04T13:27:34.983Z</time></trkpt><trkpt lat="42.5348064443643" lon="11.928541477837554"><ele>306.0</ele><time>2026-04-04T13:27:39.983Z</time></trkpt><trkpt lat="42.53480117151748" lon="11.92844090133773"><ele>306.0</ele><time>2026-04-04T13:27:44.982Z</time></trkpt><trkpt lat="42.53481994697031" lon="11.928342307536736"><ele>306.0</ele><time>2026-04-04T13:27:48.982Z</time></trkpt><trkpt lat="42.53483674615891" lon="11.928257777528911"><ele>306.0</ele><time>2026-04-04T13:27:52.982Z</time></trkpt><trkpt lat="42.53483490018265" lon="11.928160912490458"><ele>306.0</ele><time>2026-04-04T13:27:56.982Z</time></trkpt><trkpt lat="42.534844082117466" lon="11.928068837671974"><ele>306.0</ele><time>2026-04-04T13:28:00.982Z</time></trkpt><trkpt lat="42.53482892701287" lon="11.927970756701805"><ele>306.1666666666667</ele><time>2026-04-04T13:28:04.982Z</time></trkpt><trkpt lat="42.53475829598913" lon="11.927959190553715"><ele>306.3333333333333</ele><time>2026-04-04T13:28:07.982Z</time></trkpt><trkpt lat="42.534680187536296" lon="11.927962759121588"><ele>306.5</ele><time>2026-04-04T13:28:12.982Z</time></trkpt><trkpt lat="42.53461624286238" lon="11.927896760232821"><ele>306.66666666666663</ele><time>2026-04-04T13:28:17.982Z</time></trkpt><trkpt lat="42.534642759013394" lon="11.927791773758326"><ele>306.8333333333333</ele><time>2026-04-04T13:28:20.981Z</time></trkpt><trkpt lat="42.534687553073866" lon="11.927691806879597"><ele>307.0</ele><time>2026-04-04T13:28:23.981Z</time></trkpt><trkpt lat="42.534707973541" lon="11.927594622216633"><ele>307.0</ele><time>2026-04-04T13:28:26.983Z</time></trkpt><trkpt lat="42.53472144387138" lon="11.927493271982378"><ele>307.0</ele><time>2026-04-04T13:28:29.983Z</time></trkpt><trkpt lat="42.53474568436381" lon="11.927382612790213"><ele>307.0</ele><time>2026-04-04T13:28:32.983Z</time></trkpt><trkpt lat="42.534770100846465" lon="11.927294143746957"><ele>307.0</ele><time>2026-04-04T13:28:35.983Z</time></trkpt><trkpt lat="42.534799209622314" lon="11.927191517544141"><ele>307.0</ele><time>2026-04-04T13:28:39.984Z</time></trkpt><trkpt lat="42.534820396899974" lon="11.92709826094852"><ele>307.0</ele><time>2026-04-04T13:28:42.983Z</time></trkpt><trkpt lat="42.53485198394373" lon="11.927009650375904"><ele>307.0</ele><time>2026-04-04T13:28:46.983Z</time></trkpt><trkpt lat="42.53490097000125" lon="11.926933571540378"><ele>307.0</ele><time>2026-04-04T13:28:50.983Z</time></trkpt><trkpt lat="42.53496801778484" lon="11.92684846144205"><ele>307.0</ele><time>2026-04-04T13:28:54.983Z</time></trkpt><trkpt lat="42.535013263100794" lon="11.926745716519546"><ele>307.0</ele><time>2026-04-04T13:28:57.983Z</time></trkpt><trkpt lat="42.53504798167088" lon="11.926673811327337"><ele>307.0</ele><time>2026-04-04T13:28:59.983Z</time></trkpt><trkpt lat="42.53509238171065" lon="11.9265728990515"><ele>307.0</ele><time>2026-04-04T13:29:02.983Z</time></trkpt><trkpt lat="42.53514838174802" lon="11.926483162469667"><ele>307.3333333333333</ele><time>2026-04-04T13:29:05.983Z</time></trkpt><trkpt lat="42.53518815949691" lon="11.926385921882817"><ele>307.66666666666663</ele><time>2026-04-04T13:29:08.983Z</time></trkpt><trkpt lat="42.53522866417788" lon="11.926309531469595"><ele>308.0</ele><time>2026-04-04T13:29:13.983Z</time></trkpt><trkpt lat="42.535275935837944" lon="11.9262191040595"><ele>308.3333333333333</ele><time>2026-04-04T13:29:17.983Z</time></trkpt><trkpt lat="42.535318980387466" lon="11.926135894055983"><ele>308.6666666666667</ele><time>2026-04-04T13:29:20.983Z</time></trkpt><trkpt lat="42.535362769747366" lon="11.926038229654369"><ele>309.0</ele><time>2026-04-04T13:29:23.982Z</time></trkpt><trkpt lat="42.53544018037912" lon="11.926031793257025"><ele>309.0</ele><time>2026-04-04T13:29:27.982Z</time></trkpt><trkpt lat="42.535513999091556" lon="11.926106120844306"><ele>309.0</ele><time>2026-04-04T13:29:30.982Z</time></trkpt><trkpt lat="42.53558485008692" lon="11.9261131825364"><ele>309.0</ele><time>2026-04-04T13:29:33.982Z</time></trkpt><trkpt lat="42.5356516780255" lon="11.926017048069092"><ele>309.0</ele><time>2026-04-04T13:29:36.982Z</time></trkpt><trkpt lat="42.53569267382236" lon="11.92594348424386"><ele>309.0</ele><time>2026-04-04T13:29:38.982Z</time></trkpt><trkpt lat="42.535730826395614" lon="11.925837161455384"><ele>309.0</ele><time>2026-04-04T13:29:41.982Z</time></trkpt><trkpt lat="42.535772747365506" lon="11.925737978374393"><ele>309.0</ele><time>2026-04-04T13:29:44.982Z</time></trkpt><trkpt lat="42.53583108685666" lon="11.925661408093966"><ele>309.0</ele><time>2026-04-04T13:29:47.982Z</time></trkpt><trkpt lat="42.5358628856367" lon="11.925550898177926"><ele>309.0</ele><time>2026-04-04T13:29:50.982Z</time></trkpt><trkpt lat="42.535900738692085" lon="11.92547247925593"><ele>309.0</ele><time>2026-04-04T13:29:53.982Z</time></trkpt><trkpt lat="42.535970957342116" lon="11.925398580692523"><ele>309.0</ele><time>2026-04-04T13:29:58.982Z</time></trkpt><trkpt lat="42.536019404613384" lon="11.925339944887765"><ele>309.0</ele><time>2026-04-04T13:30:04.981Z</time></trkpt><trkpt lat="42.53605478596042" lon="11.925261513651243"><ele>309.0</ele><time>2026-04-04T13:30:10.981Z</time></trkpt><trkpt lat="42.53612275793772" lon="11.925184947132307"><ele>309.0</ele><time>2026-04-04T13:30:14.981Z</time></trkpt><trkpt lat="42.53620847731917" lon="11.92520227066291"><ele>309.0</ele><time>2026-04-04T13:30:17.981Z</time></trkpt><trkpt lat="42.53627290370955" lon="11.925221669965282"><ele>309.0</ele><time>2026-04-04T13:30:20.981Z</time></trkpt><trkpt lat="42.53634501644004" lon="11.925273382505985"><ele>309.0</ele><time>2026-04-04T13:30:23.981Z</time></trkpt><trkpt lat="42.536388814798144" lon="11.92519150422459"><ele>309.0</ele><time>2026-04-04T13:30:26.981Z</time></trkpt><trkpt lat="42.536402932877216" lon="11.92507138579549"><ele>308.5</ele><time>2026-04-04T13:30:29.981Z</time></trkpt><trkpt lat="42.536418731588455" lon="11.92496365311127"><ele>308.0</ele><time>2026-04-04T13:30:32.983Z</time></trkpt><trkpt lat="42.536438109813105" lon="11.924872868016534"><ele>307.5</ele><time>2026-04-04T13:30:35.983Z</time></trkpt><trkpt lat="42.536469270727984" lon="11.924775079162771"><ele>307.0</ele><time>2026-04-04T13:30:38.982Z</time></trkpt><trkpt lat="42.53648366889042" lon="11.92467102176035"><ele>306.5</ele><time>2026-04-04T13:30:41.983Z</time></trkpt><trkpt lat="42.53649041797804" lon="11.924580729747825"><ele>306.0</ele><time>2026-04-04T13:30:43.983Z</time></trkpt><trkpt lat="42.53650595796323" lon="11.9244536299773"><ele>306.0</ele><time>2026-04-04T13:30:46.983Z</time></trkpt><trkpt lat="42.53652412352594" lon="11.924362583061036"><ele>306.0</ele><time>2026-04-04T13:30:48.983Z</time></trkpt><trkpt lat="42.536537654526676" lon="11.924265692984125"><ele>306.0</ele><time>2026-04-04T13:30:50.983Z</time></trkpt><trkpt lat="42.53654233563421" lon="11.924176280707083"><ele>306.0</ele><time>2026-04-04T13:30:52.983Z</time></trkpt><trkpt lat="42.53656081828134" lon="11.924078259843183"><ele>306.0</ele><time>2026-04-04T13:30:54.983Z</time></trkpt><trkpt lat="42.536553927127" lon="11.923983632487698"><ele>306.0</ele><time>2026-04-04T13:30:57.982Z</time></trkpt><trkpt lat="42.536519874736996" lon="11.923901912224068"><ele>306.0</ele><time>2026-04-04T13:31:00.982Z</time></trkpt><trkpt lat="42.53653546737188" lon="11.923799830275538"><ele>306.3333333333333</ele><time>2026-04-04T13:31:03.982Z</time></trkpt><trkpt lat="42.53656074522543" lon="11.923688642392866"><ele>306.6666666666667</ele><time>2026-04-04T13:31:06.982Z</time></trkpt><trkpt lat="42.536583550857046" lon="11.923605138743923"><ele>307.0</ele><time>2026-04-04T13:31:08.982Z</time></trkpt><trkpt lat="42.5366085096163" lon="11.923499278593848"><ele>307.33333333333337</ele><time>2026-04-04T13:31:11.982Z</time></trkpt><trkpt lat="42.53661720045034" lon="11.923388290466038"><ele>307.6666666666667</ele><time>2026-04-04T13:31:14.982Z</time></trkpt><trkpt lat="42.536634249584814" lon="11.92327394120898"><ele>308.0</ele><time>2026-04-04T13:31:17.982Z</time></trkpt><trkpt lat="42.5366474050741" lon="11.923151247617051"><ele>308.0</ele><time>2026-04-04T13:31:20.982Z</time></trkpt><trkpt lat="42.53665823343771" lon="11.923045255930802"><ele>308.0</ele><time>2026-04-04T13:31:23.982Z</time></trkpt><trkpt lat="42.53668610643809" lon="11.922914927526456"><ele>308.0</ele><time>2026-04-04T13:31:26.982Z</time></trkpt><trkpt lat="42.536697841896135" lon="11.92280304856415"><ele>308.0</ele><time>2026-04-04T13:31:29.982Z</time></trkpt><trkpt lat="42.53670282961021" lon="11.922698913191518"><ele>308.0</ele><time>2026-04-04T13:31:32.982Z</time></trkpt><trkpt lat="42.53670013518876" lon="11.922582199922253"><ele>308.0</ele><time>2026-04-04T13:31:35.981Z</time></trkpt><trkpt lat="42.536712789684756" lon="11.922477236010637"><ele>308.0</ele><time>2026-04-04T13:31:38.981Z</time></trkpt><trkpt lat="42.53673133128199" lon="11.92236831797444"><ele>308.0</ele><time>2026-04-04T13:31:41.981Z</time></trkpt><trkpt lat="42.53676110231824" lon="11.922259816063255"><ele>308.0</ele><time>2026-04-04T13:31:44.981Z</time></trkpt><trkpt lat="42.53678148404561" lon="11.922170691288986"><ele>308.0</ele><time>2026-04-04T13:31:47.981Z</time></trkpt><trkpt lat="42.53679027782469" lon="11.922070633692028"><ele>308.0</ele><time>2026-04-04T13:31:50.981Z</time></trkpt><trkpt lat="42.53681405779005" lon="11.921977997395016"><ele>308.0</ele><time>2026-04-04T13:31:54.981Z</time></trkpt><trkpt lat="42.53683863169726" lon="11.921888200008896"><ele>308.0</ele><time>2026-04-04T13:31:59.981Z</time></trkpt><trkpt lat="42.53686061809337" lon="11.92180711636625"><ele>308.0</ele><time>2026-04-04T13:32:02.981Z</time></trkpt><trkpt lat="42.536898288416296" lon="11.921713532793373"><ele>308.0</ele><time>2026-04-04T13:32:05.981Z</time></trkpt><trkpt lat="42.53691907940162" lon="11.921632283560298"><ele>308.0</ele><time>2026-04-04T13:32:07.981Z</time></trkpt><trkpt lat="42.53695246330433" lon="11.921519796147075"><ele>308.0</ele><time>2026-04-04T13:32:11.981Z</time></trkpt><trkpt lat="42.536987014999966" lon="11.921424385699563"><ele>308.0</ele><time>2026-04-04T13:32:14.98Z</time></trkpt><trkpt lat="42.53702165419367" lon="11.921342901640003"><ele>308.0</ele><time>2026-04-04T13:32:18.98Z</time></trkpt><trkpt lat="42.537052060248826" lon="11.921268054482283"><ele>307.8</ele><time>2026-04-04T13:32:24.98Z</time></trkpt><trkpt lat="42.537110610827774" lon="11.921030442465401"><ele>307.6</ele><time>2026-04-04T13:32:36.98Z</time></trkpt><trkpt lat="42.53716693731506" lon="11.92092906942136"><ele>307.4</ele><time>2026-04-04T13:32:39.982Z</time></trkpt><trkpt lat="42.5372187312535" lon="11.920850200122453"><ele>307.2</ele><time>2026-04-04T13:32:41.982Z</time></trkpt><trkpt lat="42.53725087401821" lon="11.920763012894414"><ele>307.0</ele><time>2026-04-04T13:32:43.982Z</time></trkpt><trkpt lat="42.53728815554657" lon="11.920678171923297"><ele>307.0</ele><time>2026-04-04T13:32:45.982Z</time></trkpt><trkpt lat="42.537329297293454" lon="11.920565488963272"><ele>307.0</ele><time>2026-04-04T13:32:48.982Z</time></trkpt><trkpt lat="42.53737182271675" lon="11.920478624897989"><ele>307.0</ele><time>2026-04-04T13:32:50.982Z</time></trkpt><trkpt lat="42.53741183098841" lon="11.92039871738382"><ele>307.0</ele><time>2026-04-04T13:32:52.982Z</time></trkpt><trkpt lat="42.537468680192816" lon="11.92032879507396"><ele>307.0</ele><time>2026-04-04T13:32:54.982Z</time></trkpt><trkpt lat="42.537495926474946" lon="11.920249101620294"><ele>307.0</ele><time>2026-04-04T13:32:56.982Z</time></trkpt><trkpt lat="42.53750938567161" lon="11.920142988789669"><ele>306.99999999999994</ele><time>2026-04-04T13:32:59.982Z</time></trkpt><trkpt lat="42.53746876533468" lon="11.92007557334171"><ele>307.0</ele><time>2026-04-04T13:33:02.981Z</time></trkpt><trkpt lat="42.537480421296095" lon="11.91997718304482"><ele>307.0</ele><time>2026-04-04T13:33:05.981Z</time></trkpt><trkpt lat="42.537522007385185" lon="11.919912704613063"><ele>307.0</ele><time>2026-04-04T13:33:08.981Z</time></trkpt><trkpt lat="42.53756431302928" lon="11.919821235522775"><ele>307.0</ele><time>2026-04-04T13:33:12.981Z</time></trkpt><trkpt lat="42.53761413951294" lon="11.919749942450174"><ele>306.99999999999994</ele><time>2026-04-04T13:33:16.981Z</time></trkpt><trkpt lat="42.53765420208551" lon="11.91966641825624"><ele>307.0</ele><time>2026-04-04T13:33:20.981Z</time></trkpt><trkpt lat="42.537689958314466" lon="11.919589323726244"><ele>307.57142857142856</ele><time>2026-04-04T13:33:24.981Z</time></trkpt><trkpt lat="42.537735722173544" lon="11.919512109371643"><ele>308.1428571428571</ele><time>2026-04-04T13:33:28.981Z</time></trkpt><trkpt lat="42.53777470961923" lon="11.919428201193458"><ele>308.71428571428567</ele><time>2026-04-04T13:33:32.981Z</time></trkpt><trkpt lat="42.5378222908173" lon="11.919351301575414"><ele>309.2857142857143</ele><time>2026-04-04T13:33:36.981Z</time></trkpt><trkpt lat="42.537859122113915" lon="11.919273687233122"><ele>309.8571428571429</ele><time>2026-04-04T13:33:40.98Z</time></trkpt><trkpt lat="42.53791282355673" lon="11.919197508361206"><ele>310.4285714285714</ele><time>2026-04-04T13:33:44.98Z</time></trkpt><trkpt lat="42.53795054243676" lon="11.919116453008224"><ele>311.0</ele><time>2026-04-04T13:33:48.98Z</time></trkpt><trkpt lat="42.53798869704986" lon="11.91904598516595"><ele>312.57142857142856</ele><time>2026-04-04T13:33:51.98Z</time></trkpt><trkpt lat="42.53803443809265" lon="11.9189862334427"><ele>314.14285714285717</ele><time>2026-04-04T13:33:54.98Z</time></trkpt><trkpt lat="42.53809979469277" lon="11.918923793847549"><ele>315.7142857142857</ele><time>2026-04-04T13:33:58.979Z</time></trkpt><trkpt lat="42.53814369152415" lon="11.918854186950659"><ele>317.2857142857143</ele><time>2026-04-04T13:34:01.979Z</time></trkpt><trkpt lat="42.53819503735167" lon="11.918778316447206"><ele>318.8571428571429</ele><time>2026-04-04T13:34:05.979Z</time></trkpt><trkpt lat="42.53824983255825" lon="11.91869495912705"><ele>320.42857142857144</ele><time>2026-04-04T13:34:09.979Z</time></trkpt><trkpt lat="42.53830579770947" lon="11.918618123499408"><ele>322.0</ele><time>2026-04-04T13:34:13.978Z</time></trkpt><trkpt lat="42.53835105264332" lon="11.918558228415918"><ele>322.0</ele><time>2026-04-04T13:34:16.978Z</time></trkpt><trkpt lat="42.538391588639115" lon="11.918468566636976"><ele>322.0</ele><time>2026-04-04T13:34:20.978Z</time></trkpt><trkpt lat="42.53843768622327" lon="11.918376224988059"><ele>322.0</ele><time>2026-04-04T13:34:24.978Z</time></trkpt><trkpt lat="42.538476182001126" lon="11.918303429178698"><ele>322.0</ele><time>2026-04-04T13:34:27.978Z</time></trkpt><trkpt lat="42.5385113043414" lon="11.918211510284225"><ele>322.0</ele><time>2026-04-04T13:34:31.978Z</time></trkpt><trkpt lat="42.5385414247588" lon="11.918118320201959"><ele>322.0</ele><time>2026-04-04T13:34:35.978Z</time></trkpt><trkpt lat="42.53857084490263" lon="11.918033495570292"><ele>322.0</ele><time>2026-04-04T13:34:39.978Z</time></trkpt><trkpt lat="42.53858165374391" lon="11.91794574293"><ele>322.42857142857144</ele><time>2026-04-04T13:34:43.977Z</time></trkpt><trkpt lat="42.538613510749975" lon="11.917855185764939"><ele>322.8571428571429</ele><time>2026-04-04T13:34:48.98Z</time></trkpt><trkpt lat="42.53862301264046" lon="11.917768611674335"><ele>323.2857142857143</ele><time>2026-04-04T13:34:52.981Z</time></trkpt><trkpt lat="42.538638461182266" lon="11.917671609830597"><ele>323.7142857142857</ele><time>2026-04-04T13:34:57.981Z</time></trkpt><trkpt lat="42.5386604737393" lon="11.917589474000875"><ele>324.14285714285717</ele><time>2026-04-04T13:35:01.981Z</time></trkpt><trkpt lat="42.53868820089406" lon="11.917487139343509"><ele>324.57142857142856</ele><time>2026-04-04T13:35:06.98Z</time></trkpt><trkpt lat="42.538708474821284" lon="11.91740037557553"><ele>325.0</ele><time>2026-04-04T13:35:10.98Z</time></trkpt><trkpt lat="42.53872750138977" lon="11.917311528481493"><ele>325.0</ele><time>2026-04-04T13:35:15.98Z</time></trkpt><trkpt lat="42.53874467888181" lon="11.917204642884482"><ele>325.0</ele><time>2026-04-04T13:35:20.98Z</time></trkpt><trkpt lat="42.53876752122703" lon="11.917124440641203"><ele>325.0</ele><time>2026-04-04T13:35:24.98Z</time></trkpt><trkpt lat="42.53879056223124" lon="11.917016234841276"><ele>325.0</ele><time>2026-04-04T13:35:30.98Z</time></trkpt><trkpt lat="42.53881400518517" lon="11.916924388163077"><ele>325.0</ele><time>2026-04-04T13:35:34.98Z</time></trkpt><trkpt lat="42.53883492908978" lon="11.916815809580294"><ele>325.0</ele><time>2026-04-04T13:35:38.98Z</time></trkpt><trkpt lat="42.53887665649632" lon="11.916709245505599"><ele>325.7142857142857</ele><time>2026-04-04T13:35:42.979Z</time></trkpt><trkpt lat="42.538900182269884" lon="11.91660731283878"><ele>326.42857142857144</ele><time>2026-04-04T13:35:46.979Z</time></trkpt><trkpt lat="42.5389221469163" lon="11.916518104012289"><ele>327.14285714285717</ele><time>2026-04-04T13:35:48.979Z</time></trkpt><trkpt lat="42.53894554882161" lon="11.916436216528124"><ele>327.8571428571429</ele><time>2026-04-04T13:35:52.979Z</time></trkpt><trkpt lat="42.53896682356016" lon="11.916349638832253"><ele>328.57142857142856</ele><time>2026-04-04T13:35:55.979Z</time></trkpt><trkpt lat="42.53898334387499" lon="11.916232572074362"><ele>329.28571428571433</ele><time>2026-04-04T13:35:59.979Z</time></trkpt><trkpt lat="42.539008682316386" lon="11.91615007853914"><ele>330.0</ele><time>2026-04-04T13:36:02.979Z</time></trkpt><trkpt lat="42.5390072244586" lon="11.916058163813478"><ele>330.0</ele><time>2026-04-04T13:36:06.979Z</time></trkpt><trkpt lat="42.53901158797407" lon="11.91596831626966"><ele>330.0</ele><time>2026-04-04T13:36:09.979Z</time></trkpt><trkpt lat="42.539037059506526" lon="11.915839817645486"><ele>330.0</ele><time>2026-04-04T13:36:12.979Z</time></trkpt><trkpt lat="42.539050615865456" lon="11.915752855980225"><ele>330.0</ele><time>2026-04-04T13:36:15.979Z</time></trkpt><trkpt lat="42.53911609814756" lon="11.915618300485022"><ele>330.0</ele><time>2026-04-04T13:36:18.978Z</time></trkpt><trkpt lat="42.53914326127122" lon="11.915503572778759"><ele>330.0</ele><time>2026-04-04T13:36:20.978Z</time></trkpt><trkpt lat="42.53917724682404" lon="11.915402794766482"><ele>331.0</ele><time>2026-04-04T13:36:22.978Z</time></trkpt><trkpt lat="42.53920576685675" lon="11.915296739422212"><ele>332.0</ele><time>2026-04-04T13:36:24.978Z</time></trkpt><trkpt lat="42.53919455782956" lon="11.91519484313563"><ele>333.0</ele><time>2026-04-04T13:36:26.978Z</time></trkpt><trkpt lat="42.539206319898426" lon="11.915078466022614"><ele>334.0</ele><time>2026-04-04T13:36:28.978Z</time></trkpt><trkpt lat="42.53921506960293" lon="11.914969583668913"><ele>335.0</ele><time>2026-04-04T13:36:30.978Z</time></trkpt><trkpt lat="42.539212565208594" lon="11.914849651657173"><ele>336.0</ele><time>2026-04-04T13:36:32.978Z</time></trkpt><trkpt lat="42.539187462850336" lon="11.914733333679411"><ele>336.0</ele><time>2026-04-04T13:36:34.978Z</time></trkpt><trkpt lat="42.53917759053881" lon="11.914624738174403"><ele>336.0</ele><time>2026-04-04T13:36:36.978Z</time></trkpt><trkpt lat="42.539164000089116" lon="11.914493323383137"><ele>336.0</ele><time>2026-04-04T13:36:38.978Z</time></trkpt><trkpt lat="42.539152255580056" lon="11.914357501776072"><ele>336.0</ele><time>2026-04-04T13:36:40.978Z</time></trkpt><trkpt lat="42.53915337888465" lon="11.91421795027799"><ele>336.0</ele><time>2026-04-04T13:36:42.978Z</time></trkpt><trkpt lat="42.539146000865145" lon="11.914080126117865"><ele>336.0</ele><time>2026-04-04T13:36:44.978Z</time></trkpt><trkpt lat="42.539136748707506" lon="11.913935406192603"><ele>336.0</ele><time>2026-04-04T13:36:46.978Z</time></trkpt><trkpt lat="42.53912924240028" lon="11.913790753694746"><ele>336.0</ele><time>2026-04-04T13:36:48.978Z</time></trkpt><trkpt lat="42.539118978530276" lon="11.913652490624516"><ele>336.0</ele><time>2026-04-04T13:36:50.98Z</time></trkpt><trkpt lat="42.53910133414275" lon="11.913510807019993"><ele>336.0</ele><time>2026-04-04T13:36:52.98Z</time></trkpt><trkpt lat="42.539088011951165" lon="11.91337842634557"><ele>335.6</ele><time>2026-04-04T13:36:54.98Z</time></trkpt><trkpt lat="42.53907301984934" lon="11.913237446568866"><ele>335.20000000000005</ele><time>2026-04-04T13:36:56.98Z</time></trkpt><trkpt lat="42.53907874645466" lon="11.913112396321472"><ele>334.79999999999995</ele><time>2026-04-04T13:36:58.98Z</time></trkpt><trkpt lat="42.539073937175914" lon="11.912986046229696"><ele>334.4</ele><time>2026-04-04T13:37:00.979Z</time></trkpt><trkpt lat="42.53905749510426" lon="11.912865429084416"><ele>334.0</ele><time>2026-04-04T13:37:02.98Z</time></trkpt><trkpt lat="42.53906184867503" lon="11.912759224512495"><ele>334.0</ele><time>2026-04-04T13:37:04.979Z</time></trkpt><trkpt lat="42.539065907796996" lon="11.912665641539823"><ele>334.0</ele><time>2026-04-04T13:37:06.979Z</time></trkpt><trkpt lat="42.53909141624122" lon="11.912569265466677"><ele>334.0</ele><time>2026-04-04T13:37:08.979Z</time></trkpt><trkpt lat="42.53912097838973" lon="11.91247401022842"><ele>334.0</ele><time>2026-04-04T13:37:10.979Z</time></trkpt><trkpt lat="42.53915360523577" lon="11.912379202681112"><ele>334.0</ele><time>2026-04-04T13:37:12.979Z</time></trkpt><trkpt lat="42.53919231003828" lon="11.912297854763695"><ele>334.0</ele><time>2026-04-04T13:37:14.979Z</time></trkpt><trkpt lat="42.539228218581314" lon="11.912218499838009"><ele>334.0</ele><time>2026-04-04T13:37:16.979Z</time></trkpt><trkpt lat="42.5392720192763" lon="11.912134486688307"><ele>334.5</ele><time>2026-04-04T13:37:18.979Z</time></trkpt><trkpt lat="42.539314790875736" lon="11.912043037158535"><ele>335.0</ele><time>2026-04-04T13:37:20.979Z</time></trkpt><trkpt lat="42.5393577242676" lon="11.911959507429756"><ele>335.5</ele><time>2026-04-04T13:37:22.979Z</time></trkpt><trkpt lat="42.53940036544914" lon="11.911874745715167"><ele>336.0</ele><time>2026-04-04T13:37:24.979Z</time></trkpt><trkpt lat="42.53944293683285" lon="11.911786665749446"><ele>336.5</ele><time>2026-04-04T13:37:26.979Z</time></trkpt><trkpt lat="42.53948488479026" lon="11.911698458051939"><ele>337.0</ele><time>2026-04-04T13:37:28.979Z</time></trkpt><trkpt lat="42.53953031173812" lon="11.911606105118267"><ele>336.3333333333333</ele><time>2026-04-04T13:37:30.979Z</time></trkpt><trkpt lat="42.53957753155249" lon="11.91151918000928"><ele>335.66666666666663</ele><time>2026-04-04T13:37:32.979Z</time></trkpt><trkpt lat="42.539625847675296" lon="11.911426810453277"><ele>335.0</ele><time>2026-04-04T13:37:34.978Z</time></trkpt><trkpt lat="42.53967327583204" lon="11.911331529869503"><ele>334.3333333333333</ele><time>2026-04-04T13:37:36.978Z</time></trkpt><trkpt lat="42.53973062552137" lon="11.911240386939188"><ele>333.6666666666667</ele><time>2026-04-04T13:37:38.978Z</time></trkpt><trkpt lat="42.53978686887547" lon="11.911140140819782"><ele>333.0</ele><time>2026-04-04T13:37:40.978Z</time></trkpt><trkpt lat="42.53984323043977" lon="11.911047286493687"><ele>333.0</ele><time>2026-04-04T13:37:42.978Z</time></trkpt><trkpt lat="42.53990569188789" lon="11.910956171711561"><ele>333.0</ele><time>2026-04-04T13:37:44.978Z</time></trkpt><trkpt lat="42.53996908636062" lon="11.910863743360121"><ele>333.0</ele><time>2026-04-04T13:37:46.978Z</time></trkpt><trkpt lat="42.540038226521894" lon="11.910770654868308"><ele>333.0</ele><time>2026-04-04T13:37:48.978Z</time></trkpt><trkpt lat="42.540111538841714" lon="11.910687286860352"><ele>333.0</ele><time>2026-04-04T13:37:50.978Z</time></trkpt><trkpt lat="42.540186793600576" lon="11.910605090844944"><ele>333.79999999999995</ele><time>2026-04-04T13:37:52.978Z</time></trkpt><trkpt lat="42.54027216993742" lon="11.910521229256108"><ele>334.6</ele><time>2026-04-04T13:37:54.978Z</time></trkpt><trkpt lat="42.5403652403902" lon="11.910441634465045"><ele>335.4</ele><time>2026-04-04T13:37:56.978Z</time></trkpt><trkpt lat="42.54046053415998" lon="11.910365793650438"><ele>336.20000000000005</ele><time>2026-04-04T13:37:58.978Z</time></trkpt><trkpt lat="42.540559982222284" lon="11.910298210547806"><ele>337.0</ele><time>2026-04-04T13:38:00.978Z</time></trkpt><trkpt lat="42.54066639733236" lon="11.910234777724176"><ele>337.0</ele><time>2026-04-04T13:38:02.978Z</time></trkpt><trkpt lat="42.54076905806144" lon="11.910166775939237"><ele>337.0</ele><time>2026-04-04T13:38:04.978Z</time></trkpt><trkpt lat="42.54087682248136" lon="11.910101944860783"><ele>337.0</ele><time>2026-04-04T13:38:06.978Z</time></trkpt><trkpt lat="42.54098244099152" lon="11.910031219644305"><ele>337.0</ele><time>2026-04-04T13:38:08.978Z</time></trkpt><trkpt lat="42.541088839073936" lon="11.909963161753828"><ele>336.8</ele><time>2026-04-04T13:38:10.978Z</time></trkpt><trkpt lat="42.54119618917097" lon="11.909902925198494"><ele>336.6</ele><time>2026-04-04T13:38:12.978Z</time></trkpt><trkpt lat="42.54130569813131" lon="11.909832174468148"><ele>336.40000000000003</ele><time>2026-04-04T13:38:14.977Z</time></trkpt><trkpt lat="42.54136455981831" lon="11.909801042097774"><ele>336.20000000000005</ele><time>2026-04-04T13:38:15.977Z</time></trkpt><trkpt lat="42.54142789239746" lon="11.909775552238644"><ele>336.0</ele><time>2026-04-04T13:38:16.977Z</time></trkpt><trkpt lat="42.541539123776076" lon="11.909719422222661"><ele>335.4</ele><time>2026-04-04T13:38:18.977Z</time></trkpt><trkpt lat="42.54164919568547" lon="11.909642810293253"><ele>334.8</ele><time>2026-04-04T13:38:20.977Z</time></trkpt><trkpt lat="42.54176783026904" lon="11.90958128102228"><ele>334.2</ele><time>2026-04-04T13:38:22.977Z</time></trkpt><trkpt lat="42.541881134011554" lon="11.90952500744882"><ele>333.59999999999997</ele><time>2026-04-04T13:38:24.977Z</time></trkpt><trkpt lat="42.54194038058303" lon="11.909494659378723"><ele>333.0</ele><time>2026-04-04T13:38:25.977Z</time></trkpt><trkpt lat="42.54200124771622" lon="11.909467159187269"><ele>332.59999999999997</ele><time>2026-04-04T13:38:26.977Z</time></trkpt><trkpt lat="42.54206262312051" lon="11.909438402142786"><ele>332.2</ele><time>2026-04-04T13:38:27.977Z</time></trkpt><trkpt lat="42.542177878326235" lon="11.909365266802387"><ele>331.8</ele><time>2026-04-04T13:38:29.977Z</time></trkpt><trkpt lat="42.54229467067747" lon="11.909295426026954"><ele>331.4</ele><time>2026-04-04T13:38:31.977Z</time></trkpt><trkpt lat="42.542351583477384" lon="11.909255296770366"><ele>331.0</ele><time>2026-04-04T13:38:32.977Z</time></trkpt><trkpt lat="42.54241892561345" lon="11.909227185216926"><ele>331.0</ele><time>2026-04-04T13:38:33.977Z</time></trkpt><trkpt lat="42.542483464044516" lon="11.909200150851989"><ele>331.0</ele><time>2026-04-04T13:38:34.977Z</time></trkpt><trkpt lat="42.54254291262715" lon="11.909164812512788"><ele>331.0</ele><time>2026-04-04T13:38:35.977Z</time></trkpt><trkpt lat="42.542605998297844" lon="11.909122014248096"><ele>331.0</ele><time>2026-04-04T13:38:36.977Z</time></trkpt><trkpt lat="42.54266599309127" lon="11.909090773874942"><ele>331.0</ele><time>2026-04-04T13:38:37.977Z</time></trkpt><trkpt lat="42.54272685167364" lon="11.909065656612935"><ele>331.0</ele><time>2026-04-04T13:38:38.977Z</time></trkpt><trkpt lat="42.54279041988506" lon="11.909022813049157"><ele>331.0</ele><time>2026-04-04T13:38:39.977Z</time></trkpt><trkpt lat="42.54285029756086" lon="11.90897977816785"><ele>330.57142857142856</ele><time>2026-04-04T13:38:40.977Z</time></trkpt><trkpt lat="42.54291270251149" lon="11.908943467236652"><ele>330.1428571428571</ele><time>2026-04-04T13:38:41.977Z</time></trkpt><trkpt lat="42.54297383827805" lon="11.908907639961377"><ele>329.71428571428567</ele><time>2026-04-04T13:38:42.977Z</time></trkpt><trkpt lat="42.54303648307217" lon="11.908875402476488"><ele>329.2857142857143</ele><time>2026-04-04T13:38:43.977Z</time></trkpt><trkpt lat="42.54310068409094" lon="11.908842368670252"><ele>328.85714285714283</ele><time>2026-04-04T13:38:44.977Z</time></trkpt><trkpt lat="42.54316957070796" lon="11.90881442728237"><ele>328.4285714285714</ele><time>2026-04-04T13:38:45.977Z</time></trkpt><trkpt lat="42.54323714810759" lon="11.908785196132143"><ele>328.0</ele><time>2026-04-04T13:38:46.977Z</time></trkpt><trkpt lat="42.54330110015478" lon="11.908757031770014"><ele>327.99999999999994</ele><time>2026-04-04T13:38:47.977Z</time></trkpt><trkpt lat="42.54336697768701" lon="11.90872184931984"><ele>328.0</ele><time>2026-04-04T13:38:48.977Z</time></trkpt><trkpt lat="42.5434354942976" lon="11.908694850054673"><ele>328.0</ele><time>2026-04-04T13:38:49.977Z</time></trkpt><trkpt lat="42.54350569957798" lon="11.908674204508268"><ele>328.0</ele><time>2026-04-04T13:38:50.977Z</time></trkpt><trkpt lat="42.543578084591346" lon="11.908641578371268"><ele>328.0</ele><time>2026-04-04T13:38:51.976Z</time></trkpt><trkpt lat="42.543650060802854" lon="11.908621753038702"><ele>327.99999999999994</ele><time>2026-04-04T13:38:52.975Z</time></trkpt><trkpt lat="42.5437238909851" lon="11.908602334826831"><ele>328.0</ele><time>2026-04-04T13:38:53.975Z</time></trkpt><trkpt lat="42.543796507248004" lon="11.908582101638789"><ele>327.85714285714283</ele><time>2026-04-04T13:38:54.975Z</time></trkpt><trkpt lat="42.543868606513236" lon="11.908565253068804"><ele>327.7142857142857</ele><time>2026-04-04T13:38:55.975Z</time></trkpt><trkpt lat="42.54394351892733" lon="11.90854023095242"><ele>327.57142857142856</ele><time>2026-04-04T13:38:56.978Z</time></trkpt><trkpt lat="42.54401652310855" lon="11.908523325284733"><ele>327.42857142857144</ele><time>2026-04-04T13:38:57.978Z</time></trkpt><trkpt lat="42.54408952443622" lon="11.908502403139332"><ele>327.2857142857143</ele><time>2026-04-04T13:38:58.978Z</time></trkpt><trkpt lat="42.54415942337644" lon="11.908483661824416"><ele>327.1428571428571</ele><time>2026-04-04T13:38:59.978Z</time></trkpt><trkpt lat="42.544234890488255" lon="11.90846741737347"><ele>327.0</ele><time>2026-04-04T13:39:00.978Z</time></trkpt><trkpt lat="42.544307653246825" lon="11.90843830715192"><ele>327.0</ele><time>2026-04-04T13:39:01.978Z</time></trkpt><trkpt lat="42.544372837576155" lon="11.908422633658567"><ele>327.0</ele><time>2026-04-04T13:39:02.978Z</time></trkpt><trkpt lat="42.54443715433959" lon="11.908401875724975"><ele>327.0</ele><time>2026-04-04T13:39:03.978Z</time></trkpt><trkpt lat="42.54450726882556" lon="11.908393530817673"><ele>327.0</ele><time>2026-04-04T13:39:04.978Z</time></trkpt><trkpt lat="42.54458109699067" lon="11.908367338815102"><ele>327.0</ele><time>2026-04-04T13:39:05.978Z</time></trkpt><trkpt lat="42.54465873747438" lon="11.908346552167849"><ele>327.0</ele><time>2026-04-04T13:39:06.978Z</time></trkpt><trkpt lat="42.54473369753147" lon="11.908324338236994"><ele>327.0</ele><time>2026-04-04T13:39:07.978Z</time></trkpt><trkpt lat="42.5448085615312" lon="11.908301463215373"><ele>326.8333333333333</ele><time>2026-04-04T13:39:08.978Z</time></trkpt><trkpt lat="42.54487601091343" lon="11.908299373769461"><ele>326.6666666666667</ele><time>2026-04-04T13:39:09.978Z</time></trkpt><trkpt lat="42.544947809792454" lon="11.908274103930784"><ele>326.5</ele><time>2026-04-04T13:39:10.978Z</time></trkpt><trkpt lat="42.54502060280737" lon="11.908247720855487"><ele>326.33333333333337</ele><time>2026-04-04T13:39:11.978Z</time></trkpt><trkpt lat="42.54508856503825" lon="11.908231756061415"><ele>326.1666666666667</ele><time>2026-04-04T13:39:12.978Z</time></trkpt><trkpt lat="42.54521000212132" lon="11.908212382710508"><ele>326.0</ele><time>2026-04-04T13:39:14.978Z</time></trkpt><trkpt lat="42.54528332657462" lon="11.908192627562505"><ele>325.6</ele><time>2026-04-04T13:39:15.978Z</time></trkpt><trkpt lat="42.545405400178176" lon="11.908198937904558"><ele>325.20000000000005</ele><time>2026-04-04T13:39:17.978Z</time></trkpt><trkpt lat="42.54547534500257" lon="11.908206912909193"><ele>324.79999999999995</ele><time>2026-04-04T13:39:18.978Z</time></trkpt><trkpt lat="42.545541124371226" lon="11.908212285881596"><ele>324.4</ele><time>2026-04-04T13:39:19.978Z</time></trkpt><trkpt lat="42.545613059003955" lon="11.908231951063078"><ele>324.0</ele><time>2026-04-04T13:39:20.978Z</time></trkpt><trkpt lat="42.545728648223076" lon="11.908293513290884"><ele>324.0</ele><time>2026-04-04T13:39:22.978Z</time></trkpt><trkpt lat="42.54584821049841" lon="11.908367231372415"><ele>324.0</ele><time>2026-04-04T13:39:24.978Z</time></trkpt><trkpt lat="42.545960308443604" lon="11.908437372562018"><ele>324.0</ele><time>2026-04-04T13:39:26.978Z</time></trkpt><trkpt lat="42.546071580582385" lon="11.908505869464848"><ele>324.0</ele><time>2026-04-04T13:39:28.978Z</time></trkpt><trkpt lat="42.546131885071325" lon="11.908541524248575"><ele>324.0</ele><time>2026-04-04T13:39:29.978Z</time></trkpt><trkpt lat="42.54619039678964" lon="11.908579519856383"><ele>324.2</ele><time>2026-04-04T13:39:30.978Z</time></trkpt><trkpt lat="42.54625272275889" lon="11.908617503800127"><ele>324.4</ele><time>2026-04-04T13:39:31.978Z</time></trkpt><trkpt lat="42.54636881795237" lon="11.90867397337117"><ele>324.6</ele><time>2026-04-04T13:39:33.978Z</time></trkpt><trkpt lat="42.546479270238166" lon="11.908742531380136"><ele>324.8</ele><time>2026-04-04T13:39:35.978Z</time></trkpt><trkpt lat="42.54658113787011" lon="11.90880194714713"><ele>325.0</ele><time>2026-04-04T13:39:37.977Z</time></trkpt><trkpt lat="42.546687846961305" lon="11.908866561803766"><ele>325.0</ele><time>2026-04-04T13:39:39.977Z</time></trkpt><trkpt lat="42.546797593434675" lon="11.908924828877566"><ele>325.0</ele><time>2026-04-04T13:39:41.977Z</time></trkpt><trkpt lat="42.54689289017129" lon="11.90897731166948"><ele>325.0</ele><time>2026-04-04T13:39:43.977Z</time></trkpt><trkpt lat="42.546986730508124" lon="11.909029435566504"><ele>325.0</ele><time>2026-04-04T13:39:45.977Z</time></trkpt><trkpt lat="42.547076816715645" lon="11.909095550109413"><ele>325.0</ele><time>2026-04-04T13:39:47.977Z</time></trkpt><trkpt lat="42.54718377953862" lon="11.909149348599213"><ele>325.4</ele><time>2026-04-04T13:39:49.977Z</time></trkpt><trkpt lat="42.54728570105637" lon="11.909203060130913"><ele>325.8</ele><time>2026-04-04T13:39:51.977Z</time></trkpt><trkpt lat="42.547383275906405" lon="11.909258641824893"><ele>326.20000000000005</ele><time>2026-04-04T13:39:53.977Z</time></trkpt><trkpt lat="42.54747953517314" lon="11.90931496177869"><ele>326.6</ele><time>2026-04-04T13:39:55.977Z</time></trkpt><trkpt lat="42.54757920215804" lon="11.909374510387144"><ele>327.0</ele><time>2026-04-04T13:39:57.977Z</time></trkpt><trkpt lat="42.547676024550505" lon="11.90944264987345"><ele>327.0</ele><time>2026-04-04T13:39:59.977Z</time></trkpt><trkpt lat="42.547767608418454" lon="11.909512127237676"><ele>327.0</ele><time>2026-04-04T13:40:01.977Z</time></trkpt><trkpt lat="42.54785919730262" lon="11.909599934010242"><ele>327.0</ele><time>2026-04-04T13:40:03.977Z</time></trkpt><trkpt lat="42.547926855867" lon="11.909689807184495"><ele>327.0</ele><time>2026-04-04T13:40:05.977Z</time></trkpt><trkpt lat="42.5480072023779" lon="11.909783642469984"><ele>327.0</ele><time>2026-04-04T13:40:07.977Z</time></trkpt><trkpt lat="42.54809312049985" lon="11.909866300698857"><ele>326.6</ele><time>2026-04-04T13:40:09.977Z</time></trkpt><trkpt lat="42.54818087684129" lon="11.909972844044297"><ele>326.20000000000005</ele><time>2026-04-04T13:40:11.977Z</time></trkpt><trkpt lat="42.548254088771436" lon="11.910089518788224"><ele>325.8</ele><time>2026-04-04T13:40:13.977Z</time></trkpt><trkpt lat="42.548338839089126" lon="11.910216018487564"><ele>325.4</ele><time>2026-04-04T13:40:15.976Z</time></trkpt><trkpt lat="42.54837823063053" lon="11.91028545579055"><ele>325.0</ele><time>2026-04-04T13:40:16.976Z</time></trkpt><trkpt lat="42.54841814430405" lon="11.910351655468293"><ele>325.0</ele><time>2026-04-04T13:40:17.976Z</time></trkpt><trkpt lat="42.54846486672743" lon="11.910421485735224"><ele>325.0</ele><time>2026-04-04T13:40:18.976Z</time></trkpt><trkpt lat="42.5485156255474" lon="11.91049281587213"><ele>325.0</ele><time>2026-04-04T13:40:19.976Z</time></trkpt><trkpt lat="42.5485688109491" lon="11.9105591833672"><ele>325.0</ele><time>2026-04-04T13:40:20.976Z</time></trkpt><trkpt lat="42.54862015875541" lon="11.910631329104927"><ele>325.0</ele><time>2026-04-04T13:40:21.976Z</time></trkpt><trkpt lat="42.54867400921858" lon="11.910705734147802"><ele>325.0</ele><time>2026-04-04T13:40:22.976Z</time></trkpt><trkpt lat="42.54872446062132" lon="11.910779799898425"><ele>325.0</ele><time>2026-04-04T13:40:23.976Z</time></trkpt><trkpt lat="42.54877715847708" lon="11.910855218067795"><ele>323.66666666666663</ele><time>2026-04-04T13:40:24.976Z</time></trkpt><trkpt lat="42.54883569062323" lon="11.910937547749372"><ele>322.3333333333333</ele><time>2026-04-04T13:40:25.976Z</time></trkpt><trkpt lat="42.54889090591129" lon="11.911018822537283"><ele>321.0</ele><time>2026-04-04T13:40:26.976Z</time></trkpt><trkpt lat="42.548943052027774" lon="11.911098126109234"><ele>319.6666666666667</ele><time>2026-04-04T13:40:27.976Z</time></trkpt><trkpt lat="42.549006781211546" lon="11.911167254503566"><ele>318.33333333333337</ele><time>2026-04-04T13:40:28.976Z</time></trkpt><trkpt lat="42.54906874451019" lon="11.91123789830129"><ele>317.0</ele><time>2026-04-04T13:40:29.976Z</time></trkpt><trkpt lat="42.54911846929926" lon="11.911326272710733"><ele>317.0</ele><time>2026-04-04T13:40:30.976Z</time></trkpt><trkpt lat="42.5491672018068" lon="11.911412095773567"><ele>317.0</ele><time>2026-04-04T13:40:31.976Z</time></trkpt><trkpt lat="42.54921338568299" lon="11.911486549212032"><ele>317.0</ele><time>2026-04-04T13:40:32.976Z</time></trkpt><trkpt lat="42.54926404062146" lon="11.911565623066963"><ele>317.0</ele><time>2026-04-04T13:40:33.976Z</time></trkpt><trkpt lat="42.549315868451096" lon="11.91164307176311"><ele>317.0</ele><time>2026-04-04T13:40:34.976Z</time></trkpt><trkpt lat="42.54936518149368" lon="11.911721453696869"><ele>317.0</ele><time>2026-04-04T13:40:35.976Z</time></trkpt><trkpt lat="42.549410244053426" lon="11.911795125291931"><ele>317.6666666666667</ele><time>2026-04-04T13:40:36.976Z</time></trkpt><trkpt lat="42.549460051273996" lon="11.911869918927987"><ele>318.33333333333337</ele><time>2026-04-04T13:40:37.976Z</time></trkpt><trkpt lat="42.54950953859386" lon="11.911942315054336"><ele>319.0</ele><time>2026-04-04T13:40:38.976Z</time></trkpt><trkpt lat="42.549558763341395" lon="11.91200709728318"><ele>319.6666666666667</ele><time>2026-04-04T13:40:39.976Z</time></trkpt><trkpt lat="42.549657500316314" lon="11.91200050738454"><ele>320.3333333333333</ele><time>2026-04-04T13:40:41.976Z</time></trkpt><trkpt lat="42.54967036966232" lon="11.91184194494757"><ele>321.0</ele><time>2026-04-04T13:40:43.976Z</time></trkpt><trkpt lat="42.54964821065351" lon="11.911747625045514"><ele>319.99999999999994</ele><time>2026-04-04T13:40:44.976Z</time></trkpt><trkpt lat="42.54963274411019" lon="11.911653382998376"><ele>319.0</ele><time>2026-04-04T13:40:45.976Z</time></trkpt><trkpt lat="42.549621993178896" lon="11.91155633223422"><ele>318.0</ele><time>2026-04-04T13:40:46.976Z</time></trkpt><trkpt lat="42.54960669010468" lon="11.911459823734337"><ele>317.0</ele><time>2026-04-04T13:40:47.976Z</time></trkpt><trkpt lat="42.54959943824213" lon="11.91136022779081"><ele>316.0</ele><time>2026-04-04T13:40:48.976Z</time></trkpt><trkpt lat="42.54960040388031" lon="11.911257640754298"><ele>314.99999999999994</ele><time>2026-04-04T13:40:49.976Z</time></trkpt><trkpt lat="42.549586104779934" lon="11.91115318659587"><ele>314.0</ele><time>2026-04-04T13:40:50.976Z</time></trkpt><trkpt lat="42.549577050788265" lon="11.911049300200624"><ele>313.99999999999994</ele><time>2026-04-04T13:40:51.976Z</time></trkpt><trkpt lat="42.54957148826725" lon="11.91094547615564"><ele>314.0</ele><time>2026-04-04T13:40:52.976Z</time></trkpt><trkpt lat="42.54956299978638" lon="11.910839105826343"><ele>314.0</ele><time>2026-04-04T13:40:53.975Z</time></trkpt><trkpt lat="42.54954951547226" lon="11.910744878512523"><ele>314.0</ele><time>2026-04-04T13:40:54.975Z</time></trkpt><trkpt lat="42.54953620982154" lon="11.91064369977558"><ele>314.0</ele><time>2026-04-04T13:40:55.975Z</time></trkpt><trkpt lat="42.54952547330097" lon="11.910550485861501"><ele>313.99999999999994</ele><time>2026-04-04T13:40:56.975Z</time></trkpt><trkpt lat="42.549516126163866" lon="11.910452095880032"><ele>314.0</ele><time>2026-04-04T13:40:57.975Z</time></trkpt><trkpt lat="42.54949965600137" lon="11.910361810058127"><ele>314.0</ele><time>2026-04-04T13:40:58.975Z</time></trkpt><trkpt lat="42.549497012224315" lon="11.910268806353397"><ele>314.0</ele><time>2026-04-04T13:40:59.975Z</time></trkpt><trkpt lat="42.549494811314375" lon="11.910179007882292"><ele>314.0</ele><time>2026-04-04T13:41:00.975Z</time></trkpt><trkpt lat="42.54949461839393" lon="11.910088221532838"><ele>314.0</ele><time>2026-04-04T13:41:01.975Z</time></trkpt><trkpt lat="42.54949960727815" lon="11.910002374924574"><ele>314.0</ele><time>2026-04-04T13:41:02.978Z</time></trkpt><trkpt lat="42.54948914930191" lon="11.90983695736347"><ele>314.0</ele><time>2026-04-04T13:41:04.977Z</time></trkpt><trkpt lat="42.549455408873655" lon="11.909679620658148"><ele>313.59999999999997</ele><time>2026-04-04T13:41:06.978Z</time></trkpt><trkpt lat="42.549452380835504" lon="11.90954140565309"><ele>313.2</ele><time>2026-04-04T13:41:08.977Z</time></trkpt><trkpt lat="42.54944082224085" lon="11.909413131695004"><ele>312.79999999999995</ele><time>2026-04-04T13:41:10.977Z</time></trkpt><trkpt lat="42.54944185627095" lon="11.909288346518345"><ele>312.4</ele><time>2026-04-04T13:41:12.977Z</time></trkpt><trkpt lat="42.549422516026084" lon="11.909161729137686"><ele>312.0</ele><time>2026-04-04T13:41:14.977Z</time></trkpt><trkpt lat="42.54941272510291" lon="11.90904515514006"><ele>311.8333333333333</ele><time>2026-04-04T13:41:16.977Z</time></trkpt><trkpt lat="42.54939943600669" lon="11.908923759164066"><ele>311.6666666666667</ele><time>2026-04-04T13:41:18.977Z</time></trkpt><trkpt lat="42.549393841089945" lon="11.908812872959619"><ele>311.5</ele><time>2026-04-04T13:41:20.977Z</time></trkpt><trkpt lat="42.54937975583156" lon="11.908694462770416"><ele>311.33333333333337</ele><time>2026-04-04T13:41:22.977Z</time></trkpt><trkpt lat="42.549369937930614" lon="11.908575601072322"><ele>311.1666666666667</ele><time>2026-04-04T13:41:24.977Z</time></trkpt><trkpt lat="42.54939190080001" lon="11.908482004870397"><ele>311.0</ele><time>2026-04-04T13:41:26.977Z</time></trkpt><trkpt lat="42.54944610109813" lon="11.908394125936756"><ele>311.0</ele><time>2026-04-04T13:41:29.977Z</time></trkpt><trkpt lat="42.54948166869323" lon="11.908316958654076"><ele>311.0</ele><time>2026-04-04T13:41:31.977Z</time></trkpt><trkpt lat="42.549476020531074" lon="11.90821257857875"><ele>311.0</ele><time>2026-04-04T13:41:33.977Z</time></trkpt><trkpt lat="42.54948279379436" lon="11.908089133886277"><ele>311.0</ele><time>2026-04-04T13:41:36.977Z</time></trkpt><trkpt lat="42.54950016666585" lon="11.907977681632202"><ele>311.0</ele><time>2026-04-04T13:41:39.976Z</time></trkpt><trkpt lat="42.54950412686442" lon="11.907887462439032"><ele>311.0</ele><time>2026-04-04T13:41:41.976Z</time></trkpt><trkpt lat="42.549514342654746" lon="11.907764936897607"><ele>310.1666666666667</ele><time>2026-04-04T13:41:44.976Z</time></trkpt><trkpt lat="42.54954292480101" lon="11.907688126574005"><ele>309.33333333333337</ele><time>2026-04-04T13:41:46.976Z</time></trkpt><trkpt lat="42.549563062569554" lon="11.90760239082313"><ele>308.5</ele><time>2026-04-04T13:41:48.976Z</time></trkpt><trkpt lat="42.54957655635263" lon="11.907486223586663"><ele>307.6666666666667</ele><time>2026-04-04T13:41:51.976Z</time></trkpt><trkpt lat="42.549598674125306" lon="11.907388052675834"><ele>306.8333333333333</ele><time>2026-04-04T13:41:54.976Z</time></trkpt><trkpt lat="42.549594608670326" lon="11.907274101308152"><ele>306.0</ele><time>2026-04-04T13:41:57.976Z</time></trkpt><trkpt lat="42.54960668611881" lon="11.907171182447252"><ele>306.0</ele><time>2026-04-04T13:41:59.976Z</time></trkpt><trkpt lat="42.549638653588175" lon="11.907060009740851"><ele>306.0</ele><time>2026-04-04T13:42:02.976Z</time></trkpt><trkpt lat="42.54965747268395" lon="11.906976472198942"><ele>306.0</ele><time>2026-04-04T13:42:04.976Z</time></trkpt><trkpt lat="42.54968515087552" lon="11.90687819930506"><ele>306.0</ele><time>2026-04-04T13:42:06.976Z</time></trkpt><trkpt lat="42.549705980311" lon="11.906795904368556"><ele>306.0</ele><time>2026-04-04T13:42:08.976Z</time></trkpt><trkpt lat="42.54971557173134" lon="11.906701439548543"><ele>306.0</ele><time>2026-04-04T13:42:10.976Z</time></trkpt><trkpt lat="42.54972599778339" lon="11.906604910738809"><ele>306.0</ele><time>2026-04-04T13:42:12.976Z</time></trkpt><trkpt lat="42.5497484111418" lon="11.906524229594904"><ele>306.1666666666667</ele><time>2026-04-04T13:42:14.976Z</time></trkpt><trkpt lat="42.54976378035889" lon="11.906399660208084"><ele>306.3333333333333</ele><time>2026-04-04T13:42:17.975Z</time></trkpt><trkpt lat="42.54979017211883" lon="11.906314145799326"><ele>306.5</ele><time>2026-04-04T13:42:19.975Z</time></trkpt><trkpt lat="42.54982917335187" lon="11.906226996765533"><ele>306.66666666666663</ele><time>2026-04-04T13:42:21.975Z</time></trkpt><trkpt lat="42.549856127143585" lon="11.906133584344316"><ele>306.8333333333333</ele><time>2026-04-04T13:42:23.975Z</time></trkpt><trkpt lat="42.54987666195323" lon="11.906046504075729"><ele>307.0</ele><time>2026-04-04T13:42:25.975Z</time></trkpt><trkpt lat="42.54989993393359" lon="11.905947719177806"><ele>307.1428571428571</ele><time>2026-04-04T13:42:27.975Z</time></trkpt><trkpt lat="42.5499158241729" lon="11.905851677650563"><ele>307.2857142857143</ele><time>2026-04-04T13:42:29.975Z</time></trkpt><trkpt lat="42.54993842093448" lon="11.905768747805233"><ele>307.42857142857144</ele><time>2026-04-04T13:42:31.975Z</time></trkpt><trkpt lat="42.549944903294076" lon="11.905679885992134"><ele>307.57142857142856</ele><time>2026-04-04T13:42:33.975Z</time></trkpt><trkpt lat="42.54998595130908" lon="11.905566188337378"><ele>307.7142857142857</ele><time>2026-04-04T13:42:36.975Z</time></trkpt><trkpt lat="42.549993321497865" lon="11.905455456928808"><ele>307.85714285714283</ele><time>2026-04-04T13:42:39.975Z</time></trkpt><trkpt lat="42.5500208138141" lon="11.90537062410083"><ele>308.0</ele><time>2026-04-04T13:42:41.975Z</time></trkpt><trkpt lat="42.5500583174382" lon="11.90526660176905"><ele>308.0</ele><time>2026-04-04T13:42:44.975Z</time></trkpt><trkpt lat="42.55009437111802" lon="11.905165881774655"><ele>308.0</ele><time>2026-04-04T13:42:47.975Z</time></trkpt><trkpt lat="42.550131560108724" lon="11.90505470767372"><ele>308.0</ele><time>2026-04-04T13:42:50.975Z</time></trkpt><trkpt lat="42.5501550793976" lon="11.904961901900709"><ele>308.0</ele><time>2026-04-04T13:42:53.975Z</time></trkpt><trkpt lat="42.550186119302715" lon="11.904846553371357"><ele>308.0</ele><time>2026-04-04T13:42:56.974Z</time></trkpt><trkpt lat="42.55020110689033" lon="11.904745339418902"><ele>308.0</ele><time>2026-04-04T13:42:58.974Z</time></trkpt><trkpt lat="42.55022963962257" lon="11.904652430487928"><ele>308.33333333333337</ele><time>2026-04-04T13:43:00.974Z</time></trkpt><trkpt lat="42.550260979695764" lon="11.904557719195873"><ele>308.6666666666667</ele><time>2026-04-04T13:43:02.974Z</time></trkpt><trkpt lat="42.55032122417316" lon="11.90448638663216"><ele>309.0</ele><time>2026-04-04T13:43:04.974Z</time></trkpt><trkpt lat="42.55035638059097" lon="11.904393360488218"><ele>309.3333333333333</ele><time>2026-04-04T13:43:06.974Z</time></trkpt><trkpt lat="42.55037746163228" lon="11.904303593300039"><ele>309.66666666666663</ele><time>2026-04-04T13:43:08.977Z</time></trkpt><trkpt lat="42.550404879080254" lon="11.90420862702748"><ele>310.0</ele><time>2026-04-04T13:43:10.977Z</time></trkpt><trkpt lat="42.55044101694419" lon="11.904113443887141"><ele>309.16666666666663</ele><time>2026-04-04T13:43:12.977Z</time></trkpt><trkpt lat="42.5504715808879" lon="11.904006049401312"><ele>308.3333333333333</ele><time>2026-04-04T13:43:14.977Z</time></trkpt><trkpt lat="42.55049605779025" lon="11.903908380583754"><ele>307.5</ele><time>2026-04-04T13:43:16.977Z</time></trkpt><trkpt lat="42.550532716180015" lon="11.903808796364283"><ele>306.6666666666667</ele><time>2026-04-04T13:43:18.977Z</time></trkpt><trkpt lat="42.550560914732344" lon="11.903707164440693"><ele>305.83333333333337</ele><time>2026-04-04T13:43:20.977Z</time></trkpt><trkpt lat="42.55059022347753" lon="11.903611256646291"><ele>305.0</ele><time>2026-04-04T13:43:22.977Z</time></trkpt><trkpt lat="42.55063744427301" lon="11.903537469594637"><ele>305.1666666666667</ele><time>2026-04-04T13:43:24.977Z</time></trkpt><trkpt lat="42.550666643556184" lon="11.90340961404703"><ele>305.33333333333337</ele><time>2026-04-04T13:43:27.977Z</time></trkpt><trkpt lat="42.55070494752118" lon="11.903317996508617"><ele>305.5</ele><time>2026-04-04T13:43:29.977Z</time></trkpt><trkpt lat="42.550722601664305" lon="11.90322472311267"><ele>305.6666666666667</ele><time>2026-04-04T13:43:31.977Z</time></trkpt><trkpt lat="42.55073391433313" lon="11.903123734026622"><ele>305.8333333333333</ele><time>2026-04-04T13:43:33.977Z</time></trkpt><trkpt lat="42.55074798968198" lon="11.90302302732161"><ele>306.0</ele><time>2026-04-04T13:43:35.977Z</time></trkpt><trkpt lat="42.55074417326358" lon="11.902916933566942"><ele>306.0</ele><time>2026-04-04T13:43:37.976Z</time></trkpt><trkpt lat="42.55073953069168" lon="11.902804911874053"><ele>306.0</ele><time>2026-04-04T13:43:39.976Z</time></trkpt><trkpt lat="42.550778144902026" lon="11.90268735810824"><ele>306.0</ele><time>2026-04-04T13:43:42.976Z</time></trkpt><trkpt lat="42.55082469125133" lon="11.902584672289425"><ele>306.0</ele><time>2026-04-04T13:43:45.976Z</time></trkpt><trkpt lat="42.550866898271416" lon="11.902479045282746"><ele>306.0</ele><time>2026-04-04T13:43:48.976Z</time></trkpt><trkpt lat="42.55092253711748" lon="11.90237970493555"><ele>306.0</ele><time>2026-04-04T13:43:51.976Z</time></trkpt><trkpt lat="42.55094868074519" lon="11.902285065695633"><ele>306.3333333333333</ele><time>2026-04-04T13:43:54.976Z</time></trkpt><trkpt lat="42.55094787510034" lon="11.902177391238554"><ele>306.6666666666667</ele><time>2026-04-04T13:43:58.976Z</time></trkpt><trkpt lat="42.55099096443222" lon="11.902101174313902"><ele>307.0</ele><time>2026-04-04T13:44:01.976Z</time></trkpt><trkpt lat="42.551050592815415" lon="11.902024359468138"><ele>307.33333333333337</ele><time>2026-04-04T13:44:04.976Z</time></trkpt><trkpt lat="42.55109093407159" lon="11.901943818570468"><ele>307.6666666666667</ele><time>2026-04-04T13:44:06.976Z</time></trkpt><trkpt lat="42.55112004248611" lon="11.901862578635635"><ele>308.0</ele><time>2026-04-04T13:44:08.976Z</time></trkpt><trkpt lat="42.55116159819328" lon="11.901734529236483"><ele>308.33333333333337</ele><time>2026-04-04T13:44:11.976Z</time></trkpt><trkpt lat="42.5511560500382" lon="11.901632138605182"><ele>308.6666666666667</ele><time>2026-04-04T13:44:13.976Z</time></trkpt><trkpt lat="42.5511848208773" lon="11.901526002927264"><ele>309.0</ele><time>2026-04-04T13:44:15.975Z</time></trkpt><trkpt lat="42.55122011932335" lon="11.901424952602081"><ele>309.3333333333333</ele><time>2026-04-04T13:44:18.975Z</time></trkpt><trkpt lat="42.55125416761659" lon="11.901340264018119"><ele>309.66666666666663</ele><time>2026-04-04T13:44:20.975Z</time></trkpt><trkpt lat="42.55130378097886" lon="11.90124859775302"><ele>310.0</ele><time>2026-04-04T13:44:23.975Z</time></trkpt><trkpt lat="42.551352629603834" lon="11.901172320559455"><ele>309.42857142857144</ele><time>2026-04-04T13:44:25.975Z</time></trkpt><trkpt lat="42.55138507290524" lon="11.90109389656541"><ele>308.85714285714283</ele><time>2026-04-04T13:44:27.975Z</time></trkpt><trkpt lat="42.55142815775923" lon="11.901011042185464"><ele>308.2857142857143</ele><time>2026-04-04T13:44:29.975Z</time></trkpt><trkpt lat="42.55146126246111" lon="11.900919160473064"><ele>307.7142857142857</ele><time>2026-04-04T13:44:31.975Z</time></trkpt><trkpt lat="42.5514831014795" lon="11.90082776540306"><ele>307.14285714285717</ele><time>2026-04-04T13:44:33.975Z</time></trkpt><trkpt lat="42.551513151820515" lon="11.9007394874485"><ele>306.57142857142856</ele><time>2026-04-04T13:44:35.975Z</time></trkpt><trkpt lat="42.551557516774885" lon="11.9006533985228"><ele>306.0</ele><time>2026-04-04T13:44:37.975Z</time></trkpt><trkpt lat="42.551595198034164" lon="11.900568195052934"><ele>306.0</ele><time>2026-04-04T13:44:39.975Z</time></trkpt><trkpt lat="42.55162123195626" lon="11.900475803181115"><ele>306.0</ele><time>2026-04-04T13:44:41.975Z</time></trkpt><trkpt lat="42.55165865513443" lon="11.90039117853097"><ele>306.0</ele><time>2026-04-04T13:44:43.975Z</time></trkpt><trkpt lat="42.55168915021678" lon="11.900280546262312"><ele>306.0</ele><time>2026-04-04T13:44:45.975Z</time></trkpt><trkpt lat="42.55174184417327" lon="11.900193935229645"><ele>306.0</ele><time>2026-04-04T13:44:47.975Z</time></trkpt><trkpt lat="42.55178178753295" lon="11.900118018144104"><ele>306.0</ele><time>2026-04-04T13:44:49.975Z</time></trkpt><trkpt lat="42.55180065455347" lon="11.900020025077769"><ele>306.1666666666667</ele><time>2026-04-04T13:44:51.975Z</time></trkpt><trkpt lat="42.551844553013964" lon="11.899911609030731"><ele>306.3333333333333</ele><time>2026-04-04T13:44:53.974Z</time></trkpt><trkpt lat="42.551872143798214" lon="11.899831973787663"><ele>306.5</ele><time>2026-04-04T13:44:55.974Z</time></trkpt><trkpt lat="42.551890660046986" lon="11.899730649053827"><ele>306.66666666666663</ele><time>2026-04-04T13:44:57.974Z</time></trkpt><trkpt lat="42.551867533564675" lon="11.899613412884571"><ele>306.8333333333333</ele><time>2026-04-04T13:45:00.974Z</time></trkpt><trkpt lat="42.55187344624223" lon="11.899512875416915"><ele>307.0</ele><time>2026-04-04T13:45:02.974Z</time></trkpt><trkpt lat="42.55188267064953" lon="11.899421499292705"><ele>307.0</ele><time>2026-04-04T13:45:04.974Z</time></trkpt><trkpt lat="42.551913293935705" lon="11.899334033067271"><ele>307.0</ele><time>2026-04-04T13:45:06.974Z</time></trkpt><trkpt lat="42.55195344444926" lon="11.899252136409602"><ele>307.0</ele><time>2026-04-04T13:45:08.974Z</time></trkpt><trkpt lat="42.55200000753298" lon="11.89917062302277"><ele>307.0</ele><time>2026-04-04T13:45:10.974Z</time></trkpt><trkpt lat="42.552042560987054" lon="11.899094775732665"><ele>307.0</ele><time>2026-04-04T13:45:12.974Z</time></trkpt><trkpt lat="42.5520407544806" lon="11.898982852145942"><ele>307.0</ele><time>2026-04-04T13:45:14.976Z</time></trkpt><trkpt lat="42.552101070487666" lon="11.898900606428906"><ele>307.0</ele><time>2026-04-04T13:45:17.976Z</time></trkpt><trkpt lat="42.55215810408217" lon="11.89884958434319"><ele>307.0</ele><time>2026-04-04T13:45:19.976Z</time></trkpt><trkpt lat="42.55221990667662" lon="11.89876673641817"><ele>307.0</ele><time>2026-04-04T13:45:21.976Z</time></trkpt><trkpt lat="42.55225399708764" lon="11.89867611435329"><ele>307.0</ele><time>2026-04-04T13:45:23.976Z</time></trkpt><trkpt lat="42.552278695018096" lon="11.898580886620042"><ele>307.0</ele><time>2026-04-04T13:45:25.976Z</time></trkpt><trkpt lat="42.55231945742993" lon="11.898467514243139"><ele>307.0</ele><time>2026-04-04T13:45:28.976Z</time></trkpt><trkpt lat="42.55231869073877" lon="11.898346329303653"><ele>307.0</ele><time>2026-04-04T13:45:31.976Z</time></trkpt><trkpt lat="42.55233779596474" lon="11.898227367720615"><ele>307.0</ele><time>2026-04-04T13:45:34.976Z</time></trkpt><trkpt lat="42.5523583253775" lon="11.898138026964892"><ele>307.0</ele><time>2026-04-04T13:45:36.976Z</time></trkpt><trkpt lat="42.55238631471437" lon="11.898026817818288"><ele>307.0</ele><time>2026-04-04T13:45:39.976Z</time></trkpt><trkpt lat="42.552443357250624" lon="11.897949194863276"><ele>307.0</ele><time>2026-04-04T13:45:42.976Z</time></trkpt><trkpt lat="42.55248180382415" lon="11.897854716806176"><ele>307.0</ele><time>2026-04-04T13:45:45.975Z</time></trkpt><trkpt lat="42.552538537380336" lon="11.897813822391083"><ele>307.0</ele><time>2026-04-04T13:45:48.975Z</time></trkpt><trkpt lat="42.55256621896272" lon="11.897702266245288"><ele>307.0</ele><time>2026-04-04T13:45:51.975Z</time></trkpt><trkpt lat="42.55260050255834" lon="11.897585076558757"><ele>307.0</ele><time>2026-04-04T13:45:54.975Z</time></trkpt><trkpt lat="42.55266100330915" lon="11.897481607573848"><ele>307.0</ele><time>2026-04-04T13:45:57.975Z</time></trkpt><trkpt lat="42.552685747857275" lon="11.89738964240055"><ele>307.0</ele><time>2026-04-04T13:45:59.975Z</time></trkpt><trkpt lat="42.55271457194876" lon="11.897311659769816"><ele>307.0</ele><time>2026-04-04T13:46:01.975Z</time></trkpt><trkpt lat="42.55271799502668" lon="11.897212013696397"><ele>306.99999999999994</ele><time>2026-04-04T13:46:03.975Z</time></trkpt><trkpt lat="42.55274643189376" lon="11.897125302945508"><ele>307.0</ele><time>2026-04-04T13:46:05.975Z</time></trkpt><trkpt lat="42.55277996084805" lon="11.897050877625412"><ele>307.0</ele><time>2026-04-04T13:46:07.975Z</time></trkpt><trkpt lat="42.552823803921996" lon="11.896950422072408"><ele>307.0</ele><time>2026-04-04T13:46:10.975Z</time></trkpt><trkpt lat="42.55284872521823" lon="11.896853422966634"><ele>307.0</ele><time>2026-04-04T13:46:12.975Z</time></trkpt><trkpt lat="42.552867818243385" lon="11.89675646086698"><ele>306.99999999999994</ele><time>2026-04-04T13:46:14.975Z</time></trkpt><trkpt lat="42.552882706073355" lon="11.896657439086683"><ele>307.0</ele><time>2026-04-04T13:46:16.975Z</time></trkpt><trkpt lat="42.5529056059785" lon="11.896571341240787"><ele>306.5</ele><time>2026-04-04T13:46:18.975Z</time></trkpt><trkpt lat="42.5529383520675" lon="11.896493883659623"><ele>306.0</ele><time>2026-04-04T13:46:20.975Z</time></trkpt><trkpt lat="42.55299810325612" lon="11.89637499750067"><ele>305.5</ele><time>2026-04-04T13:46:23.974Z</time></trkpt><trkpt lat="42.55303803316702" lon="11.896290594507693"><ele>305.0</ele><time>2026-04-04T13:46:25.974Z</time></trkpt><trkpt lat="42.55308950693941" lon="11.896217310270261"><ele>304.5</ele><time>2026-04-04T13:46:27.974Z</time></trkpt><trkpt lat="42.553121718294946" lon="11.896127239750074"><ele>304.0</ele><time>2026-04-04T13:46:29.974Z</time></trkpt><trkpt lat="42.55316749046938" lon="11.896034829201358"><ele>304.0</ele><time>2026-04-04T13:46:31.974Z</time></trkpt><trkpt lat="42.55321011823293" lon="11.895941010501572"><ele>304.0</ele><time>2026-04-04T13:46:33.974Z</time></trkpt><trkpt lat="42.553243439144275" lon="11.895839340944798"><ele>304.0</ele><time>2026-04-04T13:46:35.974Z</time></trkpt><trkpt lat="42.55327092383366" lon="11.895741375815524"><ele>304.0</ele><time>2026-04-04T13:46:37.974Z</time></trkpt><trkpt lat="42.55329946949476" lon="11.895645110449315"><ele>304.0</ele><time>2026-04-04T13:46:39.974Z</time></trkpt><trkpt lat="42.553328244118866" lon="11.895550330411025"><ele>304.0</ele><time>2026-04-04T13:46:41.974Z</time></trkpt><trkpt lat="42.55335497388675" lon="11.895449592212293"><ele>304.16666666666663</ele><time>2026-04-04T13:46:43.974Z</time></trkpt><trkpt lat="42.55338929481812" lon="11.895352207916845"><ele>304.3333333333333</ele><time>2026-04-04T13:46:45.974Z</time></trkpt><trkpt lat="42.55342795236526" lon="11.895240211671922"><ele>304.5</ele><time>2026-04-04T13:46:47.974Z</time></trkpt><trkpt lat="42.55345974995543" lon="11.895152472282842"><ele>304.6666666666667</ele><time>2026-04-04T13:46:49.974Z</time></trkpt><trkpt lat="42.55348842191652" lon="11.895065487495206"><ele>304.83333333333337</ele><time>2026-04-04T13:46:51.974Z</time></trkpt><trkpt lat="42.55352518688282" lon="11.894982488726543"><ele>305.0</ele><time>2026-04-04T13:46:53.974Z</time></trkpt><trkpt lat="42.55354339754572" lon="11.894884546063833"><ele>304.8571428571429</ele><time>2026-04-04T13:46:55.974Z</time></trkpt><trkpt lat="42.55354765981408" lon="11.894785434452691"><ele>304.71428571428567</ele><time>2026-04-04T13:46:57.974Z</time></trkpt><trkpt lat="42.5535783778089" lon="11.89469196910855"><ele>304.57142857142856</ele><time>2026-04-04T13:46:59.974Z</time></trkpt><trkpt lat="42.55359654386311" lon="11.894605777972"><ele>304.42857142857144</ele><time>2026-04-04T13:47:01.973Z</time></trkpt><trkpt lat="42.55362997673328" lon="11.894510397797514"><ele>304.28571428571433</ele><time>2026-04-04T13:47:03.973Z</time></trkpt><trkpt lat="42.55365452522688" lon="11.894427313182963"><ele>304.1428571428571</ele><time>2026-04-04T13:47:05.973Z</time></trkpt><trkpt lat="42.55368899741378" lon="11.89434375583736"><ele>304.0</ele><time>2026-04-04T13:47:07.973Z</time></trkpt><trkpt lat="42.5537183083435" lon="11.894256025594924"><ele>304.1428571428571</ele><time>2026-04-04T13:47:09.973Z</time></trkpt><trkpt lat="42.553739110523274" lon="11.894167358009414"><ele>304.28571428571433</ele><time>2026-04-04T13:47:11.973Z</time></trkpt><trkpt lat="42.553778761223235" lon="11.89404494673448"><ele>304.42857142857144</ele><time>2026-04-04T13:47:14.973Z</time></trkpt><trkpt lat="42.553803480944076" lon="11.893963027204943"><ele>304.57142857142856</ele><time>2026-04-04T13:47:16.973Z</time></trkpt><trkpt lat="42.55383604789776" lon="11.893873238352501"><ele>304.71428571428567</ele><time>2026-04-04T13:47:18.973Z</time></trkpt><trkpt lat="42.55386739656401" lon="11.893794183925198"><ele>304.8571428571429</ele><time>2026-04-04T13:47:20.976Z</time></trkpt><trkpt lat="42.553913360757754" lon="11.89371788366445"><ele>305.0</ele><time>2026-04-04T13:47:22.975Z</time></trkpt><trkpt lat="42.55395881018424" lon="11.893654530456493"><ele>305.0</ele><time>2026-04-04T13:47:24.975Z</time></trkpt><trkpt lat="42.554010061377426" lon="11.893559894176237"><ele>305.0</ele><time>2026-04-04T13:47:27.976Z</time></trkpt><trkpt lat="42.554024917287705" lon="11.893475242414922"><ele>305.0</ele><time>2026-04-04T13:47:29.976Z</time></trkpt><trkpt lat="42.554064866478726" lon="11.893358294888074"><ele>305.0</ele><time>2026-04-04T13:47:32.976Z</time></trkpt><trkpt lat="42.55410702550608" lon="11.893277832453837"><ele>305.0</ele><time>2026-04-04T13:47:34.976Z</time></trkpt><trkpt lat="42.554132701509566" lon="11.893196586123748"><ele>305.0</ele><time>2026-04-04T13:47:36.976Z</time></trkpt><trkpt lat="42.554166868" lon="11.893087481215337"><ele>305.14285714285717</ele><time>2026-04-04T13:47:39.976Z</time></trkpt><trkpt lat="42.55418790128077" lon="11.892989854433734"><ele>305.2857142857143</ele><time>2026-04-04T13:47:42.976Z</time></trkpt><trkpt lat="42.554183815818895" lon="11.892897684596017"><ele>305.42857142857144</ele><time>2026-04-04T13:47:45.976Z</time></trkpt><trkpt lat="42.554189698200595" lon="11.892806221960445"><ele>305.57142857142856</ele><time>2026-04-04T13:47:48.976Z</time></trkpt><trkpt lat="42.554227380101814" lon="11.892728949687013"><ele>305.7142857142857</ele><time>2026-04-04T13:47:51.976Z</time></trkpt><trkpt lat="42.55427616849423" lon="11.892639532817261"><ele>305.85714285714283</ele><time>2026-04-04T13:47:54.975Z</time></trkpt><trkpt lat="42.55429523788044" lon="11.892526495392737"><ele>306.0</ele><time>2026-04-04T13:47:57.975Z</time></trkpt><trkpt lat="42.55423287994622" lon="11.892480461411346"><ele>306.0</ele><time>2026-04-04T13:48:00.975Z</time></trkpt><trkpt lat="42.55416746013851" lon="11.89250513930993"><ele>306.0</ele><time>2026-04-04T13:48:04.975Z</time></trkpt><trkpt lat="42.55413890989765" lon="11.892604801040783"><ele>306.0</ele><time>2026-04-04T13:48:06.975Z</time></trkpt><trkpt lat="42.55410552773177" lon="11.892702281048143"><ele>306.0</ele><time>2026-04-04T13:48:08.975Z</time></trkpt><trkpt lat="42.55407762501965" lon="11.892795068898232"><ele>306.0</ele><time>2026-04-04T13:48:10.975Z</time></trkpt><trkpt lat="42.5540476475732" lon="11.892891081859291"><ele>306.0</ele><time>2026-04-04T13:48:12.975Z</time></trkpt><trkpt lat="42.55401357541043" lon="11.892988741774895"><ele>306.0</ele><time>2026-04-04T13:48:14.975Z</time></trkpt><trkpt lat="42.55397679021593" lon="11.89310109155041"><ele>306.0</ele><time>2026-04-04T13:48:16.975Z</time></trkpt><trkpt lat="42.55393581144005" lon="11.893207173226992"><ele>306.0</ele><time>2026-04-04T13:48:18.975Z</time></trkpt><trkpt lat="42.55389759892865" lon="11.893321949086461"><ele>306.0</ele><time>2026-04-04T13:48:20.975Z</time></trkpt><trkpt lat="42.553856246888536" lon="11.893436214079516"><ele>306.0</ele><time>2026-04-04T13:48:22.975Z</time></trkpt><trkpt lat="42.55381100267598" lon="11.893560018237462"><ele>305.8333333333333</ele><time>2026-04-04T13:48:24.975Z</time></trkpt><trkpt lat="42.55377102355453" lon="11.893671244051891"><ele>305.6666666666667</ele><time>2026-04-04T13:48:26.975Z</time></trkpt><trkpt lat="42.55373320966314" lon="11.89377682496674"><ele>305.5</ele><time>2026-04-04T13:48:28.975Z</time></trkpt><trkpt lat="42.55369374156619" lon="11.893878247712506"><ele>305.33333333333337</ele><time>2026-04-04T13:48:30.975Z</time></trkpt><trkpt lat="42.55365916996471" lon="11.893977506748941"><ele>305.1666666666667</ele><time>2026-04-04T13:48:32.974Z</time></trkpt><trkpt lat="42.55362222979909" lon="11.894085509737769"><ele>305.0</ele><time>2026-04-04T13:48:34.974Z</time></trkpt><trkpt lat="42.55358483540619" lon="11.894187611994784"><ele>305.6666666666667</ele><time>2026-04-04T13:48:36.974Z</time></trkpt><trkpt lat="42.55354844838286" lon="11.894288876593066"><ele>306.33333333333337</ele><time>2026-04-04T13:48:38.974Z</time></trkpt><trkpt lat="42.55351939747096" lon="11.8943935602895"><ele>307.0</ele><time>2026-04-04T13:48:40.974Z</time></trkpt><trkpt lat="42.553484609787795" lon="11.894494246490366"><ele>307.6666666666667</ele><time>2026-04-04T13:48:42.974Z</time></trkpt><trkpt lat="42.55344828175816" lon="11.894588653352521"><ele>308.3333333333333</ele><time>2026-04-04T13:48:44.974Z</time></trkpt><trkpt lat="42.55341914233406" lon="11.89468454661976"><ele>309.0</ele><time>2026-04-04T13:48:46.974Z</time></trkpt><trkpt lat="42.55338104328394" lon="11.89478104083932"><ele>309.0</ele><time>2026-04-04T13:48:48.974Z</time></trkpt><trkpt lat="42.5533434856011" lon="11.894882414885531"><ele>309.0</ele><time>2026-04-04T13:48:50.974Z</time></trkpt><trkpt lat="42.553315690171736" lon="11.894987012835847"><ele>309.0</ele><time>2026-04-04T13:48:52.974Z</time></trkpt><trkpt lat="42.553278432412306" lon="11.895083267055904"><ele>309.0</ele><time>2026-04-04T13:48:54.974Z</time></trkpt><trkpt lat="42.55324484796496" lon="11.895176775328727"><ele>309.0</ele><time>2026-04-04T13:48:56.974Z</time></trkpt><trkpt lat="42.55321840420394" lon="11.89525909554687"><ele>309.0</ele><time>2026-04-04T13:48:58.974Z</time></trkpt><trkpt lat="42.553188154580454" lon="11.895339188799472"><ele>308.42857142857144</ele><time>2026-04-04T13:49:00.974Z</time></trkpt><trkpt lat="42.55316215493112" lon="11.895425315027424"><ele>307.8571428571429</ele><time>2026-04-04T13:49:02.974Z</time></trkpt><trkpt lat="42.553133837716835" lon="11.89551441512921"><ele>307.28571428571433</ele><time>2026-04-04T13:49:04.974Z</time></trkpt><trkpt lat="42.553098426332745" lon="11.895596206342617"><ele>306.7142857142857</ele><time>2026-04-04T13:49:06.974Z</time></trkpt><trkpt lat="42.55307251809263" lon="11.895697026525395"><ele>306.1428571428571</ele><time>2026-04-04T13:49:08.974Z</time></trkpt><trkpt lat="42.55303834019256" lon="11.895790692216076"><ele>305.5714285714286</ele><time>2026-04-04T13:49:10.973Z</time></trkpt><trkpt lat="42.553010907533896" lon="11.895887697241626"><ele>305.0</ele><time>2026-04-04T13:49:12.973Z</time></trkpt><trkpt lat="42.55297617183716" lon="11.895977023198832"><ele>304.83333333333337</ele><time>2026-04-04T13:49:14.973Z</time></trkpt><trkpt lat="42.552939894737236" lon="11.896070187094033"><ele>304.6666666666667</ele><time>2026-04-04T13:49:16.973Z</time></trkpt><trkpt lat="42.5529015625923" lon="11.896168752634903"><ele>304.5</ele><time>2026-04-04T13:49:18.973Z</time></trkpt><trkpt lat="42.552870128959704" lon="11.896266371864446"><ele>304.3333333333333</ele><time>2026-04-04T13:49:20.973Z</time></trkpt><trkpt lat="42.55283735148744" lon="11.896363398507846"><ele>304.16666666666663</ele><time>2026-04-04T13:49:22.973Z</time></trkpt><trkpt lat="42.552807925473736" lon="11.896466442007307"><ele>304.0</ele><time>2026-04-04T13:49:24.973Z</time></trkpt><trkpt lat="42.55278273500457" lon="11.896553623709561"><ele>304.5</ele><time>2026-04-04T13:49:26.975Z</time></trkpt><trkpt lat="42.55275774166573" lon="11.896633719210042"><ele>305.0</ele><time>2026-04-04T13:49:28.976Z</time></trkpt><trkpt lat="42.5527165241918" lon="11.896745578960688"><ele>305.5</ele><time>2026-04-04T13:49:31.975Z</time></trkpt><trkpt lat="42.5526791581275" lon="11.896843534081858"><ele>306.0</ele><time>2026-04-04T13:49:33.975Z</time></trkpt><trkpt lat="42.55265474671434" lon="11.89694049112458"><ele>306.5</ele><time>2026-04-04T13:49:35.976Z</time></trkpt><trkpt lat="42.55261892194586" lon="11.897048409121263"><ele>307.0</ele><time>2026-04-04T13:49:37.976Z</time></trkpt><trkpt lat="42.55257914841061" lon="11.897163209371474"><ele>307.0</ele><time>2026-04-04T13:49:39.976Z</time></trkpt><trkpt lat="42.55253965881711" lon="11.897271591732071"><ele>307.0</ele><time>2026-04-04T13:49:41.976Z</time></trkpt><trkpt lat="42.552493203776315" lon="11.897385976823294"><ele>307.0</ele><time>2026-04-04T13:49:43.976Z</time></trkpt><trkpt lat="42.55245803435385" lon="11.89749910704338"><ele>307.0</ele><time>2026-04-04T13:49:45.976Z</time></trkpt><trkpt lat="42.552421068674256" lon="11.897615742342174"><ele>307.0</ele><time>2026-04-04T13:49:47.975Z</time></trkpt><trkpt lat="42.55237924338173" lon="11.897732035265701"><ele>307.0</ele><time>2026-04-04T13:49:49.975Z</time></trkpt><trkpt lat="42.552339160652494" lon="11.897849000129904"><ele>307.0</ele><time>2026-04-04T13:49:51.975Z</time></trkpt><trkpt lat="42.55229532727642" lon="11.897971244655604"><ele>307.0</ele><time>2026-04-04T13:49:53.975Z</time></trkpt><trkpt lat="42.55225009382732" lon="11.898090315299827"><ele>307.0</ele><time>2026-04-04T13:49:55.975Z</time></trkpt><trkpt lat="42.55220521225345" lon="11.898209466888824"><ele>307.0</ele><time>2026-04-04T13:49:57.975Z</time></trkpt><trkpt lat="42.55215097102635" lon="11.898314555571943"><ele>306.6</ele><time>2026-04-04T13:49:59.975Z</time></trkpt><trkpt lat="42.55211553041138" lon="11.898441507678033"><ele>306.2</ele><time>2026-04-04T13:50:01.975Z</time></trkpt><trkpt lat="42.552064567375375" lon="11.898572868048754"><ele>305.8</ele><time>2026-04-04T13:50:03.975Z</time></trkpt><trkpt lat="42.552013769099396" lon="11.898708752946334"><ele>305.4</ele><time>2026-04-04T13:50:05.975Z</time></trkpt><trkpt lat="42.551968209733886" lon="11.898834152272768"><ele>305.0</ele><time>2026-04-04T13:50:07.975Z</time></trkpt><trkpt lat="42.55191598343844" lon="11.898962985461004"><ele>305.4</ele><time>2026-04-04T13:50:09.975Z</time></trkpt><trkpt lat="42.55186960439345" lon="11.899097393202641"><ele>305.8</ele><time>2026-04-04T13:50:11.975Z</time></trkpt><trkpt lat="42.55182359399262" lon="11.899229306619894"><ele>306.2</ele><time>2026-04-04T13:50:13.975Z</time></trkpt><trkpt lat="42.551778635575985" lon="11.899370784577993"><ele>306.6</ele><time>2026-04-04T13:50:15.975Z</time></trkpt><trkpt lat="42.55173503495348" lon="11.89950300865777"><ele>307.0</ele><time>2026-04-04T13:50:17.975Z</time></trkpt><trkpt lat="42.55169091075369" lon="11.899623586242955"><ele>307.0</ele><time>2026-04-04T13:50:19.974Z</time></trkpt><trkpt lat="42.551643456035706" lon="11.899760786265135"><ele>307.0</ele><time>2026-04-04T13:50:21.97Z</time></trkpt><trkpt lat="42.55160652697258" lon="11.899878676702913"><ele>307.0</ele><time>2026-04-04T13:50:23.966Z</time></trkpt><trkpt lat="42.55155651722425" lon="11.900014091165882"><ele>307.0</ele><time>2026-04-04T13:50:25.963Z</time></trkpt><trkpt lat="42.551501542847284" lon="11.900148055799761"><ele>307.0</ele><time>2026-04-04T13:50:27.961Z</time></trkpt><trkpt lat="42.55145105210754" lon="11.900275569003348"><ele>306.8</ele><time>2026-04-04T13:50:29.958Z</time></trkpt><trkpt lat="42.551414900165575" lon="11.900410488142931"><ele>306.6</ele><time>2026-04-04T13:50:31.956Z</time></trkpt><trkpt lat="42.551370419666796" lon="11.900535841457666"><ele>306.40000000000003</ele><time>2026-04-04T13:50:33.954Z</time></trkpt><trkpt lat="42.55133252984185" lon="11.900675967136717"><ele>306.2</ele><time>2026-04-04T13:50:35.952Z</time></trkpt><trkpt lat="42.55127920830706" lon="11.900814936898437"><ele>306.0</ele><time>2026-04-04T13:50:37.951Z</time></trkpt><trkpt lat="42.5512272264035" lon="11.900942774707165"><ele>306.8</ele><time>2026-04-04T13:50:39.95Z</time></trkpt><trkpt lat="42.551185619169246" lon="11.901062334620315"><ele>307.6</ele><time>2026-04-04T13:50:41.949Z</time></trkpt><trkpt lat="42.55114137360756" lon="11.901199831361858"><ele>308.4</ele><time>2026-04-04T13:50:43.948Z</time></trkpt><trkpt lat="42.55108488948598" lon="11.901324806965832"><ele>309.2</ele><time>2026-04-04T13:50:45.947Z</time></trkpt><trkpt lat="42.55104583278438" lon="11.90143987819169"><ele>310.0</ele><time>2026-04-04T13:50:47.946Z</time></trkpt><trkpt lat="42.55100540565669" lon="11.901562513286496"><ele>310.0</ele><time>2026-04-04T13:50:49.945Z</time></trkpt><trkpt lat="42.5509669656098" lon="11.901681715599885"><ele>310.0</ele><time>2026-04-04T13:50:51.944Z</time></trkpt><trkpt lat="42.550919201523314" lon="11.90179159164565"><ele>310.0</ele><time>2026-04-04T13:50:53.944Z</time></trkpt><trkpt lat="42.550883838510444" lon="11.901915753701843"><ele>310.0</ele><time>2026-04-04T13:50:55.943Z</time></trkpt><trkpt lat="42.5508533084603" lon="11.902026760451081"><ele>310.0</ele><time>2026-04-04T13:50:57.943Z</time></trkpt><trkpt lat="42.55081628121858" lon="11.902141167422103"><ele>309.6</ele><time>2026-04-04T13:50:59.943Z</time></trkpt><trkpt lat="42.550782345742455" lon="11.902254261658676"><ele>309.2</ele><time>2026-04-04T13:51:01.942Z</time></trkpt><trkpt lat="42.55072632653087" lon="11.902378513428156"><ele>308.8</ele><time>2026-04-04T13:51:03.942Z</time></trkpt><trkpt lat="42.55068099467581" lon="11.902504166464436"><ele>308.4</ele><time>2026-04-04T13:51:05.942Z</time></trkpt><trkpt lat="42.55063189358514" lon="11.90261619907631"><ele>308.0</ele><time>2026-04-04T13:51:07.941Z</time></trkpt><trkpt lat="42.55060090525293" lon="11.902728934209733"><ele>307.6</ele><time>2026-04-04T13:51:09.941Z</time></trkpt><trkpt lat="42.55056241524466" lon="11.902836846018662"><ele>307.20000000000005</ele><time>2026-04-04T13:51:11.941Z</time></trkpt><trkpt lat="42.5505237104554" lon="11.902959127923799"><ele>306.8</ele><time>2026-04-04T13:51:13.941Z</time></trkpt><trkpt lat="42.55047654381195" lon="11.903078059532474"><ele>306.40000000000003</ele><time>2026-04-04T13:51:15.94Z</time></trkpt><trkpt lat="42.55042734295051" lon="11.903195043961937"><ele>306.0</ele><time>2026-04-04T13:51:17.94Z</time></trkpt><trkpt lat="42.55038518105557" lon="11.903305068770358"><ele>306.6</ele><time>2026-04-04T13:51:19.94Z</time></trkpt><trkpt lat="42.55032922608084" lon="11.9034318732335"><ele>307.20000000000005</ele><time>2026-04-04T13:51:21.94Z</time></trkpt><trkpt lat="42.55028562413482" lon="11.903569454710244"><ele>307.79999999999995</ele><time>2026-04-04T13:51:23.94Z</time></trkpt><trkpt lat="42.550239066430464" lon="11.90369839579008"><ele>308.4</ele><time>2026-04-04T13:51:25.94Z</time></trkpt><trkpt lat="42.550198429076325" lon="11.903825102602301"><ele>309.0</ele><time>2026-04-04T13:51:27.94Z</time></trkpt><trkpt lat="42.55014552351575" lon="11.90395727174383"><ele>309.0</ele><time>2026-04-04T13:51:29.939Z</time></trkpt><trkpt lat="42.550105535238046" lon="11.904088144905607"><ele>309.0</ele><time>2026-04-04T13:51:31.941Z</time></trkpt><trkpt lat="42.55006426791537" lon="11.904206754513423"><ele>309.0</ele><time>2026-04-04T13:51:33.941Z</time></trkpt><trkpt lat="42.55001885880515" lon="11.90433298843516"><ele>309.0</ele><time>2026-04-04T13:51:35.941Z</time></trkpt><trkpt lat="42.5499807331411" lon="11.904450113520213"><ele>309.0</ele><time>2026-04-04T13:51:37.941Z</time></trkpt><trkpt lat="42.54992851094306" lon="11.904571726244884"><ele>309.2</ele><time>2026-04-04T13:51:39.941Z</time></trkpt><trkpt lat="42.549893808243866" lon="11.904687873854453"><ele>309.4</ele><time>2026-04-04T13:51:41.941Z</time></trkpt><trkpt lat="42.54985714023988" lon="11.90480429261889"><ele>309.6</ele><time>2026-04-04T13:51:43.942Z</time></trkpt><trkpt lat="42.549820017584615" lon="11.9049131881978"><ele>309.8</ele><time>2026-04-04T13:51:45.941Z</time></trkpt><trkpt lat="42.54977566379494" lon="11.905025260781416"><ele>310.0</ele><time>2026-04-04T13:51:47.941Z</time></trkpt><trkpt lat="42.549745369376055" lon="11.905134899919364"><ele>309.6</ele><time>2026-04-04T13:51:49.941Z</time></trkpt><trkpt lat="42.54969774685186" lon="11.905253086146478"><ele>309.2</ele><time>2026-04-04T13:51:51.941Z</time></trkpt><trkpt lat="42.54966370020989" lon="11.905365172538195"><ele>308.8</ele><time>2026-04-04T13:51:53.941Z</time></trkpt><trkpt lat="42.54962880278099" lon="11.905482960134396"><ele>308.4</ele><time>2026-04-04T13:51:55.941Z</time></trkpt><trkpt lat="42.549590259584306" lon="11.90559745301882"><ele>308.0</ele><time>2026-04-04T13:51:57.941Z</time></trkpt><trkpt lat="42.54955759339177" lon="11.90570381508192"><ele>308.33333333333337</ele><time>2026-04-04T13:51:59.94Z</time></trkpt><trkpt lat="42.54951781291718" lon="11.905804850125685"><ele>308.6666666666667</ele><time>2026-04-04T13:52:01.94Z</time></trkpt><trkpt lat="42.549487019123546" lon="11.905909844807503"><ele>309.0</ele><time>2026-04-04T13:52:03.94Z</time></trkpt><trkpt lat="42.54945014826149" lon="11.906010016097005"><ele>309.3333333333333</ele><time>2026-04-04T13:52:05.94Z</time></trkpt><trkpt lat="42.5494207633152" lon="11.906115396590257"><ele>309.66666666666663</ele><time>2026-04-04T13:52:07.94Z</time></trkpt><trkpt lat="42.549383864918084" lon="11.90621469354553"><ele>310.0</ele><time>2026-04-04T13:52:09.94Z</time></trkpt><trkpt lat="42.54935640618923" lon="11.906315292232609"><ele>310.0</ele><time>2026-04-04T13:52:11.94Z</time></trkpt><trkpt lat="42.54932287867513" lon="11.90642446747555"><ele>310.0</ele><time>2026-04-04T13:52:13.94Z</time></trkpt><trkpt lat="42.54929166871923" lon="11.90653026052866"><ele>310.0</ele><time>2026-04-04T13:52:15.94Z</time></trkpt><trkpt lat="42.549272466641426" lon="11.906630283597949"><ele>310.0</ele><time>2026-04-04T13:52:17.94Z</time></trkpt><trkpt lat="42.54925736908186" lon="11.90673423895165"><ele>310.0</ele><time>2026-04-04T13:52:19.94Z</time></trkpt><trkpt lat="42.54925021804511" lon="11.906840588450228"><ele>310.0</ele><time>2026-04-04T13:52:21.94Z</time></trkpt><trkpt lat="42.54924238557818" lon="11.906932609869775"><ele>310.16666666666663</ele><time>2026-04-04T13:52:23.94Z</time></trkpt><trkpt lat="42.549250088890105" lon="11.907041627354108"><ele>310.3333333333333</ele><time>2026-04-04T13:52:25.94Z</time></trkpt><trkpt lat="42.54925276251587" lon="11.907137109048211"><ele>310.5</ele><time>2026-04-04T13:52:27.939Z</time></trkpt><trkpt lat="42.54926436743792" lon="11.90723286071315"><ele>310.6666666666667</ele><time>2026-04-04T13:52:29.939Z</time></trkpt><trkpt lat="42.54925933115582" lon="11.907344376865206"><ele>310.83333333333337</ele><time>2026-04-04T13:52:31.939Z</time></trkpt><trkpt lat="42.549267604680146" lon="11.907455266828263"><ele>311.0</ele><time>2026-04-04T13:52:33.939Z</time></trkpt><trkpt lat="42.549278844562764" lon="11.907581495107454"><ele>311.0</ele><time>2026-04-04T13:52:35.939Z</time></trkpt><trkpt lat="42.54928310180668" lon="11.907701501001808"><ele>311.0</ele><time>2026-04-04T13:52:37.939Z</time></trkpt><trkpt lat="42.54929510051721" lon="11.907827662315668"><ele>311.0</ele><time>2026-04-04T13:52:39.939Z</time></trkpt><trkpt lat="42.54929849136636" lon="11.90794716864507"><ele>311.0</ele><time>2026-04-04T13:52:41.939Z</time></trkpt><trkpt lat="42.54932121818383" lon="11.908069862790871"><ele>311.0</ele><time>2026-04-04T13:52:43.939Z</time></trkpt><trkpt lat="42.54932503780932" lon="11.908195731336953"><ele>311.0</ele><time>2026-04-04T13:52:45.939Z</time></trkpt><trkpt lat="42.54933253778852" lon="11.908313881200405"><ele>311.0</ele><time>2026-04-04T13:52:47.939Z</time></trkpt><trkpt lat="42.549336582941194" lon="11.908438325712511"><ele>311.0</ele><time>2026-04-04T13:52:49.939Z</time></trkpt><trkpt lat="42.54934771296867" lon="11.908567486000255"><ele>311.0</ele><time>2026-04-04T13:52:51.939Z</time></trkpt><trkpt lat="42.54935196860553" lon="11.908686734415399"><ele>311.0</ele><time>2026-04-04T13:52:53.939Z</time></trkpt><trkpt lat="42.54936362509592" lon="11.90881193453934"><ele>311.0</ele><time>2026-04-04T13:52:55.939Z</time></trkpt><trkpt lat="42.54937113223709" lon="11.90892639787489"><ele>311.0</ele><time>2026-04-04T13:52:57.938Z</time></trkpt><trkpt lat="42.54939467762558" lon="11.909039421371483"><ele>311.0</ele><time>2026-04-04T13:52:59.938Z</time></trkpt><trkpt lat="42.54941513701115" lon="11.909155995067708"><ele>311.0</ele><time>2026-04-04T13:53:01.938Z</time></trkpt><trkpt lat="42.54942307887875" lon="11.909275464656153"><ele>311.0</ele><time>2026-04-04T13:53:03.938Z</time></trkpt><trkpt lat="42.54943626465336" lon="11.909385485215147"><ele>311.0</ele><time>2026-04-04T13:53:05.938Z</time></trkpt><trkpt lat="42.5494479708223" lon="11.90950783487863"><ele>311.2</ele><time>2026-04-04T13:53:07.938Z</time></trkpt><trkpt lat="42.549471002105115" lon="11.909632283004628"><ele>311.40000000000003</ele><time>2026-04-04T13:53:09.938Z</time></trkpt><trkpt lat="42.54948554702422" lon="11.909749298882831"><ele>311.6</ele><time>2026-04-04T13:53:11.938Z</time></trkpt><trkpt lat="42.54949448861001" lon="11.909871566804423"><ele>311.8</ele><time>2026-04-04T13:53:13.938Z</time></trkpt><trkpt lat="42.54950995243774" lon="11.91000197672078"><ele>312.0</ele><time>2026-04-04T13:53:15.938Z</time></trkpt><trkpt lat="42.54951438187431" lon="11.910147505020115"><ele>312.4</ele><time>2026-04-04T13:53:17.938Z</time></trkpt><trkpt lat="42.54951506338621" lon="11.910287422254251"><ele>312.79999999999995</ele><time>2026-04-04T13:53:19.938Z</time></trkpt><trkpt lat="42.549526995109474" lon="11.910421296864333"><ele>313.2</ele><time>2026-04-04T13:53:21.938Z</time></trkpt><trkpt lat="42.54954207115549" lon="11.91055369102002"><ele>313.59999999999997</ele><time>2026-04-04T13:53:23.938Z</time></trkpt><trkpt lat="42.549541638960555" lon="11.910675641289817"><ele>314.0</ele><time>2026-04-04T13:53:25.937Z</time></trkpt><trkpt lat="42.54955997778594" lon="11.910804634499023"><ele>314.0</ele><time>2026-04-04T13:53:27.937Z</time></trkpt><trkpt lat="42.54957355031751" lon="11.910927536229979"><ele>314.0</ele><time>2026-04-04T13:53:29.937Z</time></trkpt><trkpt lat="42.54958182842363" lon="11.911048215071313"><ele>314.0</ele><time>2026-04-04T13:53:31.937Z</time></trkpt><trkpt lat="42.549585854016755" lon="11.91115843920289"><ele>314.0</ele><time>2026-04-04T13:53:33.937Z</time></trkpt><trkpt lat="42.549606146471135" lon="11.911271599535976"><ele>314.0</ele><time>2026-04-04T13:53:35.937Z</time></trkpt><trkpt lat="42.5496115100274" lon="11.911361412728722"><ele>314.0</ele><time>2026-04-04T13:53:37.939Z</time></trkpt><trkpt lat="42.54961134540001" lon="11.911448684505498"><ele>313.99999999999994</ele><time>2026-04-04T13:53:39.939Z</time></trkpt><trkpt lat="42.54961339790058" lon="11.911538735366188"><ele>314.0</ele><time>2026-04-04T13:53:41.939Z</time></trkpt><trkpt lat="42.54962280124801" lon="11.91164801768091"><ele>314.0</ele><time>2026-04-04T13:53:44.94Z</time></trkpt><trkpt lat="42.54962927534395" lon="11.91174173370536"><ele>314.0</ele><time>2026-04-04T13:53:47.939Z</time></trkpt><trkpt lat="42.54963223982305" lon="11.91183696595244"><ele>314.0</ele><time>2026-04-04T13:53:50.939Z</time></trkpt><trkpt lat="42.54962833743007" lon="11.911925722626453"><ele>313.99999999999994</ele><time>2026-04-04T13:53:53.939Z</time></trkpt><trkpt lat="42.54956132914431" lon="11.911918926135586"><ele>314.0</ele><time>2026-04-04T13:53:57.939Z</time></trkpt><trkpt lat="42.54951196101781" lon="11.911855711151691"><ele>314.5</ele><time>2026-04-04T13:53:59.939Z</time></trkpt><trkpt lat="42.54945255560197" lon="11.911774213972809"><ele>315.0</ele><time>2026-04-04T13:54:02.939Z</time></trkpt><trkpt lat="42.54939553488887" lon="11.911690602718922"><ele>315.5</ele><time>2026-04-04T13:54:05.939Z</time></trkpt><trkpt lat="42.5493278999435" lon="11.911604170838476"><ele>316.0</ele><time>2026-04-04T13:54:08.939Z</time></trkpt><trkpt lat="42.54926979824105" lon="11.911535551958863"><ele>316.5</ele><time>2026-04-04T13:54:11.939Z</time></trkpt><trkpt lat="42.54921436381853" lon="11.911465601704148"><ele>317.0</ele><time>2026-04-04T13:54:14.939Z</time></trkpt><trkpt lat="42.54915703757984" lon="11.911400518520596"><ele>317.0</ele><time>2026-04-04T13:54:17.939Z</time></trkpt><trkpt lat="42.54911441134403" lon="11.911323719117577"><ele>317.0</ele><time>2026-04-04T13:54:20.938Z</time></trkpt><trkpt lat="42.5490763712811" lon="11.911241187427962"><ele>317.0</ele><time>2026-04-04T13:54:23.938Z</time></trkpt><trkpt lat="42.54902086405389" lon="11.911169188226676"><ele>317.0</ele><time>2026-04-04T13:54:26.938Z</time></trkpt><trkpt lat="42.54896291991952" lon="11.911108107497064"><ele>317.0</ele><time>2026-04-04T13:54:29.938Z</time></trkpt><trkpt lat="42.548907788252386" lon="11.91104078186559"><ele>317.0</ele><time>2026-04-04T13:54:32.938Z</time></trkpt><trkpt lat="42.54885737641114" lon="11.910972424030698"><ele>317.0</ele><time>2026-04-04T13:54:35.938Z</time></trkpt><trkpt lat="42.54880654099134" lon="11.910915776785576"><ele>316.57142857142856</ele><time>2026-04-04T13:54:38.938Z</time></trkpt><trkpt lat="42.548758085439985" lon="11.910850814198074"><ele>316.1428571428571</ele><time>2026-04-04T13:54:41.938Z</time></trkpt><trkpt lat="42.548705070629964" lon="11.910778254438558"><ele>315.71428571428567</ele><time>2026-04-04T13:54:44.938Z</time></trkpt><trkpt lat="42.548668496791066" lon="11.910698325950714"><ele>315.2857142857143</ele><time>2026-04-04T13:54:47.937Z</time></trkpt><trkpt lat="42.54863097580331" lon="11.910622180561193"><ele>314.85714285714283</ele><time>2026-04-04T13:54:50.937Z</time></trkpt><trkpt lat="42.54857453792848" lon="11.910545452446954"><ele>314.4285714285714</ele><time>2026-04-04T13:54:53.937Z</time></trkpt><trkpt lat="42.5485283182006" lon="11.910479973109569"><ele>314.0</ele><time>2026-04-04T13:54:56.937Z</time></trkpt><trkpt lat="42.548486392456766" lon="11.91040549963514"><ele>314.83333333333337</ele><time>2026-04-04T13:54:59.937Z</time></trkpt><trkpt lat="42.54843898101205" lon="11.910345520370393"><ele>315.6666666666667</ele><time>2026-04-04T13:55:02.937Z</time></trkpt><trkpt lat="42.54838446774957" lon="11.910272545996882"><ele>316.5</ele><time>2026-04-04T13:55:05.937Z</time></trkpt><trkpt lat="42.54832754302368" lon="11.910198126536995"><ele>317.3333333333333</ele><time>2026-04-04T13:55:08.937Z</time></trkpt><trkpt lat="42.548268627205076" lon="11.910126696576958"><ele>318.16666666666663</ele><time>2026-04-04T13:55:11.937Z</time></trkpt><trkpt lat="42.54821323245283" lon="11.910040314464702"><ele>319.0</ele><time>2026-04-04T13:55:14.937Z</time></trkpt><trkpt lat="42.54815525042523" lon="11.909968811805937"><ele>319.0</ele><time>2026-04-04T13:55:17.936Z</time></trkpt><trkpt lat="42.5480980188413" lon="11.90988363708293"><ele>319.0</ele><time>2026-04-04T13:55:20.936Z</time></trkpt><trkpt lat="42.54804889259909" lon="11.909800544393176"><ele>319.0</ele><time>2026-04-04T13:55:23.936Z</time></trkpt><trkpt lat="42.54799711482767" lon="11.909712118430736"><ele>319.0</ele><time>2026-04-04T13:55:26.936Z</time></trkpt><trkpt lat="42.54794174323636" lon="11.909623905710216"><ele>319.0</ele><time>2026-04-04T13:55:29.936Z</time></trkpt><trkpt lat="42.54787225662326" lon="11.909542693423234"><ele>319.0</ele><time>2026-04-04T13:55:32.936Z</time></trkpt><trkpt lat="42.54780335334866" lon="11.909474177058012"><ele>319.3333333333333</ele><time>2026-04-04T13:55:35.936Z</time></trkpt><trkpt lat="42.547745186679144" lon="11.909428819047315"><ele>319.66666666666663</ele><time>2026-04-04T13:55:37.936Z</time></trkpt><trkpt lat="42.54767558338679" lon="11.909385825894535"><ele>320.0</ele><time>2026-04-04T13:55:39.936Z</time></trkpt><trkpt lat="42.547607993302435" lon="11.909341571560649"><ele>320.3333333333333</ele><time>2026-04-04T13:55:41.936Z</time></trkpt><trkpt lat="42.547529660435536" lon="11.909302152800754"><ele>320.6666666666667</ele><time>2026-04-04T13:55:43.938Z</time></trkpt><trkpt lat="42.547450767774514" lon="11.909255006925417"><ele>321.0</ele><time>2026-04-04T13:55:45.938Z</time></trkpt><trkpt lat="42.54737031361133" lon="11.909220286613417"><ele>321.0</ele><time>2026-04-04T13:55:47.938Z</time></trkpt><trkpt lat="42.54729882702196" lon="11.909158170013885"><ele>321.0</ele><time>2026-04-04T13:55:49.938Z</time></trkpt><trkpt lat="42.54721612096253" lon="11.909131638325295"><ele>321.0</ele><time>2026-04-04T13:55:51.938Z</time></trkpt><trkpt lat="42.547141943995584" lon="11.909085010513456"><ele>321.0</ele><time>2026-04-04T13:55:53.938Z</time></trkpt><trkpt lat="42.54706791015685" lon="11.909038567486812"><ele>321.0</ele><time>2026-04-04T13:55:55.938Z</time></trkpt><trkpt lat="42.546984865662694" lon="11.90899834444724"><ele>321.0</ele><time>2026-04-04T13:55:57.938Z</time></trkpt><trkpt lat="42.54691566767559" lon="11.908939783691066"><ele>321.6666666666667</ele><time>2026-04-04T13:55:59.938Z</time></trkpt><trkpt lat="42.54683605291969" lon="11.908906852751324"><ele>322.3333333333333</ele><time>2026-04-04T13:56:01.938Z</time></trkpt><trkpt lat="42.54675815715575" lon="11.908856211553537"><ele>323.0</ele><time>2026-04-04T13:56:03.938Z</time></trkpt><trkpt lat="42.54668853465826" lon="11.908799896073461"><ele>323.66666666666663</ele><time>2026-04-04T13:56:05.938Z</time></trkpt><trkpt lat="42.546606821084346" lon="11.908761098665169"><ele>324.3333333333333</ele><time>2026-04-04T13:56:07.938Z</time></trkpt><trkpt lat="42.54654212756334" lon="11.908711011537063"><ele>325.0</ele><time>2026-04-04T13:56:09.938Z</time></trkpt><trkpt lat="42.546468481905386" lon="11.908668707119514"><ele>325.0</ele><time>2026-04-04T13:56:11.938Z</time></trkpt><trkpt lat="42.546394947192034" lon="11.908630287956512"><ele>325.0</ele><time>2026-04-04T13:56:13.938Z</time></trkpt><trkpt lat="42.54631799787127" lon="11.908585569944634"><ele>325.0</ele><time>2026-04-04T13:56:15.938Z</time></trkpt><trkpt lat="42.54623606305081" lon="11.9085396255713"><ele>325.0</ele><time>2026-04-04T13:56:17.937Z</time></trkpt><trkpt lat="42.54616534702705" lon="11.908500846042477"><ele>325.0</ele><time>2026-04-04T13:56:19.937Z</time></trkpt><trkpt lat="42.546088064495336" lon="11.908463354322437"><ele>325.0</ele><time>2026-04-04T13:56:21.937Z</time></trkpt><trkpt lat="42.54602504189219" lon="11.908421434378006"><ele>324.8333333333333</ele><time>2026-04-04T13:56:23.937Z</time></trkpt><trkpt lat="42.54595080705221" lon="11.90838508698329"><ele>324.66666666666663</ele><time>2026-04-04T13:56:25.937Z</time></trkpt><trkpt lat="42.54588319270711" lon="11.908335434571349"><ele>324.5</ele><time>2026-04-04T13:56:27.937Z</time></trkpt><trkpt lat="42.54581768269562" lon="11.908287732870265"><ele>324.3333333333333</ele><time>2026-04-04T13:56:29.937Z</time></trkpt><trkpt lat="42.54574592118596" lon="11.908250069856196"><ele>324.1666666666667</ele><time>2026-04-04T13:56:31.937Z</time></trkpt><trkpt lat="42.545675667999674" lon="11.908212555190433"><ele>324.0</ele><time>2026-04-04T13:56:33.937Z</time></trkpt><trkpt lat="42.54560942435289" lon="11.908178213913699"><ele>324.0</ele><time>2026-04-04T13:56:35.937Z</time></trkpt><trkpt lat="42.54553413501845" lon="11.90815611484271"><ele>324.0</ele><time>2026-04-04T13:56:37.937Z</time></trkpt><trkpt lat="42.54545894840103" lon="11.908152497771702"><ele>324.0</ele><time>2026-04-04T13:56:39.937Z</time></trkpt><trkpt lat="42.54538137172877" lon="11.908165020320451"><ele>324.0</ele><time>2026-04-04T13:56:41.937Z</time></trkpt><trkpt lat="42.5453036842544" lon="11.908170506024774"><ele>324.0</ele><time>2026-04-04T13:56:43.937Z</time></trkpt><trkpt lat="42.54522833584359" lon="11.908177899284068"><ele>324.0</ele><time>2026-04-04T13:56:45.937Z</time></trkpt><trkpt lat="42.54513785861599" lon="11.90820143853161"><ele>324.3333333333333</ele><time>2026-04-04T13:56:47.936Z</time></trkpt><trkpt lat="42.54505478645234" lon="11.908214631149255"><ele>324.6666666666667</ele><time>2026-04-04T13:56:49.936Z</time></trkpt><trkpt lat="42.54496914059608" lon="11.908237482802765"><ele>325.0</ele><time>2026-04-04T13:56:51.936Z</time></trkpt><trkpt lat="42.54487894706185" lon="11.908262462154333"><ele>325.33333333333337</ele><time>2026-04-04T13:56:53.936Z</time></trkpt><trkpt lat="42.54479121326381" lon="11.908294091258968"><ele>325.6666666666667</ele><time>2026-04-04T13:56:55.936Z</time></trkpt><trkpt lat="42.544700368099996" lon="11.90831231238077"><ele>326.0</ele><time>2026-04-04T13:56:57.936Z</time></trkpt><trkpt lat="42.544617359919044" lon="11.908342789029687"><ele>325.83333333333337</ele><time>2026-04-04T13:56:59.936Z</time></trkpt><trkpt lat="42.54453370118996" lon="11.908379493687509"><ele>325.6666666666667</ele><time>2026-04-04T13:57:01.936Z</time></trkpt><trkpt lat="42.544447877036376" lon="11.908396314159054"><ele>325.5</ele><time>2026-04-04T13:57:03.936Z</time></trkpt><trkpt lat="42.54437405686032" lon="11.908413159683269"><ele>325.3333333333333</ele><time>2026-04-04T13:57:05.936Z</time></trkpt><trkpt lat="42.544299531488704" lon="11.908439449707432"><ele>325.16666666666663</ele><time>2026-04-04T13:57:07.936Z</time></trkpt><trkpt lat="42.544235850010175" lon="11.908451614557807"><ele>325.0</ele><time>2026-04-04T13:57:09.936Z</time></trkpt><trkpt lat="42.544144509447946" lon="11.90846616273545"><ele>325.2857142857143</ele><time>2026-04-04T13:57:12.936Z</time></trkpt><trkpt lat="42.54405963196879" lon="11.908497835535492"><ele>325.5714285714286</ele><time>2026-04-04T13:57:15.936Z</time></trkpt><trkpt lat="42.54399201897593" lon="11.908493343540718"><ele>325.8571428571429</ele><time>2026-04-04T13:57:17.935Z</time></trkpt><trkpt lat="42.54392777049274" lon="11.90851193883902"><ele>326.1428571428571</ele><time>2026-04-04T13:57:19.935Z</time></trkpt><trkpt lat="42.543863676399575" lon="11.908514610453725"><ele>326.42857142857144</ele><time>2026-04-04T13:57:21.935Z</time></trkpt><trkpt lat="42.54380037757972" lon="11.908520196922785"><ele>326.7142857142857</ele><time>2026-04-04T13:57:23.935Z</time></trkpt><trkpt lat="42.54371252695347" lon="11.908522850445825"><ele>327.0</ele><time>2026-04-04T13:57:26.935Z</time></trkpt><trkpt lat="42.5436339825531" lon="11.90851835597219"><ele>327.1666666666667</ele><time>2026-04-04T13:57:29.935Z</time></trkpt><trkpt lat="42.54354439004767" lon="11.908495506319714"><ele>327.3333333333333</ele><time>2026-04-04T13:57:32.935Z</time></trkpt><trkpt lat="42.54347837862758" lon="11.908509589990448"><ele>327.5</ele><time>2026-04-04T13:57:34.935Z</time></trkpt><trkpt lat="42.54339792438716" lon="11.908566510014087"><ele>327.66666666666663</ele><time>2026-04-04T13:57:37.935Z</time></trkpt><trkpt lat="42.543324066880785" lon="11.908611514375703"><ele>327.8333333333333</ele><time>2026-04-04T13:57:40.935Z</time></trkpt><trkpt lat="42.54324906021615" lon="11.908663175379328"><ele>328.0</ele><time>2026-04-04T13:57:43.935Z</time></trkpt><trkpt lat="42.5431664295186" lon="11.908721404778202"><ele>328.0</ele><time>2026-04-04T13:57:46.934Z</time></trkpt><trkpt lat="42.54308586516047" lon="11.908775946545449"><ele>328.0</ele><time>2026-04-04T13:57:49.936Z</time></trkpt><trkpt lat="42.54300101868777" lon="11.908825763606167"><ele>328.0</ele><time>2026-04-04T13:57:52.936Z</time></trkpt><trkpt lat="42.54294228921111" lon="11.908862039594519"><ele>328.0</ele><time>2026-04-04T13:57:54.936Z</time></trkpt><trkpt lat="42.5428536638168" lon="11.908909099601635"><ele>328.0</ele><time>2026-04-04T13:57:57.936Z</time></trkpt><trkpt lat="42.5427757234835" lon="11.908960493190339"><ele>328.0</ele><time>2026-04-04T13:58:00.936Z</time></trkpt><trkpt lat="42.54269276852479" lon="11.90901091485702"><ele>328.5</ele><time>2026-04-04T13:58:03.936Z</time></trkpt><trkpt lat="42.54261367137679" lon="11.90905826906905"><ele>329.0</ele><time>2026-04-04T13:58:06.936Z</time></trkpt><trkpt lat="42.5425285325465" lon="11.90910961758178"><ele>329.5</ele><time>2026-04-04T13:58:09.936Z</time></trkpt><trkpt lat="42.54246199117035" lon="11.909129812987173"><ele>330.0</ele><time>2026-04-04T13:58:11.936Z</time></trkpt><trkpt lat="42.54237948676477" lon="11.909177193821995"><ele>330.5</ele><time>2026-04-04T13:58:14.936Z</time></trkpt><trkpt lat="42.54229767473521" lon="11.909219323011852"><ele>331.0</ele><time>2026-04-04T13:58:17.936Z</time></trkpt><trkpt lat="42.54221866402301" lon="11.90927169028976"><ele>331.0</ele><time>2026-04-04T13:58:20.936Z</time></trkpt><trkpt lat="42.542146656587235" lon="11.909321436667533"><ele>331.0</ele><time>2026-04-04T13:58:23.936Z</time></trkpt><trkpt lat="42.542085921780576" lon="11.909347703690548"><ele>331.0</ele><time>2026-04-04T13:58:25.936Z</time></trkpt><trkpt lat="42.54200324624746" lon="11.909391811912988"><ele>331.0</ele><time>2026-04-04T13:58:28.936Z</time></trkpt><trkpt lat="42.54192732961724" lon="11.909438714502706"><ele>331.0</ele><time>2026-04-04T13:58:31.936Z</time></trkpt><trkpt lat="42.54184974305784" lon="11.909483514132226"><ele>331.0</ele><time>2026-04-04T13:58:34.935Z</time></trkpt><trkpt lat="42.54177240730526" lon="11.90953072057995"><ele>331.3333333333333</ele><time>2026-04-04T13:58:37.935Z</time></trkpt><trkpt lat="42.5416856164527" lon="11.909575638821122"><ele>331.66666666666663</ele><time>2026-04-04T13:58:40.935Z</time></trkpt><trkpt lat="42.54162499372218" lon="11.909609173585093"><ele>332.0</ele><time>2026-04-04T13:58:42.935Z</time></trkpt><trkpt lat="42.54153643485613" lon="11.90965526677118"><ele>332.3333333333333</ele><time>2026-04-04T13:58:45.935Z</time></trkpt><trkpt lat="42.541447092600606" lon="11.909708923724152"><ele>332.6666666666667</ele><time>2026-04-04T13:58:48.935Z</time></trkpt><trkpt lat="42.54138554695651" lon="11.909739909923141"><ele>333.0</ele><time>2026-04-04T13:58:50.935Z</time></trkpt><trkpt lat="42.541319515566144" lon="11.909775083952551"><ele>333.0</ele><time>2026-04-04T13:58:52.935Z</time></trkpt><trkpt lat="42.54125326945681" lon="11.909810231386446"><ele>333.0</ele><time>2026-04-04T13:58:54.935Z</time></trkpt><trkpt lat="42.541189023385066" lon="11.909848800322823"><ele>333.0</ele><time>2026-04-04T13:58:56.935Z</time></trkpt><trkpt lat="42.54111697599727" lon="11.909889154983965"><ele>333.0</ele><time>2026-04-04T13:58:58.935Z</time></trkpt><trkpt lat="42.54105153303211" lon="11.90991839420006"><ele>333.0</ele><time>2026-04-04T13:59:00.935Z</time></trkpt><trkpt lat="42.54098342852568" lon="11.909973572155906"><ele>333.0</ele><time>2026-04-04T13:59:02.934Z</time></trkpt><trkpt lat="42.54092291516372" lon="11.91001344570537"><ele>333.0</ele><time>2026-04-04T13:59:04.934Z</time></trkpt><trkpt lat="42.54085018396418" lon="11.910054926227447"><ele>333.5714285714286</ele><time>2026-04-04T13:59:06.934Z</time></trkpt><trkpt lat="42.54078416881841" lon="11.910092817489273"><ele>334.1428571428571</ele><time>2026-04-04T13:59:08.934Z</time></trkpt><trkpt lat="42.54071408780887" lon="11.910130580474917"><ele>334.7142857142857</ele><time>2026-04-04T13:59:10.934Z</time></trkpt><trkpt lat="42.54064775538865" lon="11.910174315183786"><ele>335.28571428571433</ele><time>2026-04-04T13:59:12.934Z</time></trkpt><trkpt lat="42.5405813363835" lon="11.910213232572508"><ele>335.8571428571429</ele><time>2026-04-04T13:59:14.934Z</time></trkpt><trkpt lat="42.54051931754241" lon="11.91025656976686"><ele>336.42857142857144</ele><time>2026-04-04T13:59:16.934Z</time></trkpt><trkpt lat="42.54045801860189" lon="11.910300515292937"><ele>337.0</ele><time>2026-04-04T13:59:18.934Z</time></trkpt><trkpt lat="42.540396137230424" lon="11.910346000933984"><ele>337.0</ele><time>2026-04-04T13:59:20.934Z</time></trkpt><trkpt lat="42.540333023006646" lon="11.91039672073116"><ele>337.0</ele><time>2026-04-04T13:59:22.934Z</time></trkpt><trkpt lat="42.54027061162064" lon="11.910450628248322"><ele>337.0</ele><time>2026-04-04T13:59:24.934Z</time></trkpt><trkpt lat="42.540208398380464" lon="11.910510077626748"><ele>337.0</ele><time>2026-04-04T13:59:26.934Z</time></trkpt><trkpt lat="42.54014946867588" lon="11.910573128928295"><ele>337.0</ele><time>2026-04-04T13:59:28.934Z</time></trkpt><trkpt lat="42.540086018710376" lon="11.910640414910558"><ele>337.0</ele><time>2026-04-04T13:59:30.934Z</time></trkpt><trkpt lat="42.5400259400388" lon="11.9107165204329"><ele>337.0</ele><time>2026-04-04T13:59:32.933Z</time></trkpt><trkpt lat="42.53997485890378" lon="11.910798248338338"><ele>337.0</ele><time>2026-04-04T13:59:34.933Z</time></trkpt><trkpt lat="42.53990886676208" lon="11.910883387473886"><ele>337.0</ele><time>2026-04-04T13:59:36.933Z</time></trkpt><trkpt lat="42.539850079252936" lon="11.910962954537991"><ele>337.0</ele><time>2026-04-04T13:59:38.933Z</time></trkpt><trkpt lat="42.53979497364675" lon="11.911049745085586"><ele>337.0</ele><time>2026-04-04T13:59:40.933Z</time></trkpt><trkpt lat="42.539733835126015" lon="11.911137319455708"><ele>337.0</ele><time>2026-04-04T13:59:42.933Z</time></trkpt><trkpt lat="42.539677283338214" lon="11.911233082960434"><ele>337.40000000000003</ele><time>2026-04-04T13:59:44.933Z</time></trkpt><trkpt lat="42.5396248895829" lon="11.911332200583406"><ele>337.8</ele><time>2026-04-04T13:59:46.933Z</time></trkpt><trkpt lat="42.539574368760356" lon="11.911435019304648"><ele>338.2</ele><time>2026-04-04T13:59:48.933Z</time></trkpt><trkpt lat="42.53951733366025" lon="11.911537259782893"><ele>338.6</ele><time>2026-04-04T13:59:50.933Z</time></trkpt><trkpt lat="42.53946495632831" lon="11.911637040342779"><ele>339.0</ele><time>2026-04-04T13:59:52.933Z</time></trkpt><trkpt lat="42.53941497002737" lon="11.91173141441725"><ele>338.6666666666667</ele><time>2026-04-04T13:59:54.933Z</time></trkpt><trkpt lat="42.539363046679625" lon="11.91182095765226"><ele>338.3333333333333</ele><time>2026-04-04T13:59:56.935Z</time></trkpt><trkpt lat="42.53931635143317" lon="11.911917367955828"><ele>338.0</ele><time>2026-04-04T13:59:58.935Z</time></trkpt><trkpt lat="42.539267870761094" lon="11.912006346907532"><ele>337.66666666666663</ele><time>2026-04-04T14:00:00.935Z</time></trkpt><trkpt lat="42.53922283947174" lon="11.912098383479195"><ele>337.3333333333333</ele><time>2026-04-04T14:00:02.934Z</time></trkpt><trkpt lat="42.53918851413604" lon="11.912179800078746"><ele>337.0</ele><time>2026-04-04T14:00:04.935Z</time></trkpt><trkpt lat="42.53913941189464" lon="11.912275296020788"><ele>337.0</ele><time>2026-04-04T14:00:06.935Z</time></trkpt><trkpt lat="42.5390899481571" lon="11.912360175106583"><ele>337.0</ele><time>2026-04-04T14:00:08.935Z</time></trkpt><trkpt lat="42.53905475252577" lon="11.912475386019892"><ele>337.0</ele><time>2026-04-04T14:00:10.935Z</time></trkpt><trkpt lat="42.5390244458297" lon="11.912595027265123"><ele>337.0</ele><time>2026-04-04T14:00:12.935Z</time></trkpt><trkpt lat="42.53899920712848" lon="11.912732569738486"><ele>337.0</ele><time>2026-04-04T14:00:14.935Z</time></trkpt><trkpt lat="42.538996221499055" lon="11.912882073759379"><ele>336.8571428571429</ele><time>2026-04-04T14:00:16.934Z</time></trkpt><trkpt lat="42.53900624229119" lon="11.912971581598455"><ele>336.7142857142857</ele><time>2026-04-04T14:00:17.934Z</time></trkpt><trkpt lat="42.53901775263703" lon="11.913064564896404"><ele>336.57142857142856</ele><time>2026-04-04T14:00:18.934Z</time></trkpt><trkpt lat="42.53904401467276" lon="11.913154016671985"><ele>336.42857142857144</ele><time>2026-04-04T14:00:19.934Z</time></trkpt><trkpt lat="42.539065771463335" lon="11.913240209661708"><ele>336.2857142857143</ele><time>2026-04-04T14:00:20.934Z</time></trkpt><trkpt lat="42.53907754377453" lon="11.913341474462465"><ele>336.14285714285717</ele><time>2026-04-04T14:00:21.934Z</time></trkpt><trkpt lat="42.5390914220849" lon="11.913439570531635"><ele>336.0</ele><time>2026-04-04T14:00:22.934Z</time></trkpt><trkpt lat="42.5390982896157" lon="11.913529330276658"><ele>336.0</ele><time>2026-04-04T14:00:23.934Z</time></trkpt><trkpt lat="42.53910341274905" lon="11.913616805080121"><ele>336.0</ele><time>2026-04-04T14:00:24.934Z</time></trkpt><trkpt lat="42.53910961271381" lon="11.913708349881814"><ele>336.0</ele><time>2026-04-04T14:00:25.934Z</time></trkpt><trkpt lat="42.53911409722039" lon="11.913796032138542"><ele>336.0</ele><time>2026-04-04T14:00:26.934Z</time></trkpt><trkpt lat="42.53911935182989" lon="11.913881963305474"><ele>336.0</ele><time>2026-04-04T14:00:27.934Z</time></trkpt><trkpt lat="42.53912702986667" lon="11.913967836168581"><ele>336.0</ele><time>2026-04-04T14:00:28.934Z</time></trkpt><trkpt lat="42.53913237100201" lon="11.914053794069876"><ele>336.0</ele><time>2026-04-04T14:00:29.934Z</time></trkpt><trkpt lat="42.53915071898399" lon="11.91421438377825"><ele>337.75</ele><time>2026-04-04T14:00:31.934Z</time></trkpt><trkpt lat="42.539156311883715" lon="11.914379314106553"><ele>339.5</ele><time>2026-04-04T14:00:33.934Z</time></trkpt><trkpt lat="42.53916389175428" lon="11.914537088810826"><ele>341.25</ele><time>2026-04-04T14:00:35.934Z</time></trkpt><trkpt lat="42.53917201799105" lon="11.914697580617634"><ele>343.0</ele><time>2026-04-04T14:00:37.934Z</time></trkpt><trkpt lat="42.53917185911296" lon="11.914843002379833"><ele>343.0</ele><time>2026-04-04T14:00:39.934Z</time></trkpt><trkpt lat="42.5391614531141" lon="11.914929691001737"><ele>343.0</ele><time>2026-04-04T14:00:40.934Z</time></trkpt><trkpt lat="42.5391380878773" lon="11.915083351649733"><ele>343.0</ele><time>2026-04-04T14:00:42.934Z</time></trkpt><trkpt lat="42.53910191807395" lon="11.915231889467202"><ele>343.0</ele><time>2026-04-04T14:00:44.933Z</time></trkpt><trkpt lat="42.53907758083071" lon="11.915381582195831"><ele>343.0</ele><time>2026-04-04T14:00:46.933Z</time></trkpt><trkpt lat="42.53904845788428" lon="11.915519503891717"><ele>341.59999999999997</ele><time>2026-04-04T14:00:48.933Z</time></trkpt><trkpt lat="42.539020427485084" lon="11.9156482298547"><ele>340.2</ele><time>2026-04-04T14:00:50.933Z</time></trkpt><trkpt lat="42.538988645313815" lon="11.915779944150303"><ele>338.8</ele><time>2026-04-04T14:00:52.933Z</time></trkpt><trkpt lat="42.53897009634874" lon="11.915907828779522"><ele>337.4</ele><time>2026-04-04T14:00:54.933Z</time></trkpt><trkpt lat="42.53894698317174" lon="11.916039912836956"><ele>336.0</ele><time>2026-04-04T14:00:56.933Z</time></trkpt><trkpt lat="42.5389243379316" lon="11.916168102838556"><ele>334.8</ele><time>2026-04-04T14:00:58.933Z</time></trkpt><trkpt lat="42.538891220113065" lon="11.916292604205152"><ele>333.6</ele><time>2026-04-04T14:01:00.933Z</time></trkpt><trkpt lat="42.538859976948224" lon="11.916430052480855"><ele>332.4</ele><time>2026-04-04T14:01:02.933Z</time></trkpt><trkpt lat="42.5388307582462" lon="11.91656673190789"><ele>331.2</ele><time>2026-04-04T14:01:04.933Z</time></trkpt><trkpt lat="42.538796249666966" lon="11.916724353558157"><ele>330.0</ele><time>2026-04-04T14:01:06.933Z</time></trkpt><trkpt lat="42.53875607600636" lon="11.916887081118446"><ele>331.2</ele><time>2026-04-04T14:01:08.933Z</time></trkpt><trkpt lat="42.538712374905685" lon="11.917047192335051"><ele>332.4</ele><time>2026-04-04T14:01:10.933Z</time></trkpt><trkpt lat="42.538687244588296" lon="11.917130674611515"><ele>333.6</ele><time>2026-04-04T14:01:11.933Z</time></trkpt><trkpt lat="42.53865046343939" lon="11.917297949975381"><ele>334.8</ele><time>2026-04-04T14:01:13.932Z</time></trkpt><trkpt lat="42.53863156136848" lon="11.917382224817045"><ele>336.0</ele><time>2026-04-04T14:01:14.932Z</time></trkpt><trkpt lat="42.53860775288524" lon="11.917472863653614"><ele>336.0</ele><time>2026-04-04T14:01:15.932Z</time></trkpt><trkpt lat="42.53858513294388" lon="11.917557505863027"><ele>336.0</ele><time>2026-04-04T14:01:16.932Z</time></trkpt><trkpt lat="42.538565973234704" lon="11.917642190547724"><ele>336.0</ele><time>2026-04-04T14:01:17.932Z</time></trkpt><trkpt lat="42.53854554271342" lon="11.917728083028411"><ele>336.0</ele><time>2026-04-04T14:01:18.932Z</time></trkpt><trkpt lat="42.53851816874133" lon="11.917814884057409"><ele>336.0</ele><time>2026-04-04T14:01:19.932Z</time></trkpt><trkpt lat="42.53848678440591" lon="11.917897486040989"><ele>336.0</ele><time>2026-04-04T14:01:20.932Z</time></trkpt><trkpt lat="42.538458696371826" lon="11.917980541872845"><ele>336.0</ele><time>2026-04-04T14:01:21.932Z</time></trkpt><trkpt lat="42.538429553062684" lon="11.91806163495443"><ele>335.0</ele><time>2026-04-04T14:01:22.932Z</time></trkpt><trkpt lat="42.53838992939318" lon="11.918146169879662"><ele>334.0</ele><time>2026-04-04T14:01:23.932Z</time></trkpt><trkpt lat="42.53835048176683" lon="11.918229848307272"><ele>333.0</ele><time>2026-04-04T14:01:24.932Z</time></trkpt><trkpt lat="42.538308254946195" lon="11.918310938419157"><ele>332.0</ele><time>2026-04-04T14:01:25.932Z</time></trkpt><trkpt lat="42.538267579856566" lon="11.918394063139077"><ele>331.0</ele><time>2026-04-04T14:01:26.932Z</time></trkpt><trkpt lat="42.53821418545688" lon="11.918471238859064"><ele>330.0</ele><time>2026-04-04T14:01:27.932Z</time></trkpt><trkpt lat="42.53816408575221" lon="11.91853962167254"><ele>329.0</ele><time>2026-04-04T14:01:28.932Z</time></trkpt><trkpt lat="42.53810317940105" lon="11.91860994659211"><ele>327.83333333333337</ele><time>2026-04-04T14:01:29.932Z</time></trkpt><trkpt lat="42.538040787227125" lon="11.918674891171229"><ele>326.6666666666667</ele><time>2026-04-04T14:01:30.932Z</time></trkpt><trkpt lat="42.537984758639084" lon="11.918734496587616"><ele>325.5</ele><time>2026-04-04T14:01:31.932Z</time></trkpt><trkpt lat="42.53791617064828" lon="11.91879289707881"><ele>324.3333333333333</ele><time>2026-04-04T14:01:32.932Z</time></trkpt><trkpt lat="42.53785997000175" lon="11.91884794391482"><ele>323.16666666666663</ele><time>2026-04-04T14:01:33.932Z</time></trkpt><trkpt lat="42.53777862456706" lon="11.918908796711435"><ele>322.0</ele><time>2026-04-04T14:01:34.932Z</time></trkpt><trkpt lat="42.53770793334166" lon="11.918966079100326"><ele>322.0</ele><time>2026-04-04T14:01:35.932Z</time></trkpt><trkpt lat="42.53764019156425" lon="11.919012442774951"><ele>322.0</ele><time>2026-04-04T14:01:36.932Z</time></trkpt><trkpt lat="42.537576213640946" lon="11.919065401288485"><ele>322.0</ele><time>2026-04-04T14:01:37.932Z</time></trkpt><trkpt lat="42.5375119279562" lon="11.919129407494276"><ele>322.0</ele><time>2026-04-04T14:01:38.932Z</time></trkpt><trkpt lat="42.53744847056501" lon="11.919187976667287"><ele>322.0</ele><time>2026-04-04T14:01:39.932Z</time></trkpt><trkpt lat="42.53737420692263" lon="11.919247116357406"><ele>322.0</ele><time>2026-04-04T14:01:40.932Z</time></trkpt><trkpt lat="42.53730274945748" lon="11.919301990381303"><ele>321.5</ele><time>2026-04-04T14:01:41.932Z</time></trkpt><trkpt lat="42.53723625970954" lon="11.919359100012564"><ele>321.0</ele><time>2026-04-04T14:01:42.931Z</time></trkpt><trkpt lat="42.53716558678615" lon="11.91941815731999"><ele>320.5</ele><time>2026-04-04T14:01:43.931Z</time></trkpt><trkpt lat="42.53709007235567" lon="11.919477943318128"><ele>320.0</ele><time>2026-04-04T14:01:44.931Z</time></trkpt><trkpt lat="42.53702241388545" lon="11.919548492184685"><ele>319.5</ele><time>2026-04-04T14:01:45.931Z</time></trkpt><trkpt lat="42.53695086127263" lon="11.919614715715193"><ele>319.0</ele><time>2026-04-04T14:01:46.93Z</time></trkpt><trkpt lat="42.53688344632285" lon="11.919682147309052"><ele>319.0</ele><time>2026-04-04T14:01:47.93Z</time></trkpt><trkpt lat="42.53681066317761" lon="11.91973535421557"><ele>319.0</ele><time>2026-04-04T14:01:48.93Z</time></trkpt><trkpt lat="42.53673067286472" lon="11.91978628999555"><ele>319.0</ele><time>2026-04-04T14:01:49.93Z</time></trkpt><trkpt lat="42.536664583147314" lon="11.919851735229004"><ele>319.0</ele><time>2026-04-04T14:01:50.93Z</time></trkpt><trkpt lat="42.536592939618195" lon="11.91989762484147"><ele>319.0</ele><time>2026-04-04T14:01:51.93Z</time></trkpt><trkpt lat="42.536513901361026" lon="11.919951768302136"><ele>319.0</ele><time>2026-04-04T14:01:52.93Z</time></trkpt><trkpt lat="42.536446287285216" lon="11.920017192476287"><ele>318.66666666666663</ele><time>2026-04-04T14:01:53.93Z</time></trkpt><trkpt lat="42.53637710819229" lon="11.920085276874492"><ele>318.3333333333333</ele><time>2026-04-04T14:01:54.93Z</time></trkpt><trkpt lat="42.53630376128017" lon="11.92014756713638"><ele>318.0</ele><time>2026-04-04T14:01:55.93Z</time></trkpt><trkpt lat="42.53623505587977" lon="11.920207272619905"><ele>317.6666666666667</ele><time>2026-04-04T14:01:56.93Z</time></trkpt><trkpt lat="42.536167048027565" lon="11.92026912985248"><ele>317.33333333333337</ele><time>2026-04-04T14:01:57.93Z</time></trkpt><trkpt lat="42.536100437562666" lon="11.920330564200205"><ele>317.0</ele><time>2026-04-04T14:01:58.93Z</time></trkpt><trkpt lat="42.53603683733409" lon="11.920403080251024"><ele>317.0</ele><time>2026-04-04T14:01:59.93Z</time></trkpt><trkpt lat="42.535983878724" lon="11.92048820700667"><ele>317.0</ele><time>2026-04-04T14:02:00.93Z</time></trkpt><trkpt lat="42.53593041600243" lon="11.920560306315739"><ele>317.0</ele><time>2026-04-04T14:02:01.933Z</time></trkpt><trkpt lat="42.535885259774815" lon="11.920644220176802"><ele>317.0</ele><time>2026-04-04T14:02:02.932Z</time></trkpt><trkpt lat="42.53584249053442" lon="11.920728429196073"><ele>317.0</ele><time>2026-04-04T14:02:03.932Z</time></trkpt><trkpt lat="42.5357969667428" lon="11.920814021184421"><ele>317.0</ele><time>2026-04-04T14:02:04.933Z</time></trkpt><trkpt lat="42.5357504591523" lon="11.920897248490453"><ele>316.7142857142857</ele><time>2026-04-04T14:02:05.932Z</time></trkpt><trkpt lat="42.5357133905501" lon="11.920979439238696"><ele>316.42857142857144</ele><time>2026-04-04T14:02:06.932Z</time></trkpt><trkpt lat="42.5356708488507" lon="11.921051176113913"><ele>316.1428571428571</ele><time>2026-04-04T14:02:07.932Z</time></trkpt><trkpt lat="42.535632301965336" lon="11.921144419002346"><ele>315.8571428571429</ele><time>2026-04-04T14:02:08.932Z</time></trkpt><trkpt lat="42.535594867820166" lon="11.92122975816436"><ele>315.57142857142856</ele><time>2026-04-04T14:02:09.932Z</time></trkpt><trkpt lat="42.535556041867885" lon="11.921308375334407"><ele>315.2857142857143</ele><time>2026-04-04T14:02:10.932Z</time></trkpt><trkpt lat="42.53551441040787" lon="11.921394816998495"><ele>315.0</ele><time>2026-04-04T14:02:11.932Z</time></trkpt><trkpt lat="42.53547737203004" lon="11.921474267249895"><ele>315.0</ele><time>2026-04-04T14:02:12.932Z</time></trkpt><trkpt lat="42.53544279004252" lon="11.921557589518606"><ele>315.0</ele><time>2026-04-04T14:02:13.933Z</time></trkpt><trkpt lat="42.535407487819725" lon="11.921637903533504"><ele>315.0</ele><time>2026-04-04T14:02:14.932Z</time></trkpt><trkpt lat="42.535375604236805" lon="11.921712585105151"><ele>315.0</ele><time>2026-04-04T14:02:15.932Z</time></trkpt><trkpt lat="42.5353552951562" lon="11.921799177123138"><ele>315.0</ele><time>2026-04-04T14:02:16.932Z</time></trkpt><trkpt lat="42.53531276119368" lon="11.921875663809198"><ele>315.0</ele><time>2026-04-04T14:02:17.932Z</time></trkpt><trkpt lat="42.53529573555897" lon="11.921961643720262"><ele>315.0</ele><time>2026-04-04T14:02:18.932Z</time></trkpt><trkpt lat="42.535276462743546" lon="11.922042977323509"><ele>316.25</ele><time>2026-04-04T14:02:19.932Z</time></trkpt><trkpt lat="42.535256894693426" lon="11.922203418605239"><ele>317.5</ele><time>2026-04-04T14:02:21.932Z</time></trkpt><trkpt lat="42.535261162544465" lon="11.922371579175737"><ele>318.75</ele><time>2026-04-04T14:02:23.932Z</time></trkpt><trkpt lat="42.53526020835156" lon="11.922523989410683"><ele>320.0</ele><time>2026-04-04T14:02:25.932Z</time></trkpt><trkpt lat="42.53526367014938" lon="11.922673663004012"><ele>320.6</ele><time>2026-04-04T14:02:27.932Z</time></trkpt><trkpt lat="42.53526840243745" lon="11.92281679597633"><ele>321.2</ele><time>2026-04-04T14:02:29.932Z</time></trkpt><trkpt lat="42.535271556519014" lon="11.922948862846553"><ele>321.79999999999995</ele><time>2026-04-04T14:02:31.932Z</time></trkpt><trkpt lat="42.53528644533287" lon="11.92307811594235"><ele>322.4</ele><time>2026-04-04T14:02:33.932Z</time></trkpt><trkpt lat="42.5352922838062" lon="11.923207064718438"><ele>323.0</ele><time>2026-04-04T14:02:35.932Z</time></trkpt><trkpt lat="42.53527524778103" lon="11.92334187844508"><ele>322.83333333333337</ele><time>2026-04-04T14:02:37.932Z</time></trkpt><trkpt lat="42.535262381685406" lon="11.923455671326769"><ele>322.6666666666667</ele><time>2026-04-04T14:02:39.932Z</time></trkpt><trkpt lat="42.53524575092952" lon="11.923568916203184"><ele>322.5</ele><time>2026-04-04T14:02:41.932Z</time></trkpt><trkpt lat="42.5352175440307" lon="11.923653976146523"><ele>322.3333333333333</ele><time>2026-04-04T14:02:43.931Z</time></trkpt><trkpt lat="42.53517142624347" lon="11.923750692641907"><ele>322.16666666666663</ele><time>2026-04-04T14:02:45.931Z</time></trkpt><trkpt lat="42.53517375913206" lon="11.92386886764673"><ele>322.0</ele><time>2026-04-04T14:02:48.931Z</time></trkpt><trkpt lat="42.53516125070942" lon="11.9239773960038"><ele>322.0</ele><time>2026-04-04T14:02:50.931Z</time></trkpt><trkpt lat="42.53514112202037" lon="11.924083457818753"><ele>322.0</ele><time>2026-04-04T14:02:52.931Z</time></trkpt><trkpt lat="42.535142997626956" lon="11.924191402292962"><ele>322.0</ele><time>2026-04-04T14:02:54.931Z</time></trkpt><trkpt lat="42.535142424638465" lon="11.924299558446595"><ele>322.0</ele><time>2026-04-04T14:02:56.931Z</time></trkpt><trkpt lat="42.535171637554" lon="11.924396064635241"><ele>322.0</ele><time>2026-04-04T14:02:58.931Z</time></trkpt><trkpt lat="42.53520472251584" lon="11.924498754878824"><ele>322.0</ele><time>2026-04-04T14:03:00.931Z</time></trkpt><trkpt lat="42.53520668492416" lon="11.924619055136574"><ele>321.0</ele><time>2026-04-04T14:03:02.931Z</time></trkpt><trkpt lat="42.535249086151296" lon="11.924760284105618"><ele>320.0</ele><time>2026-04-04T14:03:04.931Z</time></trkpt><trkpt lat="42.53529111470062" lon="11.924891417645364"><ele>319.0</ele><time>2026-04-04T14:03:06.931Z</time></trkpt><trkpt lat="42.53533682876441" lon="11.924960857015659"><ele>318.0</ele><time>2026-04-04T14:03:08.931Z</time></trkpt><trkpt lat="42.53538266019527" lon="11.925059633694906"><ele>317.0</ele><time>2026-04-04T14:03:11.931Z</time></trkpt><trkpt lat="42.53543333389101" lon="11.925141567690817"><ele>316.2857142857143</ele><time>2026-04-04T14:03:15.93Z</time></trkpt><trkpt lat="42.535394459084436" lon="11.925240742057838"><ele>315.57142857142856</ele><time>2026-04-04T14:03:19.93Z</time></trkpt><trkpt lat="42.53535145570795" lon="11.925304726978544"><ele>314.8571428571429</ele><time>2026-04-04T14:03:21.93Z</time></trkpt><trkpt lat="42.53529684005558" lon="11.925354677240811"><ele>314.1428571428571</ele><time>2026-04-04T14:03:24.93Z</time></trkpt><trkpt lat="42.53527084723517" lon="11.925432649408332"><ele>313.4285714285714</ele><time>2026-04-04T14:03:30.93Z</time></trkpt><trkpt lat="42.53534745898713" lon="11.925446536282962"><ele>312.7142857142857</ele><time>2026-04-04T14:03:34.93Z</time></trkpt><trkpt lat="42.53539516770713" lon="11.925353682611181"><ele>312.0</ele><time>2026-04-04T14:03:37.93Z</time></trkpt><trkpt lat="42.53544682547335" lon="11.925302959893898"><ele>311.5</ele><time>2026-04-04T14:03:40.93Z</time></trkpt><trkpt lat="42.5355180995572" lon="11.925340374724835"><ele>311.0</ele><time>2026-04-04T14:03:43.929Z</time></trkpt><trkpt lat="42.5355941842787" lon="11.925404568210057"><ele>310.5</ele><time>2026-04-04T14:03:46.929Z</time></trkpt><trkpt lat="42.53566698041584" lon="11.925472361275377"><ele>310.0</ele><time>2026-04-04T14:03:49.929Z</time></trkpt><trkpt lat="42.53573495550841" lon="11.925509457768769"><ele>309.5</ele><time>2026-04-04T14:03:51.929Z</time></trkpt><trkpt lat="42.53580387364864" lon="11.925562983730812"><ele>309.0</ele><time>2026-04-04T14:03:54.929Z</time></trkpt><trkpt lat="42.535836363262746" lon="11.925644159020994"><ele>309.00000000000006</ele><time>2026-04-04T14:03:56.929Z</time></trkpt><trkpt lat="42.53581238779333" lon="11.925732076990842"><ele>309.0</ele><time>2026-04-04T14:03:58.929Z</time></trkpt><trkpt lat="42.53575780579242" lon="11.925815810344421"><ele>309.0</ele><time>2026-04-04T14:04:01.929Z</time></trkpt><trkpt lat="42.53572919155517" lon="11.925893618965327"><ele>309.0</ele><time>2026-04-04T14:04:03.929Z</time></trkpt><trkpt lat="42.53569064320959" lon="11.9259644551427"><ele>309.0</ele><time>2026-04-04T14:04:05.929Z</time></trkpt><trkpt lat="42.53565593946322" lon="11.926039155676772"><ele>309.00000000000006</ele><time>2026-04-04T14:04:07.931Z</time></trkpt><trkpt lat="42.53559403819888" lon="11.926126192042139"><ele>309.0</ele><time>2026-04-04T14:04:10.931Z</time></trkpt><trkpt lat="42.53552435482841" lon="11.926100632164163"><ele>309.00000000000006</ele><time>2026-04-04T14:04:12.931Z</time></trkpt><trkpt lat="42.53547180611236" lon="11.92604470734863"><ele>309.0</ele><time>2026-04-04T14:04:14.93Z</time></trkpt><trkpt lat="42.535402023183906" lon="11.926040769654739"><ele>309.0</ele><time>2026-04-04T14:04:21.931Z</time></trkpt><trkpt lat="42.535362645044934" lon="11.926119289445078"><ele>309.0</ele><time>2026-04-04T14:04:23.931Z</time></trkpt><trkpt lat="42.53532865104786" lon="11.92619165222212"><ele>309.0</ele><time>2026-04-04T14:04:25.931Z</time></trkpt><trkpt lat="42.535293786786404" lon="11.926285679138767"><ele>309.00000000000006</ele><time>2026-04-04T14:04:28.931Z</time></trkpt><trkpt lat="42.53523959222027" lon="11.926389650274094"><ele>309.0</ele><time>2026-04-04T14:04:31.93Z</time></trkpt><trkpt lat="42.53519667086612" lon="11.926463401342554"><ele>309.0</ele><time>2026-04-04T14:04:33.93Z</time></trkpt><trkpt lat="42.53514794679341" lon="11.926540078494696"><ele>309.0</ele><time>2026-04-04T14:04:35.93Z</time></trkpt><trkpt lat="42.53510490689889" lon="11.92662364048962"><ele>309.0</ele><time>2026-04-04T14:04:37.93Z</time></trkpt><trkpt lat="42.53507218851402" lon="11.926714134613778"><ele>309.0</ele><time>2026-04-04T14:04:39.93Z</time></trkpt><trkpt lat="42.535016057757325" lon="11.926814922937313"><ele>309.0</ele><time>2026-04-04T14:04:42.93Z</time></trkpt><trkpt lat="42.534956360901425" lon="11.926887712309822"><ele>309.0</ele><time>2026-04-04T14:04:45.93Z</time></trkpt><trkpt lat="42.53491321517763" lon="11.9269517355422"><ele>308.6666666666667</ele><time>2026-04-04T14:04:48.93Z</time></trkpt><trkpt lat="42.53487427571781" lon="11.92703082080098"><ele>308.3333333333333</ele><time>2026-04-04T14:04:52.93Z</time></trkpt><trkpt lat="42.53482546356764" lon="11.927099300791744"><ele>308.0</ele><time>2026-04-04T14:04:57.93Z</time></trkpt><trkpt lat="42.53478245570885" lon="11.927202954341306"><ele>307.66666666666663</ele><time>2026-04-04T14:05:01.929Z</time></trkpt><trkpt lat="42.53475844186996" lon="11.927307513868012"><ele>307.3333333333333</ele><time>2026-04-04T14:05:04.929Z</time></trkpt><trkpt lat="42.534757281791016" lon="11.927412970523935"><ele>307.0</ele><time>2026-04-04T14:05:07.929Z</time></trkpt><trkpt lat="42.53473510932756" lon="11.92750937998756"><ele>306.99999999999994</ele><time>2026-04-04T14:05:10.929Z</time></trkpt><trkpt lat="42.5347094520979" lon="11.92762968589411"><ele>307.0</ele><time>2026-04-04T14:05:14.929Z</time></trkpt><trkpt lat="42.53468471107466" lon="11.92771881891164"><ele>307.0</ele><time>2026-04-04T14:05:17.929Z</time></trkpt><trkpt lat="42.53466027909486" lon="11.92779894465355"><ele>307.0</ele><time>2026-04-04T14:05:20.929Z</time></trkpt><trkpt lat="42.53464574868248" lon="11.927895498084998"><ele>307.0</ele><time>2026-04-04T14:05:24.929Z</time></trkpt><trkpt lat="42.5346378831766" lon="11.92800024006456"><ele>306.99999999999994</ele><time>2026-04-04T14:05:27.929Z</time></trkpt><trkpt lat="42.534619535844044" lon="11.928084671390394"><ele>307.0</ele><time>2026-04-04T14:05:29.928Z</time></trkpt><trkpt lat="42.534610682453625" lon="11.92819122302252"><ele>306.99999999999994</ele><time>2026-04-04T14:05:32.928Z</time></trkpt><trkpt lat="42.53459668548689" lon="11.928285077312092"><ele>307.0</ele><time>2026-04-04T14:05:34.928Z</time></trkpt><trkpt lat="42.53457798093407" lon="11.928377691097461"><ele>307.0</ele><time>2026-04-04T14:05:36.928Z</time></trkpt><trkpt lat="42.53455986827351" lon="11.928474977074204"><ele>307.0</ele><time>2026-04-04T14:05:38.928Z</time></trkpt><trkpt lat="42.534539586543154" lon="11.928576532248984"><ele>307.0</ele><time>2026-04-04T14:05:40.928Z</time></trkpt><trkpt lat="42.53452254907842" lon="11.928677036130075"><ele>306.99999999999994</ele><time>2026-04-04T14:05:42.928Z</time></trkpt><trkpt lat="42.53450933756536" lon="11.928780964935205"><ele>307.0</ele><time>2026-04-04T14:05:44.928Z</time></trkpt><trkpt lat="42.53449415802533" lon="11.928891344776485"><ele>307.3333333333333</ele><time>2026-04-04T14:05:46.928Z</time></trkpt><trkpt lat="42.53448082697382" lon="11.928995521356859"><ele>307.66666666666663</ele><time>2026-04-04T14:05:48.928Z</time></trkpt><trkpt lat="42.5344535958795" lon="11.929101067314885"><ele>308.0</ele><time>2026-04-04T14:05:50.928Z</time></trkpt><trkpt lat="42.5344397654022" lon="11.929190918727768"><ele>308.3333333333333</ele><time>2026-04-04T14:05:52.928Z</time></trkpt><trkpt lat="42.53441309236332" lon="11.929305465249193"><ele>308.6666666666667</ele><time>2026-04-04T14:05:54.928Z</time></trkpt><trkpt lat="42.53440258926022" lon="11.929416996844296"><ele>309.0</ele><time>2026-04-04T14:05:56.928Z</time></trkpt><trkpt lat="42.5343988549374" lon="11.929535267429566"><ele>309.0</ele><time>2026-04-04T14:05:58.927Z</time></trkpt><trkpt lat="42.53439110777661" lon="11.929658652932435"><ele>309.0</ele><time>2026-04-04T14:06:00.927Z</time></trkpt><trkpt lat="42.534377499845384" lon="11.929777839502089"><ele>309.0</ele><time>2026-04-04T14:06:02.927Z</time></trkpt><trkpt lat="42.53435431442735" lon="11.929881922375241"><ele>309.0</ele><time>2026-04-04T14:06:04.927Z</time></trkpt><trkpt lat="42.534346247327704" lon="11.929991353420386"><ele>309.0</ele><time>2026-04-04T14:06:06.927Z</time></trkpt><trkpt lat="42.534321193779995" lon="11.930092894474416"><ele>309.0</ele><time>2026-04-04T14:06:08.927Z</time></trkpt><trkpt lat="42.53429094323767" lon="11.93019075902128"><ele>308.6666666666667</ele><time>2026-04-04T14:06:10.927Z</time></trkpt><trkpt lat="42.534283150624574" lon="11.930299663381502"><ele>308.3333333333333</ele><time>2026-04-04T14:06:12.927Z</time></trkpt><trkpt lat="42.53427476219722" lon="11.930412314931122"><ele>308.0</ele><time>2026-04-04T14:06:14.929Z</time></trkpt><trkpt lat="42.53425944385217" lon="11.930520463143141"><ele>307.66666666666663</ele><time>2026-04-04T14:06:16.929Z</time></trkpt><trkpt lat="42.53424517782398" lon="11.930613023894223"><ele>307.3333333333333</ele><time>2026-04-04T14:06:18.929Z</time></trkpt><trkpt lat="42.53422474381117" lon="11.93070123735662"><ele>307.0</ele><time>2026-04-04T14:06:20.929Z</time></trkpt><trkpt lat="42.53417492730952" lon="11.930768336526405"><ele>307.0</ele><time>2026-04-04T14:06:22.929Z</time></trkpt><trkpt lat="42.5341253900632" lon="11.930855377402953"><ele>307.0</ele><time>2026-04-04T14:06:24.929Z</time></trkpt><trkpt lat="42.53409731688479" lon="11.930935717072789"><ele>307.0</ele><time>2026-04-04T14:06:26.929Z</time></trkpt><trkpt lat="42.53406316211255" lon="11.931012027784956"><ele>307.0</ele><time>2026-04-04T14:06:28.929Z</time></trkpt><trkpt lat="42.53398929353882" lon="11.931102570034108"><ele>307.0</ele><time>2026-04-04T14:06:31.929Z</time></trkpt><trkpt lat="42.533896219813535" lon="11.931124468548578"><ele>307.0</ele><time>2026-04-04T14:06:34.929Z</time></trkpt><trkpt lat="42.53382338634846" lon="11.931106170378934"><ele>307.0</ele><time>2026-04-04T14:06:36.929Z</time></trkpt><trkpt lat="42.53375279525128" lon="11.931055695974576"><ele>307.0</ele><time>2026-04-04T14:06:38.929Z</time></trkpt><trkpt lat="42.53368141533105" lon="11.9309985953401"><ele>307.0</ele><time>2026-04-04T14:06:40.929Z</time></trkpt><trkpt lat="42.533601895303306" lon="11.930941664295986"><ele>307.0</ele><time>2026-04-04T14:06:42.929Z</time></trkpt><trkpt lat="42.533525546135266" lon="11.930861954023417"><ele>307.0</ele><time>2026-04-04T14:06:44.928Z</time></trkpt><trkpt lat="42.53344898852011" lon="11.930793197601007"><ele>307.0</ele><time>2026-04-04T14:06:46.928Z</time></trkpt><trkpt lat="42.533372866171746" lon="11.93070589387116"><ele>307.0</ele><time>2026-04-04T14:06:48.928Z</time></trkpt><trkpt lat="42.53329681659525" lon="11.930625442712563"><ele>307.0</ele><time>2026-04-04T14:06:50.928Z</time></trkpt><trkpt lat="42.5332313831873" lon="11.930548607218324"><ele>307.0</ele><time>2026-04-04T14:06:52.928Z</time></trkpt><trkpt lat="42.5331734881357" lon="11.930476397987364"><ele>307.0</ele><time>2026-04-04T14:06:54.928Z</time></trkpt><trkpt lat="42.533126258938935" lon="11.930418061806055"><ele>307.0</ele><time>2026-04-04T14:06:56.928Z</time></trkpt><trkpt lat="42.53307055521267" lon="11.930350949529288"><ele>307.0</ele><time>2026-04-04T14:06:59.928Z</time></trkpt><trkpt lat="42.5330014800868" lon="11.93031695496652"><ele>307.0</ele><time>2026-04-04T14:07:25.905Z</time></trkpt><trkpt lat="42.532948732364815" lon="11.930402843697962"><ele>307.0</ele><time>2026-04-04T14:07:28.903Z</time></trkpt><trkpt lat="42.53288459212388" lon="11.930495137223497"><ele>307.0</ele><time>2026-04-04T14:07:30.903Z</time></trkpt><trkpt lat="42.53283479957565" lon="11.930604691296878"><ele>307.0</ele><time>2026-04-04T14:07:32.902Z</time></trkpt><trkpt lat="42.53279255951275" lon="11.930694410757987"><ele>307.0</ele><time>2026-04-04T14:07:34.901Z</time></trkpt><trkpt lat="42.53275617244657" lon="11.930794628987751"><ele>307.0</ele><time>2026-04-04T14:07:36.901Z</time></trkpt><trkpt lat="42.53276506956236" lon="11.930882356901662"><ele>307.4</ele><time>2026-04-04T14:07:38.9Z</time></trkpt><trkpt lat="42.53279609732716" lon="11.93098334782077"><ele>307.79999999999995</ele><time>2026-04-04T14:07:40.9Z</time></trkpt><trkpt lat="42.53287456651201" lon="11.931061274097916"><ele>308.2</ele><time>2026-04-04T14:07:42.899Z</time></trkpt><trkpt lat="42.53294196111778" lon="11.931163161131943"><ele>308.59999999999997</ele><time>2026-04-04T14:07:44.899Z</time></trkpt><trkpt lat="42.533004457666806" lon="11.931257200937557"><ele>309.0</ele><time>2026-04-04T14:07:46.898Z</time></trkpt><trkpt lat="42.53307176846922" lon="11.931357836805045"><ele>309.0</ele><time>2026-04-04T14:07:48.898Z</time></trkpt><trkpt lat="42.53313415913461" lon="11.93146223323857"><ele>309.0</ele><time>2026-04-04T14:07:50.898Z</time></trkpt><trkpt lat="42.53321053067659" lon="11.931565026684313"><ele>309.0</ele><time>2026-04-04T14:07:52.898Z</time></trkpt><trkpt lat="42.533260642376476" lon="11.931676366157957"><ele>309.0</ele><time>2026-04-04T14:07:54.897Z</time></trkpt><trkpt lat="42.53330572627799" lon="11.931796758736043"><ele>309.0</ele><time>2026-04-04T14:07:56.897Z</time></trkpt><trkpt lat="42.533324957058625" lon="11.931931175033702"><ele>309.0</ele><time>2026-04-04T14:07:58.897Z</time></trkpt><trkpt lat="42.53333119680538" lon="11.932078754288641"><ele>309.0</ele><time>2026-04-04T14:08:00.897Z</time></trkpt><trkpt lat="42.53333411825515" lon="11.932219217143341"><ele>309.0</ele><time>2026-04-04T14:08:02.897Z</time></trkpt><trkpt lat="42.53334264453143" lon="11.932357609864328"><ele>309.0</ele><time>2026-04-04T14:08:04.896Z</time></trkpt><trkpt lat="42.53334454858619" lon="11.932498298840597"><ele>309.0</ele><time>2026-04-04T14:08:06.896Z</time></trkpt><trkpt lat="42.533362436988874" lon="11.932627891116217"><ele>309.0</ele><time>2026-04-04T14:08:08.896Z</time></trkpt><trkpt lat="42.533400308806605" lon="11.932738308293743"><ele>309.0</ele><time>2026-04-04T14:08:10.896Z</time></trkpt><trkpt lat="42.53343019312283" lon="11.932859760064222"><ele>309.0</ele><time>2026-04-04T14:08:12.896Z</time></trkpt><trkpt lat="42.53345424528558" lon="11.932953607408587"><ele>309.0</ele><time>2026-04-04T14:08:14.896Z</time></trkpt><trkpt lat="42.533496991745956" lon="11.933047286434968"><ele>309.0</ele><time>2026-04-04T14:08:16.896Z</time></trkpt><trkpt lat="42.53353962109753" lon="11.933134909995813"><ele>309.0</ele><time>2026-04-04T14:08:18.896Z</time></trkpt><trkpt lat="42.53359986174581" lon="11.933217542187002"><ele>309.00000000000006</ele><time>2026-04-04T14:08:20.898Z</time></trkpt><trkpt lat="42.53365551382022" lon="11.933263635988382"><ele>309.0</ele><time>2026-04-04T14:08:22.898Z</time></trkpt><trkpt lat="42.53372398473171" lon="11.933309430669365"><ele>309.0</ele><time>2026-04-04T14:08:24.898Z</time></trkpt><trkpt lat="42.533788264224484" lon="11.933367988345948"><ele>309.0</ele><time>2026-04-04T14:08:26.898Z</time></trkpt><trkpt lat="42.53385994087931" lon="11.933423757615657"><ele>309.0</ele><time>2026-04-04T14:08:28.898Z</time></trkpt><trkpt lat="42.53391708812961" lon="11.933464255067237"><ele>309.00000000000006</ele><time>2026-04-04T14:08:30.898Z</time></trkpt><trkpt lat="42.533987317816546" lon="11.933503531864186"><ele>309.0</ele><time>2026-04-04T14:08:32.898Z</time></trkpt><trkpt lat="42.53403671139645" lon="11.933557271354914"><ele>309.14285714285717</ele><time>2026-04-04T14:08:34.898Z</time></trkpt><trkpt lat="42.534094438959954" lon="11.933595661448283"><ele>309.2857142857143</ele><time>2026-04-04T14:08:36.898Z</time></trkpt><trkpt lat="42.53414240933579" lon="11.933656207734947"><ele>309.42857142857144</ele><time>2026-04-04T14:08:38.898Z</time></trkpt><trkpt lat="42.53418643269279" lon="11.933766751312268"><ele>309.57142857142856</ele><time>2026-04-04T14:08:41.898Z</time></trkpt><trkpt lat="42.53422516363869" lon="11.933857381684284"><ele>309.7142857142857</ele><time>2026-04-04T14:08:43.898Z</time></trkpt><trkpt lat="42.53426853837842" lon="11.93393735221445"><ele>309.8571428571429</ele><time>2026-04-04T14:08:45.898Z</time></trkpt><trkpt lat="42.53429976536798" lon="11.9340204498156"><ele>310.0</ele><time>2026-04-04T14:08:47.898Z</time></trkpt><trkpt lat="42.53432772938328" lon="11.93409967455154"><ele>310.0</ele><time>2026-04-04T14:08:49.897Z</time></trkpt><trkpt lat="42.53436208645321" lon="11.934217097378934"><ele>310.0</ele><time>2026-04-04T14:08:52.897Z</time></trkpt><trkpt lat="42.53439268309672" lon="11.934298725136186"><ele>310.0</ele><time>2026-04-04T14:08:54.897Z</time></trkpt><trkpt lat="42.53442584100532" lon="11.934371834682905"><ele>310.0</ele><time>2026-04-04T14:08:56.897Z</time></trkpt><trkpt lat="42.53446115708949" lon="11.934482512299597"><ele>310.0</ele><time>2026-04-04T14:08:59.897Z</time></trkpt><trkpt lat="42.534499418444284" lon="11.934579998144704"><ele>310.0</ele><time>2026-04-04T14:09:02.897Z</time></trkpt><trkpt lat="42.534521755733216" lon="11.934679677489248"><ele>309.8571428571429</ele><time>2026-04-04T14:09:05.897Z</time></trkpt><trkpt lat="42.53454245095037" lon="11.934772090790881"><ele>309.7142857142857</ele><time>2026-04-04T14:09:08.897Z</time></trkpt><trkpt lat="42.53456380522994" lon="11.934865100380119"><ele>309.57142857142856</ele><time>2026-04-04T14:09:11.896Z</time></trkpt><trkpt lat="42.53458032301935" lon="11.934957338811223"><ele>309.42857142857144</ele><time>2026-04-04T14:09:14.896Z</time></trkpt><trkpt lat="42.53460116671665" lon="11.935041378790533"><ele>309.2857142857143</ele><time>2026-04-04T14:09:17.896Z</time></trkpt><trkpt lat="42.53461874506577" lon="11.935125208442946"><ele>309.14285714285717</ele><time>2026-04-04T14:09:20.896Z</time></trkpt><trkpt lat="42.53462885151604" lon="11.935231528676125"><ele>309.0</ele><time>2026-04-04T14:09:24.896Z</time></trkpt><trkpt lat="42.534634183359266" lon="11.93532405194013"><ele>309.42857142857144</ele><time>2026-04-04T14:09:27.896Z</time></trkpt><trkpt lat="42.53464521154153" lon="11.935410556393853"><ele>309.8571428571429</ele><time>2026-04-04T14:09:30.896Z</time></trkpt><trkpt lat="42.534660516045385" lon="11.935493793140175"><ele>310.28571428571433</ele><time>2026-04-04T14:09:33.896Z</time></trkpt><trkpt lat="42.53468879652923" lon="11.935601071891941"><ele>310.7142857142857</ele><time>2026-04-04T14:09:37.895Z</time></trkpt><trkpt lat="42.534688946328046" lon="11.935689764185673"><ele>311.1428571428571</ele><time>2026-04-04T14:09:40.895Z</time></trkpt><trkpt lat="42.53468844676017" lon="11.935776067997004"><ele>311.5714285714286</ele><time>2026-04-04T14:09:43.895Z</time></trkpt><trkpt lat="42.53467961110769" lon="11.935868837036303"><ele>312.0</ele><time>2026-04-04T14:09:46.895Z</time></trkpt><trkpt lat="42.53466936165403" lon="11.935961292213063"><ele>312.42857142857144</ele><time>2026-04-04T14:09:49.895Z</time></trkpt><trkpt lat="42.53466554513988" lon="11.936054488356815"><ele>312.85714285714283</ele><time>2026-04-04T14:09:52.895Z</time></trkpt><trkpt lat="42.534659769949755" lon="11.93614374472204"><ele>313.2857142857143</ele><time>2026-04-04T14:09:55.895Z</time></trkpt><trkpt lat="42.53465236926953" lon="11.936250322006822"><ele>313.7142857142857</ele><time>2026-04-04T14:09:58.895Z</time></trkpt><trkpt lat="42.53465416410428" lon="11.936345414575369"><ele>314.1428571428571</ele><time>2026-04-04T14:10:01.894Z</time></trkpt><trkpt lat="42.53466042700376" lon="11.936444462221147"><ele>314.57142857142856</ele><time>2026-04-04T14:10:04.894Z</time></trkpt><trkpt lat="42.53466898614386" lon="11.936561000868297"><ele>315.0</ele><time>2026-04-04T14:10:07.894Z</time></trkpt><trkpt lat="42.53466580077653" lon="11.936693799496561"><ele>315.6</ele><time>2026-04-04T14:10:10.894Z</time></trkpt><trkpt lat="42.534675723036145" lon="11.936790995950043"><ele>316.2</ele><time>2026-04-04T14:10:12.894Z</time></trkpt><trkpt lat="42.53468397429508" lon="11.936895543581798"><ele>316.8</ele><time>2026-04-04T14:10:14.894Z</time></trkpt><trkpt lat="42.53471143192458" lon="11.937004206504962"><ele>317.4</ele><time>2026-04-04T14:10:16.894Z</time></trkpt><trkpt lat="42.534737555724185" lon="11.937140626666547"><ele>318.0</ele><time>2026-04-04T14:10:18.894Z</time></trkpt><trkpt lat="42.53476974437995" lon="11.937315632588092"><ele>318.0</ele><time>2026-04-04T14:10:20.894Z</time></trkpt><trkpt lat="42.53477454417112" lon="11.937410924213191"><ele>318.0</ele><time>2026-04-04T14:10:21.894Z</time></trkpt><trkpt lat="42.53477441807238" lon="11.937525048064343"><ele>318.0</ele><time>2026-04-04T14:10:22.894Z</time></trkpt><trkpt lat="42.53476651069126" lon="11.937644668466412"><ele>318.0</ele><time>2026-04-04T14:10:23.894Z</time></trkpt><trkpt lat="42.53476484932816" lon="11.937777266676381"><ele>318.0</ele><time>2026-04-04T14:10:24.893Z</time></trkpt><trkpt lat="42.53477046563243" lon="11.937914492023252"><ele>318.0</ele><time>2026-04-04T14:10:25.895Z</time></trkpt><trkpt lat="42.5347929940166" lon="11.938057560335828"><ele>316.8</ele><time>2026-04-04T14:10:26.895Z</time></trkpt><trkpt lat="42.53479452425927" lon="11.938196225433794"><ele>315.6</ele><time>2026-04-04T14:10:27.895Z</time></trkpt><trkpt lat="42.53481107803529" lon="11.938342178511501"><ele>314.4</ele><time>2026-04-04T14:10:28.896Z</time></trkpt><trkpt lat="42.53482489420621" lon="11.938488230845213"><ele>313.2</ele><time>2026-04-04T14:10:29.895Z</time></trkpt><trkpt lat="42.53483788340436" lon="11.938640849664875"><ele>312.0</ele><time>2026-04-04T14:10:30.895Z</time></trkpt><trkpt lat="42.53483100997902" lon="11.938782106807734"><ele>311.5</ele><time>2026-04-04T14:10:31.895Z</time></trkpt><trkpt lat="42.53483137812913" lon="11.93891624239469"><ele>311.0</ele><time>2026-04-04T14:10:32.895Z</time></trkpt><trkpt lat="42.534822890223566" lon="11.939040019597943"><ele>310.5</ele><time>2026-04-04T14:10:33.895Z</time></trkpt><trkpt lat="42.534812688140725" lon="11.939159655862529"><ele>310.0</ele><time>2026-04-04T14:10:34.895Z</time></trkpt><trkpt lat="42.5348187633559" lon="11.939273535816556"><ele>309.5</ele><time>2026-04-04T14:10:35.895Z</time></trkpt><trkpt lat="42.5348184483503" lon="11.939387802918258"><ele>309.0</ele><time>2026-04-04T14:10:36.895Z</time></trkpt><trkpt lat="42.53479787872493" lon="11.939489045932483"><ele>309.00000000000006</ele><time>2026-04-04T14:10:37.896Z</time></trkpt><trkpt lat="42.53479005521044" lon="11.939591863217327"><ele>309.0</ele><time>2026-04-04T14:10:38.895Z</time></trkpt><trkpt lat="42.5347814558278" lon="11.939695938553788"><ele>309.0</ele><time>2026-04-04T14:10:39.895Z</time></trkpt><trkpt lat="42.5347856388074" lon="11.939789024888277"><ele>309.0</ele><time>2026-04-04T14:10:40.895Z</time></trkpt><trkpt lat="42.534779751539226" lon="11.939889086456139"><ele>309.0</ele><time>2026-04-04T14:10:41.895Z</time></trkpt><trkpt lat="42.53476558488585" lon="11.939982393653308"><ele>309.00000000000006</ele><time>2026-04-04T14:10:42.895Z</time></trkpt><trkpt lat="42.534754956151005" lon="11.940073175889742"><ele>309.0</ele><time>2026-04-04T14:10:43.895Z</time></trkpt><trkpt lat="42.53474511397805" lon="11.940159870366273"><ele>308.8</ele><time>2026-04-04T14:10:44.895Z</time></trkpt><trkpt lat="42.53474460663282" lon="11.940326223639953"><ele>308.59999999999997</ele><time>2026-04-04T14:10:46.895Z</time></trkpt><trkpt lat="42.534759415739295" lon="11.940472133262006"><ele>308.4</ele><time>2026-04-04T14:10:48.895Z</time></trkpt><trkpt lat="42.53475923834939" lon="11.940616832639044"><ele>308.2</ele><time>2026-04-04T14:10:50.895Z</time></trkpt><trkpt lat="42.53476656501388" lon="11.940753515244136"><ele>308.0</ele><time>2026-04-04T14:10:52.894Z</time></trkpt><trkpt lat="42.534781014085645" lon="11.940885962365012"><ele>307.8</ele><time>2026-04-04T14:10:54.894Z</time></trkpt><trkpt lat="42.5347697544785" lon="11.941024318844013"><ele>307.6</ele><time>2026-04-04T14:10:56.894Z</time></trkpt><trkpt lat="42.534756298850006" lon="11.941158645749804"><ele>307.4</ele><time>2026-04-04T14:10:58.894Z</time></trkpt><trkpt lat="42.53474990358862" lon="11.941288486097632"><ele>307.2</ele><time>2026-04-04T14:11:00.894Z</time></trkpt><trkpt lat="42.53474956718989" lon="11.941413957291354"><ele>307.0</ele><time>2026-04-04T14:11:02.894Z</time></trkpt><trkpt lat="42.53474012961635" lon="11.941548678005363"><ele>307.0</ele><time>2026-04-04T14:11:04.894Z</time></trkpt><trkpt lat="42.53473577606577" lon="11.941684011188737"><ele>307.0</ele><time>2026-04-04T14:11:06.894Z</time></trkpt><trkpt lat="42.53472134318696" lon="11.941812977768599"><ele>307.0</ele><time>2026-04-04T14:11:08.894Z</time></trkpt><trkpt lat="42.534710672193036" lon="11.941939205433114"><ele>307.0</ele><time>2026-04-04T14:11:10.894Z</time></trkpt><trkpt lat="42.53471827477167" lon="11.94206743567923"><ele>307.0</ele><time>2026-04-04T14:11:12.894Z</time></trkpt><trkpt lat="42.53471058101647" lon="11.94219474394714"><ele>306.8</ele><time>2026-04-04T14:11:14.894Z</time></trkpt><trkpt lat="42.534711390638655" lon="11.942332614870605"><ele>306.6</ele><time>2026-04-04T14:11:16.893Z</time></trkpt><trkpt lat="42.53471367874858" lon="11.942446692613405"><ele>306.40000000000003</ele><time>2026-04-04T14:11:18.893Z</time></trkpt><trkpt lat="42.53471177600487" lon="11.942586945315142"><ele>306.2</ele><time>2026-04-04T14:11:20.893Z</time></trkpt><trkpt lat="42.53470522247347" lon="11.942711295041995"><ele>306.0</ele><time>2026-04-04T14:11:22.893Z</time></trkpt><trkpt lat="42.53470595170142" lon="11.942846062123266"><ele>306.0</ele><time>2026-04-04T14:11:24.893Z</time></trkpt><trkpt lat="42.534701495211536" lon="11.942972953031129"><ele>306.0</ele><time>2026-04-04T14:11:26.893Z</time></trkpt><trkpt lat="42.534696246894775" lon="11.943096926324598"><ele>306.0</ele><time>2026-04-04T14:11:28.893Z</time></trkpt><trkpt lat="42.534696997516704" lon="11.943220708691836"><ele>306.0</ele><time>2026-04-04T14:11:30.893Z</time></trkpt><trkpt lat="42.53470181019839" lon="11.943361012048037"><ele>306.0</ele><time>2026-04-04T14:11:32.893Z</time></trkpt><trkpt lat="42.53469584622107" lon="11.943494796075134"><ele>305.8</ele><time>2026-04-04T14:11:34.893Z</time></trkpt><trkpt lat="42.53469670876333" lon="11.943623285594962"><ele>305.6</ele><time>2026-04-04T14:11:36.893Z</time></trkpt><trkpt lat="42.53469315123892" lon="11.943752108134433"><ele>305.4</ele><time>2026-04-04T14:11:38.893Z</time></trkpt><trkpt lat="42.534680622751" lon="11.94389536828208"><ele>305.2</ele><time>2026-04-04T14:11:40.892Z</time></trkpt><trkpt lat="42.534671643179905" lon="11.944029039399371"><ele>305.0</ele><time>2026-04-04T14:11:42.892Z</time></trkpt><trkpt lat="42.53467498292344" lon="11.944172412478947"><ele>305.2</ele><time>2026-04-04T14:11:44.892Z</time></trkpt><trkpt lat="42.534680632493036" lon="11.944309934169231"><ele>305.4</ele><time>2026-04-04T14:11:46.892Z</time></trkpt><trkpt lat="42.534682141366815" lon="11.944436957637238"><ele>305.6</ele><time>2026-04-04T14:11:48.892Z</time></trkpt><trkpt lat="42.534682423471715" lon="11.944582908366304"><ele>305.8</ele><time>2026-04-04T14:11:50.892Z</time></trkpt><trkpt lat="42.534689124503124" lon="11.9447065957407"><ele>306.0</ele><time>2026-04-04T14:11:52.892Z</time></trkpt><trkpt lat="42.534686195315516" lon="11.944841318027322"><ele>306.0</ele><time>2026-04-04T14:11:54.892Z</time></trkpt><trkpt lat="42.53469354488753" lon="11.944974545560266"><ele>306.0</ele><time>2026-04-04T14:11:56.892Z</time></trkpt><trkpt lat="42.53468431505826" lon="11.945102494693838"><ele>306.0</ele><time>2026-04-04T14:11:58.892Z</time></trkpt><trkpt lat="42.534689322853914" lon="11.945237602557203"><ele>306.0</ele><time>2026-04-04T14:12:00.892Z</time></trkpt><trkpt lat="42.53468573665301" lon="11.94536656866216"><ele>306.0</ele><time>2026-04-04T14:12:02.892Z</time></trkpt><trkpt lat="42.53468935917366" lon="11.945501840848035"><ele>306.0</ele><time>2026-04-04T14:12:04.892Z</time></trkpt><trkpt lat="42.534701010913984" lon="11.945631188863043"><ele>306.0</ele><time>2026-04-04T14:12:06.891Z</time></trkpt><trkpt lat="42.53470120823928" lon="11.945769308268595"><ele>306.0</ele><time>2026-04-04T14:12:08.891Z</time></trkpt><trkpt lat="42.53470725577613" lon="11.945909087764504"><ele>306.0</ele><time>2026-04-04T14:12:10.891Z</time></trkpt><trkpt lat="42.53470808243853" lon="11.94604601267218"><ele>306.0</ele><time>2026-04-04T14:12:12.891Z</time></trkpt><trkpt lat="42.53471369087332" lon="11.946174205811172"><ele>306.0</ele><time>2026-04-04T14:12:14.891Z</time></trkpt><trkpt lat="42.5347135541056" lon="11.946292574388147"><ele>306.0</ele><time>2026-04-04T14:12:16.891Z</time></trkpt><trkpt lat="42.534724644865506" lon="11.946409422917384"><ele>306.0</ele><time>2026-04-04T14:12:18.891Z</time></trkpt><trkpt lat="42.53472143053314" lon="11.946544697169974"><ele>306.0</ele><time>2026-04-04T14:12:20.891Z</time></trkpt><trkpt lat="42.53472486820459" lon="11.94666695426112"><ele>306.0</ele><time>2026-04-04T14:12:22.891Z</time></trkpt><trkpt lat="42.53471595860652" lon="11.946804451058348"><ele>306.0</ele><time>2026-04-04T14:12:24.891Z</time></trkpt><trkpt lat="42.534742004857165" lon="11.94694621119396"><ele>306.0</ele><time>2026-04-04T14:12:26.891Z</time></trkpt><trkpt lat="42.53473904953825" lon="11.94707293597837"><ele>306.0</ele><time>2026-04-04T14:12:28.891Z</time></trkpt><trkpt lat="42.53474103417013" lon="11.947201126956076"><ele>306.0</ele><time>2026-04-04T14:12:30.89Z</time></trkpt><trkpt lat="42.53473998675716" lon="11.947328719390551"><ele>306.0</ele><time>2026-04-04T14:12:32.893Z</time></trkpt><trkpt lat="42.53474545194085" lon="11.947462903583938"><ele>306.0</ele><time>2026-04-04T14:12:34.893Z</time></trkpt><trkpt lat="42.53474571638227" lon="11.947607777398055"><ele>306.0</ele><time>2026-04-04T14:12:36.893Z</time></trkpt><trkpt lat="42.53474200448499" lon="11.94775362727164"><ele>306.0</ele><time>2026-04-04T14:12:38.893Z</time></trkpt><trkpt lat="42.534747766130366" lon="11.947899328439853"><ele>306.0</ele><time>2026-04-04T14:12:40.893Z</time></trkpt><trkpt lat="42.534763789798426" lon="11.94803646464244"><ele>306.0</ele><time>2026-04-04T14:12:42.893Z</time></trkpt><trkpt lat="42.53476337590313" lon="11.948174599866329"><ele>306.0</ele><time>2026-04-04T14:12:44.893Z</time></trkpt><trkpt lat="42.534772692627826" lon="11.948308774148682"><ele>306.0</ele><time>2026-04-04T14:12:46.893Z</time></trkpt><trkpt lat="42.53476788725519" lon="11.948442423631375"><ele>306.0</ele><time>2026-04-04T14:12:48.893Z</time></trkpt><trkpt lat="42.534773698603274" lon="11.94856755365753"><ele>306.0</ele><time>2026-04-04T14:12:50.893Z</time></trkpt><trkpt lat="42.53478217104498" lon="11.948699692709903"><ele>306.0</ele><time>2026-04-04T14:12:52.893Z</time></trkpt><trkpt lat="42.53478029816233" lon="11.948836759525975"><ele>306.0</ele><time>2026-04-04T14:12:54.892Z</time></trkpt><trkpt lat="42.53478988810395" lon="11.948959734202148"><ele>306.0</ele><time>2026-04-04T14:12:56.892Z</time></trkpt><trkpt lat="42.53478822897553" lon="11.949095086931008"><ele>306.0</ele><time>2026-04-04T14:12:58.892Z</time></trkpt><trkpt lat="42.53479248519112" lon="11.949234358337854"><ele>306.0</ele><time>2026-04-04T14:13:00.892Z</time></trkpt><trkpt lat="42.534802052024034" lon="11.949361247512801"><ele>306.0</ele><time>2026-04-04T14:13:02.892Z</time></trkpt><trkpt lat="42.53480508146701" lon="11.949495550934017"><ele>306.0</ele><time>2026-04-04T14:13:04.892Z</time></trkpt><trkpt lat="42.53480094006163" lon="11.9496367572499"><ele>306.0</ele><time>2026-04-04T14:13:06.892Z</time></trkpt><trkpt lat="42.53480280458426" lon="11.94975960856902"><ele>306.0</ele><time>2026-04-04T14:13:08.892Z</time></trkpt><trkpt lat="42.53480514707048" lon="11.949887313700179"><ele>306.0</ele><time>2026-04-04T14:13:10.892Z</time></trkpt><trkpt lat="42.534797312333446" lon="11.950015414864938"><ele>306.0</ele><time>2026-04-04T14:13:12.892Z</time></trkpt><trkpt lat="42.5347991924722" lon="11.95015537618823"><ele>306.0</ele><time>2026-04-04T14:13:14.892Z</time></trkpt><trkpt lat="42.53479851773472" lon="11.95028411068055"><ele>306.0</ele><time>2026-04-04T14:13:16.892Z</time></trkpt><trkpt lat="42.53479799120363" lon="11.950414599136005"><ele>306.0</ele><time>2026-04-04T14:13:18.891Z</time></trkpt><trkpt lat="42.5348029389976" lon="11.95054590960521"><ele>306.0</ele><time>2026-04-04T14:13:20.891Z</time></trkpt><trkpt lat="42.53480570302542" lon="11.950669910799906"><ele>306.0</ele><time>2026-04-04T14:13:22.891Z</time></trkpt><trkpt lat="42.534808677738376" lon="11.950798332459433"><ele>306.40000000000003</ele><time>2026-04-04T14:13:24.891Z</time></trkpt><trkpt lat="42.53481809566066" lon="11.950935232482315"><ele>306.8</ele><time>2026-04-04T14:13:26.891Z</time></trkpt><trkpt lat="42.53482523370371" lon="11.95105975445676"><ele>307.20000000000005</ele><time>2026-04-04T14:13:28.891Z</time></trkpt><trkpt lat="42.53482839936424" lon="11.951182715717726"><ele>307.6</ele><time>2026-04-04T14:13:30.891Z</time></trkpt><trkpt lat="42.53483257306721" lon="11.951310407262616"><ele>308.0</ele><time>2026-04-04T14:13:32.891Z</time></trkpt><trkpt lat="42.53482485695581" lon="11.951440523402491"><ele>308.0</ele><time>2026-04-04T14:13:34.891Z</time></trkpt><trkpt lat="42.53482722151391" lon="11.951570517026132"><ele>308.0</ele><time>2026-04-04T14:13:36.891Z</time></trkpt><trkpt lat="42.53483033610967" lon="11.951698563909046"><ele>308.0</ele><time>2026-04-04T14:13:38.891Z</time></trkpt><trkpt lat="42.53483810680809" lon="11.951828640079448"><ele>308.0</ele><time>2026-04-04T14:13:40.891Z</time></trkpt><trkpt lat="42.53483702824503" lon="11.951962800873407"><ele>308.0</ele><time>2026-04-04T14:13:42.891Z</time></trkpt><trkpt lat="42.53483991346618" lon="11.95208842716956"><ele>307.4</ele><time>2026-04-04T14:13:44.89Z</time></trkpt><trkpt lat="42.53481829741324" lon="11.95222456690462"><ele>306.8</ele><time>2026-04-04T14:13:46.89Z</time></trkpt><trkpt lat="42.534809725463745" lon="11.95235746675544"><ele>306.2</ele><time>2026-04-04T14:13:48.89Z</time></trkpt><trkpt lat="42.53480894898348" lon="11.952490493934238"><ele>305.6</ele><time>2026-04-04T14:13:50.89Z</time></trkpt><trkpt lat="42.534816733632184" lon="11.95261753837557"><ele>305.0</ele><time>2026-04-04T14:13:52.89Z</time></trkpt><trkpt lat="42.53480259053361" lon="11.952744817186941"><ele>305.0</ele><time>2026-04-04T14:13:54.89Z</time></trkpt><trkpt lat="42.53479645862618" lon="11.952872055847317"><ele>305.0</ele><time>2026-04-04T14:13:56.89Z</time></trkpt><trkpt lat="42.53478671875792" lon="11.953007546091763"><ele>305.0</ele><time>2026-04-04T14:13:58.89Z</time></trkpt><trkpt lat="42.53478194156741" lon="11.953133708207922"><ele>305.0</ele><time>2026-04-04T14:14:00.89Z</time></trkpt><trkpt lat="42.5347786849834" lon="11.953280212095178"><ele>305.0</ele><time>2026-04-04T14:14:02.89Z</time></trkpt><trkpt lat="42.534772175195485" lon="11.953412636749599"><ele>305.0</ele><time>2026-04-04T14:14:04.89Z</time></trkpt><trkpt lat="42.534762194508524" lon="11.95354588124047"><ele>305.0</ele><time>2026-04-04T14:14:06.89Z</time></trkpt><trkpt lat="42.534752547543995" lon="11.953685301937725"><ele>305.0</ele><time>2026-04-04T14:14:08.889Z</time></trkpt><trkpt lat="42.53474854509208" lon="11.953816981966744"><ele>305.0</ele><time>2026-04-04T14:14:10.889Z</time></trkpt><trkpt lat="42.53474221281879" lon="11.953945494979907"><ele>305.0</ele><time>2026-04-04T14:14:12.889Z</time></trkpt><trkpt lat="42.53473573287455" lon="11.954075591586394"><ele>305.0</ele><time>2026-04-04T14:14:14.889Z</time></trkpt><trkpt lat="42.53472783887357" lon="11.954207322788541"><ele>305.0</ele><time>2026-04-04T14:14:16.889Z</time></trkpt><trkpt lat="42.534712181167954" lon="11.954338649842281"><ele>305.0</ele><time>2026-04-04T14:14:18.889Z</time></trkpt><trkpt lat="42.53470573565985" lon="11.954470657466429"><ele>305.0</ele><time>2026-04-04T14:14:20.889Z</time></trkpt><trkpt lat="42.53469905202986" lon="11.9546058911524"><ele>305.0</ele><time>2026-04-04T14:14:22.889Z</time></trkpt><trkpt lat="42.53468778501188" lon="11.954734056555878"><ele>305.0</ele><time>2026-04-04T14:14:24.889Z</time></trkpt><trkpt lat="42.53467861205586" lon="11.954863185042433"><ele>305.0</ele><time>2026-04-04T14:14:26.889Z</time></trkpt><trkpt lat="42.53468255681789" lon="11.954991826389545"><ele>305.0</ele><time>2026-04-04T14:14:28.889Z</time></trkpt><trkpt lat="42.53466916675636" lon="11.955126835323867"><ele>305.0</ele><time>2026-04-04T14:14:30.889Z</time></trkpt><trkpt lat="42.53466548734194" lon="11.955256287439536"><ele>305.0</ele><time>2026-04-04T14:14:32.888Z</time></trkpt><trkpt lat="42.5346429146793" lon="11.955387173315202"><ele>304.8</ele><time>2026-04-04T14:14:34.888Z</time></trkpt><trkpt lat="42.534642849863964" lon="11.95551323033385"><ele>304.6</ele><time>2026-04-04T14:14:36.888Z</time></trkpt><trkpt lat="42.53463892194501" lon="11.95565196440302"><ele>304.4</ele><time>2026-04-04T14:14:38.891Z</time></trkpt><trkpt lat="42.53463023302336" lon="11.955767788354931"><ele>304.2</ele><time>2026-04-04T14:14:40.891Z</time></trkpt><trkpt lat="42.53461444163023" lon="11.955882248657675"><ele>304.0</ele><time>2026-04-04T14:14:42.89Z</time></trkpt><trkpt lat="42.53461026271739" lon="11.956007166072471"><ele>304.0</ele><time>2026-04-04T14:14:44.891Z</time></trkpt><trkpt lat="42.53459866774238" lon="11.956144002196716"><ele>304.0</ele><time>2026-04-04T14:14:46.89Z</time></trkpt><trkpt lat="42.534595565876835" lon="11.95628292163296"><ele>304.0</ele><time>2026-04-04T14:14:48.89Z</time></trkpt><trkpt lat="42.53459302581934" lon="11.956409972550356"><ele>304.0</ele><time>2026-04-04T14:14:50.891Z</time></trkpt><trkpt lat="42.53458108187573" lon="11.956542412509096"><ele>304.0</ele><time>2026-04-04T14:14:52.891Z</time></trkpt><trkpt lat="42.53457588536846" lon="11.956672185627667"><ele>304.0</ele><time>2026-04-04T14:14:54.891Z</time></trkpt><trkpt lat="42.534571188106355" lon="11.956804987728258"><ele>304.0</ele><time>2026-04-04T14:14:56.891Z</time></trkpt><trkpt lat="42.53457166300349" lon="11.95693079077479"><ele>304.0</ele><time>2026-04-04T14:14:58.891Z</time></trkpt><trkpt lat="42.534570873819185" lon="11.957054972220178"><ele>304.0</ele><time>2026-04-04T14:15:00.891Z</time></trkpt><trkpt lat="42.534556149672696" lon="11.957185860588792"><ele>304.0</ele><time>2026-04-04T14:15:02.891Z</time></trkpt><trkpt lat="42.53454003276848" lon="11.957318035061142"><ele>305.2</ele><time>2026-04-04T14:15:04.89Z</time></trkpt><trkpt lat="42.53453550424677" lon="11.957451130997663"><ele>306.4</ele><time>2026-04-04T14:15:06.89Z</time></trkpt><trkpt lat="42.5345236656726" lon="11.957590439285948"><ele>307.6</ele><time>2026-04-04T14:15:08.89Z</time></trkpt><trkpt lat="42.53451245637318" lon="11.957731587376918"><ele>308.8</ele><time>2026-04-04T14:15:10.89Z</time></trkpt><trkpt lat="42.53451677000667" lon="11.957866958961706"><ele>310.0</ele><time>2026-04-04T14:15:12.89Z</time></trkpt><trkpt lat="42.534515372293534" lon="11.95800631179262"><ele>310.0</ele><time>2026-04-04T14:15:14.89Z</time></trkpt><trkpt lat="42.53450536899539" lon="11.958142571922785"><ele>310.0</ele><time>2026-04-04T14:15:16.89Z</time></trkpt><trkpt lat="42.53450250801473" lon="11.958280151855302"><ele>310.0</ele><time>2026-04-04T14:15:18.89Z</time></trkpt><trkpt lat="42.53449874050962" lon="11.958424193830076"><ele>310.0</ele><time>2026-04-04T14:15:20.89Z</time></trkpt><trkpt lat="42.53449039562182" lon="11.958568637390606"><ele>310.0</ele><time>2026-04-04T14:15:22.89Z</time></trkpt><trkpt lat="42.534479573669536" lon="11.958704045338557"><ele>309.4</ele><time>2026-04-04T14:15:24.89Z</time></trkpt><trkpt lat="42.53447301555346" lon="11.958846116916204"><ele>308.8</ele><time>2026-04-04T14:15:26.89Z</time></trkpt><trkpt lat="42.53446838172186" lon="11.95898325818881"><ele>308.2</ele><time>2026-04-04T14:15:28.889Z</time></trkpt><trkpt lat="42.53446410259014" lon="11.959130944663825"><ele>307.6</ele><time>2026-04-04T14:15:30.889Z</time></trkpt><trkpt lat="42.534460712186096" lon="11.959277020675568"><ele>307.0</ele><time>2026-04-04T14:15:32.889Z</time></trkpt><trkpt lat="42.53445312347804" lon="11.959422042882759"><ele>306.8</ele><time>2026-04-04T14:15:34.889Z</time></trkpt><trkpt lat="42.53444366460555" lon="11.959566826005542"><ele>306.6</ele><time>2026-04-04T14:15:36.889Z</time></trkpt><trkpt lat="42.534442639843476" lon="11.959708443148402"><ele>306.40000000000003</ele><time>2026-04-04T14:15:38.889Z</time></trkpt><trkpt lat="42.53444253890905" lon="11.95984230420953"><ele>306.2</ele><time>2026-04-04T14:15:40.889Z</time></trkpt><trkpt lat="42.534434142688056" lon="11.959964645366046"><ele>306.0</ele><time>2026-04-04T14:15:42.889Z</time></trkpt><trkpt lat="42.534421172875135" lon="11.960100541502186"><ele>306.0</ele><time>2026-04-04T14:15:44.889Z</time></trkpt><trkpt lat="42.534417599912125" lon="11.96022819630806"><ele>306.0</ele><time>2026-04-04T14:15:46.889Z</time></trkpt><trkpt lat="42.53442942939715" lon="11.960359166051695"><ele>306.0</ele><time>2026-04-04T14:15:48.889Z</time></trkpt><trkpt lat="42.53442051535802" lon="11.960487611378264"><ele>306.0</ele><time>2026-04-04T14:15:50.889Z</time></trkpt><trkpt lat="42.534417765903434" lon="11.960619229378997"><ele>306.0</ele><time>2026-04-04T14:15:52.888Z</time></trkpt><trkpt lat="42.534400462259576" lon="11.96075739559505"><ele>306.2</ele><time>2026-04-04T14:15:54.888Z</time></trkpt><trkpt lat="42.53440271896561" lon="11.960878483109195"><ele>306.40000000000003</ele><time>2026-04-04T14:15:56.888Z</time></trkpt><trkpt lat="42.534403195211944" lon="11.961005127961188"><ele>306.6</ele><time>2026-04-04T14:15:58.888Z</time></trkpt><trkpt lat="42.534390860274925" lon="11.961139250199976"><ele>306.8</ele><time>2026-04-04T14:16:00.888Z</time></trkpt><trkpt lat="42.53439556649019" lon="11.961266608359463"><ele>307.0</ele><time>2026-04-04T14:16:02.888Z</time></trkpt><trkpt lat="42.5343933917128" lon="11.961388890265168"><ele>307.0</ele><time>2026-04-04T14:16:04.888Z</time></trkpt><trkpt lat="42.53438738995563" lon="11.96152822668389"><ele>307.0</ele><time>2026-04-04T14:16:06.888Z</time></trkpt><trkpt lat="42.53437875119479" lon="11.961661054176465"><ele>307.0</ele><time>2026-04-04T14:16:08.888Z</time></trkpt><trkpt lat="42.53438101617779" lon="11.961790025432919"><ele>307.0</ele><time>2026-04-04T14:16:10.888Z</time></trkpt><trkpt lat="42.534384370393845" lon="11.96191534940322"><ele>307.0</ele><time>2026-04-04T14:16:12.888Z</time></trkpt><trkpt lat="42.534373678952754" lon="11.962045890623227"><ele>306.8333333333333</ele><time>2026-04-04T14:16:14.888Z</time></trkpt><trkpt lat="42.53437314586041" lon="11.9621687894087"><ele>306.66666666666663</ele><time>2026-04-04T14:16:16.887Z</time></trkpt><trkpt lat="42.53437337733604" lon="11.96228911481626"><ele>306.5</ele><time>2026-04-04T14:16:18.887Z</time></trkpt><trkpt lat="42.534369274602476" lon="11.962411041689023"><ele>306.3333333333333</ele><time>2026-04-04T14:16:20.887Z</time></trkpt><trkpt lat="42.534366387712176" lon="11.962530229913499"><ele>306.1666666666667</ele><time>2026-04-04T14:16:22.887Z</time></trkpt><trkpt lat="42.534372776827276" lon="11.962648830096192"><ele>306.0</ele><time>2026-04-04T14:16:24.887Z</time></trkpt><trkpt lat="42.53437136300813" lon="11.962769266857713"><ele>306.0</ele><time>2026-04-04T14:16:26.887Z</time></trkpt><trkpt lat="42.53434818057481" lon="11.962853252936538"><ele>306.0</ele><time>2026-04-04T14:16:28.887Z</time></trkpt><trkpt lat="42.534349064837606" lon="11.962997286256329"><ele>306.0</ele><time>2026-04-04T14:16:30.887Z</time></trkpt><trkpt lat="42.53435312558076" lon="11.963112799878708"><ele>306.0</ele><time>2026-04-04T14:16:32.887Z</time></trkpt><trkpt lat="42.534364031512" lon="11.963212570282833"><ele>306.0</ele><time>2026-04-04T14:16:34.887Z</time></trkpt><trkpt lat="42.534365525764294" lon="11.963334362134885"><ele>306.0</ele><time>2026-04-04T14:16:36.887Z</time></trkpt><trkpt lat="42.53436979342328" lon="11.96345607782742"><ele>306.0</ele><time>2026-04-04T14:16:38.887Z</time></trkpt><trkpt lat="42.53435929757907" lon="11.963585751178599"><ele>306.0</ele><time>2026-04-04T14:16:40.886Z</time></trkpt><trkpt lat="42.53435905823606" lon="11.963710104777958"><ele>306.0</ele><time>2026-04-04T14:16:42.886Z</time></trkpt><trkpt lat="42.53437440476544" lon="11.963839741771956"><ele>306.0</ele><time>2026-04-04T14:16:44.888Z</time></trkpt><trkpt lat="42.53436657685592" lon="11.963979754072984"><ele>306.0</ele><time>2026-04-04T14:16:46.888Z</time></trkpt><trkpt lat="42.53437247391827" lon="11.964115081264403"><ele>306.0</ele><time>2026-04-04T14:16:48.889Z</time></trkpt><trkpt lat="42.53437007083685" lon="11.964253521578263"><ele>306.0</ele><time>2026-04-04T14:16:50.888Z</time></trkpt><trkpt lat="42.534372438389255" lon="11.9643955004657"><ele>306.0</ele><time>2026-04-04T14:16:52.888Z</time></trkpt><trkpt lat="42.534381940859674" lon="11.964531811466621"><ele>306.0</ele><time>2026-04-04T14:16:54.888Z</time></trkpt><trkpt lat="42.53437554103482" lon="11.964665188405997"><ele>306.0</ele><time>2026-04-04T14:16:56.888Z</time></trkpt><trkpt lat="42.53438501820571" lon="11.964798249232144"><ele>306.0</ele><time>2026-04-04T14:16:58.888Z</time></trkpt><trkpt lat="42.53438132508216" lon="11.96494036600348"><ele>306.0</ele><time>2026-04-04T14:17:00.888Z</time></trkpt><trkpt lat="42.534376026001055" lon="11.965079841015875"><ele>306.0</ele><time>2026-04-04T14:17:02.888Z</time></trkpt><trkpt lat="42.53436584199572" lon="11.965219990524306"><ele>306.0</ele><time>2026-04-04T14:17:04.888Z</time></trkpt><trkpt lat="42.53437410720426" lon="11.965354573626795"><ele>306.0</ele><time>2026-04-04T14:17:06.888Z</time></trkpt><trkpt lat="42.534370965319034" lon="11.965499485415782"><ele>305.8</ele><time>2026-04-04T14:17:08.888Z</time></trkpt><trkpt lat="42.53438574381261" lon="11.965638718514239"><ele>305.6</ele><time>2026-04-04T14:17:10.887Z</time></trkpt><trkpt lat="42.534379717615685" lon="11.965780742521817"><ele>305.4</ele><time>2026-04-04T14:17:12.887Z</time></trkpt><trkpt lat="42.53436561305854" lon="11.965905371873513"><ele>305.2</ele><time>2026-04-04T14:17:14.887Z</time></trkpt><trkpt lat="42.53436486859833" lon="11.966050417841275"><ele>305.0</ele><time>2026-04-04T14:17:16.887Z</time></trkpt><trkpt lat="42.53438433985849" lon="11.966186705077948"><ele>304.8</ele><time>2026-04-04T14:17:18.887Z</time></trkpt><trkpt lat="42.53437949143558" lon="11.966336478158144"><ele>304.6</ele><time>2026-04-04T14:17:20.887Z</time></trkpt><trkpt lat="42.53438417228662" lon="11.966472088257351"><ele>304.4</ele><time>2026-04-04T14:17:22.887Z</time></trkpt><trkpt lat="42.53439479386026" lon="11.96661920362364"><ele>304.2</ele><time>2026-04-04T14:17:24.887Z</time></trkpt><trkpt lat="42.53439179206421" lon="11.966755387923923"><ele>304.0</ele><time>2026-04-04T14:17:26.887Z</time></trkpt><trkpt lat="42.53440402173065" lon="11.966890208840802"><ele>304.0</ele><time>2026-04-04T14:17:28.887Z</time></trkpt><trkpt lat="42.53441354829177" lon="11.967029066146829"><ele>304.0</ele><time>2026-04-04T14:17:30.887Z</time></trkpt><trkpt lat="42.53443038851127" lon="11.967154062942555"><ele>304.0</ele><time>2026-04-04T14:17:32.887Z</time></trkpt><trkpt lat="42.53444061338426" lon="11.96727741776453"><ele>304.0</ele><time>2026-04-04T14:17:34.886Z</time></trkpt><trkpt lat="42.534456583779466" lon="11.967414853575898"><ele>304.0</ele><time>2026-04-04T14:17:36.886Z</time></trkpt><trkpt lat="42.534465153458044" lon="11.967534854923462"><ele>304.3333333333333</ele><time>2026-04-04T14:17:38.886Z</time></trkpt><trkpt lat="42.534471456570294" lon="11.967651352425372"><ele>304.66666666666663</ele><time>2026-04-04T14:17:40.886Z</time></trkpt><trkpt lat="42.53447483497638" lon="11.96776644610232"><ele>305.0</ele><time>2026-04-04T14:17:42.886Z</time></trkpt><trkpt lat="42.53448373078752" lon="11.967882265147288"><ele>305.3333333333333</ele><time>2026-04-04T14:17:44.886Z</time></trkpt><trkpt lat="42.5344994682098" lon="11.967984643416349"><ele>305.6666666666667</ele><time>2026-04-04T14:17:46.886Z</time></trkpt><trkpt lat="42.53450588896391" lon="11.968094046619335"><ele>306.0</ele><time>2026-04-04T14:17:48.886Z</time></trkpt><trkpt lat="42.534517565597476" lon="11.96818002817648"><ele>306.0</ele><time>2026-04-04T14:17:50.886Z</time></trkpt><trkpt lat="42.53451513893045" lon="11.968327411182482"><ele>306.0</ele><time>2026-04-04T14:17:53.886Z</time></trkpt><trkpt lat="42.53452109866327" lon="11.968436276276483"><ele>306.0</ele><time>2026-04-04T14:17:55.886Z</time></trkpt><trkpt lat="42.53452783175601" lon="11.96854616316478"><ele>306.0</ele><time>2026-04-04T14:17:57.886Z</time></trkpt><trkpt lat="42.53453109431104" lon="11.968664049259933"><ele>306.0</ele><time>2026-04-04T14:17:59.885Z</time></trkpt><trkpt lat="42.53454418998773" lon="11.968789845114292"><ele>306.40000000000003</ele><time>2026-04-04T14:18:01.885Z</time></trkpt><trkpt lat="42.53455429203587" lon="11.968915238001495"><ele>306.8</ele><time>2026-04-04T14:18:03.885Z</time></trkpt><trkpt lat="42.534563497506234" lon="11.9690387609841"><ele>307.20000000000005</ele><time>2026-04-04T14:18:05.885Z</time></trkpt><trkpt lat="42.53457888634479" lon="11.969176021442392"><ele>307.6</ele><time>2026-04-04T14:18:07.885Z</time></trkpt><trkpt lat="42.534582462656395" lon="11.969317173219919"><ele>308.0</ele><time>2026-04-04T14:18:09.885Z</time></trkpt><trkpt lat="42.53459959221864" lon="11.969458196137959"><ele>308.0</ele><time>2026-04-04T14:18:11.885Z</time></trkpt><trkpt lat="42.53460159485142" lon="11.969581485502287"><ele>308.0</ele><time>2026-04-04T14:18:13.885Z</time></trkpt><trkpt lat="42.53460887986439" lon="11.969704678250872"><ele>308.0</ele><time>2026-04-04T14:18:15.885Z</time></trkpt><trkpt lat="42.5346146989236" lon="11.969835424958335"><ele>308.0</ele><time>2026-04-04T14:18:17.885Z</time></trkpt><trkpt lat="42.534626391939085" lon="11.969968107636518"><ele>308.0</ele><time>2026-04-04T14:18:19.885Z</time></trkpt><trkpt lat="42.534651823884516" lon="11.970080666469222"><ele>307.6666666666667</ele><time>2026-04-04T14:18:21.885Z</time></trkpt><trkpt lat="42.53465747491167" lon="11.970205705715156"><ele>307.33333333333337</ele><time>2026-04-04T14:18:23.884Z</time></trkpt><trkpt lat="42.53461425279577" lon="11.970304254797437"><ele>307.0</ele><time>2026-04-04T14:18:25.884Z</time></trkpt><trkpt lat="42.53452024089942" lon="11.970359755600313"><ele>306.6666666666667</ele><time>2026-04-04T14:18:27.884Z</time></trkpt><trkpt lat="42.534442750051475" lon="11.970406372448755"><ele>306.3333333333333</ele><time>2026-04-04T14:18:29.884Z</time></trkpt><trkpt lat="42.53438552726969" lon="11.970467990518282"><ele>306.0</ele><time>2026-04-04T14:18:31.884Z</time></trkpt><trkpt lat="42.53433773796481" lon="11.970536956811024"><ele>306.6666666666667</ele><time>2026-04-04T14:18:33.884Z</time></trkpt><trkpt lat="42.53434944548995" lon="11.970648211645061"><ele>307.3333333333333</ele><time>2026-04-04T14:18:36.884Z</time></trkpt><trkpt lat="42.53439905979367" lon="11.970738126947301"><ele>308.0</ele><time>2026-04-04T14:18:38.884Z</time></trkpt><trkpt lat="42.53444156474245" lon="11.9708128351808"><ele>308.66666666666663</ele><time>2026-04-04T14:18:40.884Z</time></trkpt><trkpt lat="42.53450000350234" lon="11.970894520214806"><ele>309.3333333333333</ele><time>2026-04-04T14:18:42.884Z</time></trkpt><trkpt lat="42.53456422547084" lon="11.970974057414596"><ele>310.0</ele><time>2026-04-04T14:18:44.884Z</time></trkpt><trkpt lat="42.534608804331874" lon="11.971043856291896"><ele>310.0</ele><time>2026-04-04T14:18:46.884Z</time></trkpt><trkpt lat="42.534661107257854" lon="11.97111956877173"><ele>310.0</ele><time>2026-04-04T14:18:48.883Z</time></trkpt><trkpt lat="42.534712863042024" lon="11.971199597586612"><ele>310.0</ele><time>2026-04-04T14:18:51.886Z</time></trkpt><trkpt lat="42.53467043182895" lon="11.97110897553641"><ele>310.0</ele><time>2026-04-04T14:18:55.886Z</time></trkpt><trkpt lat="42.534610066009755" lon="11.97104902589123"><ele>310.0</ele><time>2026-04-04T14:18:57.886Z</time></trkpt><trkpt lat="42.534553438100325" lon="11.970982794671611"><ele>310.0</ele><time>2026-04-04T14:18:59.885Z</time></trkpt><trkpt lat="42.534496132383" lon="11.970910179238459"><ele>312.3333333333333</ele><time>2026-04-04T14:19:01.886Z</time></trkpt><trkpt lat="42.53443806110679" lon="11.970826770456735"><ele>314.66666666666663</ele><time>2026-04-04T14:19:03.886Z</time></trkpt><trkpt lat="42.5343789296453" lon="11.970737852972581"><ele>317.0</ele><time>2026-04-04T14:19:05.886Z</time></trkpt><trkpt lat="42.53431797684741" lon="11.970648801360632"><ele>319.3333333333333</ele><time>2026-04-04T14:19:07.886Z</time></trkpt><trkpt lat="42.53425199361212" lon="11.970567814788318"><ele>321.6666666666667</ele><time>2026-04-04T14:19:09.886Z</time></trkpt><trkpt lat="42.534197781343444" lon="11.970484209050275"><ele>324.0</ele><time>2026-04-04T14:19:11.886Z</time></trkpt><trkpt lat="42.53414461815231" lon="11.970411027261495"><ele>324.0</ele><time>2026-04-04T14:19:13.886Z</time></trkpt><trkpt lat="42.53409325604963" lon="11.970349114837532"><ele>324.0</ele><time>2026-04-04T14:19:15.886Z</time></trkpt><trkpt lat="42.53402497525289" lon="11.970302855668777"><ele>324.0</ele><time>2026-04-04T14:19:17.886Z</time></trkpt><trkpt lat="42.53395521949297" lon="11.970275538678331"><ele>324.0</ele><time>2026-04-04T14:19:19.885Z</time></trkpt><trkpt lat="42.533885826794034" lon="11.970258713849638"><ele>324.0</ele><time>2026-04-04T14:19:21.885Z</time></trkpt><trkpt lat="42.53381862614207" lon="11.970289172084565"><ele>324.0</ele><time>2026-04-04T14:19:23.885Z</time></trkpt><trkpt lat="42.53374968224701" lon="11.970313312838964"><ele>324.0</ele><time>2026-04-04T14:19:25.885Z</time></trkpt><trkpt lat="42.533667080036075" lon="11.970353672910456"><ele>324.6666666666667</ele><time>2026-04-04T14:19:28.885Z</time></trkpt><trkpt lat="42.53359649577896" lon="11.970379207159066"><ele>325.3333333333333</ele><time>2026-04-04T14:19:30.885Z</time></trkpt><trkpt lat="42.53353794373016" lon="11.970414987365382"><ele>326.0</ele><time>2026-04-04T14:19:32.885Z</time></trkpt><trkpt lat="42.53345902728876" lon="11.97046299543516"><ele>326.66666666666663</ele><time>2026-04-04T14:19:35.885Z</time></trkpt><trkpt lat="42.53338206951722" lon="11.970482984376144"><ele>327.3333333333333</ele><time>2026-04-04T14:19:38.885Z</time></trkpt><trkpt lat="42.533296576734294" lon="11.970522625656765"><ele>328.0</ele><time>2026-04-04T14:19:41.885Z</time></trkpt><trkpt lat="42.53322349820172" lon="11.970559055261429"><ele>328.0</ele><time>2026-04-04T14:19:44.884Z</time></trkpt><trkpt lat="42.53315177240334" lon="11.970591701147699"><ele>328.0</ele><time>2026-04-04T14:19:47.884Z</time></trkpt><trkpt lat="42.53308855142949" lon="11.970618673637608"><ele>328.0</ele><time>2026-04-04T14:19:49.884Z</time></trkpt><trkpt lat="42.533011910789725" lon="11.970657745110131"><ele>328.0</ele><time>2026-04-04T14:19:52.884Z</time></trkpt><trkpt lat="42.532930565482744" lon="11.970673203977077"><ele>328.0</ele><time>2026-04-04T14:19:55.884Z</time></trkpt><trkpt lat="42.53286575103113" lon="11.97066743639518"><ele>328.0</ele><time>2026-04-04T14:19:57.884Z</time></trkpt><trkpt lat="42.53277275497263" lon="11.970660470661613"><ele>327.8333333333333</ele><time>2026-04-04T14:20:00.884Z</time></trkpt><trkpt lat="42.532691002725095" lon="11.97063317328551"><ele>327.66666666666663</ele><time>2026-04-04T14:20:03.884Z</time></trkpt><trkpt lat="42.53260685408088" lon="11.970611378967668"><ele>327.5</ele><time>2026-04-04T14:20:06.884Z</time></trkpt><trkpt lat="42.53251773965141" lon="11.970592035563447"><ele>327.3333333333333</ele><time>2026-04-04T14:20:09.883Z</time></trkpt><trkpt lat="42.53243102701489" lon="11.970584556377325"><ele>327.1666666666667</ele><time>2026-04-04T14:20:12.883Z</time></trkpt><trkpt lat="42.532361415169575" lon="11.970584828167507"><ele>327.0</ele><time>2026-04-04T14:20:14.883Z</time></trkpt><trkpt lat="42.53227461695225" lon="11.970584637611026"><ele>327.0</ele><time>2026-04-04T14:20:17.883Z</time></trkpt><trkpt lat="42.53220761979444" lon="11.970575664421721"><ele>327.0</ele><time>2026-04-04T14:20:19.883Z</time></trkpt><trkpt lat="42.53212652604981" lon="11.970591697035287"><ele>327.0</ele><time>2026-04-04T14:20:22.883Z</time></trkpt><trkpt lat="42.532047720748196" lon="11.970592621663515"><ele>327.0</ele><time>2026-04-04T14:20:25.883Z</time></trkpt><trkpt lat="42.53196467629055" lon="11.970600601769453"><ele>327.0</ele><time>2026-04-04T14:20:29.883Z</time></trkpt><trkpt lat="42.531879267990725" lon="11.970579982903129"><ele>327.0</ele><time>2026-04-04T14:20:33.882Z</time></trkpt><trkpt lat="42.53181233296001" lon="11.97055163519507"><ele>327.6666666666667</ele><time>2026-04-04T14:20:36.882Z</time></trkpt><trkpt lat="42.53173066524943" lon="11.970536762837316"><ele>328.3333333333333</ele><time>2026-04-04T14:20:39.882Z</time></trkpt><trkpt lat="42.531661521312955" lon="11.970521750360472"><ele>329.0</ele><time>2026-04-04T14:20:41.882Z</time></trkpt><trkpt lat="42.5315958400682" lon="11.970490729727626"><ele>329.66666666666663</ele><time>2026-04-04T14:20:44.882Z</time></trkpt><trkpt lat="42.531504610201566" lon="11.970480310529014"><ele>330.3333333333333</ele><time>2026-04-04T14:20:47.882Z</time></trkpt><trkpt lat="42.53141888681989" lon="11.970466953513004"><ele>331.0</ele><time>2026-04-04T14:20:50.882Z</time></trkpt><trkpt lat="42.53133364468544" lon="11.970425191892367"><ele>331.0</ele><time>2026-04-04T14:20:53.882Z</time></trkpt><trkpt lat="42.531258663240145" lon="11.970369187053338"><ele>331.0</ele><time>2026-04-04T14:20:56.883Z</time></trkpt><trkpt lat="42.53118154317044" lon="11.970322179738897"><ele>331.0</ele><time>2026-04-04T14:21:00.884Z</time></trkpt><trkpt lat="42.53112473417915" lon="11.970284721624589"><ele>331.0</ele><time>2026-04-04T14:21:03.884Z</time></trkpt><trkpt lat="42.53104713407455" lon="11.97024409955498"><ele>331.0</ele><time>2026-04-04T14:21:06.884Z</time></trkpt><trkpt lat="42.530984194139506" lon="11.970233635075598"><ele>331.0</ele><time>2026-04-04T14:21:08.884Z</time></trkpt><trkpt lat="42.530921172102936" lon="11.970210738948476"><ele>331.0</ele><time>2026-04-04T14:21:10.884Z</time></trkpt><trkpt lat="42.53083964757353" lon="11.970209598167488"><ele>330.7142857142857</ele><time>2026-04-04T14:21:13.884Z</time></trkpt><trkpt lat="42.530775857188566" lon="11.970230762950969"><ele>330.42857142857144</ele><time>2026-04-04T14:21:15.884Z</time></trkpt><trkpt lat="42.53071259129337" lon="11.97022094051125"><ele>330.1428571428571</ele><time>2026-04-04T14:21:17.883Z</time></trkpt><trkpt lat="42.53064577481688" lon="11.97024756249985"><ele>329.8571428571429</ele><time>2026-04-04T14:21:20.883Z</time></trkpt><trkpt lat="42.53057869161243" lon="11.970268550836925"><ele>329.57142857142856</ele><time>2026-04-04T14:21:22.883Z</time></trkpt><trkpt lat="42.53051471981915" lon="11.970282169547483"><ele>329.2857142857143</ele><time>2026-04-04T14:21:24.883Z</time></trkpt><trkpt lat="42.5304468743833" lon="11.970303876936471"><ele>329.0</ele><time>2026-04-04T14:21:26.883Z</time></trkpt><trkpt lat="42.53038348323689" lon="11.970325924081024"><ele>329.0</ele><time>2026-04-04T14:21:28.883Z</time></trkpt><trkpt lat="42.53029973495352" lon="11.970358730146142"><ele>329.0</ele><time>2026-04-04T14:21:31.883Z</time></trkpt><trkpt lat="42.53023260480772" lon="11.970376462394695"><ele>329.0</ele><time>2026-04-04T14:21:34.883Z</time></trkpt><trkpt lat="42.53014635891728" lon="11.970384378386154"><ele>329.0</ele><time>2026-04-04T14:21:37.883Z</time></trkpt><trkpt lat="42.53008430529347" lon="11.97039891298014"><ele>329.0</ele><time>2026-04-04T14:21:39.883Z</time></trkpt><trkpt lat="42.53002093832052" lon="11.970401041419889"><ele>329.0</ele><time>2026-04-04T14:21:41.882Z</time></trkpt><trkpt lat="42.52992361064244" lon="11.970378610708611"><ele>329.0</ele><time>2026-04-04T14:21:44.882Z</time></trkpt><trkpt lat="42.52984558738581" lon="11.970366268925654"><ele>329.0</ele><time>2026-04-04T14:21:47.882Z</time></trkpt><trkpt lat="42.52976431621888" lon="11.970339186048546"><ele>329.0</ele><time>2026-04-04T14:21:50.882Z</time></trkpt><trkpt lat="42.52967771317631" lon="11.970314293757365"><ele>329.0</ele><time>2026-04-04T14:21:53.882Z</time></trkpt><trkpt lat="42.52959265447626" lon="11.970288548094759"><ele>329.0</ele><time>2026-04-04T14:21:56.882Z</time></trkpt><trkpt lat="42.529517970999045" lon="11.970250386674447"><ele>329.0</ele><time>2026-04-04T14:21:59.882Z</time></trkpt><trkpt lat="42.52943549422626" lon="11.970226328035075"><ele>329.83333333333337</ele><time>2026-04-04T14:22:02.882Z</time></trkpt><trkpt lat="42.529363324746555" lon="11.9702287371798"><ele>330.6666666666667</ele><time>2026-04-04T14:22:05.881Z</time></trkpt><trkpt lat="42.52928535915958" lon="11.970222150255665"><ele>331.5</ele><time>2026-04-04T14:22:08.881Z</time></trkpt><trkpt lat="42.52921324728403" lon="11.970203598622698"><ele>332.3333333333333</ele><time>2026-04-04T14:22:11.88Z</time></trkpt><trkpt lat="42.52914308851747" lon="11.970205088366882"><ele>333.16666666666663</ele><time>2026-04-04T14:22:14.879Z</time></trkpt><trkpt lat="42.52906520551234" lon="11.970195894945718"><ele>334.0</ele><time>2026-04-04T14:22:17.878Z</time></trkpt><trkpt lat="42.52897714466242" lon="11.970173961200867"><ele>334.0</ele><time>2026-04-04T14:22:20.877Z</time></trkpt><trkpt lat="42.52891493393615" lon="11.97015826662197"><ele>334.0</ele><time>2026-04-04T14:22:22.877Z</time></trkpt><trkpt lat="42.528839235238266" lon="11.970123984823127"><ele>334.0</ele><time>2026-04-04T14:22:25.876Z</time></trkpt><trkpt lat="42.52875226350273" lon="11.970115727664206"><ele>334.0</ele><time>2026-04-04T14:22:28.876Z</time></trkpt><trkpt lat="42.5286695674594" lon="11.970096542958492"><ele>334.0</ele><time>2026-04-04T14:22:31.875Z</time></trkpt><trkpt lat="42.52857775610886" lon="11.970077573612626"><ele>334.0</ele><time>2026-04-04T14:22:34.875Z</time></trkpt><trkpt lat="42.528505862453805" lon="11.970048505598754"><ele>334.66666666666663</ele><time>2026-04-04T14:22:37.875Z</time></trkpt><trkpt lat="42.52843308032148" lon="11.970030721821173"><ele>335.3333333333333</ele><time>2026-04-04T14:22:40.874Z</time></trkpt><trkpt lat="42.52835804681255" lon="11.970012309702842"><ele>336.0</ele><time>2026-04-04T14:22:43.874Z</time></trkpt><trkpt lat="42.52828139311945" lon="11.969954902667848"><ele>336.6666666666667</ele><time>2026-04-04T14:22:46.874Z</time></trkpt><trkpt lat="42.52820885292387" lon="11.969883917943061"><ele>337.33333333333337</ele><time>2026-04-04T14:22:49.874Z</time></trkpt><trkpt lat="42.528149864619536" lon="11.969805259754452"><ele>338.0</ele><time>2026-04-04T14:22:52.873Z</time></trkpt><trkpt lat="42.52808898692167" lon="11.969752939284637"><ele>337.33333333333337</ele><time>2026-04-04T14:22:55.873Z</time></trkpt><trkpt lat="42.52801519036177" lon="11.969705977589616"><ele>336.6666666666667</ele><time>2026-04-04T14:22:58.873Z</time></trkpt><trkpt lat="42.52794738187765" lon="11.969666203363161"><ele>336.0</ele><time>2026-04-04T14:23:01.876Z</time></trkpt><trkpt lat="42.52786310935326" lon="11.969649057114756"><ele>335.3333333333333</ele><time>2026-04-04T14:23:05.875Z</time></trkpt><trkpt lat="42.52779058500852" lon="11.969591570410632"><ele>334.66666666666663</ele><time>2026-04-04T14:23:09.875Z</time></trkpt><trkpt lat="42.52772974587547" lon="11.96954454787585"><ele>334.0</ele><time>2026-04-04T14:23:13.874Z</time></trkpt><trkpt lat="42.52766484810258" lon="11.969495516653529"><ele>334.0</ele><time>2026-04-04T14:23:17.875Z</time></trkpt><trkpt lat="42.52760933225842" lon="11.969425470749211"><ele>334.0</ele><time>2026-04-04T14:23:21.875Z</time></trkpt><trkpt lat="42.527556883100125" lon="11.969365284741214"><ele>334.0</ele><time>2026-04-04T14:23:26.874Z</time></trkpt><trkpt lat="42.52749928819998" lon="11.96931630894754"><ele>334.0</ele><time>2026-04-04T14:23:31.874Z</time></trkpt><trkpt lat="42.52744812733219" lon="11.96925848443642"><ele>334.0</ele><time>2026-04-04T14:23:36.874Z</time></trkpt><trkpt lat="42.52739918175199" lon="11.969192979713108"><ele>334.0</ele><time>2026-04-04T14:23:42.874Z</time></trkpt><trkpt lat="42.527363444761356" lon="11.969117056140274"><ele>334.0</ele><time>2026-04-04T14:23:48.873Z</time></trkpt><trkpt lat="42.527309433392865" lon="11.969062076107798"><ele>334.5</ele><time>2026-04-04T14:23:54.873Z</time></trkpt><trkpt lat="42.52726565136265" lon="11.968991513820777"><ele>335.0</ele><time>2026-04-04T14:24:00.873Z</time></trkpt><trkpt lat="42.52720126797562" lon="11.968947801939697"><ele>335.5</ele><time>2026-04-04T14:24:07.872Z</time></trkpt><trkpt lat="42.52713539959124" lon="11.968907269034336"><ele>336.0</ele><time>2026-04-04T14:24:12.872Z</time></trkpt><trkpt lat="42.52706971588948" lon="11.968889043301903"><ele>336.5</ele><time>2026-04-04T14:24:19.872Z</time></trkpt><trkpt lat="42.52700826336581" lon="11.968851210376034"><ele>337.0</ele><time>2026-04-04T14:24:24.872Z</time></trkpt><trkpt lat="42.52681977282467" lon="11.968736486308647"><ele>337.7142857142857</ele><time>2026-04-04T14:24:43.87Z</time></trkpt><trkpt lat="42.5267592201251" lon="11.968705459941587"><ele>338.42857142857144</ele><time>2026-04-04T14:24:49.87Z</time></trkpt><trkpt lat="42.5266991476636" lon="11.968678376799833"><ele>339.1428571428571</ele><time>2026-04-04T14:24:55.869Z</time></trkpt><trkpt lat="42.526641410466425" lon="11.968640123439272"><ele>339.8571428571429</ele><time>2026-04-04T14:25:01.869Z</time></trkpt><trkpt lat="42.5265778506377" lon="11.968617417820514"><ele>340.57142857142856</ele><time>2026-04-04T14:25:07.871Z</time></trkpt><trkpt lat="42.52650593898795" lon="11.96858951143776"><ele>341.2857142857143</ele><time>2026-04-04T14:25:14.871Z</time></trkpt><trkpt lat="42.52643850127213" lon="11.968566302097205"><ele>342.0</ele><time>2026-04-04T14:25:20.871Z</time></trkpt><trkpt lat="42.52637729966651" lon="11.968535595518285"><ele>341.99999999999994</ele><time>2026-04-04T14:25:27.87Z</time></trkpt><trkpt lat="42.52631166519176" lon="11.968526399932491"><ele>342.0</ele><time>2026-04-04T14:25:33.87Z</time></trkpt><trkpt lat="42.5262526151765" lon="11.968492926453422"><ele>342.0</ele><time>2026-04-04T14:25:39.87Z</time></trkpt><trkpt lat="42.5261931889245" lon="11.96845927178085"><ele>342.0</ele><time>2026-04-04T14:25:45.87Z</time></trkpt><trkpt lat="42.52613426488406" lon="11.968418192909995"><ele>342.0</ele><time>2026-04-04T14:25:51.869Z</time></trkpt><trkpt lat="42.526067621815585" lon="11.968416787011007"><ele>341.99999999999994</ele><time>2026-04-04T14:25:57.869Z</time></trkpt><trkpt lat="42.52597869301332" lon="11.96840332196853"><ele>342.0</ele><time>2026-04-04T14:26:11.869Z</time></trkpt><trkpt lat="42.525914753399626" lon="11.968389924734893"><ele>343.2857142857143</ele><time>2026-04-04T14:26:20.868Z</time></trkpt><trkpt lat="42.525854102807706" lon="11.968365934329462"><ele>344.57142857142856</ele><time>2026-04-04T14:26:25.868Z</time></trkpt><trkpt lat="42.52578865242043" lon="11.96835108136922"><ele>345.8571428571429</ele><time>2026-04-04T14:26:33.868Z</time></trkpt><trkpt lat="42.52572166603953" lon="11.96836618938339"><ele>347.1428571428571</ele><time>2026-04-04T14:26:40.867Z</time></trkpt><trkpt lat="42.52565926595973" lon="11.968344341878849"><ele>348.42857142857144</ele><time>2026-04-04T14:26:48.867Z</time></trkpt><trkpt lat="42.52560644089697" lon="11.96840260673769"><ele>349.7142857142857</ele><time>2026-04-04T14:26:55.867Z</time></trkpt><trkpt lat="42.525552397338316" lon="11.968354711853303"><ele>351.0</ele><time>2026-04-04T14:27:02.866Z</time></trkpt><trkpt lat="42.52548293667012" lon="11.968401233567906"><ele>351.00000000000006</ele><time>2026-04-04T14:27:11.866Z</time></trkpt><trkpt lat="42.52541809720888" lon="11.968422346030586"><ele>351.0</ele><time>2026-04-04T14:27:15.868Z</time></trkpt><trkpt lat="42.52534537248218" lon="11.968405087410392"><ele>351.0</ele><time>2026-04-04T14:27:22.869Z</time></trkpt><trkpt lat="42.525297332604765" lon="11.968469456546941"><ele>351.0</ele><time>2026-04-04T14:27:33.868Z</time></trkpt><trkpt lat="42.52523929861717" lon="11.96843144352955"><ele>351.0</ele><time>2026-04-04T14:27:41.868Z</time></trkpt><trkpt lat="42.525170517091254" lon="11.968466220590766"><ele>351.00000000000006</ele><time>2026-04-04T14:27:50.867Z</time></trkpt><trkpt lat="42.52511420448166" lon="11.968412591363819"><ele>351.0</ele><time>2026-04-04T14:27:56.867Z</time></trkpt><trkpt lat="42.525059758584185" lon="11.96835977613822"><ele>353.42857142857144</ele><time>2026-04-04T14:28:03.867Z</time></trkpt><trkpt lat="42.524989362522675" lon="11.968380176221038"><ele>355.8571428571429</ele><time>2026-04-04T14:28:10.866Z</time></trkpt><trkpt lat="42.5249262753752" lon="11.96833231359186"><ele>358.28571428571433</ele><time>2026-04-04T14:28:17.866Z</time></trkpt><trkpt lat="42.524866486910135" lon="11.96830051115026"><ele>360.7142857142857</ele><time>2026-04-04T14:28:25.866Z</time></trkpt><trkpt lat="42.524795037019615" lon="11.96827801473135"><ele>363.1428571428571</ele><time>2026-04-04T14:28:31.865Z</time></trkpt><trkpt lat="42.52474418805635" lon="11.968220241937106"><ele>365.5714285714286</ele><time>2026-04-04T14:28:38.865Z</time></trkpt><trkpt lat="42.52468021439883" lon="11.968203478249677"><ele>368.0</ele><time>2026-04-04T14:28:47.865Z</time></trkpt><trkpt lat="42.52463652707336" lon="11.96813565940616"><ele>372.0</ele><time>2026-04-04T14:28:52.865Z</time></trkpt><trkpt lat="42.52456189816354" lon="11.968112916712139"><ele>376.0</ele><time>2026-04-04T14:29:00.864Z</time></trkpt><trkpt lat="42.52448226649743" lon="11.968086043906563"><ele>380.0</ele><time>2026-04-04T14:29:07.864Z</time></trkpt><trkpt lat="42.52442908222294" lon="11.968032007316843"><ele>384.0</ele><time>2026-04-04T14:29:14.864Z</time></trkpt><trkpt lat="42.524371821113604" lon="11.96797273862076"><ele>387.99999999999994</ele><time>2026-04-04T14:29:21.866Z</time></trkpt><trkpt lat="42.524295869136694" lon="11.967958769043522"><ele>392.0</ele><time>2026-04-04T14:29:28.866Z</time></trkpt><trkpt lat="42.52424990903717" lon="11.967874017005425"><ele>391.99999999999994</ele><time>2026-04-04T14:29:33.866Z</time></trkpt><trkpt lat="42.524183035684175" lon="11.967800585387053"><ele>392.0</ele><time>2026-04-04T14:29:37.865Z</time></trkpt><trkpt lat="42.52411790464952" lon="11.967744949181952"><ele>392.0</ele><time>2026-04-04T14:29:41.865Z</time></trkpt><trkpt lat="42.52407250369003" lon="11.967682732312717"><ele>392.0</ele><time>2026-04-04T14:29:45.865Z</time></trkpt><trkpt lat="42.52401126484126" lon="11.967631749810447"><ele>391.99999999999994</ele><time>2026-04-04T14:29:47.865Z</time></trkpt><trkpt lat="42.52395487133086" lon="11.967691152230367"><ele>392.0</ele><time>2026-04-04T14:29:50.865Z</time></trkpt><trkpt lat="42.523913789018394" lon="11.96779233595224"><ele>391.99999999999994</ele><time>2026-04-04T14:29:53.865Z</time></trkpt><trkpt lat="42.52386447570856" lon="11.967898514531793"><ele>392.0</ele><time>2026-04-04T14:29:56.865Z</time></trkpt><trkpt lat="42.523839666567824" lon="11.967992202210244"><ele>392.0</ele><time>2026-04-04T14:29:59.864Z</time></trkpt><trkpt lat="42.523814269906964" lon="11.968078433389774"><ele>392.0</ele><time>2026-04-04T14:30:02.864Z</time></trkpt><trkpt lat="42.52378090050927" lon="11.968171385127881"><ele>391.99999999999994</ele><time>2026-04-04T14:30:05.864Z</time></trkpt><trkpt lat="42.52374736608163" lon="11.968249422950775"><ele>392.0</ele><time>2026-04-04T14:30:08.864Z</time></trkpt><trkpt lat="42.52369865601097" lon="11.968325641437174"><ele>392.2857142857143</ele><time>2026-04-04T14:30:11.864Z</time></trkpt><trkpt lat="42.52365417523683" lon="11.968405219515017"><ele>392.57142857142856</ele><time>2026-04-04T14:30:14.864Z</time></trkpt><trkpt lat="42.523605384545164" lon="11.968481288339063"><ele>392.8571428571429</ele><time>2026-04-04T14:30:17.864Z</time></trkpt><trkpt lat="42.523563708357095" lon="11.968552574442999"><ele>393.1428571428571</ele><time>2026-04-04T14:30:20.864Z</time></trkpt><trkpt lat="42.52352242234385" lon="11.968619230690168"><ele>393.42857142857144</ele><time>2026-04-04T14:30:23.863Z</time></trkpt><trkpt lat="42.52347503056108" lon="11.968684086737856"><ele>393.7142857142857</ele><time>2026-04-04T14:30:26.863Z</time></trkpt><trkpt lat="42.52343734724193" lon="11.968763519197916"><ele>394.0</ele><time>2026-04-04T14:30:29.863Z</time></trkpt><trkpt lat="42.52339931389486" lon="11.96884172667649"><ele>394.0</ele><time>2026-04-04T14:30:32.863Z</time></trkpt><trkpt lat="42.52335103701315" lon="11.96890887694511"><ele>394.0</ele><time>2026-04-04T14:30:35.863Z</time></trkpt><trkpt lat="42.5233129015992" lon="11.96898431152197"><ele>394.0</ele><time>2026-04-04T14:30:38.863Z</time></trkpt><trkpt lat="42.52327915464104" lon="11.969067753840665"><ele>394.0</ele><time>2026-04-04T14:30:41.863Z</time></trkpt><trkpt lat="42.523222041489234" lon="11.969145160719087"><ele>394.0</ele><time>2026-04-04T14:30:45.863Z</time></trkpt><trkpt lat="42.52318149922086" lon="11.96921081916543"><ele>394.0</ele><time>2026-04-04T14:30:48.862Z</time></trkpt><trkpt lat="42.52313626919171" lon="11.96927313801581"><ele>394.0</ele><time>2026-04-04T14:30:51.862Z</time></trkpt><trkpt lat="42.52308474571427" lon="11.969359833243852"><ele>393.8571428571429</ele><time>2026-04-04T14:30:55.862Z</time></trkpt><trkpt lat="42.52304434490948" lon="11.96942570413775"><ele>393.7142857142857</ele><time>2026-04-04T14:30:58.862Z</time></trkpt><trkpt lat="42.52299507300604" lon="11.969504761471036"><ele>393.57142857142856</ele><time>2026-04-04T14:31:02.862Z</time></trkpt><trkpt lat="42.522958205660785" lon="11.969575326623323"><ele>393.42857142857144</ele><time>2026-04-04T14:31:06.862Z</time></trkpt><trkpt lat="42.52292642068174" lon="11.969654502532197"><ele>393.2857142857143</ele><time>2026-04-04T14:31:10.861Z</time></trkpt><trkpt lat="42.52288893028885" lon="11.969737029833299"><ele>393.14285714285717</ele><time>2026-04-04T14:31:15.861Z</time></trkpt><trkpt lat="42.52285777715748" lon="11.969821166534855"><ele>393.0</ele><time>2026-04-04T14:31:20.861Z</time></trkpt><trkpt lat="42.52283707787611" lon="11.969903868354303"><ele>393.00000000000006</ele><time>2026-04-04T14:31:24.861Z</time></trkpt><trkpt lat="42.52279999239505" lon="11.969981962400928"><ele>393.0</ele><time>2026-04-04T14:31:28.864Z</time></trkpt><trkpt lat="42.52277066013621" lon="11.970065986121337"><ele>393.0</ele><time>2026-04-04T14:31:32.864Z</time></trkpt><trkpt lat="42.522746945678236" lon="11.970161813505925"><ele>393.0</ele><time>2026-04-04T14:31:37.864Z</time></trkpt><trkpt lat="42.52272555527636" lon="11.97024627514957"><ele>393.0</ele><time>2026-04-04T14:31:41.863Z</time></trkpt><trkpt lat="42.522710280019105" lon="11.970334151687748"><ele>393.00000000000006</ele><time>2026-04-04T14:31:45.863Z</time></trkpt><trkpt lat="42.52270151252754" lon="11.970435812781972"><ele>393.0</ele><time>2026-04-04T14:31:49.863Z</time></trkpt><trkpt lat="42.522689395253636" lon="11.970541306632388"><ele>393.5</ele><time>2026-04-04T14:31:53.863Z</time></trkpt><trkpt lat="42.52267531096534" lon="11.970641137376372"><ele>394.0</ele><time>2026-04-04T14:31:57.862Z</time></trkpt><trkpt lat="42.52266781271916" lon="11.970749170898916"><ele>394.5</ele><time>2026-04-04T14:32:01.862Z</time></trkpt><trkpt lat="42.522651156802965" lon="11.970841508138127"><ele>395.0</ele><time>2026-04-04T14:32:04.862Z</time></trkpt><trkpt lat="42.522656959623475" lon="11.970951491553294"><ele>395.5</ele><time>2026-04-04T14:32:08.862Z</time></trkpt><trkpt lat="42.52265598187548" lon="11.971057870289973"><ele>396.0</ele><time>2026-04-04T14:32:12.862Z</time></trkpt><trkpt lat="42.52263947627096" lon="11.971173868337905"><ele>396.3333333333333</ele><time>2026-04-04T14:32:16.862Z</time></trkpt><trkpt lat="42.52263528170749" lon="11.971283487170224"><ele>396.66666666666663</ele><time>2026-04-04T14:32:20.861Z</time></trkpt><trkpt lat="42.522625540208125" lon="11.971389954252112"><ele>397.0</ele><time>2026-04-04T14:32:24.861Z</time></trkpt><trkpt lat="42.52263350410963" lon="11.971475671978768"><ele>397.3333333333333</ele><time>2026-04-04T14:32:27.861Z</time></trkpt><trkpt lat="42.52261688439835" lon="11.971577301578495"><ele>397.66666666666663</ele><time>2026-04-04T14:32:31.861Z</time></trkpt><trkpt lat="42.522615661662435" lon="11.97168681719322"><ele>398.0</ele><time>2026-04-04T14:32:35.861Z</time></trkpt><trkpt lat="42.52261437309004" lon="11.97178838905806"><ele>398.85714285714283</ele><time>2026-04-04T14:32:39.861Z</time></trkpt><trkpt lat="42.52261523377683" lon="11.971887129385683"><ele>399.7142857142857</ele><time>2026-04-04T14:32:43.86Z</time></trkpt><trkpt lat="42.52260950013446" lon="11.971975858125642"><ele>400.57142857142856</ele><time>2026-04-04T14:32:46.86Z</time></trkpt><trkpt lat="42.52260413750972" lon="11.972081874772655"><ele>401.42857142857144</ele><time>2026-04-04T14:32:50.86Z</time></trkpt><trkpt lat="42.522598485564" lon="11.972194259099387"><ele>402.2857142857143</ele><time>2026-04-04T14:32:54.86Z</time></trkpt><trkpt lat="42.52258606121961" lon="11.972296936544272"><ele>403.1428571428571</ele><time>2026-04-04T14:32:58.86Z</time></trkpt><trkpt lat="42.52258096489559" lon="11.972392411321733"><ele>404.0</ele><time>2026-04-04T14:33:02.86Z</time></trkpt><trkpt lat="42.522573442204305" lon="11.972477512981623"><ele>404.42857142857144</ele><time>2026-04-04T14:33:05.86Z</time></trkpt><trkpt lat="42.52256384176919" lon="11.972563355983613"><ele>404.85714285714283</ele><time>2026-04-04T14:33:08.859Z</time></trkpt><trkpt lat="42.522550413704046" lon="11.972648864114468"><ele>405.28571428571433</ele><time>2026-04-04T14:33:11.859Z</time></trkpt><trkpt lat="42.522535615300676" lon="11.97273642022435"><ele>405.7142857142857</ele><time>2026-04-04T14:33:14.859Z</time></trkpt><trkpt lat="42.52251142269803" lon="11.972835347876673"><ele>406.14285714285717</ele><time>2026-04-04T14:33:18.859Z</time></trkpt><trkpt lat="42.52249600525766" lon="11.972939299823112"><ele>406.5714285714286</ele><time>2026-04-04T14:33:22.859Z</time></trkpt><trkpt lat="42.52247223851821" lon="11.973019265066837"><ele>407.0</ele><time>2026-04-04T14:33:25.859Z</time></trkpt><trkpt lat="42.52245569194795" lon="11.973119512516883"><ele>407.00000000000006</ele><time>2026-04-04T14:33:29.859Z</time></trkpt><trkpt lat="42.52242805810414" lon="11.973220325863036"><ele>407.0</ele><time>2026-04-04T14:33:33.862Z</time></trkpt><trkpt lat="42.52240810380471" lon="11.973323451712"><ele>407.0</ele><time>2026-04-04T14:33:37.861Z</time></trkpt><trkpt lat="42.5223847303178" lon="11.973423276124217"><ele>407.0</ele><time>2026-04-04T14:33:41.861Z</time></trkpt><trkpt lat="42.5223580652978" lon="11.973502969646232"><ele>407.0</ele><time>2026-04-04T14:33:44.861Z</time></trkpt><trkpt lat="42.52233972363372" lon="11.973602356548131"><ele>407.00000000000006</ele><time>2026-04-04T14:33:48.861Z</time></trkpt><trkpt lat="42.52230614603251" lon="11.973677556002778"><ele>407.0</ele><time>2026-04-04T14:33:51.861Z</time></trkpt><trkpt lat="42.52226447509882" lon="11.973771934191644"><ele>407.3333333333333</ele><time>2026-04-04T14:33:55.86Z</time></trkpt><trkpt lat="42.52221972141184" lon="11.973863291233235"><ele>407.66666666666663</ele><time>2026-04-04T14:33:59.86Z</time></trkpt><trkpt lat="42.522186882728406" lon="11.973958859769985"><ele>408.0</ele><time>2026-04-04T14:34:03.86Z</time></trkpt><trkpt lat="42.52214977493959" lon="11.974058366184739"><ele>408.33333333333337</ele><time>2026-04-04T14:34:07.86Z</time></trkpt><trkpt lat="42.522105183564534" lon="11.974122276134706"><ele>408.6666666666667</ele><time>2026-04-04T14:34:10.86Z</time></trkpt><trkpt lat="42.52206430945768" lon="11.974218545500198"><ele>409.0</ele><time>2026-04-04T14:34:14.86Z</time></trkpt><trkpt lat="42.522028973115596" lon="11.974289361798075"><ele>409.0</ele><time>2026-04-04T14:34:17.86Z</time></trkpt><trkpt lat="42.522004615419924" lon="11.974386619701207"><ele>409.0</ele><time>2026-04-04T14:34:21.859Z</time></trkpt><trkpt lat="42.52196490457237" lon="11.97446680715598"><ele>409.0</ele><time>2026-04-04T14:34:25.859Z</time></trkpt><trkpt lat="42.52193549695465" lon="11.974562348006728"><ele>409.0</ele><time>2026-04-04T14:34:29.859Z</time></trkpt><trkpt lat="42.5219020839214" lon="11.974652102900585"><ele>409.0</ele><time>2026-04-04T14:34:33.859Z</time></trkpt><trkpt lat="42.52187527176532" lon="11.974749660972357"><ele>409.0</ele><time>2026-04-04T14:34:37.859Z</time></trkpt><trkpt lat="42.52185871466316" lon="11.974843278280229"><ele>409.0</ele><time>2026-04-04T14:34:41.859Z</time></trkpt><trkpt lat="42.52184847217853" lon="11.974948575774455"><ele>409.33333333333337</ele><time>2026-04-04T14:34:45.858Z</time></trkpt><trkpt lat="42.521837587648456" lon="11.975046799651265"><ele>409.6666666666667</ele><time>2026-04-04T14:34:49.858Z</time></trkpt><trkpt lat="42.521837429481266" lon="11.975149596638197"><ele>410.0</ele><time>2026-04-04T14:34:53.858Z</time></trkpt><trkpt lat="42.52184571556102" lon="11.97525395876329"><ele>410.33333333333337</ele><time>2026-04-04T14:34:57.858Z</time></trkpt><trkpt lat="42.521862372531395" lon="11.975339699213766"><ele>410.6666666666667</ele><time>2026-04-04T14:35:00.858Z</time></trkpt><trkpt lat="42.52188382491276" lon="11.97544550055395"><ele>411.0</ele><time>2026-04-04T14:35:04.858Z</time></trkpt><trkpt lat="42.521916258473745" lon="11.975541874414922"><ele>411.0</ele><time>2026-04-04T14:35:08.857Z</time></trkpt><trkpt lat="42.52195454176501" lon="11.975631618245961"><ele>411.0</ele><time>2026-04-04T14:35:12.857Z</time></trkpt><trkpt lat="42.52200511739027" lon="11.975719112470344"><ele>411.0</ele><time>2026-04-04T14:35:16.857Z</time></trkpt><trkpt lat="42.5220574913331" lon="11.9757730050992"><ele>411.0</ele><time>2026-04-04T14:35:19.857Z</time></trkpt><trkpt lat="42.522119046648974" lon="11.975848677889074"><ele>411.0</ele><time>2026-04-04T14:35:23.857Z</time></trkpt><trkpt lat="42.52218748591918" lon="11.975908395694072"><ele>411.0</ele><time>2026-04-04T14:35:27.857Z</time></trkpt><trkpt lat="42.52224147713671" lon="11.975954026830612"><ele>410.8333333333333</ele><time>2026-04-04T14:35:30.856Z</time></trkpt><trkpt lat="42.522312641242664" lon="11.976000154911397"><ele>410.66666666666663</ele><time>2026-04-04T14:35:34.856Z</time></trkpt><trkpt lat="42.52238764629595" lon="11.976052547309703"><ele>410.5</ele><time>2026-04-04T14:35:38.859Z</time></trkpt><trkpt lat="42.52245624751387" lon="11.976092999525607"><ele>410.3333333333333</ele><time>2026-04-04T14:35:42.859Z</time></trkpt><trkpt lat="42.52252689157382" lon="11.976144818766334"><ele>410.16666666666663</ele><time>2026-04-04T14:35:46.859Z</time></trkpt><trkpt lat="42.52258841178922" lon="11.976185583583176"><ele>410.0</ele><time>2026-04-04T14:35:49.859Z</time></trkpt><trkpt lat="42.5226616717412" lon="11.97624437347647"><ele>410.0</ele><time>2026-04-04T14:35:53.858Z</time></trkpt><trkpt lat="42.52271846381195" lon="11.97629572409357"><ele>410.0</ele><time>2026-04-04T14:35:56.858Z</time></trkpt><trkpt lat="42.52277760081513" lon="11.976326912139433"><ele>410.0</ele><time>2026-04-04T14:35:59.858Z</time></trkpt><trkpt lat="42.522831277767885" lon="11.976375234824193"><ele>410.0</ele><time>2026-04-04T14:36:02.858Z</time></trkpt><trkpt lat="42.52288885561978" lon="11.976417955361105"><ele>410.0</ele><time>2026-04-04T14:36:05.858Z</time></trkpt><trkpt lat="42.52296578519515" lon="11.976469850648076"><ele>410.0</ele><time>2026-04-04T14:36:09.857Z</time></trkpt><trkpt lat="42.523027090311054" lon="11.97651362848705"><ele>410.0</ele><time>2026-04-04T14:36:13.857Z</time></trkpt><trkpt lat="42.52309790736075" lon="11.97656469756466"><ele>411.49999999999994</ele><time>2026-04-04T14:36:17.857Z</time></trkpt><trkpt lat="42.523170990995276" lon="11.97661189635381"><ele>413.0</ele><time>2026-04-04T14:36:21.857Z</time></trkpt><trkpt lat="42.52323686034011" lon="11.976656184708103"><ele>414.5</ele><time>2026-04-04T14:36:25.857Z</time></trkpt><trkpt lat="42.52331093603272" lon="11.976706661321929"><ele>416.0</ele><time>2026-04-04T14:36:29.857Z</time></trkpt><trkpt lat="42.52337245207756" lon="11.976758263004843"><ele>417.49999999999994</ele><time>2026-04-04T14:36:33.856Z</time></trkpt><trkpt lat="42.52342190406465" lon="11.97681929610164"><ele>419.0</ele><time>2026-04-04T14:36:37.856Z</time></trkpt><trkpt lat="42.52349712470129" lon="11.976861480967369"><ele>418.99999999999994</ele><time>2026-04-04T14:36:40.856Z</time></trkpt><trkpt lat="42.523567817181686" lon="11.976902551809054"><ele>419.0</ele><time>2026-04-04T14:36:44.856Z</time></trkpt><trkpt lat="42.52363035271776" lon="11.976969998120891"><ele>419.0</ele><time>2026-04-04T14:36:48.856Z</time></trkpt><trkpt lat="42.52369789790367" lon="11.977034945197072"><ele>419.0</ele><time>2026-04-04T14:36:52.856Z</time></trkpt><trkpt lat="42.52376024450483" lon="11.977101957333712"><ele>418.99999999999994</ele><time>2026-04-04T14:36:56.855Z</time></trkpt><trkpt lat="42.523809514021416" lon="11.977191729665481"><ele>419.0</ele><time>2026-04-04T14:37:00.855Z</time></trkpt><trkpt lat="42.52385956360282" lon="11.97727567737647"><ele>420.2857142857143</ele><time>2026-04-04T14:37:04.855Z</time></trkpt><trkpt lat="42.523896705563125" lon="11.977363343407342"><ele>421.57142857142856</ele><time>2026-04-04T14:37:08.856Z</time></trkpt><trkpt lat="42.523937101021815" lon="11.977430929894142"><ele>422.8571428571429</ele><time>2026-04-04T14:37:11.859Z</time></trkpt><trkpt lat="42.52395877881151" lon="11.977511724389291"><ele>424.1428571428571</ele><time>2026-04-04T14:37:14.861Z</time></trkpt><trkpt lat="42.52399277066114" lon="11.977585026411012"><ele>425.42857142857144</ele><time>2026-04-04T14:37:17.863Z</time></trkpt><trkpt lat="42.524031210322335" lon="11.977678909164325"><ele>426.7142857142857</ele><time>2026-04-04T14:37:21.865Z</time></trkpt><trkpt lat="42.52407883777769" lon="11.97777021186712"><ele>428.0</ele><time>2026-04-04T14:37:25.866Z</time></trkpt><trkpt lat="42.52412080310482" lon="11.977841061344188"><ele>428.00000000000006</ele><time>2026-04-04T14:37:29.867Z</time></trkpt><trkpt lat="42.52415882021271" lon="11.977911882613125"><ele>428.0</ele><time>2026-04-04T14:37:32.868Z</time></trkpt><trkpt lat="42.52418723906543" lon="11.977990845288975"><ele>428.0</ele><time>2026-04-04T14:37:35.868Z</time></trkpt><trkpt lat="42.524235186151046" lon="11.978067141404587"><ele>428.0</ele><time>2026-04-04T14:37:38.868Z</time></trkpt><trkpt lat="42.52428114177823" lon="11.978153286223478"><ele>428.0</ele><time>2026-04-04T14:37:41.869Z</time></trkpt><trkpt lat="42.52431700245007" lon="11.978250032836149"><ele>428.00000000000006</ele><time>2026-04-04T14:37:44.872Z</time></trkpt><trkpt lat="42.52436652251722" lon="11.978339262570369"><ele>428.0</ele><time>2026-04-04T14:37:47.872Z</time></trkpt><trkpt lat="42.52440165355439" lon="11.978446651271257"><ele>427.66666666666663</ele><time>2026-04-04T14:37:50.872Z</time></trkpt><trkpt lat="42.52444942029577" lon="11.97854925410733"><ele>427.3333333333333</ele><time>2026-04-04T14:37:53.872Z</time></trkpt><trkpt lat="42.52448309031506" lon="11.97862917104447"><ele>427.0</ele><time>2026-04-04T14:37:55.872Z</time></trkpt><trkpt lat="42.52453102791866" lon="11.978732523949605"><ele>426.66666666666663</ele><time>2026-04-04T14:37:58.872Z</time></trkpt><trkpt lat="42.52458906400489" lon="11.978836242792534"><ele>426.3333333333333</ele><time>2026-04-04T14:38:01.872Z</time></trkpt><trkpt lat="42.52464345229419" lon="11.978924734172736"><ele>426.0</ele><time>2026-04-04T14:38:04.872Z</time></trkpt><trkpt lat="42.524692108171365" lon="11.978986484510969"><ele>426.85714285714283</ele><time>2026-04-04T14:38:06.872Z</time></trkpt><trkpt lat="42.52472157049671" lon="11.979065316584494"><ele>427.7142857142857</ele><time>2026-04-04T14:38:08.872Z</time></trkpt><trkpt lat="42.52476066380427" lon="11.979135556862598"><ele>428.57142857142856</ele><time>2026-04-04T14:38:10.872Z</time></trkpt><trkpt lat="42.52479735077138" lon="11.979207048589423"><ele>429.42857142857144</ele><time>2026-04-04T14:38:12.872Z</time></trkpt><trkpt lat="42.524836470931575" lon="11.97928845094805"><ele>430.2857142857143</ele><time>2026-04-04T14:38:14.872Z</time></trkpt><trkpt lat="42.52487064289892" lon="11.979364996560593"><ele>431.1428571428571</ele><time>2026-04-04T14:38:16.872Z</time></trkpt><trkpt lat="42.524905984257764" lon="11.979438697338411"><ele>432.0</ele><time>2026-04-04T14:38:18.872Z</time></trkpt><trkpt lat="42.52496130309586" lon="11.979508301404785"><ele>432.7142857142857</ele><time>2026-04-04T14:38:20.872Z</time></trkpt><trkpt lat="42.52500101539404" lon="11.979580116282737"><ele>433.42857142857144</ele><time>2026-04-04T14:38:22.871Z</time></trkpt><trkpt lat="42.52505059990475" lon="11.979646316462336"><ele>434.1428571428571</ele><time>2026-04-04T14:38:24.871Z</time></trkpt><trkpt lat="42.52509488076954" lon="11.979709185900974"><ele>434.8571428571429</ele><time>2026-04-04T14:38:26.871Z</time></trkpt><trkpt lat="42.52514818853311" lon="11.979788496271468"><ele>435.5714285714286</ele><time>2026-04-04T14:38:28.871Z</time></trkpt><trkpt lat="42.52519499881414" lon="11.979857625893548"><ele>436.2857142857143</ele><time>2026-04-04T14:38:30.871Z</time></trkpt><trkpt lat="42.5252421002467" lon="11.979945751261166"><ele>437.0</ele><time>2026-04-04T14:38:32.871Z</time></trkpt><trkpt lat="42.525299428546525" lon="11.980028370050187"><ele>438.8</ele><time>2026-04-04T14:38:34.871Z</time></trkpt><trkpt lat="42.52536312549886" lon="11.980114143277062"><ele>440.6</ele><time>2026-04-04T14:38:36.871Z</time></trkpt><trkpt lat="42.525416629537084" lon="11.980213172284744"><ele>442.40000000000003</ele><time>2026-04-04T14:38:38.871Z</time></trkpt><trkpt lat="42.52547837721104" lon="11.980308960511548"><ele>444.20000000000005</ele><time>2026-04-04T14:38:40.871Z</time></trkpt><trkpt lat="42.525538091872875" lon="11.980407538157449"><ele>446.0</ele><time>2026-04-04T14:38:42.871Z</time></trkpt><trkpt lat="42.52560310076769" lon="11.980502867915797"><ele>445.99999999999994</ele><time>2026-04-04T14:38:44.871Z</time></trkpt><trkpt lat="42.52565457065391" lon="11.9805952086014"><ele>446.0</ele><time>2026-04-04T14:38:46.871Z</time></trkpt><trkpt lat="42.525712776066285" lon="11.98065136239887"><ele>446.0</ele><time>2026-04-04T14:38:48.871Z</time></trkpt><trkpt lat="42.52575291666794" lon="11.980719719372514"><ele>446.0</ele><time>2026-04-04T14:38:50.87Z</time></trkpt><trkpt lat="42.52580223038223" lon="11.980825542217765"><ele>445.99999999999994</ele><time>2026-04-04T14:38:53.87Z</time></trkpt><trkpt lat="42.52585548054482" lon="11.980906491524454"><ele>446.0</ele><time>2026-04-04T14:38:56.87Z</time></trkpt><trkpt lat="42.525911109960674" lon="11.980981147734813"><ele>447.66666666666663</ele><time>2026-04-04T14:38:59.87Z</time></trkpt><trkpt lat="42.52596604724247" lon="11.981063152563925"><ele>449.3333333333333</ele><time>2026-04-04T14:39:02.87Z</time></trkpt><trkpt lat="42.526014589526675" lon="11.981134723465026"><ele>451.0</ele><time>2026-04-04T14:39:05.87Z</time></trkpt><trkpt lat="42.52606734495655" lon="11.981213578613692"><ele>452.66666666666663</ele><time>2026-04-04T14:39:08.87Z</time></trkpt><trkpt lat="42.5261024690471" lon="11.98129760169936"><ele>454.3333333333333</ele><time>2026-04-04T14:39:11.87Z</time></trkpt><trkpt lat="42.52615193690519" lon="11.98137464513482"><ele>456.0</ele><time>2026-04-04T14:39:14.87Z</time></trkpt><trkpt lat="42.52619765563417" lon="11.981451505633862"><ele>455.0</ele><time>2026-04-04T14:39:17.869Z</time></trkpt><trkpt lat="42.52623461486214" lon="11.98153937515374"><ele>453.99999999999994</ele><time>2026-04-04T14:39:20.869Z</time></trkpt><trkpt lat="42.526280236739" lon="11.981623577636908"><ele>453.0</ele><time>2026-04-04T14:39:23.869Z</time></trkpt><trkpt lat="42.52631160172589" lon="11.981709728640352"><ele>452.0</ele><time>2026-04-04T14:39:26.869Z</time></trkpt><trkpt lat="42.5263344088958" lon="11.981791251542962"><ele>450.99999999999994</ele><time>2026-04-04T14:39:29.869Z</time></trkpt><trkpt lat="42.526365978985616" lon="11.98189126761833"><ele>450.0</ele><time>2026-04-04T14:39:33.869Z</time></trkpt><trkpt lat="42.52639425527405" lon="11.981972899611915"><ele>449.0</ele><time>2026-04-04T14:39:36.869Z</time></trkpt><trkpt lat="42.52641192135423" lon="11.982061287170458"><ele>449.0</ele><time>2026-04-04T14:39:39.869Z</time></trkpt><trkpt lat="42.52644231280549" lon="11.982137071017643"><ele>448.99999999999994</ele><time>2026-04-04T14:39:42.868Z</time></trkpt><trkpt lat="42.526465197354966" lon="11.982220691779672"><ele>449.0</ele><time>2026-04-04T14:39:45.868Z</time></trkpt><trkpt lat="42.52649643327701" lon="11.982335004764309"><ele>449.0</ele><time>2026-04-04T14:39:49.871Z</time></trkpt><trkpt lat="42.52653813771781" lon="11.982413380773517"><ele>448.99999999999994</ele><time>2026-04-04T14:39:52.871Z</time></trkpt><trkpt lat="42.5265483649009" lon="11.982498538446414"><ele>449.0</ele><time>2026-04-04T14:39:55.872Z</time></trkpt><trkpt lat="42.52657229650655" lon="11.982591470445865"><ele>449.0</ele><time>2026-04-04T14:39:58.871Z</time></trkpt><trkpt lat="42.52659467109006" lon="11.982688860724373"><ele>448.99999999999994</ele><time>2026-04-04T14:40:02.871Z</time></trkpt><trkpt lat="42.526619147586295" lon="11.982776592301592"><ele>449.0</ele><time>2026-04-04T14:40:05.871Z</time></trkpt><trkpt lat="42.52664927281693" lon="11.982878276678022"><ele>449.0</ele><time>2026-04-04T14:40:09.871Z</time></trkpt><trkpt lat="42.526673699175085" lon="11.982983030445432"><ele>449.0</ele><time>2026-04-04T14:40:13.871Z</time></trkpt><trkpt lat="42.52669246334144" lon="11.983079576625977"><ele>448.99999999999994</ele><time>2026-04-04T14:40:17.871Z</time></trkpt><trkpt lat="42.5267095729815" lon="11.983182114975616"><ele>449.0</ele><time>2026-04-04T14:40:21.871Z</time></trkpt><trkpt lat="42.52674094094732" lon="11.983273152473956"><ele>448.16666666666663</ele><time>2026-04-04T14:40:25.87Z</time></trkpt><trkpt lat="42.52678430861635" lon="11.98336970952249"><ele>447.3333333333333</ele><time>2026-04-04T14:40:29.87Z</time></trkpt><trkpt lat="42.52680220779747" lon="11.98346701629364"><ele>446.5</ele><time>2026-04-04T14:40:32.87Z</time></trkpt><trkpt lat="42.5268211911046" lon="11.98355748896769"><ele>445.66666666666663</ele><time>2026-04-04T14:40:35.87Z</time></trkpt><trkpt lat="42.52686880227226" lon="11.983653157416832"><ele>444.8333333333333</ele><time>2026-04-04T14:40:39.87Z</time></trkpt><trkpt lat="42.52691780385072" lon="11.983723630811973"><ele>444.0</ele><time>2026-04-04T14:40:42.87Z</time></trkpt><trkpt lat="42.526971768764355" lon="11.983795519963145"><ele>444.0</ele><time>2026-04-04T14:40:45.87Z</time></trkpt><trkpt lat="42.52702208336277" lon="11.983875064306886"><ele>444.0</ele><time>2026-04-04T14:40:48.87Z</time></trkpt><trkpt lat="42.52707746507623" lon="11.983964236679892"><ele>444.0</ele><time>2026-04-04T14:40:51.869Z</time></trkpt><trkpt lat="42.52713755785898" lon="11.98405684650464"><ele>444.0</ele><time>2026-04-04T14:40:54.869Z</time></trkpt><trkpt lat="42.52720221432551" lon="11.98413344805547"><ele>444.0</ele><time>2026-04-04T14:40:57.869Z</time></trkpt><trkpt lat="42.52724660926348" lon="11.984204024975224"><ele>444.0</ele><time>2026-04-04T14:40:59.869Z</time></trkpt><trkpt lat="42.52731905439936" lon="11.984302021967455"><ele>444.3333333333333</ele><time>2026-04-04T14:41:02.869Z</time></trkpt><trkpt lat="42.52737489325687" lon="11.984416674786184"><ele>444.66666666666663</ele><time>2026-04-04T14:41:05.869Z</time></trkpt><trkpt lat="42.52741074020922" lon="11.984497836456084"><ele>445.0</ele><time>2026-04-04T14:41:07.869Z</time></trkpt><trkpt lat="42.52745753047621" lon="11.98457389283118"><ele>445.3333333333333</ele><time>2026-04-04T14:41:09.869Z</time></trkpt><trkpt lat="42.527485069537754" lon="11.984657874424302"><ele>445.66666666666663</ele><time>2026-04-04T14:41:11.869Z</time></trkpt><trkpt lat="42.527502803444186" lon="11.984740246028627"><ele>446.0</ele><time>2026-04-04T14:41:13.869Z</time></trkpt><trkpt lat="42.52753966628835" lon="11.984840093236954"><ele>445.99999999999994</ele><time>2026-04-04T14:41:15.868Z</time></trkpt><trkpt lat="42.52756577963641" lon="11.984935464606282"><ele>446.0</ele><time>2026-04-04T14:41:17.868Z</time></trkpt><trkpt lat="42.52758556545992" lon="11.985031375841354"><ele>446.0</ele><time>2026-04-04T14:41:19.868Z</time></trkpt><trkpt lat="42.52760473601114" lon="11.985141430894027"><ele>446.0</ele><time>2026-04-04T14:41:21.868Z</time></trkpt><trkpt lat="42.52761499896686" lon="11.985253970094947"><ele>445.99999999999994</ele><time>2026-04-04T14:41:23.868Z</time></trkpt><trkpt lat="42.52762361100686" lon="11.985370887077808"><ele>446.0</ele><time>2026-04-04T14:41:25.868Z</time></trkpt><trkpt lat="42.52763287756635" lon="11.985481295143378"><ele>446.0</ele><time>2026-04-04T14:41:27.868Z</time></trkpt><trkpt lat="42.52764007595226" lon="11.985592268316063"><ele>446.0</ele><time>2026-04-04T14:41:29.868Z</time></trkpt><trkpt lat="42.527644879959325" lon="11.98570007027546"><ele>446.0</ele><time>2026-04-04T14:41:31.868Z</time></trkpt><trkpt lat="42.52765269589783" lon="11.985798312822597"><ele>446.0</ele><time>2026-04-04T14:41:33.868Z</time></trkpt><trkpt lat="42.52765504839243" lon="11.985895179070265"><ele>446.0</ele><time>2026-04-04T14:41:35.868Z</time></trkpt><trkpt lat="42.527655509639054" lon="11.985988832860812"><ele>446.0</ele><time>2026-04-04T14:41:37.868Z</time></trkpt><trkpt lat="42.527659577697285" lon="11.986078319390549"><ele>446.0</ele><time>2026-04-04T14:41:39.868Z</time></trkpt><trkpt lat="42.527669996419405" lon="11.986198777188598"><ele>446.49999999999994</ele><time>2026-04-04T14:41:42.867Z</time></trkpt><trkpt lat="42.527678696870616" lon="11.986315635692094"><ele>447.0</ele><time>2026-04-04T14:41:45.867Z</time></trkpt><trkpt lat="42.527689252548655" lon="11.98642531329358"><ele>447.5</ele><time>2026-04-04T14:41:48.867Z</time></trkpt><trkpt lat="42.52769763510584" lon="11.986531550167223"><ele>448.0</ele><time>2026-04-04T14:41:51.867Z</time></trkpt><trkpt lat="42.527698928327155" lon="11.986628472219106"><ele>448.49999999999994</ele><time>2026-04-04T14:41:54.867Z</time></trkpt><trkpt lat="42.5277031663394" lon="11.986734805919834"><ele>449.0</ele><time>2026-04-04T14:41:57.869Z</time></trkpt><trkpt lat="42.52770535758901" lon="11.98683263247917"><ele>449.16666666666663</ele><time>2026-04-04T14:42:00.869Z</time></trkpt><trkpt lat="42.527715914846354" lon="11.986928254400427"><ele>449.3333333333333</ele><time>2026-04-04T14:42:03.869Z</time></trkpt><trkpt lat="42.52772512655461" lon="11.987041095946395"><ele>449.5</ele><time>2026-04-04T14:42:07.869Z</time></trkpt><trkpt lat="42.52772561867184" lon="11.987146670489803"><ele>449.66666666666663</ele><time>2026-04-04T14:42:10.869Z</time></trkpt><trkpt lat="42.52773093294055" lon="11.987244145539968"><ele>449.8333333333333</ele><time>2026-04-04T14:42:13.869Z</time></trkpt><trkpt lat="42.5277388081921" lon="11.987348204803759"><ele>450.0</ele><time>2026-04-04T14:42:16.869Z</time></trkpt><trkpt lat="42.527739048930016" lon="11.987455028560003"><ele>450.28571428571433</ele><time>2026-04-04T14:42:19.869Z</time></trkpt><trkpt lat="42.527740103050725" lon="11.987549000919168"><ele>450.57142857142856</ele><time>2026-04-04T14:42:22.868Z</time></trkpt><trkpt lat="42.527747433904764" lon="11.987644710826643"><ele>450.8571428571429</ele><time>2026-04-04T14:42:25.868Z</time></trkpt><trkpt lat="42.527745109903755" lon="11.987753385620714"><ele>451.14285714285717</ele><time>2026-04-04T14:42:28.868Z</time></trkpt><trkpt lat="42.52774159780965" lon="11.987862098937823"><ele>451.42857142857144</ele><time>2026-04-04T14:42:31.868Z</time></trkpt><trkpt lat="42.527744211875735" lon="11.987964480193432"><ele>451.7142857142857</ele><time>2026-04-04T14:42:34.868Z</time></trkpt><trkpt lat="42.52774322935907" lon="11.98805936494136"><ele>452.0</ele><time>2026-04-04T14:42:37.868Z</time></trkpt><trkpt lat="42.52774764107331" lon="11.98814749655547"><ele>452.0</ele><time>2026-04-04T14:42:40.868Z</time></trkpt><trkpt lat="42.52775285754021" lon="11.98824456970658"><ele>452.0</ele><time>2026-04-04T14:42:43.868Z</time></trkpt><trkpt lat="42.5277560318584" lon="11.988330203320482"><ele>452.0</ele><time>2026-04-04T14:42:46.868Z</time></trkpt><trkpt lat="42.52776172097064" lon="11.98842479091525"><ele>452.0</ele><time>2026-04-04T14:42:49.867Z</time></trkpt><trkpt lat="42.52775748135976" lon="11.988520824755065"><ele>452.0</ele><time>2026-04-04T14:42:52.867Z</time></trkpt><trkpt lat="42.52776708830201" lon="11.988610520678893"><ele>452.0</ele><time>2026-04-04T14:42:55.867Z</time></trkpt><trkpt lat="42.52777668258821" lon="11.988699129182132"><ele>452.0</ele><time>2026-04-04T14:42:58.867Z</time></trkpt><trkpt lat="42.52777973443802" lon="11.988794417534832"><ele>452.49999999999994</ele><time>2026-04-04T14:43:01.867Z</time></trkpt><trkpt lat="42.52778672965269" lon="11.98891875841956"><ele>453.0</ele><time>2026-04-04T14:43:05.867Z</time></trkpt><trkpt lat="42.52779525917066" lon="11.989011180708985"><ele>453.5</ele><time>2026-04-04T14:43:08.867Z</time></trkpt><trkpt lat="42.527791736271894" lon="11.989105136059974"><ele>454.0</ele><time>2026-04-04T14:43:11.867Z</time></trkpt><trkpt lat="42.527791010854195" lon="11.989200090987556"><ele>454.49999999999994</ele><time>2026-04-04T14:43:14.866Z</time></trkpt><trkpt lat="42.52779362617493" lon="11.989303418276412"><ele>455.0</ele><time>2026-04-04T14:43:17.866Z</time></trkpt><trkpt lat="42.5277887835388" lon="11.989410153701405"><ele>455.2857142857143</ele><time>2026-04-04T14:43:20.866Z</time></trkpt><trkpt lat="42.52778942669972" lon="11.9895277449589"><ele>455.57142857142856</ele><time>2026-04-04T14:43:24.866Z</time></trkpt><trkpt lat="42.52779153463846" lon="11.989618250233647"><ele>455.8571428571429</ele><time>2026-04-04T14:43:27.866Z</time></trkpt><trkpt lat="42.52779602348446" lon="11.98972044860758"><ele>456.14285714285717</ele><time>2026-04-04T14:43:30.866Z</time></trkpt><trkpt lat="42.527797601160266" lon="11.98981983362717"><ele>456.42857142857144</ele><time>2026-04-04T14:43:33.866Z</time></trkpt><trkpt lat="42.527798189928134" lon="11.989907496810224"><ele>456.7142857142858</ele><time>2026-04-04T14:43:36.866Z</time></trkpt><trkpt lat="42.52780086824151" lon="11.990004376949438"><ele>457.00000000000006</ele><time>2026-04-04T14:43:39.865Z</time></trkpt><trkpt lat="42.52780291626887" lon="11.990093062833829"><ele>457.00000000000006</ele><time>2026-04-04T14:43:42.865Z</time></trkpt><trkpt lat="42.5278056201527" lon="11.990182142584636"><ele>457.0</ele><time>2026-04-04T14:43:45.865Z</time></trkpt><trkpt lat="42.52780697722668" lon="11.990281463311174"><ele>457.00000000000006</ele><time>2026-04-04T14:43:48.865Z</time></trkpt><trkpt lat="42.527814380119715" lon="11.990381824070951"><ele>457.00000000000006</ele><time>2026-04-04T14:43:51.865Z</time></trkpt><trkpt lat="42.527816770935004" lon="11.990481640806872"><ele>457.0</ele><time>2026-04-04T14:43:54.865Z</time></trkpt><trkpt lat="42.527812323762895" lon="11.990598749429141"><ele>457.00000000000006</ele><time>2026-04-04T14:43:57.865Z</time></trkpt><trkpt lat="42.527824902134164" lon="11.99069504193701"><ele>457.00000000000006</ele><time>2026-04-04T14:44:00.865Z</time></trkpt><trkpt lat="42.527822012926976" lon="11.99078218668382"><ele>457.50000000000006</ele><time>2026-04-04T14:44:03.867Z</time></trkpt><trkpt lat="42.527819857535874" lon="11.990896837614242"><ele>458.0</ele><time>2026-04-04T14:44:07.867Z</time></trkpt><trkpt lat="42.527832534994275" lon="11.991006249472138"><ele>458.5</ele><time>2026-04-04T14:44:10.867Z</time></trkpt><trkpt lat="42.52782627034473" lon="11.991099457099308"><ele>459.0</ele><time>2026-04-04T14:44:12.867Z</time></trkpt><trkpt lat="42.52782848160526" lon="11.991191676725427"><ele>459.50000000000006</ele><time>2026-04-04T14:44:14.867Z</time></trkpt><trkpt lat="42.52782225843287" lon="11.991279269180783"><ele>460.0</ele><time>2026-04-04T14:44:16.867Z</time></trkpt><trkpt lat="42.527810322434426" lon="11.991394407302527"><ele>460.00000000000006</ele><time>2026-04-04T14:44:19.867Z</time></trkpt><trkpt lat="42.527796270661185" lon="11.991493777285887"><ele>460.0</ele><time>2026-04-04T14:44:22.867Z</time></trkpt><trkpt lat="42.52778024540418" lon="11.991606607591349"><ele>460.0</ele><time>2026-04-04T14:44:25.867Z</time></trkpt><trkpt lat="42.527745787877336" lon="11.99171711363819"><ele>460.0</ele><time>2026-04-04T14:44:28.866Z</time></trkpt><trkpt lat="42.52771965485747" lon="11.991802413339437"><ele>460.00000000000006</ele><time>2026-04-04T14:44:30.866Z</time></trkpt><trkpt lat="42.527685233053795" lon="11.991886870742597"><ele>460.0</ele><time>2026-04-04T14:44:32.866Z</time></trkpt><trkpt lat="42.52764062117733" lon="11.991952193331532"><ele>460.6666666666667</ele><time>2026-04-04T14:44:34.866Z</time></trkpt><trkpt lat="42.52760324678688" lon="11.992022148679919"><ele>461.33333333333337</ele><time>2026-04-04T14:44:36.866Z</time></trkpt><trkpt lat="42.527542501115214" lon="11.992114141869894"><ele>462.0</ele><time>2026-04-04T14:44:39.866Z</time></trkpt><trkpt lat="42.52748553848354" lon="11.992206573896214"><ele>462.66666666666663</ele><time>2026-04-04T14:44:42.866Z</time></trkpt><trkpt lat="42.527422421165674" lon="11.992297608007988"><ele>463.3333333333333</ele><time>2026-04-04T14:44:45.866Z</time></trkpt><trkpt lat="42.527374341728546" lon="11.992354010647073"><ele>464.0</ele><time>2026-04-04T14:44:47.866Z</time></trkpt><trkpt lat="42.527314919545724" lon="11.992447616085256"><ele>465.1428571428572</ele><time>2026-04-04T14:44:50.866Z</time></trkpt><trkpt lat="42.52725647299526" lon="11.9925242711055"><ele>466.28571428571433</ele><time>2026-04-04T14:44:53.865Z</time></trkpt><trkpt lat="42.52720457372993" lon="11.992597972878082"><ele>467.42857142857144</ele><time>2026-04-04T14:44:56.865Z</time></trkpt><trkpt lat="42.52716090978902" lon="11.992671356249064"><ele>468.5714285714286</ele><time>2026-04-04T14:44:59.865Z</time></trkpt><trkpt lat="42.52710094599178" lon="11.992737680745796"><ele>469.7142857142858</ele><time>2026-04-04T14:45:02.865Z</time></trkpt><trkpt lat="42.52706047579478" lon="11.992818847590208"><ele>470.85714285714283</ele><time>2026-04-04T14:45:05.865Z</time></trkpt><trkpt lat="42.52701048501782" lon="11.99288527614363"><ele>472.0</ele><time>2026-04-04T14:45:08.865Z</time></trkpt><trkpt lat="42.52696602635043" lon="11.992951416897137"><ele>472.0</ele><time>2026-04-04T14:45:11.865Z</time></trkpt><trkpt lat="42.52691763897818" lon="11.993032499030841"><ele>472.0</ele><time>2026-04-04T14:45:15.865Z</time></trkpt><trkpt lat="42.526866650655634" lon="11.993116165896033"><ele>472.0</ele><time>2026-04-04T14:45:19.864Z</time></trkpt><trkpt lat="42.52682162001179" lon="11.993181746598053"><ele>472.0</ele><time>2026-04-04T14:45:22.864Z</time></trkpt><trkpt lat="42.52677614412325" lon="11.99324138250798"><ele>472.0</ele><time>2026-04-04T14:45:25.864Z</time></trkpt><trkpt lat="42.52671811477092" lon="11.993314645661"><ele>472.0</ele><time>2026-04-04T14:45:29.864Z</time></trkpt><trkpt lat="42.52666129151474" lon="11.993393988458248"><ele>472.0</ele><time>2026-04-04T14:45:33.864Z</time></trkpt><trkpt lat="42.52660190918262" lon="11.993466709739657"><ele>472.71428571428567</ele><time>2026-04-04T14:45:37.864Z</time></trkpt><trkpt lat="42.52655221771268" lon="11.99355280897022"><ele>473.42857142857144</ele><time>2026-04-04T14:45:41.864Z</time></trkpt><trkpt lat="42.52650691916605" lon="11.99361247462285"><ele>474.1428571428571</ele><time>2026-04-04T14:45:44.863Z</time></trkpt><trkpt lat="42.526472089304995" lon="11.993693275863931"><ele>474.85714285714283</ele><time>2026-04-04T14:45:48.863Z</time></trkpt><trkpt lat="42.52644536559327" lon="11.993777388269338"><ele>475.57142857142856</ele><time>2026-04-04T14:45:51.863Z</time></trkpt><trkpt lat="42.526414334831884" lon="11.993877931157657"><ele>476.2857142857143</ele><time>2026-04-04T14:45:55.863Z</time></trkpt><trkpt lat="42.52638265389075" lon="11.993981308590364"><ele>477.0</ele><time>2026-04-04T14:45:59.863Z</time></trkpt><trkpt lat="42.52636153838603" lon="11.99409081787246"><ele>477.1428571428571</ele><time>2026-04-04T14:46:03.863Z</time></trkpt><trkpt lat="42.52633779401139" lon="11.994197735536773"><ele>477.2857142857142</ele><time>2026-04-04T14:46:07.865Z</time></trkpt><trkpt lat="42.52632852977442" lon="11.99429166747579"><ele>477.42857142857144</ele><time>2026-04-04T14:46:10.865Z</time></trkpt><trkpt lat="42.52631585850348" lon="11.99437999470098"><ele>477.57142857142856</ele><time>2026-04-04T14:46:13.865Z</time></trkpt><trkpt lat="42.526307704761194" lon="11.994475587903043"><ele>477.7142857142857</ele><time>2026-04-04T14:46:16.865Z</time></trkpt><trkpt lat="42.526309553776834" lon="11.99458294596775"><ele>477.8571428571429</ele><time>2026-04-04T14:46:19.865Z</time></trkpt><trkpt lat="42.52630701895639" lon="11.994689618593874"><ele>478.00000000000006</ele><time>2026-04-04T14:46:22.865Z</time></trkpt><trkpt lat="42.52629973142258" lon="11.994801810597494"><ele>478.00000000000006</ele><time>2026-04-04T14:46:25.865Z</time></trkpt><trkpt lat="42.5262955531308" lon="11.994923732609363"><ele>478.0</ele><time>2026-04-04T14:46:28.864Z</time></trkpt><trkpt lat="42.526287541973275" lon="11.995049144423547"><ele>478.0</ele><time>2026-04-04T14:46:31.864Z</time></trkpt><trkpt lat="42.526278775945194" lon="11.995173672658872"><ele>478.0</ele><time>2026-04-04T14:46:34.864Z</time></trkpt><trkpt lat="42.5262812092032" lon="11.995263238356781"><ele>478.00000000000006</ele><time>2026-04-04T14:46:36.864Z</time></trkpt><trkpt lat="42.52627007945614" lon="11.995387977890985"><ele>478.0</ele><time>2026-04-04T14:46:39.864Z</time></trkpt><trkpt lat="42.52626625089033" lon="11.995484286086976"><ele>478.00000000000006</ele><time>2026-04-04T14:46:41.864Z</time></trkpt><trkpt lat="42.52626298271086" lon="11.99557126047574"><ele>478.0</ele><time>2026-04-04T14:46:43.864Z</time></trkpt><trkpt lat="42.526251906686866" lon="11.995661946788228"><ele>478.00000000000006</ele><time>2026-04-04T14:46:45.864Z</time></trkpt><trkpt lat="42.52625191873185" lon="11.99577078054528"><ele>478.00000000000006</ele><time>2026-04-04T14:46:47.864Z</time></trkpt><trkpt lat="42.52624616438661" lon="11.995858459553823"><ele>478.0</ele><time>2026-04-04T14:46:49.864Z</time></trkpt><trkpt lat="42.52624824089759" lon="11.995953391420198"><ele>478.00000000000006</ele><time>2026-04-04T14:46:51.864Z</time></trkpt><trkpt lat="42.5262438246211" lon="11.996052302603163"><ele>478.00000000000006</ele><time>2026-04-04T14:46:53.864Z</time></trkpt><trkpt lat="42.52624182171135" lon="11.996149197183831"><ele>478.00000000000006</ele><time>2026-04-04T14:46:55.863Z</time></trkpt><trkpt lat="42.526249392262685" lon="11.996234258963826"><ele>478.0</ele><time>2026-04-04T14:46:57.863Z</time></trkpt><trkpt lat="42.52624719605025" lon="11.996336752634068"><ele>478.0</ele><time>2026-04-04T14:46:59.863Z</time></trkpt><trkpt lat="42.52624773412859" lon="11.996446831081707"><ele>478.0</ele><time>2026-04-04T14:47:01.863Z</time></trkpt><trkpt lat="42.52622788745554" lon="11.996548073680371"><ele>478.00000000000006</ele><time>2026-04-04T14:47:03.863Z</time></trkpt><trkpt lat="42.526221643845886" lon="11.996651929773098"><ele>478.0</ele><time>2026-04-04T14:47:05.863Z</time></trkpt><trkpt lat="42.52622279987069" lon="11.996756518701966"><ele>478.4285714285715</ele><time>2026-04-04T14:47:07.863Z</time></trkpt><trkpt lat="42.526223920976655" lon="11.996846527162356"><ele>478.8571428571429</ele><time>2026-04-04T14:47:09.863Z</time></trkpt><trkpt lat="42.52622700629153" lon="11.996945500791528"><ele>479.2857142857143</ele><time>2026-04-04T14:47:11.863Z</time></trkpt><trkpt lat="42.52623665419513" lon="11.997047482848425"><ele>479.7142857142857</ele><time>2026-04-04T14:47:13.863Z</time></trkpt><trkpt lat="42.52624452202104" lon="11.997136411901785"><ele>480.1428571428571</ele><time>2026-04-04T14:47:15.863Z</time></trkpt><trkpt lat="42.52625620054035" lon="11.997233488766945"><ele>480.5714285714285</ele><time>2026-04-04T14:47:17.863Z</time></trkpt><trkpt lat="42.526273683480795" lon="11.997320853614301"><ele>480.99999999999994</ele><time>2026-04-04T14:47:19.863Z</time></trkpt><trkpt lat="42.526285361317235" lon="11.997408377205012"><ele>481.33333333333337</ele><time>2026-04-04T14:47:21.862Z</time></trkpt><trkpt lat="42.526298683315" lon="11.997514451110003"><ele>481.6666666666667</ele><time>2026-04-04T14:47:23.862Z</time></trkpt><trkpt lat="42.52631807132646" lon="11.997607398328212"><ele>482.0</ele><time>2026-04-04T14:47:25.862Z</time></trkpt><trkpt lat="42.52633597834474" lon="11.997736309957286"><ele>482.33333333333337</ele><time>2026-04-04T14:47:28.862Z</time></trkpt><trkpt lat="42.52635001424878" lon="11.997824510527032"><ele>482.6666666666667</ele><time>2026-04-04T14:47:30.862Z</time></trkpt><trkpt lat="42.526370543227" lon="11.997942743717473"><ele>483.0</ele><time>2026-04-04T14:47:33.862Z</time></trkpt><trkpt lat="42.52640042100331" lon="11.998043164970568"><ele>483.0</ele><time>2026-04-04T14:47:36.861Z</time></trkpt><trkpt lat="42.5264064937753" lon="11.998144796148452"><ele>483.0</ele><time>2026-04-04T14:47:39.861Z</time></trkpt><trkpt lat="42.52642440684794" lon="11.998235421947594"><ele>483.0</ele><time>2026-04-04T14:47:42.861Z</time></trkpt><trkpt lat="42.52644129485968" lon="11.998326426585031"><ele>483.0</ele><time>2026-04-04T14:47:45.86Z</time></trkpt><trkpt lat="42.526462875715985" lon="11.998416720668985"><ele>483.0</ele><time>2026-04-04T14:47:48.86Z</time></trkpt><trkpt lat="42.52648840264961" lon="11.998523139491038"><ele>483.0</ele><time>2026-04-04T14:47:52.86Z</time></trkpt><trkpt lat="42.52650819799255" lon="11.998624367359001"><ele>483.0</ele><time>2026-04-04T14:47:55.86Z</time></trkpt><trkpt lat="42.526518224452396" lon="11.998730269015441"><ele>483.42857142857144</ele><time>2026-04-04T14:47:58.86Z</time></trkpt><trkpt lat="42.526523487818416" lon="11.998837663484128"><ele>483.8571428571429</ele><time>2026-04-04T14:48:01.86Z</time></trkpt><trkpt lat="42.526522077524334" lon="11.998933613441135"><ele>484.2857142857143</ele><time>2026-04-04T14:48:04.86Z</time></trkpt><trkpt lat="42.52652925751687" lon="11.999022168462844"><ele>484.7142857142857</ele><time>2026-04-04T14:48:07.86Z</time></trkpt><trkpt lat="42.52653325922434" lon="11.999118803659423"><ele>485.14285714285717</ele><time>2026-04-04T14:48:10.86Z</time></trkpt><trkpt lat="42.52652623784269" lon="11.999216762267041"><ele>485.57142857142856</ele><time>2026-04-04T14:48:13.862Z</time></trkpt><trkpt lat="42.52651851150987" lon="11.999305268584848"><ele>486.0</ele><time>2026-04-04T14:48:16.862Z</time></trkpt><trkpt lat="42.526512071402635" lon="11.99939197241515"><ele>486.57142857142856</ele><time>2026-04-04T14:48:19.861Z</time></trkpt><trkpt lat="42.52651018032859" lon="11.999498050290635"><ele>487.14285714285717</ele><time>2026-04-04T14:48:23.862Z</time></trkpt><trkpt lat="42.52650490148349" lon="11.99959520487487"><ele>487.7142857142857</ele><time>2026-04-04T14:48:26.862Z</time></trkpt><trkpt lat="42.526495763695465" lon="11.999680816605382"><ele>488.2857142857143</ele><time>2026-04-04T14:48:29.862Z</time></trkpt><trkpt lat="42.52647693215317" lon="11.999770290796754"><ele>488.8571428571429</ele><time>2026-04-04T14:48:32.861Z</time></trkpt><trkpt lat="42.526466945295994" lon="11.999859051755102"><ele>489.42857142857144</ele><time>2026-04-04T14:48:35.861Z</time></trkpt><trkpt lat="42.526462449021615" lon="11.999953029137247"><ele>490.0</ele><time>2026-04-04T14:48:38.861Z</time></trkpt><trkpt lat="42.526447161877115" lon="12.000043452556945"><ele>490.0</ele><time>2026-04-04T14:48:41.861Z</time></trkpt><trkpt lat="42.52645587694628" lon="12.000136300174448"><ele>490.0</ele><time>2026-04-04T14:48:44.861Z</time></trkpt><trkpt lat="42.526447781126095" lon="12.000227686100237"><ele>490.0</ele><time>2026-04-04T14:48:47.861Z</time></trkpt><trkpt lat="42.526436832553024" lon="12.000312700042006"><ele>490.0</ele><time>2026-04-04T14:48:50.861Z</time></trkpt><trkpt lat="42.526431218947394" lon="12.000426690695916"><ele>490.0</ele><time>2026-04-04T14:48:54.861Z</time></trkpt><trkpt lat="42.52642134460023" lon="12.0005340748751"><ele>490.0</ele><time>2026-04-04T14:48:58.86Z</time></trkpt><trkpt lat="42.52641184369551" lon="12.000630539013878"><ele>490.0</ele><time>2026-04-04T14:49:01.86Z</time></trkpt><trkpt lat="42.526403618905206" lon="12.000725090177315"><ele>490.00000000000006</ele><time>2026-04-04T14:49:04.86Z</time></trkpt><trkpt lat="42.5263980016534" lon="12.00081252067619"><ele>490.0</ele><time>2026-04-04T14:49:07.86Z</time></trkpt><trkpt lat="42.526396604140636" lon="12.000926734712312"><ele>490.0</ele><time>2026-04-04T14:49:11.86Z</time></trkpt><trkpt lat="42.526389108485795" lon="12.001039302458539"><ele>490.0</ele><time>2026-04-04T14:49:15.86Z</time></trkpt><trkpt lat="42.52638643257964" lon="12.001148298466683"><ele>490.00000000000006</ele><time>2026-04-04T14:49:19.86Z</time></trkpt><trkpt lat="42.52639263468675" lon="12.00125716946176"><ele>490.0</ele><time>2026-04-04T14:49:23.859Z</time></trkpt><trkpt lat="42.5263992915095" lon="12.001344877046234"><ele>490.7142857142857</ele><time>2026-04-04T14:49:26.859Z</time></trkpt><trkpt lat="42.52640821500216" lon="12.00144526650551"><ele>491.42857142857144</ele><time>2026-04-04T14:49:30.859Z</time></trkpt><trkpt lat="42.526420722206566" lon="12.001541256885595"><ele>492.1428571428571</ele><time>2026-04-04T14:49:34.859Z</time></trkpt><trkpt lat="42.52643145853588" lon="12.001636033960233"><ele>492.85714285714283</ele><time>2026-04-04T14:49:38.859Z</time></trkpt><trkpt lat="42.52644372593535" lon="12.00173915522318"><ele>493.57142857142856</ele><time>2026-04-04T14:49:42.859Z</time></trkpt><trkpt lat="42.526459285002666" lon="12.001841932602687"><ele>494.2857142857142</ele><time>2026-04-04T14:49:46.859Z</time></trkpt><trkpt lat="42.526474202220726" lon="12.00193845139929"><ele>494.99999999999994</ele><time>2026-04-04T14:49:50.858Z</time></trkpt><trkpt lat="42.526483692870315" lon="12.002033581959807"><ele>495.8571428571428</ele><time>2026-04-04T14:49:54.858Z</time></trkpt><trkpt lat="42.526495344966165" lon="12.002133794328635"><ele>496.71428571428567</ele><time>2026-04-04T14:49:58.858Z</time></trkpt><trkpt lat="42.5265191516498" lon="12.002222486612242"><ele>497.57142857142856</ele><time>2026-04-04T14:50:02.858Z</time></trkpt><trkpt lat="42.52653153595029" lon="12.002309453200048"><ele>498.4285714285714</ele><time>2026-04-04T14:50:06.858Z</time></trkpt><trkpt lat="42.52654032873397" lon="12.002413921926875"><ele>499.2857142857142</ele><time>2026-04-04T14:50:10.858Z</time></trkpt><trkpt lat="42.52654996319985" lon="12.002503826281139"><ele>500.14285714285717</ele><time>2026-04-04T14:50:14.857Z</time></trkpt><trkpt lat="42.5265773888714" lon="12.002597526659866"><ele>501.0</ele><time>2026-04-04T14:50:18.857Z</time></trkpt><trkpt lat="42.52658465924365" lon="12.002683237497495"><ele>501.5</ele><time>2026-04-04T14:50:21.86Z</time></trkpt><trkpt lat="42.526592747686934" lon="12.002788877733233"><ele>502.0</ele><time>2026-04-04T14:50:25.86Z</time></trkpt><trkpt lat="42.52660790719973" lon="12.002893569102476"><ele>502.5</ele><time>2026-04-04T14:50:29.859Z</time></trkpt><trkpt lat="42.52661698255586" lon="12.002997811888502"><ele>503.0</ele><time>2026-04-04T14:50:33.859Z</time></trkpt><trkpt lat="42.526624027893384" lon="12.00308717348826"><ele>503.5</ele><time>2026-04-04T14:50:36.859Z</time></trkpt><trkpt lat="42.52663276215054" lon="12.003188700894203"><ele>504.0</ele><time>2026-04-04T14:50:40.859Z</time></trkpt><trkpt lat="42.526639891064" lon="12.00329355504396"><ele>504.1428571428571</ele><time>2026-04-04T14:50:44.859Z</time></trkpt><trkpt lat="42.526643546408096" lon="12.003384896587985"><ele>504.2857142857143</ele><time>2026-04-04T14:50:48.859Z</time></trkpt><trkpt lat="42.526659713052226" lon="12.003479843013716"><ele>504.42857142857144</ele><time>2026-04-04T14:50:52.858Z</time></trkpt><trkpt lat="42.526663169825035" lon="12.00357157823924"><ele>504.57142857142856</ele><time>2026-04-04T14:50:55.858Z</time></trkpt><trkpt lat="42.5266731366483" lon="12.003659404592605"><ele>504.71428571428567</ele><time>2026-04-04T14:50:58.858Z</time></trkpt><trkpt lat="42.52667966840739" lon="12.003771013053912"><ele>504.85714285714283</ele><time>2026-04-04T14:51:02.858Z</time></trkpt><trkpt lat="42.526686296709244" lon="12.00385678159816"><ele>505.0</ele><time>2026-04-04T14:51:05.858Z</time></trkpt><trkpt lat="42.526719836774646" lon="12.003949589518413"><ele>505.0</ele><time>2026-04-04T14:51:09.858Z</time></trkpt><trkpt lat="42.52672695693144" lon="12.004049356993947"><ele>504.99999999999994</ele><time>2026-04-04T14:51:13.858Z</time></trkpt><trkpt lat="42.52674481584234" lon="12.004143310519257"><ele>505.0</ele><time>2026-04-04T14:51:16.857Z</time></trkpt><trkpt lat="42.52675048065605" lon="12.00422933699444"><ele>505.0</ele><time>2026-04-04T14:51:19.857Z</time></trkpt><trkpt lat="42.52677393428801" lon="12.004330900274494"><ele>504.99999999999994</ele><time>2026-04-04T14:51:23.857Z</time></trkpt><trkpt lat="42.52679238305554" lon="12.004433002605474"><ele>505.0</ele><time>2026-04-04T14:51:27.857Z</time></trkpt><trkpt lat="42.52681354781742" lon="12.004520715851694"><ele>505.0</ele><time>2026-04-04T14:51:30.857Z</time></trkpt><trkpt lat="42.52682286186911" lon="12.0046095735606"><ele>505.2857142857143</ele><time>2026-04-04T14:51:33.857Z</time></trkpt><trkpt lat="42.526845668252946" lon="12.004698068286901"><ele>505.57142857142856</ele><time>2026-04-04T14:51:36.857Z</time></trkpt><trkpt lat="42.526858788714236" lon="12.004812988991388"><ele>505.85714285714283</ele><time>2026-04-04T14:51:40.856Z</time></trkpt><trkpt lat="42.52688200055832" lon="12.004916728139982"><ele>506.1428571428571</ele><time>2026-04-04T14:51:44.856Z</time></trkpt><trkpt lat="42.52689785557221" lon="12.00500348182101"><ele>506.42857142857144</ele><time>2026-04-04T14:51:47.856Z</time></trkpt><trkpt lat="42.52691169119934" lon="12.005102381814046"><ele>506.71428571428567</ele><time>2026-04-04T14:51:51.856Z</time></trkpt><trkpt lat="42.52693993661676" lon="12.005185327574491"><ele>507.0</ele><time>2026-04-04T14:51:54.856Z</time></trkpt><trkpt lat="42.52696008154498" lon="12.005270938739407"><ele>508.0</ele><time>2026-04-04T14:51:57.856Z</time></trkpt><trkpt lat="42.52699638528673" lon="12.005356741191726"><ele>509.0</ele><time>2026-04-04T14:52:00.856Z</time></trkpt><trkpt lat="42.52702298674074" lon="12.005449796503386"><ele>510.0</ele><time>2026-04-04T14:52:03.856Z</time></trkpt><trkpt lat="42.527050490914235" lon="12.005539401538503"><ele>511.0</ele><time>2026-04-04T14:52:06.855Z</time></trkpt><trkpt lat="42.52708173249551" lon="12.00562644224968"><ele>512.0</ele><time>2026-04-04T14:52:09.855Z</time></trkpt><trkpt lat="42.52711967509258" lon="12.00571089634581"><ele>513.0</ele><time>2026-04-04T14:52:12.855Z</time></trkpt><trkpt lat="42.527145058088614" lon="12.005814120747925"><ele>514.0</ele><time>2026-04-04T14:52:15.855Z</time></trkpt><trkpt lat="42.52719879730347" lon="12.005910544190131"><ele>514.8571428571429</ele><time>2026-04-04T14:52:19.855Z</time></trkpt><trkpt lat="42.52723512080174" lon="12.005993036469517"><ele>515.7142857142858</ele><time>2026-04-04T14:52:22.855Z</time></trkpt><trkpt lat="42.52728158939124" lon="12.006065756315044"><ele>516.5714285714287</ele><time>2026-04-04T14:52:25.857Z</time></trkpt><trkpt lat="42.527330359184276" lon="12.00613581539205"><ele>517.4285714285714</ele><time>2026-04-04T14:52:28.858Z</time></trkpt><trkpt lat="42.52738233072093" lon="12.006194921700367"><ele>518.2857142857143</ele><time>2026-04-04T14:52:31.858Z</time></trkpt><trkpt lat="42.52742730053382" lon="12.006284686539527"><ele>519.1428571428572</ele><time>2026-04-04T14:52:35.858Z</time></trkpt><trkpt lat="42.52746787837495" lon="12.006361187910178"><ele>520.0</ele><time>2026-04-04T14:52:38.858Z</time></trkpt><trkpt lat="42.527486224901985" lon="12.006449099529664"><ele>520.0</ele><time>2026-04-04T14:52:41.858Z</time></trkpt><trkpt lat="42.52750184749306" lon="12.00653355837416"><ele>520.0</ele><time>2026-04-04T14:52:44.858Z</time></trkpt><trkpt lat="42.52752629004817" lon="12.006634371232824"><ele>520.0</ele><time>2026-04-04T14:52:47.859Z</time></trkpt><trkpt lat="42.52755084485752" lon="12.006729189756868"><ele>520.0</ele><time>2026-04-04T14:52:50.86Z</time></trkpt><trkpt lat="42.52757939208059" lon="12.006827149485206"><ele>520.0</ele><time>2026-04-04T14:52:53.861Z</time></trkpt><trkpt lat="42.527583307441866" lon="12.006951817743236"><ele>520.0</ele><time>2026-04-04T14:52:56.862Z</time></trkpt><trkpt lat="42.52759324260014" lon="12.007060639935375"><ele>519.7142857142858</ele><time>2026-04-04T14:52:59.862Z</time></trkpt><trkpt lat="42.52759707422051" lon="12.007147256924261"><ele>519.4285714285714</ele><time>2026-04-04T14:53:01.863Z</time></trkpt><trkpt lat="42.527570510129046" lon="12.007241772593392"><ele>519.1428571428571</ele><time>2026-04-04T14:53:03.863Z</time></trkpt><trkpt lat="42.527545942381224" lon="12.007337285775565"><ele>518.8571428571429</ele><time>2026-04-04T14:53:05.863Z</time></trkpt><trkpt lat="42.52751980181651" lon="12.007438138156752"><ele>518.5714285714286</ele><time>2026-04-04T14:53:07.864Z</time></trkpt><trkpt lat="42.52749467301243" lon="12.007537710911256"><ele>518.2857142857143</ele><time>2026-04-04T14:53:09.864Z</time></trkpt><trkpt lat="42.52747307799546" lon="12.007640903143919"><ele>518.0</ele><time>2026-04-04T14:53:11.864Z</time></trkpt><trkpt lat="42.52743714720858" lon="12.007751574493057"><ele>517.5</ele><time>2026-04-04T14:53:13.864Z</time></trkpt><trkpt lat="42.52741084876232" lon="12.007860408193958"><ele>517.0</ele><time>2026-04-04T14:53:15.864Z</time></trkpt><trkpt lat="42.5273848269085" lon="12.007957279362397"><ele>516.5</ele><time>2026-04-04T14:53:17.864Z</time></trkpt><trkpt lat="42.52733807408993" lon="12.008070304423486"><ele>516.0</ele><time>2026-04-04T14:53:19.864Z</time></trkpt><trkpt lat="42.527299737597865" lon="12.008181512698707"><ele>515.5</ele><time>2026-04-04T14:53:21.864Z</time></trkpt><trkpt lat="42.52725405605577" lon="12.00830475731004"><ele>515.0</ele><time>2026-04-04T14:53:23.865Z</time></trkpt><trkpt lat="42.52721553714441" lon="12.008421510712559"><ele>513.1666666666666</ele><time>2026-04-04T14:53:25.865Z</time></trkpt><trkpt lat="42.52718847544523" lon="12.008540812299113"><ele>511.3333333333333</ele><time>2026-04-04T14:53:27.865Z</time></trkpt><trkpt lat="42.52717874891277" lon="12.008653536987296"><ele>509.5</ele><time>2026-04-04T14:53:29.865Z</time></trkpt><trkpt lat="42.5271667934887" lon="12.00876255070394"><ele>507.66666666666663</ele><time>2026-04-04T14:53:31.865Z</time></trkpt><trkpt lat="42.52716122201983" lon="12.008870058609496"><ele>505.8333333333333</ele><time>2026-04-04T14:53:33.865Z</time></trkpt><trkpt lat="42.527168441381214" lon="12.008971537382935"><ele>504.0</ele><time>2026-04-04T14:53:35.864Z</time></trkpt><trkpt lat="42.52718846022887" lon="12.009061923600914"><ele>504.0</ele><time>2026-04-04T14:53:37.864Z</time></trkpt><trkpt lat="42.52720675666657" lon="12.009152214868196"><ele>504.0</ele><time>2026-04-04T14:53:39.864Z</time></trkpt><trkpt lat="42.527223407265325" lon="12.009276047636892"><ele>504.0</ele><time>2026-04-04T14:53:42.864Z</time></trkpt><trkpt lat="42.5272455546546" lon="12.009387128459501"><ele>504.0</ele><time>2026-04-04T14:53:45.864Z</time></trkpt><trkpt lat="42.5272673007103" lon="12.00949017223055"><ele>504.0</ele><time>2026-04-04T14:53:48.864Z</time></trkpt><trkpt lat="42.5272948202109" lon="12.009584300767527"><ele>504.0</ele><time>2026-04-04T14:53:51.864Z</time></trkpt><trkpt lat="42.527314904337295" lon="12.009678609798316"><ele>503.7142857142857</ele><time>2026-04-04T14:53:54.864Z</time></trkpt><trkpt lat="42.52733076635225" lon="12.009765838845915"><ele>503.42857142857144</ele><time>2026-04-04T14:53:57.864Z</time></trkpt><trkpt lat="42.52735253831749" lon="12.00985432296346"><ele>503.1428571428571</ele><time>2026-04-04T14:54:00.864Z</time></trkpt><trkpt lat="42.527374875430176" lon="12.009947072454024"><ele>502.85714285714283</ele><time>2026-04-04T14:54:03.864Z</time></trkpt><trkpt lat="42.52738419768725" lon="12.010047160356224"><ele>502.57142857142856</ele><time>2026-04-04T14:54:06.864Z</time></trkpt><trkpt lat="42.52741022945301" lon="12.010133085891256"><ele>502.2857142857142</ele><time>2026-04-04T14:54:09.864Z</time></trkpt><trkpt lat="42.52742223243849" lon="12.010218393357908"><ele>501.99999999999994</ele><time>2026-04-04T14:54:12.863Z</time></trkpt><trkpt lat="42.527442488292856" lon="12.010310895454875"><ele>502.99999999999994</ele><time>2026-04-04T14:54:15.863Z</time></trkpt><trkpt lat="42.52745054884714" lon="12.010398593057708"><ele>504.0</ele><time>2026-04-04T14:54:18.863Z</time></trkpt><trkpt lat="42.52746608908957" lon="12.010503599826016"><ele>504.99999999999994</ele><time>2026-04-04T14:54:22.863Z</time></trkpt><trkpt lat="42.527489197881046" lon="12.010600008552082"><ele>505.99999999999994</ele><time>2026-04-04T14:54:26.863Z</time></trkpt><trkpt lat="42.527510533179395" lon="12.010681905275026"><ele>507.0</ele><time>2026-04-04T14:54:30.863Z</time></trkpt><trkpt lat="42.527537174308975" lon="12.010776083309834"><ele>507.99999999999994</ele><time>2026-04-04T14:54:34.865Z</time></trkpt><trkpt lat="42.52754977767148" lon="12.010874095268408"><ele>508.99999999999994</ele><time>2026-04-04T14:54:38.865Z</time></trkpt><trkpt lat="42.52756315001912" lon="12.010965528265233"><ele>510.2857142857142</ele><time>2026-04-04T14:54:42.865Z</time></trkpt><trkpt lat="42.52758638944981" lon="12.011047273501083"><ele>511.57142857142856</ele><time>2026-04-04T14:54:46.865Z</time></trkpt><trkpt lat="42.52760496059717" lon="12.011131339003132"><ele>512.8571428571429</ele><time>2026-04-04T14:54:50.865Z</time></trkpt><trkpt lat="42.52761688745797" lon="12.011233797254656"><ele>514.1428571428571</ele><time>2026-04-04T14:54:55.864Z</time></trkpt><trkpt lat="42.52763929767777" lon="12.011314040772943"><ele>515.4285714285714</ele><time>2026-04-04T14:54:59.864Z</time></trkpt><trkpt lat="42.527659671365335" lon="12.011413756906617"><ele>516.7142857142857</ele><time>2026-04-04T14:55:04.864Z</time></trkpt><trkpt lat="42.52767504607048" lon="12.011510505592891"><ele>518.0</ele><time>2026-04-04T14:55:09.864Z</time></trkpt><trkpt lat="42.52769824995288" lon="12.01160928981977"><ele>519.0</ele><time>2026-04-04T14:55:14.864Z</time></trkpt><trkpt lat="42.52771485125515" lon="12.011692473692039"><ele>520.0</ele><time>2026-04-04T14:55:18.864Z</time></trkpt><trkpt lat="42.52774706476407" lon="12.01178309269827"><ele>521.0</ele><time>2026-04-04T14:55:24.863Z</time></trkpt><trkpt lat="42.52776421203009" lon="12.011869227708413"><ele>522.0</ele><time>2026-04-04T14:55:29.863Z</time></trkpt><trkpt lat="42.527778910444134" lon="12.011956568156627"><ele>523.0</ele><time>2026-04-04T14:55:34.863Z</time></trkpt><trkpt lat="42.52780323064576" lon="12.012056707548942"><ele>524.0</ele><time>2026-04-04T14:55:40.863Z</time></trkpt><trkpt lat="42.527819070759584" lon="12.012141617957026"><ele>525.0</ele><time>2026-04-04T14:55:44.863Z</time></trkpt><trkpt lat="42.52783898966827" lon="12.012227183254678"><ele>525.0</ele><time>2026-04-04T14:55:48.862Z</time></trkpt><trkpt lat="42.52787008486157" lon="12.012315030704737"><ele>525.0</ele><time>2026-04-04T14:55:53.862Z</time></trkpt><trkpt lat="42.52789815358047" lon="12.012403386603618"><ele>525.0</ele><time>2026-04-04T14:55:58.862Z</time></trkpt><trkpt lat="42.52792322893074" lon="12.01249574539366"><ele>525.0</ele><time>2026-04-04T14:56:02.862Z</time></trkpt><trkpt lat="42.527946913010375" lon="12.012580002426686"><ele>525.0</ele><time>2026-04-04T14:56:06.862Z</time></trkpt><trkpt lat="42.52797005280319" lon="12.012688146808584"><ele>525.0</ele><time>2026-04-04T14:56:11.862Z</time></trkpt><trkpt lat="42.527966321634516" lon="12.01278543339049"><ele>525.0</ele><time>2026-04-04T14:56:15.861Z</time></trkpt><trkpt lat="42.52798468988546" lon="12.012873723413556"><ele>524.4285714285714</ele><time>2026-04-04T14:56:19.861Z</time></trkpt><trkpt lat="42.52800175822501" lon="12.012978473912385"><ele>523.8571428571429</ele><time>2026-04-04T14:56:24.861Z</time></trkpt><trkpt lat="42.52801960955315" lon="12.013061664332907"><ele>523.2857142857142</ele><time>2026-04-04T14:56:28.861Z</time></trkpt><trkpt lat="42.528033937828745" lon="12.013150354414767"><ele>522.7142857142858</ele><time>2026-04-04T14:56:32.861Z</time></trkpt><trkpt lat="42.52805022051675" lon="12.013252787341417"><ele>522.1428571428571</ele><time>2026-04-04T14:56:37.863Z</time></trkpt><trkpt lat="42.52807341690536" lon="12.013336362789504"><ele>521.5714285714286</ele><time>2026-04-04T14:56:41.863Z</time></trkpt><trkpt lat="42.528100877256264" lon="12.01341956897518"><ele>521.0</ele><time>2026-04-04T14:56:46.863Z</time></trkpt><trkpt lat="42.52811368549059" lon="12.013520264446338"><ele>522.4285714285714</ele><time>2026-04-04T14:56:51.863Z</time></trkpt><trkpt lat="42.528144325626485" lon="12.013608893139955"><ele>523.8571428571429</ele><time>2026-04-04T14:56:56.863Z</time></trkpt><trkpt lat="42.528160955633766" lon="12.013712012373626"><ele>525.2857142857143</ele><time>2026-04-04T14:57:01.863Z</time></trkpt><trkpt lat="42.52818190560518" lon="12.013814351268055"><ele>526.7142857142858</ele><time>2026-04-04T14:57:06.862Z</time></trkpt><trkpt lat="42.52817999879251" lon="12.013902270004635"><ele>528.1428571428572</ele><time>2026-04-04T14:57:10.862Z</time></trkpt><trkpt lat="42.528201494879916" lon="12.01398563362019"><ele>529.5714285714286</ele><time>2026-04-04T14:57:14.862Z</time></trkpt><trkpt lat="42.52821993396411" lon="12.014084240328437"><ele>531.0</ele><time>2026-04-04T14:57:19.862Z</time></trkpt><trkpt lat="42.528243332209726" lon="12.014169171364562"><ele>531.0</ele><time>2026-04-04T14:57:23.862Z</time></trkpt><trkpt lat="42.5282644235612" lon="12.014263827467122"><ele>531.0</ele><time>2026-04-04T14:57:27.862Z</time></trkpt><trkpt lat="42.528280974871876" lon="12.014351953780677"><ele>531.0</ele><time>2026-04-04T14:57:31.861Z</time></trkpt><trkpt lat="42.5283024872829" lon="12.014438347844536"><ele>531.0</ele><time>2026-04-04T14:57:35.861Z</time></trkpt><trkpt lat="42.52832142343983" lon="12.014525172995583"><ele>531.0</ele><time>2026-04-04T14:57:39.861Z</time></trkpt><trkpt lat="42.52833954631579" lon="12.014611833712156"><ele>531.0</ele><time>2026-04-04T14:57:43.861Z</time></trkpt><trkpt lat="42.528356176094476" lon="12.014703663048927"><ele>531.0</ele><time>2026-04-04T14:57:47.861Z</time></trkpt><trkpt lat="42.528374357668895" lon="12.014786474063177"><ele>531.0</ele><time>2026-04-04T14:57:51.861Z</time></trkpt><trkpt lat="42.528406386781924" lon="12.014864035101994"><ele>531.0</ele><time>2026-04-04T14:57:55.861Z</time></trkpt><trkpt lat="42.52842175220294" lon="12.01494819137094"><ele>531.0</ele><time>2026-04-04T14:57:59.86Z</time></trkpt><trkpt lat="42.528450467163225" lon="12.015024745991298"><ele>531.0</ele><time>2026-04-04T14:58:03.86Z</time></trkpt><trkpt lat="42.52846802629709" lon="12.015125246388614"><ele>531.0</ele><time>2026-04-04T14:58:07.86Z</time></trkpt><trkpt lat="42.5284749401483" lon="12.015225864674402"><ele>531.0</ele><time>2026-04-04T14:58:11.86Z</time></trkpt><trkpt lat="42.5284953909411" lon="12.015314447740158"><ele>531.0</ele><time>2026-04-04T14:58:15.86Z</time></trkpt><trkpt lat="42.52851959877182" lon="12.015404400201989"><ele>531.0</ele><time>2026-04-04T14:58:19.86Z</time></trkpt><trkpt lat="42.5285442019798" lon="12.015502992237366"><ele>531.0</ele><time>2026-04-04T14:58:23.86Z</time></trkpt><trkpt lat="42.52857131299183" lon="12.015588605213148"><ele>531.0</ele><time>2026-04-04T14:58:27.859Z</time></trkpt><trkpt lat="42.528582699116534" lon="12.015677736712693"><ele>531.0</ele><time>2026-04-04T14:58:31.859Z</time></trkpt><trkpt lat="42.528585746519006" lon="12.015770024706564"><ele>531.0</ele><time>2026-04-04T14:58:35.859Z</time></trkpt><trkpt lat="42.52859361769241" lon="12.015865161953322"><ele>531.0</ele><time>2026-04-04T14:58:39.859Z</time></trkpt><trkpt lat="42.52861849229409" lon="12.015965319195287"><ele>531.0</ele><time>2026-04-04T14:58:44.862Z</time></trkpt><trkpt lat="42.52863683371541" lon="12.01605239506036"><ele>531.0</ele><time>2026-04-04T14:58:48.861Z</time></trkpt><trkpt lat="42.528656196860396" lon="12.016140269042317"><ele>531.0</ele><time>2026-04-04T14:58:52.862Z</time></trkpt><trkpt lat="42.528667275167436" lon="12.016224570281137"><ele>531.0</ele><time>2026-04-04T14:58:56.862Z</time></trkpt><trkpt lat="42.52868335514418" lon="12.016321765480969"><ele>531.0</ele><time>2026-04-04T14:59:00.861Z</time></trkpt><trkpt lat="42.52869844135531" lon="12.016414671778147"><ele>531.0</ele><time>2026-04-04T14:59:04.861Z</time></trkpt><trkpt lat="42.52871293532425" lon="12.016499411036275"><ele>531.0</ele><time>2026-04-04T14:59:08.861Z</time></trkpt><trkpt lat="42.52873576920213" lon="12.016587233720038"><ele>531.0</ele><time>2026-04-04T14:59:12.861Z</time></trkpt><trkpt lat="42.52875902307758" lon="12.016676320538707"><ele>532.5714285714286</ele><time>2026-04-04T14:59:16.861Z</time></trkpt><trkpt lat="42.52876683850057" lon="12.016768876876121"><ele>534.1428571428572</ele><time>2026-04-04T14:59:20.861Z</time></trkpt><trkpt lat="42.52879008956956" lon="12.016854145755984"><ele>535.7142857142858</ele><time>2026-04-04T14:59:24.861Z</time></trkpt><trkpt lat="42.528807223602264" lon="12.01693878922229"><ele>537.2857142857143</ele><time>2026-04-04T14:59:28.86Z</time></trkpt><trkpt lat="42.52882697527748" lon="12.017035858650356"><ele>538.8571428571429</ele><time>2026-04-04T14:59:32.86Z</time></trkpt><trkpt lat="42.52884372481238" lon="12.017122156827808"><ele>540.4285714285714</ele><time>2026-04-04T14:59:36.86Z</time></trkpt><trkpt lat="42.52886137020692" lon="12.01721328411502"><ele>542.0</ele><time>2026-04-04T14:59:40.86Z</time></trkpt><trkpt lat="42.528885846470715" lon="12.017311178148686"><ele>542.0</ele><time>2026-04-04T14:59:44.86Z</time></trkpt><trkpt lat="42.52891347650119" lon="12.0173969517681"><ele>542.0</ele><time>2026-04-04T14:59:48.86Z</time></trkpt><trkpt lat="42.52893223336218" lon="12.017491278140213"><ele>542.0</ele><time>2026-04-04T14:59:52.86Z</time></trkpt><trkpt lat="42.528961673841756" lon="12.017590085193511"><ele>542.0</ele><time>2026-04-04T14:59:56.859Z</time></trkpt><trkpt lat="42.52900089552338" lon="12.01767690389782"><ele>542.0</ele><time>2026-04-04T15:00:00.859Z</time></trkpt><trkpt lat="42.52903610327415" lon="12.01776674462494"><ele>542.0</ele><time>2026-04-04T15:00:04.859Z</time></trkpt><trkpt lat="42.52906469766395" lon="12.017860937979053"><ele>542.0</ele><time>2026-04-04T15:00:09.859Z</time></trkpt><trkpt lat="42.52910289209434" lon="12.017944479900615"><ele>542.1666666666666</ele><time>2026-04-04T15:00:14.859Z</time></trkpt><trkpt lat="42.52914171413855" lon="12.01802552348181"><ele>542.3333333333333</ele><time>2026-04-04T15:00:17.859Z</time></trkpt><trkpt lat="42.52917632573746" lon="12.018102995913173"><ele>542.5</ele><time>2026-04-04T15:00:20.859Z</time></trkpt><trkpt lat="42.52922414931651" lon="12.018193864820205"><ele>542.6666666666666</ele><time>2026-04-04T15:00:23.858Z</time></trkpt><trkpt lat="42.529254697580996" lon="12.018277718500315"><ele>542.8333333333334</ele><time>2026-04-04T15:00:25.858Z</time></trkpt><trkpt lat="42.5292857868963" lon="12.018367199291532"><ele>543.0</ele><time>2026-04-04T15:00:28.858Z</time></trkpt><trkpt lat="42.52933841812906" lon="12.018464722601346"><ele>543.0</ele><time>2026-04-04T15:00:31.858Z</time></trkpt><trkpt lat="42.52937987549208" lon="12.018551641748248"><ele>543.0</ele><time>2026-04-04T15:00:33.858Z</time></trkpt><trkpt lat="42.52943745517342" lon="12.018659202224447"><ele>543.0</ele><time>2026-04-04T15:00:36.858Z</time></trkpt><trkpt lat="42.52948227371176" lon="12.018729298831671"><ele>543.0</ele><time>2026-04-04T15:00:38.858Z</time></trkpt><trkpt lat="42.52951686013402" lon="12.018805759932038"><ele>543.0</ele><time>2026-04-04T15:00:40.858Z</time></trkpt><trkpt lat="42.5295666655544" lon="12.018886050838628"><ele>543.0</ele><time>2026-04-04T15:00:42.858Z</time></trkpt><trkpt lat="42.52961194462434" lon="12.018977604049757"><ele>543.0</ele><time>2026-04-04T15:00:44.858Z</time></trkpt><trkpt lat="42.529652727096206" lon="12.019046690071436"><ele>543.0</ele><time>2026-04-04T15:00:46.858Z</time></trkpt><trkpt lat="42.52968959530213" lon="12.01911932156064"><ele>543.0</ele><time>2026-04-04T15:00:48.857Z</time></trkpt><trkpt lat="42.52973487461834" lon="12.019223067729325"><ele>543.0</ele><time>2026-04-04T15:00:51.86Z</time></trkpt><trkpt lat="42.529776168243295" lon="12.019297348681087"><ele>543.0</ele><time>2026-04-04T15:00:53.859Z</time></trkpt><trkpt lat="42.52981583443699" lon="12.019380197537302"><ele>543.0</ele><time>2026-04-04T15:00:55.86Z</time></trkpt><trkpt lat="42.52986220184339" lon="12.019476350982812"><ele>543.0</ele><time>2026-04-04T15:00:57.859Z</time></trkpt><trkpt lat="42.52990062621303" lon="12.019586046120242"><ele>543.0</ele><time>2026-04-04T15:00:59.86Z</time></trkpt><trkpt lat="42.52993000234241" lon="12.019706095330159"><ele>543.0</ele><time>2026-04-04T15:01:01.859Z</time></trkpt><trkpt lat="42.52993752624504" lon="12.019822738826408"><ele>543.0</ele><time>2026-04-04T15:01:03.86Z</time></trkpt><trkpt lat="42.52993465872256" lon="12.019922916930948"><ele>543.0</ele><time>2026-04-04T15:01:05.86Z</time></trkpt><trkpt lat="42.52993213484933" lon="12.020008673368775"><ele>543.0</ele><time>2026-04-04T15:01:07.86Z</time></trkpt><trkpt lat="42.52990153895318" lon="12.020108045692805"><ele>543.0</ele><time>2026-04-04T15:01:10.859Z</time></trkpt><trkpt lat="42.529887571372356" lon="12.020207190641283"><ele>542.7142857142858</ele><time>2026-04-04T15:01:13.859Z</time></trkpt><trkpt lat="42.52985753069833" lon="12.02029090266725"><ele>542.4285714285714</ele><time>2026-04-04T15:01:16.859Z</time></trkpt><trkpt lat="42.529825037232875" lon="12.020392471560967"><ele>542.1428571428571</ele><time>2026-04-04T15:01:20.859Z</time></trkpt><trkpt lat="42.529801741820414" lon="12.020488823035844"><ele>541.8571428571429</ele><time>2026-04-04T15:01:24.859Z</time></trkpt><trkpt lat="42.52977266587551" lon="12.020566972690597"><ele>541.5714285714286</ele><time>2026-04-04T15:01:28.859Z</time></trkpt><trkpt lat="42.529752935531604" lon="12.020655643140367"><ele>541.2857142857143</ele><time>2026-04-04T15:01:32.859Z</time></trkpt><trkpt lat="42.52972065653158" lon="12.020748273629417"><ele>541.0</ele><time>2026-04-04T15:01:36.858Z</time></trkpt><trkpt lat="42.52969528516942" lon="12.020843609430099"><ele>541.5714285714287</ele><time>2026-04-04T15:01:41.858Z</time></trkpt><trkpt lat="42.52969224693771" lon="12.020928987189246"><ele>542.1428571428571</ele><time>2026-04-04T15:01:45.858Z</time></trkpt><trkpt lat="42.52969008962664" lon="12.021018947690832"><ele>542.7142857142858</ele><time>2026-04-04T15:01:49.858Z</time></trkpt><trkpt lat="42.529680452592544" lon="12.021107343243312"><ele>543.2857142857143</ele><time>2026-04-04T15:01:53.858Z</time></trkpt><trkpt lat="42.529693958597456" lon="12.021208293647124"><ele>543.8571428571429</ele><time>2026-04-04T15:01:58.858Z</time></trkpt><trkpt lat="42.52972055980055" lon="12.021312834141597"><ele>544.4285714285714</ele><time>2026-04-04T15:02:03.857Z</time></trkpt><trkpt lat="42.52974957152412" lon="12.021393860055923"><ele>545.0</ele><time>2026-04-04T15:02:07.857Z</time></trkpt><trkpt lat="42.5297846064106" lon="12.021473038946066"><ele>545.0</ele><time>2026-04-04T15:02:11.857Z</time></trkpt><trkpt lat="42.52982490163776" lon="12.021561841978773"><ele>545.0</ele><time>2026-04-04T15:02:16.857Z</time></trkpt><trkpt lat="42.52987610011273" lon="12.021619034811764"><ele>545.0</ele><time>2026-04-04T15:02:20.857Z</time></trkpt><trkpt lat="42.52991547608937" lon="12.021690151833262"><ele>545.0</ele><time>2026-04-04T15:02:24.857Z</time></trkpt><trkpt lat="42.52996221323476" lon="12.021754124765769"><ele>545.0</ele><time>2026-04-04T15:02:28.857Z</time></trkpt><trkpt lat="42.53000321825991" lon="12.021827479474572"><ele>545.0</ele><time>2026-04-04T15:02:32.856Z</time></trkpt><trkpt lat="42.5300570307568" lon="12.02189007971429"><ele>545.0</ele><time>2026-04-04T15:02:36.856Z</time></trkpt><trkpt lat="42.5301011850823" lon="12.021964895729692"><ele>544.2857142857143</ele><time>2026-04-04T15:02:40.856Z</time></trkpt><trkpt lat="42.53015036710021" lon="12.022029736100956"><ele>543.5714285714287</ele><time>2026-04-04T15:02:44.856Z</time></trkpt><trkpt lat="42.53020270838401" lon="12.02210782488255"><ele>542.8571428571429</ele><time>2026-04-04T15:02:49.856Z</time></trkpt><trkpt lat="42.530257721766546" lon="12.022187034385512"><ele>542.1428571428571</ele><time>2026-04-04T15:02:54.856Z</time></trkpt><trkpt lat="42.5302987670036" lon="12.02225719310132"><ele>541.4285714285713</ele><time>2026-04-04T15:02:58.858Z</time></trkpt><trkpt lat="42.53035368754958" lon="12.022325079971665"><ele>540.7142857142857</ele><time>2026-04-04T15:03:03.857Z</time></trkpt><trkpt lat="42.53040796907844" lon="12.022398630932503"><ele>540.0</ele><time>2026-04-04T15:03:08.858Z</time></trkpt><trkpt lat="42.53046371071513" lon="12.022473832010785"><ele>542.4285714285714</ele><time>2026-04-04T15:03:13.857Z</time></trkpt><trkpt lat="42.53050269547617" lon="12.022554253166597"><ele>544.8571428571428</ele><time>2026-04-04T15:03:18.857Z</time></trkpt><trkpt lat="42.5305491690818" lon="12.022618927101199"><ele>547.2857142857142</ele><time>2026-04-04T15:03:22.857Z</time></trkpt><trkpt lat="42.53059932667153" lon="12.022686256132964"><ele>549.7142857142857</ele><time>2026-04-04T15:03:26.857Z</time></trkpt><trkpt lat="42.53064462408595" lon="12.022749429171727"><ele>552.1428571428571</ele><time>2026-04-04T15:03:30.857Z</time></trkpt><trkpt lat="42.530683101482545" lon="12.022818162664555"><ele>554.5714285714286</ele><time>2026-04-04T15:03:34.857Z</time></trkpt><trkpt lat="42.53072745298747" lon="12.022891776003345"><ele>557.0</ele><time>2026-04-04T15:03:38.857Z</time></trkpt><trkpt lat="42.530774723164036" lon="12.022955466210536"><ele>557.0</ele><time>2026-04-04T15:03:42.856Z</time></trkpt><trkpt lat="42.5308194259412" lon="12.023026816846976"><ele>557.0</ele><time>2026-04-04T15:03:46.856Z</time></trkpt><trkpt lat="42.530869179890836" lon="12.023094687936153"><ele>557.0</ele><time>2026-04-04T15:03:50.856Z</time></trkpt><trkpt lat="42.530916504267" lon="12.023151710880787"><ele>557.0</ele><time>2026-04-04T15:03:54.856Z</time></trkpt><trkpt lat="42.53095781352773" lon="12.023224791427186"><ele>557.0</ele><time>2026-04-04T15:03:58.856Z</time></trkpt><trkpt lat="42.53100569542638" lon="12.023290545136488"><ele>557.0</ele><time>2026-04-04T15:04:02.856Z</time></trkpt><trkpt lat="42.53104748814532" lon="12.023362218303678"><ele>557.0</ele><time>2026-04-04T15:04:06.856Z</time></trkpt><trkpt lat="42.531097637393636" lon="12.02344483480339"><ele>556.5714285714286</ele><time>2026-04-04T15:04:11.855Z</time></trkpt><trkpt lat="42.53115513473406" lon="12.023512925510774"><ele>556.1428571428571</ele><time>2026-04-04T15:04:16.855Z</time></trkpt><trkpt lat="42.53120809257502" lon="12.023595925055828"><ele>555.7142857142857</ele><time>2026-04-04T15:04:21.855Z</time></trkpt><trkpt lat="42.53125422641766" lon="12.023662834129338"><ele>555.2857142857142</ele><time>2026-04-04T15:04:25.855Z</time></trkpt><trkpt lat="42.53129895464727" lon="12.023725878653602"><ele>554.8571428571428</ele><time>2026-04-04T15:04:29.855Z</time></trkpt><trkpt lat="42.53134453167367" lon="12.023786405619294"><ele>554.4285714285714</ele><time>2026-04-04T15:04:33.855Z</time></trkpt><trkpt lat="42.53138684482724" lon="12.023862081218748"><ele>554.0</ele><time>2026-04-04T15:04:38.854Z</time></trkpt><trkpt lat="42.531438190302474" lon="12.023921749175466"><ele>554.0</ele><time>2026-04-04T15:04:42.854Z</time></trkpt><trkpt lat="42.53149381249152" lon="12.023976976475758"><ele>554.0</ele><time>2026-04-04T15:04:46.854Z</time></trkpt><trkpt lat="42.53155146282277" lon="12.024015544307755"><ele>554.0</ele><time>2026-04-04T15:04:50.854Z</time></trkpt><trkpt lat="42.531628158306575" lon="12.024052703070462"><ele>554.0</ele><time>2026-04-04T15:04:55.854Z</time></trkpt><trkpt lat="42.53169491684942" lon="12.024108000702679"><ele>554.0</ele><time>2026-04-04T15:05:00.854Z</time></trkpt><trkpt lat="42.53175665727039" lon="12.024142790478873"><ele>554.0</ele><time>2026-04-04T15:05:04.856Z</time></trkpt><trkpt lat="42.53182822438648" lon="12.024168708109269"><ele>554.0</ele><time>2026-04-04T15:05:09.856Z</time></trkpt><trkpt lat="42.53189544197085" lon="12.02420491752166"><ele>555.0</ele><time>2026-04-04T15:05:14.856Z</time></trkpt><trkpt lat="42.53196304772891" lon="12.02423354933316"><ele>556.0</ele><time>2026-04-04T15:05:19.856Z</time></trkpt><trkpt lat="42.532028332257944" lon="12.024273110960022"><ele>557.0</ele><time>2026-04-04T15:05:24.856Z</time></trkpt><trkpt lat="42.532090048633194" lon="12.024315846571389"><ele>558.0</ele><time>2026-04-04T15:05:28.855Z</time></trkpt><trkpt lat="42.5321673043795" lon="12.024350230808512"><ele>559.0</ele><time>2026-04-04T15:05:33.855Z</time></trkpt><trkpt lat="42.53223642383843" lon="12.024398953864798"><ele>560.0</ele><time>2026-04-04T15:05:38.855Z</time></trkpt><trkpt lat="42.53230420162216" lon="12.024430921752225"><ele>561.0</ele><time>2026-04-04T15:05:42.855Z</time></trkpt><trkpt lat="42.53236649266601" lon="12.024492616237664"><ele>561.0</ele><time>2026-04-04T15:05:47.855Z</time></trkpt><trkpt lat="42.53242903043575" lon="12.024530650972833"><ele>561.0</ele><time>2026-04-04T15:05:52.855Z</time></trkpt><trkpt lat="42.532493621215366" lon="12.024573132180283"><ele>561.0</ele><time>2026-04-04T15:05:57.854Z</time></trkpt><trkpt lat="42.532546696133075" lon="12.024621856480952"><ele>561.0</ele><time>2026-04-04T15:06:01.854Z</time></trkpt><trkpt lat="42.53260434059966" lon="12.024665173256812"><ele>561.0</ele><time>2026-04-04T15:06:05.854Z</time></trkpt><trkpt lat="42.532669832870695" lon="12.024726125250982"><ele>561.0</ele><time>2026-04-04T15:06:10.854Z</time></trkpt><trkpt lat="42.53273042537609" lon="12.024778841687112"><ele>561.0</ele><time>2026-04-04T15:06:14.854Z</time></trkpt><trkpt lat="42.53278520650147" lon="12.024848349103598"><ele>561.0</ele><time>2026-04-04T15:06:19.854Z</time></trkpt><trkpt lat="42.532830368730174" lon="12.024911538375818"><ele>561.0</ele><time>2026-04-04T15:06:23.853Z</time></trkpt><trkpt lat="42.53288719354246" lon="12.024957827089832"><ele>561.0</ele><time>2026-04-04T15:06:27.853Z</time></trkpt><trkpt lat="42.532945867471014" lon="12.0250090752981"><ele>561.0</ele><time>2026-04-04T15:06:31.853Z</time></trkpt><trkpt lat="42.53300211209298" lon="12.025056765503471"><ele>561.0</ele><time>2026-04-04T15:06:35.853Z</time></trkpt><trkpt lat="42.53306312351642" lon="12.025112612101344"><ele>561.0</ele><time>2026-04-04T15:06:40.853Z</time></trkpt><trkpt lat="42.533116683235924" lon="12.025162564211374"><ele>561.0</ele><time>2026-04-04T15:06:44.853Z</time></trkpt><trkpt lat="42.533180788347074" lon="12.025217340190181"><ele>562.0</ele><time>2026-04-04T15:06:49.852Z</time></trkpt><trkpt lat="42.53323668954013" lon="12.025261886537853"><ele>563.0</ele><time>2026-04-04T15:06:53.852Z</time></trkpt><trkpt lat="42.53329784113805" lon="12.025303539512942"><ele>564.0</ele><time>2026-04-04T15:06:57.852Z</time></trkpt><trkpt lat="42.53336857541343" lon="12.0253319492627"><ele>565.0</ele><time>2026-04-04T15:07:01.852Z</time></trkpt><trkpt lat="42.53343296566914" lon="12.025367288995328"><ele>566.0</ele><time>2026-04-04T15:07:05.852Z</time></trkpt><trkpt lat="42.53350315319122" lon="12.02540449643909"><ele>567.0</ele><time>2026-04-04T15:07:09.854Z</time></trkpt><trkpt lat="42.5335722737819" lon="12.025448169420505"><ele>568.0</ele><time>2026-04-04T15:07:13.854Z</time></trkpt><trkpt lat="42.53362868511248" lon="12.025486134927256"><ele>568.0</ele><time>2026-04-04T15:07:16.853Z</time></trkpt><trkpt lat="42.53370542629273" lon="12.025532424451395"><ele>568.0</ele><time>2026-04-04T15:07:20.854Z</time></trkpt><trkpt lat="42.53376881560486" lon="12.025557102778494"><ele>568.0</ele><time>2026-04-04T15:07:23.854Z</time></trkpt><trkpt lat="42.533839049403454" lon="12.025615853357282"><ele>568.0</ele><time>2026-04-04T15:07:27.854Z</time></trkpt><trkpt lat="42.53389890169549" lon="12.025693053134432"><ele>568.0</ele><time>2026-04-04T15:07:31.854Z</time></trkpt><trkpt lat="42.533946887891304" lon="12.025758029565859"><ele>568.0</ele><time>2026-04-04T15:07:34.854Z</time></trkpt><trkpt lat="42.533996352155356" lon="12.025824032530215"><ele>570.5</ele><time>2026-04-04T15:07:37.854Z</time></trkpt><trkpt lat="42.534045307065334" lon="12.025912481514021"><ele>573.0</ele><time>2026-04-04T15:07:40.853Z</time></trkpt><trkpt lat="42.53407932372357" lon="12.025996884780628"><ele>575.5</ele><time>2026-04-04T15:07:43.853Z</time></trkpt><trkpt lat="42.534122358970976" lon="12.026093146997388"><ele>578.0</ele><time>2026-04-04T15:07:46.853Z</time></trkpt><trkpt lat="42.53416657139467" lon="12.026197545096855"><ele>580.5</ele><time>2026-04-04T15:07:49.853Z</time></trkpt><trkpt lat="42.53421436353444" lon="12.026284948478636"><ele>583.0</ele><time>2026-04-04T15:07:52.853Z</time></trkpt><trkpt lat="42.534255380362595" lon="12.0263940916807"><ele>583.0</ele><time>2026-04-04T15:07:55.853Z</time></trkpt><trkpt lat="42.53429915822277" lon="12.026461598410767"><ele>583.0</ele><time>2026-04-04T15:07:57.853Z</time></trkpt><trkpt lat="42.53434598389321" lon="12.026550024632797"><ele>583.0</ele><time>2026-04-04T15:08:00.852Z</time></trkpt><trkpt lat="42.53436828916865" lon="12.026664673410547"><ele>583.0</ele><time>2026-04-04T15:08:03.852Z</time></trkpt><trkpt lat="42.534401768801224" lon="12.026742804504389"><ele>583.0</ele><time>2026-04-04T15:08:05.852Z</time></trkpt><trkpt lat="42.53445132490325" lon="12.026845308636753"><ele>583.0</ele><time>2026-04-04T15:08:08.852Z</time></trkpt><trkpt lat="42.53448863811136" lon="12.02694663395646"><ele>582.4</ele><time>2026-04-04T15:08:11.852Z</time></trkpt><trkpt lat="42.534531139428715" lon="12.027050188803944"><ele>581.8</ele><time>2026-04-04T15:08:14.852Z</time></trkpt><trkpt lat="42.53456131430599" lon="12.027165151227548"><ele>581.2</ele><time>2026-04-04T15:08:17.852Z</time></trkpt><trkpt lat="42.53460682042738" lon="12.027279430312724"><ele>580.6</ele><time>2026-04-04T15:08:20.852Z</time></trkpt><trkpt lat="42.534651465659984" lon="12.02738273291445"><ele>580.0</ele><time>2026-04-04T15:08:23.852Z</time></trkpt><trkpt lat="42.53470262379547" lon="12.027493833133736"><ele>581.6666666666667</ele><time>2026-04-04T15:08:26.851Z</time></trkpt><trkpt lat="42.53473195584999" lon="12.027573885240802"><ele>583.3333333333334</ele><time>2026-04-04T15:08:28.851Z</time></trkpt><trkpt lat="42.53478089199681" lon="12.027675270633454"><ele>585.0</ele><time>2026-04-04T15:08:31.851Z</time></trkpt><trkpt lat="42.53482267016017" lon="12.027761440129481"><ele>586.6666666666666</ele><time>2026-04-04T15:08:34.851Z</time></trkpt><trkpt lat="42.53486159143249" lon="12.027846535646107"><ele>588.3333333333333</ele><time>2026-04-04T15:08:37.851Z</time></trkpt><trkpt lat="42.534909772598844" lon="12.027933034651074"><ele>590.0</ele><time>2026-04-04T15:08:40.851Z</time></trkpt><trkpt lat="42.534935564971065" lon="12.028028102795144"><ele>590.0</ele><time>2026-04-04T15:08:43.851Z</time></trkpt><trkpt lat="42.53497111701846" lon="12.028124345112246"><ele>590.0</ele><time>2026-04-04T15:08:46.851Z</time></trkpt><trkpt lat="42.53500932554509" lon="12.028232047143545"><ele>590.0</ele><time>2026-04-04T15:08:49.851Z</time></trkpt><trkpt lat="42.53504894215272" lon="12.028324413239575"><ele>590.0</ele><time>2026-04-04T15:08:52.85Z</time></trkpt><trkpt lat="42.535082607162444" lon="12.02842476840136"><ele>590.0</ele><time>2026-04-04T15:08:55.85Z</time></trkpt><trkpt lat="42.53511468460745" lon="12.028522553576607"><ele>590.0</ele><time>2026-04-04T15:08:58.85Z</time></trkpt><trkpt lat="42.53514370063416" lon="12.02862251000286"><ele>589.5</ele><time>2026-04-04T15:09:01.85Z</time></trkpt><trkpt lat="42.53517468634823" lon="12.028719491225322"><ele>589.0</ele><time>2026-04-04T15:09:04.85Z</time></trkpt><trkpt lat="42.53520359532034" lon="12.02883547741165"><ele>588.5</ele><time>2026-04-04T15:09:07.85Z</time></trkpt><trkpt lat="42.53522727858111" lon="12.02894706598257"><ele>588.0</ele><time>2026-04-04T15:09:10.85Z</time></trkpt><trkpt lat="42.53523491365791" lon="12.029048878649386"><ele>587.5</ele><time>2026-04-04T15:09:13.852Z</time></trkpt><trkpt lat="42.535278443142694" lon="12.029149629036802"><ele>587.0</ele><time>2026-04-04T15:09:16.852Z</time></trkpt><trkpt lat="42.53530219949606" lon="12.029248122878409"><ele>586.6666666666666</ele><time>2026-04-04T15:09:19.851Z</time></trkpt><trkpt lat="42.53532405455399" lon="12.029361152829939"><ele>586.3333333333333</ele><time>2026-04-04T15:09:22.852Z</time></trkpt><trkpt lat="42.535338622195255" lon="12.029464974579682"><ele>586.0</ele><time>2026-04-04T15:09:24.851Z</time></trkpt><trkpt lat="42.535358738572434" lon="12.029586298778188"><ele>585.6666666666666</ele><time>2026-04-04T15:09:26.852Z</time></trkpt><trkpt lat="42.53537492768695" lon="12.029699673452837"><ele>585.3333333333334</ele><time>2026-04-04T15:09:28.852Z</time></trkpt><trkpt lat="42.53538623549613" lon="12.029823414109766"><ele>585.0</ele><time>2026-04-04T15:09:30.851Z</time></trkpt><trkpt lat="42.53541305630758" lon="12.029938340610348"><ele>588.1666666666666</ele><time>2026-04-04T15:09:32.851Z</time></trkpt><trkpt lat="42.5354243683775" lon="12.030057257170448"><ele>591.3333333333334</ele><time>2026-04-04T15:09:34.851Z</time></trkpt><trkpt lat="42.53543962088123" lon="12.030172409621391"><ele>594.5</ele><time>2026-04-04T15:09:36.851Z</time></trkpt><trkpt lat="42.535473100774894" lon="12.030277291952784"><ele>597.6666666666667</ele><time>2026-04-04T15:09:38.851Z</time></trkpt><trkpt lat="42.5355123523956" lon="12.03036586430064"><ele>600.8333333333334</ele><time>2026-04-04T15:09:40.851Z</time></trkpt><trkpt lat="42.53555375914444" lon="12.030448173771026"><ele>604.0</ele><time>2026-04-04T15:09:42.851Z</time></trkpt><trkpt lat="42.53560317633133" lon="12.030511302321898"><ele>604.0000000000001</ele><time>2026-04-04T15:09:44.851Z</time></trkpt><trkpt lat="42.53565971523921" lon="12.030559194309054"><ele>604.0</ele><time>2026-04-04T15:09:46.851Z</time></trkpt><trkpt lat="42.535721624677386" lon="12.030604688576341"><ele>604.0</ele><time>2026-04-04T15:09:48.851Z</time></trkpt><trkpt lat="42.53578753820152" lon="12.03063006259088"><ele>604.0</ele><time>2026-04-04T15:09:50.851Z</time></trkpt><trkpt lat="42.53584936591239" lon="12.0306806227083"><ele>604.0</ele><time>2026-04-04T15:09:52.851Z</time></trkpt><trkpt lat="42.53590378611405" lon="12.030726783436629"><ele>604.0000000000001</ele><time>2026-04-04T15:09:54.851Z</time></trkpt><trkpt lat="42.53596127166433" lon="12.030767907232628"><ele>604.0</ele><time>2026-04-04T15:09:56.85Z</time></trkpt><trkpt lat="42.5360468788003" lon="12.030819686009007"><ele>604.1666666666667</ele><time>2026-04-04T15:09:59.85Z</time></trkpt><trkpt lat="42.53611074423548" lon="12.03087177835645"><ele>604.3333333333334</ele><time>2026-04-04T15:10:01.85Z</time></trkpt><trkpt lat="42.536173819101705" lon="12.030910770080387"><ele>604.5</ele><time>2026-04-04T15:10:03.85Z</time></trkpt><trkpt lat="42.536251069405125" lon="12.030956563453648"><ele>604.6666666666666</ele><time>2026-04-04T15:10:05.85Z</time></trkpt><trkpt lat="42.53635150534209" lon="12.030976848777929"><ele>604.8333333333333</ele><time>2026-04-04T15:10:07.85Z</time></trkpt><trkpt lat="42.53646433655964" lon="12.0309908056233"><ele>605.0</ele><time>2026-04-04T15:10:09.85Z</time></trkpt><trkpt lat="42.536581327411255" lon="12.031006064028716"><ele>605.0</ele><time>2026-04-04T15:10:11.85Z</time></trkpt><trkpt lat="42.53664370878619" lon="12.031030157531347"><ele>605.0</ele><time>2026-04-04T15:10:12.85Z</time></trkpt><trkpt lat="42.53671487517279" lon="12.031056854341559"><ele>605.0</ele><time>2026-04-04T15:10:13.85Z</time></trkpt><trkpt lat="42.536775570164686" lon="12.031088938246725"><ele>605.0</ele><time>2026-04-04T15:10:14.85Z</time></trkpt><trkpt lat="42.53684038110921" lon="12.031103344739922"><ele>605.0</ele><time>2026-04-04T15:10:15.85Z</time></trkpt><trkpt lat="42.536958272735944" lon="12.031089148755978"><ele>605.0</ele><time>2026-04-04T15:10:17.85Z</time></trkpt><trkpt lat="42.53703590449176" lon="12.031124175229113"><ele>604.5</ele><time>2026-04-04T15:10:18.85Z</time></trkpt><trkpt lat="42.537106331168566" lon="12.031146401209813"><ele>604.0</ele><time>2026-04-04T15:10:19.85Z</time></trkpt><trkpt lat="42.5371696755738" lon="12.031213026056294"><ele>603.5</ele><time>2026-04-04T15:10:20.85Z</time></trkpt><trkpt lat="42.53723192526676" lon="12.031314336767075"><ele>603.0</ele><time>2026-04-04T15:10:21.85Z</time></trkpt><trkpt lat="42.537288938898584" lon="12.031422263935147"><ele>602.5</ele><time>2026-04-04T15:10:22.85Z</time></trkpt><trkpt lat="42.53734618971347" lon="12.031524201509905"><ele>602.0</ele><time>2026-04-04T15:10:23.849Z</time></trkpt><trkpt lat="42.53740355475637" lon="12.031611207495374"><ele>599.0</ele><time>2026-04-04T15:10:24.849Z</time></trkpt><trkpt lat="42.53746329909722" lon="12.03170605765826"><ele>596.0</ele><time>2026-04-04T15:10:25.849Z</time></trkpt><trkpt lat="42.53751135899863" lon="12.031805835849436"><ele>593.0</ele><time>2026-04-04T15:10:26.849Z</time></trkpt><trkpt lat="42.53755177308407" lon="12.031916182968985"><ele>590.0</ele><time>2026-04-04T15:10:27.849Z</time></trkpt><trkpt lat="42.53759261826218" lon="12.032026450790278"><ele>587.0</ele><time>2026-04-04T15:10:28.849Z</time></trkpt><trkpt lat="42.53762536485475" lon="12.032138200335456"><ele>587.0</ele><time>2026-04-04T15:10:29.848Z</time></trkpt><trkpt lat="42.53764500797073" lon="12.032261636124835"><ele>587.0</ele><time>2026-04-04T15:10:30.848Z</time></trkpt><trkpt lat="42.537662089838065" lon="12.032378998513046"><ele>587.0</ele><time>2026-04-04T15:10:31.848Z</time></trkpt><trkpt lat="42.53768901901182" lon="12.032494185482344"><ele>587.0</ele><time>2026-04-04T15:10:32.848Z</time></trkpt><trkpt lat="42.53771982917514" lon="12.032610223259125"><ele>587.0</ele><time>2026-04-04T15:10:33.848Z</time></trkpt><trkpt lat="42.537779182496266" lon="12.03269432759504"><ele>587.0</ele><time>2026-04-04T15:10:34.848Z</time></trkpt><trkpt lat="42.53784716977365" lon="12.032779647274593"><ele>587.5</ele><time>2026-04-04T15:10:35.848Z</time></trkpt><trkpt lat="42.53792374078569" lon="12.032843277268963"><ele>588.0</ele><time>2026-04-04T15:10:36.848Z</time></trkpt><trkpt lat="42.53798528259227" lon="12.032926596330917"><ele>588.5</ele><time>2026-04-04T15:10:37.848Z</time></trkpt><trkpt lat="42.53805102205078" lon="12.032998308681695"><ele>589.0</ele><time>2026-04-04T15:10:38.848Z</time></trkpt><trkpt lat="42.538121992599905" lon="12.033069472725268"><ele>589.5</ele><time>2026-04-04T15:10:39.848Z</time></trkpt><trkpt lat="42.53818648885427" lon="12.033121501789697"><ele>590.0</ele><time>2026-04-04T15:10:40.848Z</time></trkpt><trkpt lat="42.53824973265403" lon="12.033146403150646"><ele>590.0</ele><time>2026-04-04T15:10:41.848Z</time></trkpt><trkpt lat="42.538310477191224" lon="12.033205914733589"><ele>590.0</ele><time>2026-04-04T15:10:42.848Z</time></trkpt><trkpt lat="42.53837541885075" lon="12.033245961198379"><ele>590.0</ele><time>2026-04-04T15:10:43.848Z</time></trkpt><trkpt lat="42.53843595709589" lon="12.033292597236718"><ele>590.0</ele><time>2026-04-04T15:10:44.848Z</time></trkpt><trkpt lat="42.53849487828709" lon="12.033336982978257"><ele>590.0</ele><time>2026-04-04T15:10:45.848Z</time></trkpt><trkpt lat="42.538553113621504" lon="12.033382981905627"><ele>590.0</ele><time>2026-04-04T15:10:46.848Z</time></trkpt><trkpt lat="42.53866603461508" lon="12.033442512191568"><ele>588.6</ele><time>2026-04-04T15:10:48.848Z</time></trkpt><trkpt lat="42.53877258989695" lon="12.033502945872653"><ele>587.2</ele><time>2026-04-04T15:10:50.847Z</time></trkpt><trkpt lat="42.538866520202326" lon="12.03357331784403"><ele>585.8</ele><time>2026-04-04T15:10:52.847Z</time></trkpt><trkpt lat="42.53896627047933" lon="12.033601082913762"><ele>584.4</ele><time>2026-04-04T15:10:54.847Z</time></trkpt><trkpt lat="42.53906170578451" lon="12.033639472816757"><ele>583.0</ele><time>2026-04-04T15:10:56.847Z</time></trkpt><trkpt lat="42.53915593594772" lon="12.03366602436103"><ele>583.0</ele><time>2026-04-04T15:10:58.847Z</time></trkpt><trkpt lat="42.53924733399476" lon="12.033697433724633"><ele>583.0</ele><time>2026-04-04T15:11:00.847Z</time></trkpt><trkpt lat="42.53933459103881" lon="12.033733854705186"><ele>583.0</ele><time>2026-04-04T15:11:02.847Z</time></trkpt><trkpt lat="42.53940470605064" lon="12.03375701941938"><ele>583.0</ele><time>2026-04-04T15:11:04.847Z</time></trkpt><trkpt lat="42.5395357132462" lon="12.033773959990098"><ele>583.0</ele><time>2026-04-04T15:11:13.847Z</time></trkpt><trkpt lat="42.53962894873826" lon="12.033784538073848"><ele>581.75</ele><time>2026-04-04T15:11:16.847Z</time></trkpt><trkpt lat="42.539843934582755" lon="12.03377904243476"><ele>580.5</ele><time>2026-04-04T15:11:21.849Z</time></trkpt><trkpt lat="42.539908737221815" lon="12.033759005239324"><ele>579.25</ele><time>2026-04-04T15:11:23.849Z</time></trkpt><trkpt lat="42.53988862781083" lon="12.03389012740701"><ele>578.0</ele><time>2026-04-04T15:11:27.849Z</time></trkpt><trkpt lat="42.5397710336741" lon="12.033936617645091"><ele>578.0</ele><time>2026-04-04T15:11:29.849Z</time></trkpt><trkpt lat="42.539725348127135" lon="12.033997688134503"><ele>578.0</ele><time>2026-04-04T15:11:30.849Z</time></trkpt><trkpt lat="42.53966790051094" lon="12.034078719204857"><ele>578.0</ele><time>2026-04-04T15:11:31.848Z</time></trkpt><trkpt lat="42.539599712515205" lon="12.03416769361132"><ele>578.0</ele><time>2026-04-04T15:11:32.849Z</time></trkpt><trkpt lat="42.53953200407975" lon="12.034267904154081"><ele>578.0</ele><time>2026-04-04T15:11:33.849Z</time></trkpt><trkpt lat="42.53945248271529" lon="12.034389740419654"><ele>576.0</ele><time>2026-04-04T15:11:34.849Z</time></trkpt><trkpt lat="42.539373919221504" lon="12.034506767403174"><ele>574.0</ele><time>2026-04-04T15:11:35.848Z</time></trkpt><trkpt lat="42.53929236416155" lon="12.03462013791759"><ele>572.0</ele><time>2026-04-04T15:11:36.848Z</time></trkpt><trkpt lat="42.53921671150677" lon="12.034735071376506"><ele>570.0</ele><time>2026-04-04T15:11:37.848Z</time></trkpt><trkpt lat="42.53914904980603" lon="12.034831371175455"><ele>568.0</ele><time>2026-04-04T15:11:38.848Z</time></trkpt><trkpt lat="42.5390779099166" lon="12.034925422131236"><ele>566.3333333333334</ele><time>2026-04-04T15:11:39.848Z</time></trkpt><trkpt lat="42.53901636139201" lon="12.035009744201405"><ele>564.6666666666667</ele><time>2026-04-04T15:11:40.848Z</time></trkpt><trkpt lat="42.53895583195829" lon="12.035094902787717"><ele>563.0</ele><time>2026-04-04T15:11:41.848Z</time></trkpt><trkpt lat="42.5389037064964" lon="12.035160380749584"><ele>561.3333333333334</ele><time>2026-04-04T15:11:42.848Z</time></trkpt><trkpt lat="42.53883498917476" lon="12.035255531959995"><ele>559.6666666666666</ele><time>2026-04-04T15:11:44.848Z</time></trkpt><trkpt lat="42.53883534085494" lon="12.035345925402996"><ele>558.0</ele><time>2026-04-04T15:11:47.848Z</time></trkpt><trkpt lat="42.53889637299273" lon="12.035374040751705"><ele>558.0</ele><time>2026-04-04T15:11:51.848Z</time></trkpt><trkpt lat="42.538926011024714" lon="12.035453521837535"><ele>558.0</ele><time>2026-04-04T15:11:53.848Z</time></trkpt><trkpt lat="42.539012126465956" lon="12.035475036017528"><ele>558.0</ele><time>2026-04-04T15:11:55.848Z</time></trkpt><trkpt lat="42.5391059760505" lon="12.035520826517208"><ele>558.0</ele><time>2026-04-04T15:11:57.848Z</time></trkpt><trkpt lat="42.53920514993209" lon="12.035561691896413"><ele>558.0</ele><time>2026-04-04T15:11:59.848Z</time></trkpt><trkpt lat="42.53931364735821" lon="12.035585021345366"><ele>558.0</ele><time>2026-04-04T15:12:01.848Z</time></trkpt><trkpt lat="42.539436750797" lon="12.035615292824943"><ele>558.0</ele><time>2026-04-04T15:12:03.847Z</time></trkpt><trkpt lat="42.539549044066874" lon="12.035646632893"><ele>558.0</ele><time>2026-04-04T15:12:05.847Z</time></trkpt><trkpt lat="42.53966659829564" lon="12.035678137711999"><ele>558.0</ele><time>2026-04-04T15:12:07.847Z</time></trkpt><trkpt lat="42.53972775700808" lon="12.035705093488135"><ele>558.0</ele><time>2026-04-04T15:12:08.847Z</time></trkpt><trkpt lat="42.539790721144236" lon="12.035723629307999"><ele>558.6</ele><time>2026-04-04T15:12:09.847Z</time></trkpt><trkpt lat="42.5399092701132" lon="12.035754553775506"><ele>559.1999999999999</ele><time>2026-04-04T15:12:11.847Z</time></trkpt><trkpt lat="42.53997220047817" lon="12.035770651218174"><ele>559.8</ele><time>2026-04-04T15:12:12.847Z</time></trkpt><trkpt lat="42.540090535757656" lon="12.035787916228651"><ele>560.4</ele><time>2026-04-04T15:12:14.847Z</time></trkpt><trkpt lat="42.54021049363449" lon="12.035822871087667"><ele>561.0</ele><time>2026-04-04T15:12:16.847Z</time></trkpt><trkpt lat="42.5403260195908" lon="12.035847462758527"><ele>559.6</ele><time>2026-04-04T15:12:18.847Z</time></trkpt><trkpt lat="42.54045488799552" lon="12.035884856395956"><ele>558.2</ele><time>2026-04-04T15:12:20.847Z</time></trkpt><trkpt lat="42.54052715286786" lon="12.035882866237252"><ele>556.8</ele><time>2026-04-04T15:12:21.847Z</time></trkpt><trkpt lat="42.54059666834687" lon="12.035890605749142"><ele>555.4</ele><time>2026-04-04T15:12:22.847Z</time></trkpt><trkpt lat="42.5407151280872" lon="12.035906092689677"><ele>554.0</ele><time>2026-04-04T15:12:24.847Z</time></trkpt><trkpt lat="42.540781939228054" lon="12.035913625958251"><ele>554.0</ele><time>2026-04-04T15:12:25.847Z</time></trkpt><trkpt lat="42.540848677083666" lon="12.035933387772081"><ele>554.0</ele><time>2026-04-04T15:12:26.847Z</time></trkpt><trkpt lat="42.540923954279904" lon="12.03593396428457"><ele>554.0</ele><time>2026-04-04T15:12:27.847Z</time></trkpt><trkpt lat="42.541001248988294" lon="12.035933470991184"><ele>554.0</ele><time>2026-04-04T15:12:28.847Z</time></trkpt><trkpt lat="42.541082361873414" lon="12.035951430379031"><ele>554.0</ele><time>2026-04-04T15:12:29.846Z</time></trkpt><trkpt lat="42.541158975735705" lon="12.03597669127503"><ele>554.0</ele><time>2026-04-04T15:12:30.846Z</time></trkpt><trkpt lat="42.54123449595147" lon="12.035995877617632"><ele>552.0</ele><time>2026-04-04T15:12:31.846Z</time></trkpt><trkpt lat="42.54131704266883" lon="12.036019052283958"><ele>550.0</ele><time>2026-04-04T15:12:32.846Z</time></trkpt><trkpt lat="42.54139058267346" lon="12.03604493543878"><ele>548.0</ele><time>2026-04-04T15:12:33.846Z</time></trkpt><trkpt lat="42.54146821069841" lon="12.03606963251314"><ele>546.0</ele><time>2026-04-04T15:12:34.846Z</time></trkpt><trkpt lat="42.54154285056421" lon="12.03609320513967"><ele>544.0</ele><time>2026-04-04T15:12:35.846Z</time></trkpt><trkpt lat="42.541615987329095" lon="12.036118575311606"><ele>542.0</ele><time>2026-04-04T15:12:36.846Z</time></trkpt><trkpt lat="42.54169508161685" lon="12.036144637352649"><ele>542.0</ele><time>2026-04-04T15:12:37.846Z</time></trkpt><trkpt lat="42.54178199182466" lon="12.036172854019538"><ele>542.0</ele><time>2026-04-04T15:12:38.846Z</time></trkpt><trkpt lat="42.5418514068486" lon="12.036190440878979"><ele>542.0</ele><time>2026-04-04T15:12:39.846Z</time></trkpt><trkpt lat="42.54193265155386" lon="12.036222012476532"><ele>542.0</ele><time>2026-04-04T15:12:40.846Z</time></trkpt><trkpt lat="42.54201505837477" lon="12.03626854170858"><ele>542.0</ele><time>2026-04-04T15:12:41.846Z</time></trkpt><trkpt lat="42.542090477294344" lon="12.036324510913715"><ele>542.0</ele><time>2026-04-04T15:12:42.846Z</time></trkpt><trkpt lat="42.542154627775" lon="12.036377758401548"><ele>541.1666666666666</ele><time>2026-04-04T15:12:43.846Z</time></trkpt><trkpt lat="42.5422422352415" lon="12.03643002217549"><ele>540.3333333333333</ele><time>2026-04-04T15:12:44.846Z</time></trkpt><trkpt lat="42.54230913179056" lon="12.036474946535307"><ele>539.5</ele><time>2026-04-04T15:12:45.846Z</time></trkpt><trkpt lat="42.54239695602144" lon="12.036519010860747"><ele>538.6666666666666</ele><time>2026-04-04T15:12:46.846Z</time></trkpt><trkpt lat="42.54247223229234" lon="12.036574259096048"><ele>537.8333333333334</ele><time>2026-04-04T15:12:47.846Z</time></trkpt><trkpt lat="42.54254752461347" lon="12.036622854783129"><ele>537.0</ele><time>2026-04-04T15:12:48.846Z</time></trkpt><trkpt lat="42.54261787174817" lon="12.036688395632728"><ele>537.0</ele><time>2026-04-04T15:12:49.846Z</time></trkpt><trkpt lat="42.542681125020025" lon="12.036751067123209"><ele>537.0</ele><time>2026-04-04T15:12:50.846Z</time></trkpt><trkpt lat="42.542735477746575" lon="12.036830757165"><ele>537.0</ele><time>2026-04-04T15:12:51.846Z</time></trkpt><trkpt lat="42.54279653049535" lon="12.036908774007829"><ele>537.0</ele><time>2026-04-04T15:12:52.846Z</time></trkpt><trkpt lat="42.54284380366162" lon="12.037004682109368"><ele>537.0</ele><time>2026-04-04T15:12:53.846Z</time></trkpt><trkpt lat="42.542885578789694" lon="12.037099814018726"><ele>537.0</ele><time>2026-04-04T15:12:54.846Z</time></trkpt><trkpt lat="42.54292219779764" lon="12.037189348987896"><ele>537.0</ele><time>2026-04-04T15:12:55.846Z</time></trkpt><trkpt lat="42.54295603488303" lon="12.037274703527851"><ele>537.0</ele><time>2026-04-04T15:12:56.845Z</time></trkpt><trkpt lat="42.54298755545971" lon="12.037372672993378"><ele>537.0</ele><time>2026-04-04T15:12:57.845Z</time></trkpt><trkpt lat="42.54300963623565" lon="12.037475053965156"><ele>537.0</ele><time>2026-04-04T15:12:58.845Z</time></trkpt><trkpt lat="42.54305385646503" lon="12.037574053874168"><ele>537.0</ele><time>2026-04-04T15:12:59.845Z</time></trkpt><trkpt lat="42.54309133417658" lon="12.03766019191719"><ele>537.0</ele><time>2026-04-04T15:13:00.845Z</time></trkpt><trkpt lat="42.54312645389269" lon="12.037741931625973"><ele>536.5</ele><time>2026-04-04T15:13:01.845Z</time></trkpt><trkpt lat="42.54317334625709" lon="12.037815860563965"><ele>536.0</ele><time>2026-04-04T15:13:02.845Z</time></trkpt><trkpt lat="42.54321321056585" lon="12.037888332690336"><ele>535.5</ele><time>2026-04-04T15:13:03.845Z</time></trkpt><trkpt lat="42.543256877243124" lon="12.037961435217175"><ele>535.0</ele><time>2026-04-04T15:13:04.845Z</time></trkpt><trkpt lat="42.543308714406734" lon="12.03804011582546"><ele>534.5</ele><time>2026-04-04T15:13:05.845Z</time></trkpt><trkpt lat="42.543367117512084" lon="12.038113096126423"><ele>534.0</ele><time>2026-04-04T15:13:06.845Z</time></trkpt><trkpt lat="42.54343751341227" lon="12.038180472542646"><ele>534.0</ele><time>2026-04-04T15:13:07.845Z</time></trkpt><trkpt lat="42.543512906856" lon="12.0382406764748"><ele>534.0</ele><time>2026-04-04T15:13:08.845Z</time></trkpt><trkpt lat="42.54359557490505" lon="12.0382811817197"><ele>534.0</ele><time>2026-04-04T15:13:09.845Z</time></trkpt><trkpt lat="42.54366620784392" lon="12.038305582126481"><ele>534.0</ele><time>2026-04-04T15:13:10.845Z</time></trkpt><trkpt lat="42.54372388620704" lon="12.038340023847626"><ele>534.0</ele><time>2026-04-04T15:13:11.845Z</time></trkpt><trkpt lat="42.54379680415872" lon="12.038398288302687"><ele>534.0</ele><time>2026-04-04T15:13:13.845Z</time></trkpt><trkpt lat="42.54377884852402" lon="12.038559366070448"><ele>533.3333333333334</ele><time>2026-04-04T15:13:15.845Z</time></trkpt><trkpt lat="42.54374783094071" lon="12.038679265867092"><ele>532.6666666666666</ele><time>2026-04-04T15:13:17.845Z</time></trkpt><trkpt lat="42.543731728924115" lon="12.038790037669346"><ele>532.0</ele><time>2026-04-04T15:13:19.845Z</time></trkpt><trkpt lat="42.54368654487506" lon="12.038889893591303"><ele>531.3333333333333</ele><time>2026-04-04T15:13:21.845Z</time></trkpt><trkpt lat="42.5436221109379" lon="12.038931782658208"><ele>530.6666666666666</ele><time>2026-04-04T15:13:24.844Z</time></trkpt><trkpt lat="42.543560811848614" lon="12.038975670767819"><ele>530.0</ele><time>2026-04-04T15:13:28.848Z</time></trkpt><trkpt lat="42.54349944127213" lon="12.039013935556802"><ele>530.0</ele><time>2026-04-04T15:13:31.847Z</time></trkpt><trkpt lat="42.543564200954734" lon="12.03892272378649"><ele>530.0</ele><time>2026-04-04T15:13:32.989Z</time></trkpt><trkpt lat="42.54360261281723" lon="12.038780177770347"><ele>530.0</ele><time>2026-04-04T15:13:45.804Z</time></trkpt></trkseg></trk></gpx>